<?xml version="1.0" encoding="UTF-8" standalone="no" ?>
<gpx xmlns="http://www.topografix.com/GPX/1/1" xmlns:xsi="http://www.w3.org/2001/XMLSchema-instance" xsi:schemaLocation="http://www.topografix.com/GPX/1/1 http://www.topografix.com/GPX/1/1/gpx.xsd" version="1.1" creator="VisuGPX - https://www.visugpx.com">
  <metadata>
    <name>50 km - La Beaujolaise 2014 - Le Touquet</name>
    <desc><![CDATA[Début très roulant, passage par les remparts de Montreuil, une fin d\'apothéose dans des singles de la forêt du Touquet.]]></desc>
  </metadata>
  <trk>
    <name><![CDATA[A-2014-11-23-09-31-58-1]]></name>
    <trkseg>
      <trkpt lat="50.52463" lon="1.604">
        <ele>0.4</ele>
        <time>2014-11-23T08:31:58Z</time>
      </trkpt>
      <trkpt lat="50.52464" lon="1.60401">
        <ele>0.4</ele>
        <time>2014-11-23T08:32:00Z</time>
      </trkpt>
      <trkpt lat="50.52469" lon="1.60409">
        <ele>5.1</ele>
        <time>2014-11-23T08:32:03Z</time>
      </trkpt>
      <trkpt lat="50.52482" lon="1.60431">
        <ele>5</ele>
        <time>2014-11-23T08:32:09Z</time>
      </trkpt>
      <trkpt lat="50.5249" lon="1.6044">
        <ele>5</ele>
        <time>2014-11-23T08:32:12Z</time>
      </trkpt>
      <trkpt lat="50.52497" lon="1.60439">
        <ele>-0.4</ele>
        <time>2014-11-23T08:32:14Z</time>
      </trkpt>
      <trkpt lat="50.52501" lon="1.60437">
        <ele>-0.8</ele>
        <time>2014-11-23T08:32:15Z</time>
      </trkpt>
      <trkpt lat="50.52513" lon="1.60425">
        <ele>-0.6</ele>
        <time>2014-11-23T08:32:19Z</time>
      </trkpt>
      <trkpt lat="50.52528" lon="1.60401">
        <ele>-1.2</ele>
        <time>2014-11-23T08:32:25Z</time>
      </trkpt>
      <trkpt lat="50.52545" lon="1.60377">
        <ele>-1</ele>
        <time>2014-11-23T08:32:32Z</time>
      </trkpt>
      <trkpt lat="50.52578" lon="1.60346">
        <ele>-1.2</ele>
        <time>2014-11-23T08:32:42Z</time>
      </trkpt>
      <trkpt lat="50.52595" lon="1.60332">
        <ele>-1</ele>
        <time>2014-11-23T08:32:47Z</time>
      </trkpt>
      <trkpt lat="50.52603" lon="1.60325">
        <ele>-0.6</ele>
        <time>2014-11-23T08:32:49Z</time>
      </trkpt>
      <trkpt lat="50.5262" lon="1.60309">
        <ele>-1.8</ele>
        <time>2014-11-23T08:32:54Z</time>
      </trkpt>
      <trkpt lat="50.52627" lon="1.60303">
        <ele>-1.2</ele>
        <time>2014-11-23T08:32:56Z</time>
      </trkpt>
      <trkpt lat="50.52651" lon="1.60292">
        <ele>-1</ele>
        <time>2014-11-23T08:33:02Z</time>
      </trkpt>
      <trkpt lat="50.52654" lon="1.60291">
        <ele>-0.2</ele>
        <time>2014-11-23T08:33:03Z</time>
      </trkpt>
      <trkpt lat="50.52675" lon="1.60291">
        <ele>-1.2</ele>
        <time>2014-11-23T08:33:08Z</time>
      </trkpt>
      <trkpt lat="50.52688" lon="1.60292">
        <ele>-0.6</ele>
        <time>2014-11-23T08:33:11Z</time>
      </trkpt>
      <trkpt lat="50.52696" lon="1.60294">
        <ele>5.4</ele>
        <time>2014-11-23T08:33:13Z</time>
      </trkpt>
      <trkpt lat="50.52719" lon="1.60305">
        <ele>-0.4</ele>
        <time>2014-11-23T08:33:19Z</time>
      </trkpt>
      <trkpt lat="50.52744" lon="1.60323">
        <ele>0.8</ele>
        <time>2014-11-23T08:33:27Z</time>
      </trkpt>
      <trkpt lat="50.52762" lon="1.60352">
        <ele>5.4</ele>
        <time>2014-11-23T08:33:34Z</time>
      </trkpt>
      <trkpt lat="50.5278" lon="1.60368">
        <ele>1</ele>
        <time>2014-11-23T08:33:40Z</time>
      </trkpt>
      <trkpt lat="50.52792" lon="1.60357">
        <ele>0.8</ele>
        <time>2014-11-23T08:33:44Z</time>
      </trkpt>
      <trkpt lat="50.52812" lon="1.60325">
        <ele>0.6</ele>
        <time>2014-11-23T08:33:51Z</time>
      </trkpt>
      <trkpt lat="50.52842" lon="1.60276">
        <ele>0.8</ele>
        <time>2014-11-23T08:34:01Z</time>
      </trkpt>
      <trkpt lat="50.52845" lon="1.60271">
        <ele>1.2</ele>
        <time>2014-11-23T08:34:02Z</time>
      </trkpt>
      <trkpt lat="50.52862" lon="1.60242">
        <ele>1.8</ele>
        <time>2014-11-23T08:34:08Z</time>
      </trkpt>
      <trkpt lat="50.52882" lon="1.60204">
        <ele>1.2</ele>
        <time>2014-11-23T08:34:16Z</time>
      </trkpt>
      <trkpt lat="50.52888" lon="1.6019">
        <ele>0.6</ele>
        <time>2014-11-23T08:34:21Z</time>
      </trkpt>
      <trkpt lat="50.52896" lon="1.60184">
        <ele>-0.2</ele>
        <time>2014-11-23T08:34:27Z</time>
      </trkpt>
      <trkpt lat="50.52898" lon="1.60184">
        <ele>-0.4</ele>
        <time>2014-11-23T08:34:28Z</time>
      </trkpt>
      <trkpt lat="50.52907" lon="1.60198">
        <ele>-0.6</ele>
        <time>2014-11-23T08:34:32Z</time>
      </trkpt>
      <trkpt lat="50.52911" lon="1.60206">
        <ele>-1</ele>
        <time>2014-11-23T08:34:34Z</time>
      </trkpt>
      <trkpt lat="50.5292" lon="1.60217">
        <ele>-0.6</ele>
        <time>2014-11-23T08:34:37Z</time>
      </trkpt>
      <trkpt lat="50.52929" lon="1.60229">
        <ele>-1</ele>
        <time>2014-11-23T08:34:40Z</time>
      </trkpt>
      <trkpt lat="50.52938" lon="1.60244">
        <ele>-0.6</ele>
        <time>2014-11-23T08:34:44Z</time>
      </trkpt>
      <trkpt lat="50.5295" lon="1.60275">
        <ele>-0.2</ele>
        <time>2014-11-23T08:34:51Z</time>
      </trkpt>
      <trkpt lat="50.52949" lon="1.60303">
        <ele>-0.2</ele>
        <time>2014-11-23T08:34:56Z</time>
      </trkpt>
      <trkpt lat="50.52937" lon="1.60333">
        <ele>-0.6</ele>
        <time>2014-11-23T08:35:02Z</time>
      </trkpt>
      <trkpt lat="50.52929" lon="1.60342">
        <ele>-0.6</ele>
        <time>2014-11-23T08:35:06Z</time>
      </trkpt>
      <trkpt lat="50.52924" lon="1.60356">
        <ele>-0.6</ele>
        <time>2014-11-23T08:35:11Z</time>
      </trkpt>
      <trkpt lat="50.52923" lon="1.60361">
        <ele>-0.8</ele>
        <time>2014-11-23T08:35:12Z</time>
      </trkpt>
      <trkpt lat="50.52915" lon="1.60379">
        <ele>-1.4</ele>
        <time>2014-11-23T08:35:16Z</time>
      </trkpt>
      <trkpt lat="50.52895" lon="1.60421">
        <ele>-1.6</ele>
        <time>2014-11-23T08:35:25Z</time>
      </trkpt>
      <trkpt lat="50.52883" lon="1.60442">
        <ele>-0.8</ele>
        <time>2014-11-23T08:35:30Z</time>
      </trkpt>
      <trkpt lat="50.52867" lon="1.60476">
        <ele>-1.2</ele>
        <time>2014-11-23T08:35:38Z</time>
      </trkpt>
      <trkpt lat="50.52856" lon="1.60499">
        <ele>-1</ele>
        <time>2014-11-23T08:35:44Z</time>
      </trkpt>
      <trkpt lat="50.52841" lon="1.60528">
        <ele>-1</ele>
        <time>2014-11-23T08:35:51Z</time>
      </trkpt>
      <trkpt lat="50.52825" lon="1.60555">
        <ele>-1.2</ele>
        <time>2014-11-23T08:35:58Z</time>
      </trkpt>
      <trkpt lat="50.52814" lon="1.60574">
        <ele>-0.8</ele>
        <time>2014-11-23T08:36:04Z</time>
      </trkpt>
      <trkpt lat="50.52806" lon="1.6058">
        <ele>-1</ele>
        <time>2014-11-23T08:36:09Z</time>
      </trkpt>
      <trkpt lat="50.52798" lon="1.60593">
        <ele>0.4</ele>
        <time>2014-11-23T08:36:14Z</time>
      </trkpt>
      <trkpt lat="50.52797" lon="1.60596">
        <ele>0.4</ele>
        <time>2014-11-23T08:36:15Z</time>
      </trkpt>
      <trkpt lat="50.52783" lon="1.60623">
        <ele>0.2</ele>
        <time>2014-11-23T08:36:23Z</time>
      </trkpt>
      <trkpt lat="50.5277" lon="1.60648">
        <ele>0.6</ele>
        <time>2014-11-23T08:36:30Z</time>
      </trkpt>
      <trkpt lat="50.52768" lon="1.60652">
        <ele>0.4</ele>
        <time>2014-11-23T08:36:31Z</time>
      </trkpt>
      <trkpt lat="50.52757" lon="1.60676">
        <ele>0.6</ele>
        <time>2014-11-23T08:36:37Z</time>
      </trkpt>
      <trkpt lat="50.52744" lon="1.607">
        <ele>0.6</ele>
        <time>2014-11-23T08:36:44Z</time>
      </trkpt>
      <trkpt lat="50.52734" lon="1.60721">
        <ele>1</ele>
        <time>2014-11-23T08:36:50Z</time>
      </trkpt>
      <trkpt lat="50.52718" lon="1.60752">
        <ele>1</ele>
        <time>2014-11-23T08:36:58Z</time>
      </trkpt>
      <trkpt lat="50.52706" lon="1.60781">
        <ele>0.4</ele>
        <time>2014-11-23T08:37:05Z</time>
      </trkpt>
      <trkpt lat="50.527" lon="1.60813">
        <ele>-0.2</ele>
        <time>2014-11-23T08:37:12Z</time>
      </trkpt>
      <trkpt lat="50.527" lon="1.60839">
        <ele>0.4</ele>
        <time>2014-11-23T08:37:17Z</time>
      </trkpt>
      <trkpt lat="50.52701" lon="1.6087">
        <ele>4.2</ele>
        <time>2014-11-23T08:37:23Z</time>
      </trkpt>
      <trkpt lat="50.527" lon="1.60898">
        <ele>0.6</ele>
        <time>2014-11-23T08:37:29Z</time>
      </trkpt>
      <trkpt lat="50.52694" lon="1.60931">
        <ele>5</ele>
        <time>2014-11-23T08:37:36Z</time>
      </trkpt>
      <trkpt lat="50.52685" lon="1.60959">
        <ele>0.4</ele>
        <time>2014-11-23T08:37:43Z</time>
      </trkpt>
      <trkpt lat="50.52673" lon="1.60981">
        <ele>5</ele>
        <time>2014-11-23T08:37:49Z</time>
      </trkpt>
      <trkpt lat="50.52654" lon="1.6101">
        <ele>1</ele>
        <time>2014-11-23T08:37:57Z</time>
      </trkpt>
      <trkpt lat="50.52629" lon="1.61051">
        <ele>0.8</ele>
        <time>2014-11-23T08:38:06Z</time>
      </trkpt>
      <trkpt lat="50.52608" lon="1.61087">
        <ele>0.2</ele>
        <time>2014-11-23T08:38:14Z</time>
      </trkpt>
      <trkpt lat="50.52592" lon="1.61112">
        <ele>0.2</ele>
        <time>2014-11-23T08:38:21Z</time>
      </trkpt>
      <trkpt lat="50.52578" lon="1.61134">
        <ele>0.4</ele>
        <time>2014-11-23T08:38:27Z</time>
      </trkpt>
      <trkpt lat="50.52566" lon="1.61153">
        <ele>-0.6</ele>
        <time>2014-11-23T08:38:32Z</time>
      </trkpt>
      <trkpt lat="50.52559" lon="1.61165">
        <ele>-0.2</ele>
        <time>2014-11-23T08:38:35Z</time>
      </trkpt>
      <trkpt lat="50.5254" lon="1.61196">
        <ele>0.2</ele>
        <time>2014-11-23T08:38:43Z</time>
      </trkpt>
      <trkpt lat="50.5252" lon="1.61228">
        <ele>0.6</ele>
        <time>2014-11-23T08:38:51Z</time>
      </trkpt>
      <trkpt lat="50.52515" lon="1.61236">
        <ele>0.8</ele>
        <time>2014-11-23T08:38:53Z</time>
      </trkpt>
      <trkpt lat="50.52504" lon="1.61255">
        <ele>0.4</ele>
        <time>2014-11-23T08:38:58Z</time>
      </trkpt>
      <trkpt lat="50.5249" lon="1.61279">
        <ele>0.6</ele>
        <time>2014-11-23T08:39:04Z</time>
      </trkpt>
      <trkpt lat="50.52471" lon="1.61314">
        <ele>0.6</ele>
        <time>2014-11-23T08:39:12Z</time>
      </trkpt>
      <trkpt lat="50.52458" lon="1.61335">
        <ele>-0.4</ele>
        <time>2014-11-23T08:39:17Z</time>
      </trkpt>
      <trkpt lat="50.52449" lon="1.6135">
        <ele>-0.4</ele>
        <time>2014-11-23T08:39:21Z</time>
      </trkpt>
      <trkpt lat="50.52432" lon="1.61374">
        <ele>-0.2</ele>
        <time>2014-11-23T08:39:28Z</time>
      </trkpt>
      <trkpt lat="50.5242" lon="1.61395">
        <ele>0.8</ele>
        <time>2014-11-23T08:39:33Z</time>
      </trkpt>
      <trkpt lat="50.52418" lon="1.61399">
        <ele>0.8</ele>
        <time>2014-11-23T08:39:34Z</time>
      </trkpt>
      <trkpt lat="50.52398" lon="1.61432">
        <ele>0.6</ele>
        <time>2014-11-23T08:39:42Z</time>
      </trkpt>
      <trkpt lat="50.52383" lon="1.61456">
        <ele>0.6</ele>
        <time>2014-11-23T08:39:49Z</time>
      </trkpt>
      <trkpt lat="50.52363" lon="1.6149">
        <ele>0.4</ele>
        <time>2014-11-23T08:39:57Z</time>
      </trkpt>
      <trkpt lat="50.52357" lon="1.61501">
        <ele>-0.2</ele>
        <time>2014-11-23T08:40:00Z</time>
      </trkpt>
      <trkpt lat="50.52349" lon="1.61514">
        <ele>0.4</ele>
        <time>2014-11-23T08:40:04Z</time>
      </trkpt>
      <trkpt lat="50.52347" lon="1.61518">
        <ele>4.8</ele>
        <time>2014-11-23T08:40:08Z</time>
      </trkpt>
      <trkpt lat="50.52343" lon="1.61523">
        <ele>4.9</ele>
        <time>2014-11-23T08:40:14Z</time>
      </trkpt>
      <trkpt lat="50.52335" lon="1.61536">
        <ele>0.8</ele>
        <time>2014-11-23T08:40:20Z</time>
      </trkpt>
      <trkpt lat="50.52333" lon="1.61539">
        <ele>1</ele>
        <time>2014-11-23T08:40:21Z</time>
      </trkpt>
      <trkpt lat="50.52319" lon="1.61562">
        <ele>0.8</ele>
        <time>2014-11-23T08:40:27Z</time>
      </trkpt>
      <trkpt lat="50.52314" lon="1.6157">
        <ele>0.8</ele>
        <time>2014-11-23T08:40:29Z</time>
      </trkpt>
      <trkpt lat="50.52296" lon="1.61599">
        <ele>1</ele>
        <time>2014-11-23T08:40:36Z</time>
      </trkpt>
      <trkpt lat="50.52278" lon="1.61631">
        <ele>0.4</ele>
        <time>2014-11-23T08:40:43Z</time>
      </trkpt>
      <trkpt lat="50.52258" lon="1.61664">
        <ele>0.6</ele>
        <time>2014-11-23T08:40:51Z</time>
      </trkpt>
      <trkpt lat="50.52237" lon="1.61697">
        <ele>1.2</ele>
        <time>2014-11-23T08:40:59Z</time>
      </trkpt>
      <trkpt lat="50.52217" lon="1.6173">
        <ele>1.2</ele>
        <time>2014-11-23T08:41:07Z</time>
      </trkpt>
      <trkpt lat="50.52197" lon="1.61764">
        <ele>0.8</ele>
        <time>2014-11-23T08:41:15Z</time>
      </trkpt>
      <trkpt lat="50.52176" lon="1.61797">
        <ele>0.8</ele>
        <time>2014-11-23T08:41:23Z</time>
      </trkpt>
      <trkpt lat="50.52154" lon="1.61835">
        <ele>0.6</ele>
        <time>2014-11-23T08:41:32Z</time>
      </trkpt>
      <trkpt lat="50.52137" lon="1.61865">
        <ele>0.6</ele>
        <time>2014-11-23T08:41:39Z</time>
      </trkpt>
      <trkpt lat="50.52123" lon="1.61885">
        <ele>0.8</ele>
        <time>2014-11-23T08:41:45Z</time>
      </trkpt>
      <trkpt lat="50.52107" lon="1.61915">
        <ele>0.4</ele>
        <time>2014-11-23T08:41:53Z</time>
      </trkpt>
      <trkpt lat="50.52089" lon="1.61943">
        <ele>1.2</ele>
        <time>2014-11-23T08:42:01Z</time>
      </trkpt>
      <trkpt lat="50.52064" lon="1.61981">
        <ele>1.2</ele>
        <time>2014-11-23T08:42:11Z</time>
      </trkpt>
      <trkpt lat="50.52045" lon="1.62013">
        <ele>0.4</ele>
        <time>2014-11-23T08:42:19Z</time>
      </trkpt>
      <trkpt lat="50.52024" lon="1.6205">
        <ele>1</ele>
        <time>2014-11-23T08:42:28Z</time>
      </trkpt>
      <trkpt lat="50.5202" lon="1.62058">
        <ele>0.4</ele>
        <time>2014-11-23T08:42:30Z</time>
      </trkpt>
      <trkpt lat="50.52004" lon="1.62083">
        <ele>0.4</ele>
        <time>2014-11-23T08:42:37Z</time>
      </trkpt>
      <trkpt lat="50.51988" lon="1.62108">
        <ele>0.6</ele>
        <time>2014-11-23T08:42:44Z</time>
      </trkpt>
      <trkpt lat="50.51968" lon="1.62139">
        <ele>1</ele>
        <time>2014-11-23T08:42:52Z</time>
      </trkpt>
      <trkpt lat="50.51948" lon="1.62162">
        <ele>0.2</ele>
        <time>2014-11-23T08:42:59Z</time>
      </trkpt>
      <trkpt lat="50.51924" lon="1.62191">
        <ele>0.8</ele>
        <time>2014-11-23T08:43:07Z</time>
      </trkpt>
      <trkpt lat="50.51907" lon="1.62223">
        <ele>0.2</ele>
        <time>2014-11-23T08:43:15Z</time>
      </trkpt>
      <trkpt lat="50.51894" lon="1.6224">
        <ele>1</ele>
        <time>2014-11-23T08:43:21Z</time>
      </trkpt>
      <trkpt lat="50.51878" lon="1.62268">
        <ele>0.8</ele>
        <time>2014-11-23T08:43:29Z</time>
      </trkpt>
      <trkpt lat="50.51859" lon="1.62299">
        <ele>0.4</ele>
        <time>2014-11-23T08:43:38Z</time>
      </trkpt>
      <trkpt lat="50.51845" lon="1.62323">
        <ele>1</ele>
        <time>2014-11-23T08:43:45Z</time>
      </trkpt>
      <trkpt lat="50.51827" lon="1.62354">
        <ele>0.8</ele>
        <time>2014-11-23T08:43:54Z</time>
      </trkpt>
      <trkpt lat="50.51808" lon="1.62385">
        <ele>1</ele>
        <time>2014-11-23T08:44:03Z</time>
      </trkpt>
      <trkpt lat="50.51797" lon="1.62403">
        <ele>0.2</ele>
        <time>2014-11-23T08:44:08Z</time>
      </trkpt>
      <trkpt lat="50.51784" lon="1.62426">
        <ele>0.2</ele>
        <time>2014-11-23T08:44:14Z</time>
      </trkpt>
      <trkpt lat="50.51771" lon="1.62445">
        <ele>0.4</ele>
        <time>2014-11-23T08:44:20Z</time>
      </trkpt>
      <trkpt lat="50.51754" lon="1.62474">
        <ele>0.6</ele>
        <time>2014-11-23T08:44:28Z</time>
      </trkpt>
      <trkpt lat="50.5174" lon="1.62498">
        <ele>0.2</ele>
        <time>2014-11-23T08:44:35Z</time>
      </trkpt>
      <trkpt lat="50.51728" lon="1.62516">
        <ele>0.8</ele>
        <time>2014-11-23T08:44:41Z</time>
      </trkpt>
      <trkpt lat="50.51711" lon="1.62544">
        <ele>1</ele>
        <time>2014-11-23T08:44:49Z</time>
      </trkpt>
      <trkpt lat="50.51701" lon="1.62561">
        <ele>1.2</ele>
        <time>2014-11-23T08:44:54Z</time>
      </trkpt>
      <trkpt lat="50.51682" lon="1.62591">
        <ele>0.6</ele>
        <time>2014-11-23T08:45:03Z</time>
      </trkpt>
      <trkpt lat="50.5167" lon="1.62612">
        <ele>0.4</ele>
        <time>2014-11-23T08:45:09Z</time>
      </trkpt>
      <trkpt lat="50.51652" lon="1.62639">
        <ele>0.6</ele>
        <time>2014-11-23T08:45:17Z</time>
      </trkpt>
      <trkpt lat="50.51635" lon="1.62668">
        <ele>0.6</ele>
        <time>2014-11-23T08:45:25Z</time>
      </trkpt>
      <trkpt lat="50.51621" lon="1.62691">
        <ele>1.2</ele>
        <time>2014-11-23T08:45:32Z</time>
      </trkpt>
      <trkpt lat="50.51612" lon="1.62705">
        <ele>1</ele>
        <time>2014-11-23T08:45:38Z</time>
      </trkpt>
      <trkpt lat="50.51606" lon="1.62717">
        <ele>0.6</ele>
        <time>2014-11-23T08:45:43Z</time>
      </trkpt>
      <trkpt lat="50.51605" lon="1.6272">
        <ele>0.4</ele>
        <time>2014-11-23T08:45:44Z</time>
      </trkpt>
      <trkpt lat="50.516" lon="1.62732">
        <ele>-0.4</ele>
        <time>2014-11-23T08:45:47Z</time>
      </trkpt>
      <trkpt lat="50.51598" lon="1.62736">
        <ele>-0.6</ele>
        <time>2014-11-23T08:45:48Z</time>
      </trkpt>
      <trkpt lat="50.51582" lon="1.62762">
        <ele>-1</ele>
        <time>2014-11-23T08:45:55Z</time>
      </trkpt>
      <trkpt lat="50.51581" lon="1.62767">
        <ele>-1.2</ele>
        <time>2014-11-23T08:45:56Z</time>
      </trkpt>
      <trkpt lat="50.51574" lon="1.62783">
        <ele>-0.2</ele>
        <time>2014-11-23T08:45:59Z</time>
      </trkpt>
      <trkpt lat="50.51567" lon="1.62792">
        <ele>-0.2</ele>
        <time>2014-11-23T08:46:01Z</time>
      </trkpt>
      <trkpt lat="50.51552" lon="1.62816">
        <ele>-1.6</ele>
        <time>2014-11-23T08:46:06Z</time>
      </trkpt>
      <trkpt lat="50.51523" lon="1.62863">
        <ele>-2.2</ele>
        <time>2014-11-23T08:46:15Z</time>
      </trkpt>
      <trkpt lat="50.5149" lon="1.62914">
        <ele>-1.8</ele>
        <time>2014-11-23T08:46:25Z</time>
      </trkpt>
      <trkpt lat="50.51481" lon="1.62929">
        <ele>-0.4</ele>
        <time>2014-11-23T08:46:28Z</time>
      </trkpt>
      <trkpt lat="50.51463" lon="1.62956">
        <ele>-0.8</ele>
        <time>2014-11-23T08:46:34Z</time>
      </trkpt>
      <trkpt lat="50.51444" lon="1.62987">
        <ele>-1.4</ele>
        <time>2014-11-23T08:46:41Z</time>
      </trkpt>
      <trkpt lat="50.51442" lon="1.62991">
        <ele>-1.4</ele>
        <time>2014-11-23T08:46:42Z</time>
      </trkpt>
      <trkpt lat="50.51417" lon="1.63031">
        <ele>-0.2</ele>
        <time>2014-11-23T08:46:51Z</time>
      </trkpt>
      <trkpt lat="50.51414" lon="1.63035">
        <ele>-0.4</ele>
        <time>2014-11-23T08:46:52Z</time>
      </trkpt>
      <trkpt lat="50.51397" lon="1.63064">
        <ele>-0.4</ele>
        <time>2014-11-23T08:46:59Z</time>
      </trkpt>
      <trkpt lat="50.51371" lon="1.63102">
        <ele>-0.8</ele>
        <time>2014-11-23T08:47:07Z</time>
      </trkpt>
      <trkpt lat="50.51353" lon="1.63135">
        <ele>-1</ele>
        <time>2014-11-23T08:47:13Z</time>
      </trkpt>
      <trkpt lat="50.51349" lon="1.6314">
        <ele>-1</ele>
        <time>2014-11-23T08:47:14Z</time>
      </trkpt>
      <trkpt lat="50.51326" lon="1.63177">
        <ele>-1</ele>
        <time>2014-11-23T08:47:21Z</time>
      </trkpt>
      <trkpt lat="50.51312" lon="1.63197">
        <ele>-0.6</ele>
        <time>2014-11-23T08:47:25Z</time>
      </trkpt>
      <trkpt lat="50.51308" lon="1.63203">
        <ele>-1</ele>
        <time>2014-11-23T08:47:26Z</time>
      </trkpt>
      <trkpt lat="50.51283" lon="1.63241">
        <ele>-0.8</ele>
        <time>2014-11-23T08:47:33Z</time>
      </trkpt>
      <trkpt lat="50.51261" lon="1.63279">
        <ele>-0.6</ele>
        <time>2014-11-23T08:47:40Z</time>
      </trkpt>
      <trkpt lat="50.51256" lon="1.63288">
        <ele>0.4</ele>
        <time>2014-11-23T08:47:42Z</time>
      </trkpt>
      <trkpt lat="50.51243" lon="1.63314">
        <ele>1</ele>
        <time>2014-11-23T08:47:47Z</time>
      </trkpt>
      <trkpt lat="50.51224" lon="1.63346">
        <ele>0.4</ele>
        <time>2014-11-23T08:47:53Z</time>
      </trkpt>
      <trkpt lat="50.51213" lon="1.6336">
        <ele>0.4</ele>
        <time>2014-11-23T08:47:56Z</time>
      </trkpt>
      <trkpt lat="50.5121" lon="1.63365">
        <ele>0.2</ele>
        <time>2014-11-23T08:47:57Z</time>
      </trkpt>
      <trkpt lat="50.51199" lon="1.63387">
        <ele>0.8</ele>
        <time>2014-11-23T08:48:01Z</time>
      </trkpt>
      <trkpt lat="50.51181" lon="1.63417">
        <ele>1.6</ele>
        <time>2014-11-23T08:48:08Z</time>
      </trkpt>
      <trkpt lat="50.51179" lon="1.63419">
        <ele>1.8</ele>
        <time>2014-11-23T08:48:09Z</time>
      </trkpt>
      <trkpt lat="50.51173" lon="1.63419">
        <ele>1.8</ele>
        <time>2014-11-23T08:48:11Z</time>
      </trkpt>
      <trkpt lat="50.51171" lon="1.63415">
        <ele>1.6</ele>
        <time>2014-11-23T08:48:12Z</time>
      </trkpt>
      <trkpt lat="50.51158" lon="1.6339">
        <ele>1.4</ele>
        <time>2014-11-23T08:48:17Z</time>
      </trkpt>
      <trkpt lat="50.51138" lon="1.63358">
        <ele>1</ele>
        <time>2014-11-23T08:48:23Z</time>
      </trkpt>
      <trkpt lat="50.51108" lon="1.63313">
        <ele>0.8</ele>
        <time>2014-11-23T08:48:31Z</time>
      </trkpt>
      <trkpt lat="50.51104" lon="1.63307">
        <ele>0.8</ele>
        <time>2014-11-23T08:48:32Z</time>
      </trkpt>
      <trkpt lat="50.51089" lon="1.63273">
        <ele>1</ele>
        <time>2014-11-23T08:48:37Z</time>
      </trkpt>
      <trkpt lat="50.51082" lon="1.6326">
        <ele>0.8</ele>
        <time>2014-11-23T08:48:39Z</time>
      </trkpt>
      <trkpt lat="50.51066" lon="1.63238">
        <ele>5.5</ele>
        <time>2014-11-23T08:48:43Z</time>
      </trkpt>
      <trkpt lat="50.51057" lon="1.63227">
        <ele>0.2</ele>
        <time>2014-11-23T08:48:45Z</time>
      </trkpt>
      <trkpt lat="50.51053" lon="1.63212">
        <ele>0.4</ele>
        <time>2014-11-23T08:48:47Z</time>
      </trkpt>
      <trkpt lat="50.51047" lon="1.63198">
        <ele>0.6</ele>
        <time>2014-11-23T08:48:49Z</time>
      </trkpt>
      <trkpt lat="50.51038" lon="1.63177">
        <ele>0.6</ele>
        <time>2014-11-23T08:48:52Z</time>
      </trkpt>
      <trkpt lat="50.51025" lon="1.63131">
        <ele>0.6</ele>
        <time>2014-11-23T08:48:58Z</time>
      </trkpt>
      <trkpt lat="50.5102" lon="1.63111">
        <ele>0.4</ele>
        <time>2014-11-23T08:49:01Z</time>
      </trkpt>
      <trkpt lat="50.51013" lon="1.63105">
        <ele>0.4</ele>
        <time>2014-11-23T08:49:03Z</time>
      </trkpt>
      <trkpt lat="50.51002" lon="1.63096">
        <ele>0.2</ele>
        <time>2014-11-23T08:49:07Z</time>
      </trkpt>
      <trkpt lat="50.50995" lon="1.63089">
        <ele>6</ele>
        <time>2014-11-23T08:49:09Z</time>
      </trkpt>
      <trkpt lat="50.50986" lon="1.63086">
        <ele>6</ele>
        <time>2014-11-23T08:49:11Z</time>
      </trkpt>
      <trkpt lat="50.50973" lon="1.63094">
        <ele>0.4</ele>
        <time>2014-11-23T08:49:14Z</time>
      </trkpt>
      <trkpt lat="50.50963" lon="1.63112">
        <ele>0.2</ele>
        <time>2014-11-23T08:49:17Z</time>
      </trkpt>
      <trkpt lat="50.50959" lon="1.63117">
        <ele>0.2</ele>
        <time>2014-11-23T08:49:18Z</time>
      </trkpt>
      <trkpt lat="50.50942" lon="1.63124">
        <ele>6</ele>
        <time>2014-11-23T08:49:21Z</time>
      </trkpt>
      <trkpt lat="50.50924" lon="1.6312">
        <ele>-0.2</ele>
        <time>2014-11-23T08:49:24Z</time>
      </trkpt>
      <trkpt lat="50.50917" lon="1.63118">
        <ele>-0.2</ele>
        <time>2014-11-23T08:49:25Z</time>
      </trkpt>
      <trkpt lat="50.5089" lon="1.63106">
        <ele>-0.2</ele>
        <time>2014-11-23T08:49:30Z</time>
      </trkpt>
      <trkpt lat="50.50881" lon="1.63099">
        <ele>-0.2</ele>
        <time>2014-11-23T08:49:32Z</time>
      </trkpt>
      <trkpt lat="50.50872" lon="1.63095">
        <ele>5.8</ele>
        <time>2014-11-23T08:49:34Z</time>
      </trkpt>
      <trkpt lat="50.50857" lon="1.631">
        <ele>5.9</ele>
        <time>2014-11-23T08:49:37Z</time>
      </trkpt>
      <trkpt lat="50.50848" lon="1.63111">
        <ele>5.5</ele>
        <time>2014-11-23T08:49:39Z</time>
      </trkpt>
      <trkpt lat="50.50833" lon="1.63127">
        <ele>-0.4</ele>
        <time>2014-11-23T08:49:42Z</time>
      </trkpt>
      <trkpt lat="50.50788" lon="1.63178">
        <ele>-0.8</ele>
        <time>2014-11-23T08:49:51Z</time>
      </trkpt>
      <trkpt lat="50.50738" lon="1.63232">
        <ele>4.5</ele>
        <time>2014-11-23T08:50:01Z</time>
      </trkpt>
      <trkpt lat="50.50732" lon="1.63235">
        <ele>4.5</ele>
        <time>2014-11-23T08:50:02Z</time>
      </trkpt>
      <trkpt lat="50.50714" lon="1.63231">
        <ele>-0.2</ele>
        <time>2014-11-23T08:50:05Z</time>
      </trkpt>
      <trkpt lat="50.50704" lon="1.63223">
        <ele>-0.6</ele>
        <time>2014-11-23T08:50:07Z</time>
      </trkpt>
      <trkpt lat="50.50683" lon="1.63205">
        <ele>-0.8</ele>
        <time>2014-11-23T08:50:11Z</time>
      </trkpt>
      <trkpt lat="50.50631" lon="1.63162">
        <ele>-0.2</ele>
        <time>2014-11-23T08:50:21Z</time>
      </trkpt>
      <trkpt lat="50.5062" lon="1.63154">
        <ele>0.2</ele>
        <time>2014-11-23T08:50:23Z</time>
      </trkpt>
      <trkpt lat="50.50591" lon="1.63136">
        <ele>4.3</ele>
        <time>2014-11-23T08:50:28Z</time>
      </trkpt>
      <trkpt lat="50.50585" lon="1.63136">
        <ele>-0.2</ele>
        <time>2014-11-23T08:50:29Z</time>
      </trkpt>
      <trkpt lat="50.50569" lon="1.63151">
        <ele>4</ele>
        <time>2014-11-23T08:50:32Z</time>
      </trkpt>
      <trkpt lat="50.50558" lon="1.63175">
        <ele>0.2</ele>
        <time>2014-11-23T08:50:35Z</time>
      </trkpt>
      <trkpt lat="50.50551" lon="1.63192">
        <ele>0.4</ele>
        <time>2014-11-23T08:50:37Z</time>
      </trkpt>
      <trkpt lat="50.50539" lon="1.63213">
        <ele>0.2</ele>
        <time>2014-11-23T08:50:40Z</time>
      </trkpt>
      <trkpt lat="50.50532" lon="1.63216">
        <ele>4.6</ele>
        <time>2014-11-23T08:50:41Z</time>
      </trkpt>
      <trkpt lat="50.5052" lon="1.6321">
        <ele>-0.2</ele>
        <time>2014-11-23T08:50:43Z</time>
      </trkpt>
      <trkpt lat="50.50509" lon="1.63202">
        <ele>-0.2</ele>
        <time>2014-11-23T08:50:45Z</time>
      </trkpt>
      <trkpt lat="50.50486" lon="1.63187">
        <ele>-0.2</ele>
        <time>2014-11-23T08:50:49Z</time>
      </trkpt>
      <trkpt lat="50.50456" lon="1.63178">
        <ele>-0.4</ele>
        <time>2014-11-23T08:50:54Z</time>
      </trkpt>
      <trkpt lat="50.50451" lon="1.6318">
        <ele>-0.6</ele>
        <time>2014-11-23T08:50:55Z</time>
      </trkpt>
      <trkpt lat="50.50439" lon="1.63198">
        <ele>-1</ele>
        <time>2014-11-23T08:50:58Z</time>
      </trkpt>
      <trkpt lat="50.50432" lon="1.63214">
        <ele>-0.8</ele>
        <time>2014-11-23T08:51:00Z</time>
      </trkpt>
      <trkpt lat="50.50414" lon="1.63251">
        <ele>-0.6</ele>
        <time>2014-11-23T08:51:05Z</time>
      </trkpt>
      <trkpt lat="50.50378" lon="1.6331">
        <ele>-0.6</ele>
        <time>2014-11-23T08:51:14Z</time>
      </trkpt>
      <trkpt lat="50.50356" lon="1.6334">
        <ele>-0.8</ele>
        <time>2014-11-23T08:51:19Z</time>
      </trkpt>
      <trkpt lat="50.50345" lon="1.63347">
        <ele>-0.4</ele>
        <time>2014-11-23T08:51:21Z</time>
      </trkpt>
      <trkpt lat="50.50328" lon="1.63342">
        <ele>-1.2</ele>
        <time>2014-11-23T08:51:24Z</time>
      </trkpt>
      <trkpt lat="50.50308" lon="1.63321">
        <ele>-1</ele>
        <time>2014-11-23T08:51:28Z</time>
      </trkpt>
      <trkpt lat="50.50275" lon="1.63299">
        <ele>-1</ele>
        <time>2014-11-23T08:51:34Z</time>
      </trkpt>
      <trkpt lat="50.50267" lon="1.63275">
        <ele>-1.4</ele>
        <time>2014-11-23T08:51:37Z</time>
      </trkpt>
      <trkpt lat="50.50269" lon="1.63239">
        <ele>-0.8</ele>
        <time>2014-11-23T08:51:41Z</time>
      </trkpt>
      <trkpt lat="50.50261" lon="1.63216">
        <ele>-0.6</ele>
        <time>2014-11-23T08:51:44Z</time>
      </trkpt>
      <trkpt lat="50.50247" lon="1.63206">
        <ele>-0.4</ele>
        <time>2014-11-23T08:51:47Z</time>
      </trkpt>
      <trkpt lat="50.50242" lon="1.63203">
        <ele>-0.6</ele>
        <time>2014-11-23T08:51:48Z</time>
      </trkpt>
      <trkpt lat="50.50222" lon="1.6319">
        <ele>-0.4</ele>
        <time>2014-11-23T08:51:52Z</time>
      </trkpt>
      <trkpt lat="50.50217" lon="1.63185">
        <ele>6</ele>
        <time>2014-11-23T08:51:53Z</time>
      </trkpt>
      <trkpt lat="50.50214" lon="1.63178">
        <ele>0.2</ele>
        <time>2014-11-23T08:51:54Z</time>
      </trkpt>
      <trkpt lat="50.50207" lon="1.63155">
        <ele>0.2</ele>
        <time>2014-11-23T08:51:57Z</time>
      </trkpt>
      <trkpt lat="50.50204" lon="1.63149">
        <ele>0.2</ele>
        <time>2014-11-23T08:51:58Z</time>
      </trkpt>
      <trkpt lat="50.50192" lon="1.63132">
        <ele>0.4</ele>
        <time>2014-11-23T08:52:01Z</time>
      </trkpt>
      <trkpt lat="50.50169" lon="1.63118">
        <ele>0.2</ele>
        <time>2014-11-23T08:52:06Z</time>
      </trkpt>
      <trkpt lat="50.50154" lon="1.63123">
        <ele>0.6</ele>
        <time>2014-11-23T08:52:10Z</time>
      </trkpt>
      <trkpt lat="50.50149" lon="1.63149">
        <ele>0.6</ele>
        <time>2014-11-23T08:52:14Z</time>
      </trkpt>
      <trkpt lat="50.50148" lon="1.63157">
        <ele>0.6</ele>
        <time>2014-11-23T08:52:15Z</time>
      </trkpt>
      <trkpt lat="50.50139" lon="1.63194">
        <ele>0.8</ele>
        <time>2014-11-23T08:52:20Z</time>
      </trkpt>
      <trkpt lat="50.50127" lon="1.63232">
        <ele>0.8</ele>
        <time>2014-11-23T08:52:25Z</time>
      </trkpt>
      <trkpt lat="50.50121" lon="1.63246">
        <ele>1</ele>
        <time>2014-11-23T08:52:27Z</time>
      </trkpt>
      <trkpt lat="50.50118" lon="1.63253">
        <ele>1.2</ele>
        <time>2014-11-23T08:52:28Z</time>
      </trkpt>
      <trkpt lat="50.50097" lon="1.63307">
        <ele>1.2</ele>
        <time>2014-11-23T08:52:35Z</time>
      </trkpt>
      <trkpt lat="50.50082" lon="1.63357">
        <ele>1.4</ele>
        <time>2014-11-23T08:52:41Z</time>
      </trkpt>
      <trkpt lat="50.50077" lon="1.63372">
        <ele>1.4</ele>
        <time>2014-11-23T08:52:43Z</time>
      </trkpt>
      <trkpt lat="50.50052" lon="1.63436">
        <ele>1</ele>
        <time>2014-11-23T08:52:51Z</time>
      </trkpt>
      <trkpt lat="50.50026" lon="1.63494">
        <ele>1</ele>
        <time>2014-11-23T08:52:59Z</time>
      </trkpt>
      <trkpt lat="50.50014" lon="1.63512">
        <ele>0.6</ele>
        <time>2014-11-23T08:53:02Z</time>
      </trkpt>
      <trkpt lat="50.50004" lon="1.63516">
        <ele>0.6</ele>
        <time>2014-11-23T08:53:04Z</time>
      </trkpt>
      <trkpt lat="50.49987" lon="1.63507">
        <ele>0.8</ele>
        <time>2014-11-23T08:53:07Z</time>
      </trkpt>
      <trkpt lat="50.49971" lon="1.63481">
        <ele>1</ele>
        <time>2014-11-23T08:53:11Z</time>
      </trkpt>
      <trkpt lat="50.49963" lon="1.63468">
        <ele>1.2</ele>
        <time>2014-11-23T08:53:13Z</time>
      </trkpt>
      <trkpt lat="50.49948" lon="1.63442">
        <ele>1.2</ele>
        <time>2014-11-23T08:53:17Z</time>
      </trkpt>
      <trkpt lat="50.49911" lon="1.63386">
        <ele>0.8</ele>
        <time>2014-11-23T08:53:26Z</time>
      </trkpt>
      <trkpt lat="50.49895" lon="1.63353">
        <ele>0.2</ele>
        <time>2014-11-23T08:53:31Z</time>
      </trkpt>
      <trkpt lat="50.49893" lon="1.63347">
        <ele>0.2</ele>
        <time>2014-11-23T08:53:32Z</time>
      </trkpt>
      <trkpt lat="50.49887" lon="1.63339">
        <ele>0.2</ele>
        <time>2014-11-23T08:53:35Z</time>
      </trkpt>
      <trkpt lat="50.49884" lon="1.63338">
        <ele>0.2</ele>
        <time>2014-11-23T08:53:36Z</time>
      </trkpt>
      <trkpt lat="50.49876" lon="1.63342">
        <ele>-0.2</ele>
        <time>2014-11-23T08:53:38Z</time>
      </trkpt>
      <trkpt lat="50.49867" lon="1.63349">
        <ele>-0.2</ele>
        <time>2014-11-23T08:53:40Z</time>
      </trkpt>
      <trkpt lat="50.49848" lon="1.63364">
        <ele>0.6</ele>
        <time>2014-11-23T08:53:44Z</time>
      </trkpt>
      <trkpt lat="50.49806" lon="1.63398">
        <ele>-0.2</ele>
        <time>2014-11-23T08:53:52Z</time>
      </trkpt>
      <trkpt lat="50.49764" lon="1.6344">
        <ele>-0.8</ele>
        <time>2014-11-23T08:54:00Z</time>
      </trkpt>
      <trkpt lat="50.4976" lon="1.63447">
        <ele>-1</ele>
        <time>2014-11-23T08:54:01Z</time>
      </trkpt>
      <trkpt lat="50.49756" lon="1.63455">
        <ele>-1</ele>
        <time>2014-11-23T08:54:02Z</time>
      </trkpt>
      <trkpt lat="50.49746" lon="1.63479">
        <ele>-0.4</ele>
        <time>2014-11-23T08:54:05Z</time>
      </trkpt>
      <trkpt lat="50.49734" lon="1.63535">
        <ele>-0.6</ele>
        <time>2014-11-23T08:54:11Z</time>
      </trkpt>
      <trkpt lat="50.49726" lon="1.636">
        <ele>-0.8</ele>
        <time>2014-11-23T08:54:18Z</time>
      </trkpt>
      <trkpt lat="50.49721" lon="1.63665">
        <ele>-0.4</ele>
        <time>2014-11-23T08:54:25Z</time>
      </trkpt>
      <trkpt lat="50.49714" lon="1.63752">
        <ele>-0.4</ele>
        <time>2014-11-23T08:54:34Z</time>
      </trkpt>
      <trkpt lat="50.49713" lon="1.63762">
        <ele>-0.4</ele>
        <time>2014-11-23T08:54:35Z</time>
      </trkpt>
      <trkpt lat="50.49703" lon="1.63847">
        <ele>0.2</ele>
        <time>2014-11-23T08:54:44Z</time>
      </trkpt>
      <trkpt lat="50.49698" lon="1.63885">
        <ele>-0.4</ele>
        <time>2014-11-23T08:54:48Z</time>
      </trkpt>
      <trkpt lat="50.49685" lon="1.6394">
        <ele>-0.2</ele>
        <time>2014-11-23T08:54:54Z</time>
      </trkpt>
      <trkpt lat="50.49661" lon="1.63996">
        <ele>-0.4</ele>
        <time>2014-11-23T08:55:01Z</time>
      </trkpt>
      <trkpt lat="50.49648" lon="1.64038">
        <ele>-0.2</ele>
        <time>2014-11-23T08:55:06Z</time>
      </trkpt>
      <trkpt lat="50.49646" lon="1.64058">
        <ele>-0.2</ele>
        <time>2014-11-23T08:55:08Z</time>
      </trkpt>
      <trkpt lat="50.49647" lon="1.64087">
        <ele>0.2</ele>
        <time>2014-11-23T08:55:11Z</time>
      </trkpt>
      <trkpt lat="50.49643" lon="1.64154">
        <ele>-0.4</ele>
        <time>2014-11-23T08:55:18Z</time>
      </trkpt>
      <trkpt lat="50.49639" lon="1.64173">
        <ele>0.2</ele>
        <time>2014-11-23T08:55:20Z</time>
      </trkpt>
      <trkpt lat="50.4963" lon="1.64209">
        <ele>-0.6</ele>
        <time>2014-11-23T08:55:24Z</time>
      </trkpt>
      <trkpt lat="50.49617" lon="1.64283">
        <ele>-0.6</ele>
        <time>2014-11-23T08:55:32Z</time>
      </trkpt>
      <trkpt lat="50.49605" lon="1.64345">
        <ele>-0.4</ele>
        <time>2014-11-23T08:55:39Z</time>
      </trkpt>
      <trkpt lat="50.49602" lon="1.64353">
        <ele>-0.4</ele>
        <time>2014-11-23T08:55:40Z</time>
      </trkpt>
      <trkpt lat="50.4958" lon="1.64397">
        <ele>5</ele>
        <time>2014-11-23T08:55:46Z</time>
      </trkpt>
      <trkpt lat="50.4954" lon="1.64454">
        <ele>0.2</ele>
        <time>2014-11-23T08:55:55Z</time>
      </trkpt>
      <trkpt lat="50.49532" lon="1.64467">
        <ele>0.2</ele>
        <time>2014-11-23T08:55:57Z</time>
      </trkpt>
      <trkpt lat="50.49528" lon="1.64482">
        <ele>0.6</ele>
        <time>2014-11-23T08:55:59Z</time>
      </trkpt>
      <trkpt lat="50.49526" lon="1.6451">
        <ele>0.6</ele>
        <time>2014-11-23T08:56:03Z</time>
      </trkpt>
      <trkpt lat="50.49537" lon="1.6452">
        <ele>0.4</ele>
        <time>2014-11-23T08:56:06Z</time>
      </trkpt>
      <trkpt lat="50.49548" lon="1.64518">
        <ele>0.4</ele>
        <time>2014-11-23T08:56:08Z</time>
      </trkpt>
      <trkpt lat="50.49558" lon="1.64517">
        <ele>0.4</ele>
        <time>2014-11-23T08:56:10Z</time>
      </trkpt>
      <trkpt lat="50.49599" lon="1.64513">
        <ele>-0.4</ele>
        <time>2014-11-23T08:56:17Z</time>
      </trkpt>
      <trkpt lat="50.49657" lon="1.64512">
        <ele>-0.2</ele>
        <time>2014-11-23T08:56:26Z</time>
      </trkpt>
      <trkpt lat="50.49663" lon="1.64512">
        <ele>5.1</ele>
        <time>2014-11-23T08:56:27Z</time>
      </trkpt>
      <trkpt lat="50.49719" lon="1.6451">
        <ele>5</ele>
        <time>2014-11-23T08:56:36Z</time>
      </trkpt>
      <trkpt lat="50.49731" lon="1.6451">
        <ele>-0.2</ele>
        <time>2014-11-23T08:56:38Z</time>
      </trkpt>
      <trkpt lat="50.49786" lon="1.64507">
        <ele>-0.2</ele>
        <time>2014-11-23T08:56:47Z</time>
      </trkpt>
      <trkpt lat="50.49809" lon="1.64507">
        <ele>-0.2</ele>
        <time>2014-11-23T08:56:51Z</time>
      </trkpt>
      <trkpt lat="50.49821" lon="1.64507">
        <ele>-0.4</ele>
        <time>2014-11-23T08:56:53Z</time>
      </trkpt>
      <trkpt lat="50.49837" lon="1.6452">
        <ele>-0.2</ele>
        <time>2014-11-23T08:56:56Z</time>
      </trkpt>
      <trkpt lat="50.49844" lon="1.64546">
        <ele>-0.2</ele>
        <time>2014-11-23T08:56:59Z</time>
      </trkpt>
      <trkpt lat="50.49846" lon="1.64566">
        <ele>3.7</ele>
        <time>2014-11-23T08:57:01Z</time>
      </trkpt>
      <trkpt lat="50.49852" lon="1.64615">
        <ele>4.7</ele>
        <time>2014-11-23T08:57:06Z</time>
      </trkpt>
      <trkpt lat="50.49865" lon="1.64702">
        <ele>4.9</ele>
        <time>2014-11-23T08:57:15Z</time>
      </trkpt>
      <trkpt lat="50.49868" lon="1.64722">
        <ele>-0.2</ele>
        <time>2014-11-23T08:57:17Z</time>
      </trkpt>
      <trkpt lat="50.49883" lon="1.6481">
        <ele>0.4</ele>
        <time>2014-11-23T08:57:26Z</time>
      </trkpt>
      <trkpt lat="50.49899" lon="1.64895">
        <ele>0.2</ele>
        <time>2014-11-23T08:57:35Z</time>
      </trkpt>
      <trkpt lat="50.49904" lon="1.64914">
        <ele>0.2</ele>
        <time>2014-11-23T08:57:37Z</time>
      </trkpt>
      <trkpt lat="50.49923" lon="1.64998">
        <ele>4.3</ele>
        <time>2014-11-23T08:57:46Z</time>
      </trkpt>
      <trkpt lat="50.49944" lon="1.65077">
        <ele>0.4</ele>
        <time>2014-11-23T08:57:55Z</time>
      </trkpt>
      <trkpt lat="50.49965" lon="1.65164">
        <ele>0.6</ele>
        <time>2014-11-23T08:58:05Z</time>
      </trkpt>
      <trkpt lat="50.4998" lon="1.65232">
        <ele>0.8</ele>
        <time>2014-11-23T08:58:13Z</time>
      </trkpt>
      <trkpt lat="50.49996" lon="1.65295">
        <ele>4.9</ele>
        <time>2014-11-23T08:58:20Z</time>
      </trkpt>
      <trkpt lat="50.50012" lon="1.65375">
        <ele>0.8</ele>
        <time>2014-11-23T08:58:29Z</time>
      </trkpt>
      <trkpt lat="50.5002" lon="1.65448">
        <ele>0.6</ele>
        <time>2014-11-23T08:58:37Z</time>
      </trkpt>
      <trkpt lat="50.50021" lon="1.65513">
        <ele>0.4</ele>
        <time>2014-11-23T08:58:44Z</time>
      </trkpt>
      <trkpt lat="50.50011" lon="1.65569">
        <ele>0.4</ele>
        <time>2014-11-23T08:58:50Z</time>
      </trkpt>
      <trkpt lat="50.50006" lon="1.65596">
        <ele>0.4</ele>
        <time>2014-11-23T08:58:53Z</time>
      </trkpt>
      <trkpt lat="50.50008" lon="1.65615">
        <ele>4</ele>
        <time>2014-11-23T08:58:55Z</time>
      </trkpt>
      <trkpt lat="50.50019" lon="1.65638">
        <ele>0.2</ele>
        <time>2014-11-23T08:58:58Z</time>
      </trkpt>
      <trkpt lat="50.50022" lon="1.65646">
        <ele>0.2</ele>
        <time>2014-11-23T08:58:59Z</time>
      </trkpt>
      <trkpt lat="50.50045" lon="1.65709">
        <ele>0.8</ele>
        <time>2014-11-23T08:59:07Z</time>
      </trkpt>
      <trkpt lat="50.50047" lon="1.65718">
        <ele>0.6</ele>
        <time>2014-11-23T08:59:08Z</time>
      </trkpt>
      <trkpt lat="50.50054" lon="1.65763">
        <ele>0.6</ele>
        <time>2014-11-23T08:59:13Z</time>
      </trkpt>
      <trkpt lat="50.50059" lon="1.65837">
        <ele>0.2</ele>
        <time>2014-11-23T08:59:21Z</time>
      </trkpt>
      <trkpt lat="50.5006" lon="1.6593">
        <ele>4</ele>
        <time>2014-11-23T08:59:31Z</time>
      </trkpt>
      <trkpt lat="50.5006" lon="1.65948">
        <ele>-0.6</ele>
        <time>2014-11-23T08:59:33Z</time>
      </trkpt>
      <trkpt lat="50.50058" lon="1.66021">
        <ele>-0.8</ele>
        <time>2014-11-23T08:59:41Z</time>
      </trkpt>
      <trkpt lat="50.50058" lon="1.66115">
        <ele>4.8</ele>
        <time>2014-11-23T08:59:51Z</time>
      </trkpt>
      <trkpt lat="50.50058" lon="1.66142">
        <ele>4.1</ele>
        <time>2014-11-23T08:59:54Z</time>
      </trkpt>
      <trkpt lat="50.50059" lon="1.66235">
        <ele>-0.2</ele>
        <time>2014-11-23T09:00:04Z</time>
      </trkpt>
      <trkpt lat="50.50059" lon="1.66244">
        <ele>-0.2</ele>
        <time>2014-11-23T09:00:05Z</time>
      </trkpt>
      <trkpt lat="50.50056" lon="1.66298">
        <ele>0.4</ele>
        <time>2014-11-23T09:00:11Z</time>
      </trkpt>
      <trkpt lat="50.50053" lon="1.66316">
        <ele>0.6</ele>
        <time>2014-11-23T09:00:13Z</time>
      </trkpt>
      <trkpt lat="50.50036" lon="1.66365">
        <ele>-0.2</ele>
        <time>2014-11-23T09:00:19Z</time>
      </trkpt>
      <trkpt lat="50.50009" lon="1.66446">
        <ele>-0.4</ele>
        <time>2014-11-23T09:00:29Z</time>
      </trkpt>
      <trkpt lat="50.50007" lon="1.66454">
        <ele>-0.6</ele>
        <time>2014-11-23T09:00:30Z</time>
      </trkpt>
      <trkpt lat="50.49994" lon="1.66495">
        <ele>-0.6</ele>
        <time>2014-11-23T09:00:35Z</time>
      </trkpt>
      <trkpt lat="50.49981" lon="1.66536">
        <ele>-0.4</ele>
        <time>2014-11-23T09:00:40Z</time>
      </trkpt>
      <trkpt lat="50.49956" lon="1.66608">
        <ele>-0.6</ele>
        <time>2014-11-23T09:00:49Z</time>
      </trkpt>
      <trkpt lat="50.49944" lon="1.66639">
        <ele>-0.4</ele>
        <time>2014-11-23T09:00:53Z</time>
      </trkpt>
      <trkpt lat="50.49942" lon="1.66657">
        <ele>-0.4</ele>
        <time>2014-11-23T09:00:55Z</time>
      </trkpt>
      <trkpt lat="50.49943" lon="1.66684">
        <ele>0.2</ele>
        <time>2014-11-23T09:00:58Z</time>
      </trkpt>
      <trkpt lat="50.49944" lon="1.66702">
        <ele>5</ele>
        <time>2014-11-23T09:01:00Z</time>
      </trkpt>
      <trkpt lat="50.49946" lon="1.66777">
        <ele>-0.6</ele>
        <time>2014-11-23T09:01:08Z</time>
      </trkpt>
      <trkpt lat="50.49943" lon="1.66868">
        <ele>-0.6</ele>
        <time>2014-11-23T09:01:18Z</time>
      </trkpt>
      <trkpt lat="50.49943" lon="1.66878">
        <ele>-0.6</ele>
        <time>2014-11-23T09:01:19Z</time>
      </trkpt>
      <trkpt lat="50.49938" lon="1.66968">
        <ele>-0.8</ele>
        <time>2014-11-23T09:01:29Z</time>
      </trkpt>
      <trkpt lat="50.49934" lon="1.67061">
        <ele>-1</ele>
        <time>2014-11-23T09:01:39Z</time>
      </trkpt>
      <trkpt lat="50.49934" lon="1.6708">
        <ele>-0.6</ele>
        <time>2014-11-23T09:01:41Z</time>
      </trkpt>
      <trkpt lat="50.4994" lon="1.67136">
        <ele>-0.6</ele>
        <time>2014-11-23T09:01:47Z</time>
      </trkpt>
      <trkpt lat="50.49949" lon="1.67219">
        <ele>4.1</ele>
        <time>2014-11-23T09:01:56Z</time>
      </trkpt>
      <trkpt lat="50.49963" lon="1.6731">
        <ele>-0.4</ele>
        <time>2014-11-23T09:02:06Z</time>
      </trkpt>
      <trkpt lat="50.49964" lon="1.67319">
        <ele>-0.2</ele>
        <time>2014-11-23T09:02:07Z</time>
      </trkpt>
      <trkpt lat="50.49968" lon="1.67384">
        <ele>-0.2</ele>
        <time>2014-11-23T09:02:14Z</time>
      </trkpt>
      <trkpt lat="50.49968" lon="1.67457">
        <ele>4</ele>
        <time>2014-11-23T09:02:22Z</time>
      </trkpt>
      <trkpt lat="50.49969" lon="1.67548">
        <ele>-0.2</ele>
        <time>2014-11-23T09:02:32Z</time>
      </trkpt>
      <trkpt lat="50.49968" lon="1.67639">
        <ele>-0.6</ele>
        <time>2014-11-23T09:02:42Z</time>
      </trkpt>
      <trkpt lat="50.49968" lon="1.67648">
        <ele>-1</ele>
        <time>2014-11-23T09:02:43Z</time>
      </trkpt>
      <trkpt lat="50.49961" lon="1.67721">
        <ele>5</ele>
        <time>2014-11-23T09:02:51Z</time>
      </trkpt>
      <trkpt lat="50.49948" lon="1.67811">
        <ele>0.4</ele>
        <time>2014-11-23T09:03:01Z</time>
      </trkpt>
      <trkpt lat="50.49934" lon="1.679">
        <ele>-0.4</ele>
        <time>2014-11-23T09:03:11Z</time>
      </trkpt>
      <trkpt lat="50.49935" lon="1.67909">
        <ele>-0.6</ele>
        <time>2014-11-23T09:03:12Z</time>
      </trkpt>
      <trkpt lat="50.49942" lon="1.67934">
        <ele>-0.6</ele>
        <time>2014-11-23T09:03:15Z</time>
      </trkpt>
      <trkpt lat="50.49957" lon="1.6795">
        <ele>-0.4</ele>
        <time>2014-11-23T09:03:18Z</time>
      </trkpt>
      <trkpt lat="50.49974" lon="1.67956">
        <ele>-0.4</ele>
        <time>2014-11-23T09:03:21Z</time>
      </trkpt>
      <trkpt lat="50.4998" lon="1.67957">
        <ele>-0.6</ele>
        <time>2014-11-23T09:03:22Z</time>
      </trkpt>
      <trkpt lat="50.50038" lon="1.67966">
        <ele>-0.6</ele>
        <time>2014-11-23T09:03:32Z</time>
      </trkpt>
      <trkpt lat="50.50043" lon="1.67967">
        <ele>-0.4</ele>
        <time>2014-11-23T09:03:33Z</time>
      </trkpt>
      <trkpt lat="50.5009" lon="1.67976">
        <ele>-0.4</ele>
        <time>2014-11-23T09:03:41Z</time>
      </trkpt>
      <trkpt lat="50.50118" lon="1.67987">
        <ele>-0.2</ele>
        <time>2014-11-23T09:03:46Z</time>
      </trkpt>
      <trkpt lat="50.50123" lon="1.67992">
        <ele>5.4</ele>
        <time>2014-11-23T09:03:47Z</time>
      </trkpt>
      <trkpt lat="50.50129" lon="1.68015">
        <ele>-0.6</ele>
        <time>2014-11-23T09:03:50Z</time>
      </trkpt>
      <trkpt lat="50.50125" lon="1.68042">
        <ele>-1.4</ele>
        <time>2014-11-23T09:03:53Z</time>
      </trkpt>
      <trkpt lat="50.50122" lon="1.68059">
        <ele>-1.4</ele>
        <time>2014-11-23T09:03:55Z</time>
      </trkpt>
      <trkpt lat="50.50115" lon="1.68083">
        <ele>-0.6</ele>
        <time>2014-11-23T09:03:58Z</time>
      </trkpt>
      <trkpt lat="50.50099" lon="1.68097">
        <ele>-0.8</ele>
        <time>2014-11-23T09:04:01Z</time>
      </trkpt>
      <trkpt lat="50.50076" lon="1.68095">
        <ele>-0.4</ele>
        <time>2014-11-23T09:04:05Z</time>
      </trkpt>
      <trkpt lat="50.50035" lon="1.68089">
        <ele>-1.2</ele>
        <time>2014-11-23T09:04:12Z</time>
      </trkpt>
      <trkpt lat="50.49988" lon="1.68083">
        <ele>-1.2</ele>
        <time>2014-11-23T09:04:20Z</time>
      </trkpt>
      <trkpt lat="50.49929" lon="1.68076">
        <ele>-0.6</ele>
        <time>2014-11-23T09:04:30Z</time>
      </trkpt>
      <trkpt lat="50.49872" lon="1.68071">
        <ele>-1</ele>
        <time>2014-11-23T09:04:40Z</time>
      </trkpt>
      <trkpt lat="50.49838" lon="1.68075">
        <ele>-0.6</ele>
        <time>2014-11-23T09:04:46Z</time>
      </trkpt>
      <trkpt lat="50.49813" lon="1.68089">
        <ele>-0.8</ele>
        <time>2014-11-23T09:04:51Z</time>
      </trkpt>
      <trkpt lat="50.4981" lon="1.68094">
        <ele>-1</ele>
        <time>2014-11-23T09:04:52Z</time>
      </trkpt>
      <trkpt lat="50.49807" lon="1.68119">
        <ele>-0.8</ele>
        <time>2014-11-23T09:04:55Z</time>
      </trkpt>
      <trkpt lat="50.49807" lon="1.68137">
        <ele>-0.6</ele>
        <time>2014-11-23T09:04:57Z</time>
      </trkpt>
      <trkpt lat="50.49807" lon="1.68184">
        <ele>-1.4</ele>
        <time>2014-11-23T09:05:02Z</time>
      </trkpt>
      <trkpt lat="50.49807" lon="1.68247">
        <ele>-2</ele>
        <time>2014-11-23T09:05:09Z</time>
      </trkpt>
      <trkpt lat="50.49802" lon="1.68261">
        <ele>-1.6</ele>
        <time>2014-11-23T09:05:11Z</time>
      </trkpt>
      <trkpt lat="50.49788" lon="1.68274">
        <ele>-0.4</ele>
        <time>2014-11-23T09:05:14Z</time>
      </trkpt>
      <trkpt lat="50.49783" lon="1.68278">
        <ele>-0.8</ele>
        <time>2014-11-23T09:05:15Z</time>
      </trkpt>
      <trkpt lat="50.49757" lon="1.68298">
        <ele>-1.4</ele>
        <time>2014-11-23T09:05:20Z</time>
      </trkpt>
      <trkpt lat="50.49743" lon="1.6831">
        <ele>-1.4</ele>
        <time>2014-11-23T09:05:23Z</time>
      </trkpt>
      <trkpt lat="50.49692" lon="1.68353">
        <ele>-1.2</ele>
        <time>2014-11-23T09:05:33Z</time>
      </trkpt>
      <trkpt lat="50.49652" lon="1.68388">
        <ele>-0.8</ele>
        <time>2014-11-23T09:05:41Z</time>
      </trkpt>
      <trkpt lat="50.49615" lon="1.68433">
        <ele>-1</ele>
        <time>2014-11-23T09:05:49Z</time>
      </trkpt>
      <trkpt lat="50.49601" lon="1.68471">
        <ele>-0.8</ele>
        <time>2014-11-23T09:05:54Z</time>
      </trkpt>
      <trkpt lat="50.49578" lon="1.68538">
        <ele>-1</ele>
        <time>2014-11-23T09:06:02Z</time>
      </trkpt>
      <trkpt lat="50.49549" lon="1.68611">
        <ele>-1</ele>
        <time>2014-11-23T09:06:11Z</time>
      </trkpt>
      <trkpt lat="50.49533" lon="1.68638">
        <ele>-1</ele>
        <time>2014-11-23T09:06:15Z</time>
      </trkpt>
      <trkpt lat="50.49527" lon="1.68643">
        <ele>-1</ele>
        <time>2014-11-23T09:06:16Z</time>
      </trkpt>
      <trkpt lat="50.49522" lon="1.68646">
        <ele>-0.6</ele>
        <time>2014-11-23T09:06:17Z</time>
      </trkpt>
      <trkpt lat="50.4951" lon="1.68651">
        <ele>-0.4</ele>
        <time>2014-11-23T09:06:19Z</time>
      </trkpt>
      <trkpt lat="50.49499" lon="1.68655">
        <ele>-0.4</ele>
        <time>2014-11-23T09:06:21Z</time>
      </trkpt>
      <trkpt lat="50.49442" lon="1.68674">
        <ele>-0.4</ele>
        <time>2014-11-23T09:06:31Z</time>
      </trkpt>
      <trkpt lat="50.49391" lon="1.68694">
        <ele>-0.2</ele>
        <time>2014-11-23T09:06:40Z</time>
      </trkpt>
      <trkpt lat="50.49369" lon="1.68704">
        <ele>-0.4</ele>
        <time>2014-11-23T09:06:44Z</time>
      </trkpt>
      <trkpt lat="50.49353" lon="1.68704">
        <ele>-1</ele>
        <time>2014-11-23T09:06:47Z</time>
      </trkpt>
      <trkpt lat="50.49344" lon="1.68703">
        <ele>-1.2</ele>
        <time>2014-11-23T09:06:49Z</time>
      </trkpt>
      <trkpt lat="50.49335" lon="1.68704">
        <ele>-1</ele>
        <time>2014-11-23T09:06:51Z</time>
      </trkpt>
      <trkpt lat="50.49329" lon="1.68708">
        <ele>-0.8</ele>
        <time>2014-11-23T09:06:53Z</time>
      </trkpt>
      <trkpt lat="50.49326" lon="1.68724">
        <ele>-0.8</ele>
        <time>2014-11-23T09:06:56Z</time>
      </trkpt>
      <trkpt lat="50.49325" lon="1.68731">
        <ele>-0.6</ele>
        <time>2014-11-23T09:06:57Z</time>
      </trkpt>
      <trkpt lat="50.49322" lon="1.68762">
        <ele>4.2</ele>
        <time>2014-11-23T09:07:01Z</time>
      </trkpt>
      <trkpt lat="50.49313" lon="1.68838">
        <ele>0.2</ele>
        <time>2014-11-23T09:07:10Z</time>
      </trkpt>
      <trkpt lat="50.49303" lon="1.68908">
        <ele>5.3</ele>
        <time>2014-11-23T09:07:18Z</time>
      </trkpt>
      <trkpt lat="50.49287" lon="1.68969">
        <ele>0.2</ele>
        <time>2014-11-23T09:07:25Z</time>
      </trkpt>
      <trkpt lat="50.49279" lon="1.68995">
        <ele>0.4</ele>
        <time>2014-11-23T09:07:28Z</time>
      </trkpt>
      <trkpt lat="50.49264" lon="1.69042">
        <ele>5</ele>
        <time>2014-11-23T09:07:34Z</time>
      </trkpt>
      <trkpt lat="50.49245" lon="1.69101">
        <ele>0.2</ele>
        <time>2014-11-23T09:07:41Z</time>
      </trkpt>
      <trkpt lat="50.49225" lon="1.6914">
        <ele>-0.6</ele>
        <time>2014-11-23T09:07:46Z</time>
      </trkpt>
      <trkpt lat="50.49221" lon="1.69148">
        <ele>-0.8</ele>
        <time>2014-11-23T09:07:47Z</time>
      </trkpt>
      <trkpt lat="50.49192" lon="1.69183">
        <ele>-1.2</ele>
        <time>2014-11-23T09:07:53Z</time>
      </trkpt>
      <trkpt lat="50.49164" lon="1.69209">
        <ele>-0.6</ele>
        <time>2014-11-23T09:07:59Z</time>
      </trkpt>
      <trkpt lat="50.4916" lon="1.69212">
        <ele>-0.6</ele>
        <time>2014-11-23T09:08:00Z</time>
      </trkpt>
      <trkpt lat="50.49124" lon="1.69237">
        <ele>-0.6</ele>
        <time>2014-11-23T09:08:07Z</time>
      </trkpt>
      <trkpt lat="50.49092" lon="1.69262">
        <ele>-1</ele>
        <time>2014-11-23T09:08:13Z</time>
      </trkpt>
      <trkpt lat="50.49088" lon="1.69269">
        <ele>-1</ele>
        <time>2014-11-23T09:08:14Z</time>
      </trkpt>
      <trkpt lat="50.49081" lon="1.69294">
        <ele>-1.4</ele>
        <time>2014-11-23T09:08:17Z</time>
      </trkpt>
      <trkpt lat="50.49079" lon="1.69303">
        <ele>-1.2</ele>
        <time>2014-11-23T09:08:18Z</time>
      </trkpt>
      <trkpt lat="50.4907" lon="1.69348">
        <ele>-1.2</ele>
        <time>2014-11-23T09:08:23Z</time>
      </trkpt>
      <trkpt lat="50.49053" lon="1.69374">
        <ele>-0.6</ele>
        <time>2014-11-23T09:08:27Z</time>
      </trkpt>
      <trkpt lat="50.4905" lon="1.69382">
        <ele>-0.6</ele>
        <time>2014-11-23T09:08:28Z</time>
      </trkpt>
      <trkpt lat="50.49046" lon="1.69409">
        <ele>-0.4</ele>
        <time>2014-11-23T09:08:31Z</time>
      </trkpt>
      <trkpt lat="50.49051" lon="1.69448">
        <ele>-0.8</ele>
        <time>2014-11-23T09:08:35Z</time>
      </trkpt>
      <trkpt lat="50.49053" lon="1.69457">
        <ele>-1.2</ele>
        <time>2014-11-23T09:08:36Z</time>
      </trkpt>
      <trkpt lat="50.49055" lon="1.69504">
        <ele>-0.6</ele>
        <time>2014-11-23T09:08:41Z</time>
      </trkpt>
      <trkpt lat="50.49055" lon="1.69512">
        <ele>-0.6</ele>
        <time>2014-11-23T09:08:42Z</time>
      </trkpt>
      <trkpt lat="50.49053" lon="1.69541">
        <ele>-0.6</ele>
        <time>2014-11-23T09:08:47Z</time>
      </trkpt>
      <trkpt lat="50.49059" lon="1.69551">
        <ele>-0.6</ele>
        <time>2014-11-23T09:08:50Z</time>
      </trkpt>
      <trkpt lat="50.49063" lon="1.69554">
        <ele>-0.6</ele>
        <time>2014-11-23T09:08:51Z</time>
      </trkpt>
      <trkpt lat="50.49082" lon="1.69562">
        <ele>4.8</ele>
        <time>2014-11-23T09:08:55Z</time>
      </trkpt>
      <trkpt lat="50.49087" lon="1.69563">
        <ele>4.8</ele>
        <time>2014-11-23T09:08:56Z</time>
      </trkpt>
      <trkpt lat="50.49106" lon="1.69572">
        <ele>0.4</ele>
        <time>2014-11-23T09:09:00Z</time>
      </trkpt>
      <trkpt lat="50.49116" lon="1.69575">
        <ele>0.8</ele>
        <time>2014-11-23T09:09:02Z</time>
      </trkpt>
      <trkpt lat="50.49125" lon="1.69579">
        <ele>1.6</ele>
        <time>2014-11-23T09:09:04Z</time>
      </trkpt>
      <trkpt lat="50.49153" lon="1.69582">
        <ele>2</ele>
        <time>2014-11-23T09:09:10Z</time>
      </trkpt>
      <trkpt lat="50.49172" lon="1.69587">
        <ele>1.8</ele>
        <time>2014-11-23T09:09:15Z</time>
      </trkpt>
      <trkpt lat="50.49182" lon="1.69612">
        <ele>1</ele>
        <time>2014-11-23T09:09:19Z</time>
      </trkpt>
      <trkpt lat="50.49186" lon="1.69627">
        <ele>0.8</ele>
        <time>2014-11-23T09:09:21Z</time>
      </trkpt>
      <trkpt lat="50.49193" lon="1.69652">
        <ele>0.6</ele>
        <time>2014-11-23T09:09:24Z</time>
      </trkpt>
      <trkpt lat="50.49194" lon="1.69661">
        <ele>0.4</ele>
        <time>2014-11-23T09:09:25Z</time>
      </trkpt>
      <trkpt lat="50.492" lon="1.69697">
        <ele>0.6</ele>
        <time>2014-11-23T09:09:29Z</time>
      </trkpt>
      <trkpt lat="50.49214" lon="1.69728">
        <ele>4.4</ele>
        <time>2014-11-23T09:09:33Z</time>
      </trkpt>
      <trkpt lat="50.49218" lon="1.69735">
        <ele>0.2</ele>
        <time>2014-11-23T09:09:34Z</time>
      </trkpt>
      <trkpt lat="50.49234" lon="1.69764">
        <ele>0.6</ele>
        <time>2014-11-23T09:09:38Z</time>
      </trkpt>
      <trkpt lat="50.49264" lon="1.69813">
        <ele>0.4</ele>
        <time>2014-11-23T09:09:46Z</time>
      </trkpt>
      <trkpt lat="50.49287" lon="1.69858">
        <ele>0.2</ele>
        <time>2014-11-23T09:09:53Z</time>
      </trkpt>
      <trkpt lat="50.49306" lon="1.69896">
        <ele>0.4</ele>
        <time>2014-11-23T09:09:59Z</time>
      </trkpt>
      <trkpt lat="50.49312" lon="1.69909">
        <ele>1.4</ele>
        <time>2014-11-23T09:10:01Z</time>
      </trkpt>
      <trkpt lat="50.49325" lon="1.69935">
        <ele>1</ele>
        <time>2014-11-23T09:10:05Z</time>
      </trkpt>
      <trkpt lat="50.49332" lon="1.69947">
        <ele>0.4</ele>
        <time>2014-11-23T09:10:07Z</time>
      </trkpt>
      <trkpt lat="50.49346" lon="1.69976">
        <ele>0.2</ele>
        <time>2014-11-23T09:10:11Z</time>
      </trkpt>
      <trkpt lat="50.49371" lon="1.70037">
        <ele>0.4</ele>
        <time>2014-11-23T09:10:19Z</time>
      </trkpt>
      <trkpt lat="50.49392" lon="1.70104">
        <ele>-1</ele>
        <time>2014-11-23T09:10:28Z</time>
      </trkpt>
      <trkpt lat="50.49394" lon="1.70111">
        <ele>-1.2</ele>
        <time>2014-11-23T09:10:29Z</time>
      </trkpt>
      <trkpt lat="50.49397" lon="1.70132">
        <ele>-1.6</ele>
        <time>2014-11-23T09:10:32Z</time>
      </trkpt>
      <trkpt lat="50.49398" lon="1.70138">
        <ele>-1.2</ele>
        <time>2014-11-23T09:10:33Z</time>
      </trkpt>
      <trkpt lat="50.494" lon="1.70145">
        <ele>-0.8</ele>
        <time>2014-11-23T09:10:34Z</time>
      </trkpt>
      <trkpt lat="50.49407" lon="1.70176">
        <ele>-0.8</ele>
        <time>2014-11-23T09:10:38Z</time>
      </trkpt>
      <trkpt lat="50.49421" lon="1.70235">
        <ele>-0.4</ele>
        <time>2014-11-23T09:10:46Z</time>
      </trkpt>
      <trkpt lat="50.49433" lon="1.703">
        <ele>-0.8</ele>
        <time>2014-11-23T09:10:55Z</time>
      </trkpt>
      <trkpt lat="50.49441" lon="1.70358">
        <ele>-0.4</ele>
        <time>2014-11-23T09:11:03Z</time>
      </trkpt>
      <trkpt lat="50.49453" lon="1.70423">
        <ele>4.8</ele>
        <time>2014-11-23T09:11:12Z</time>
      </trkpt>
      <trkpt lat="50.49454" lon="1.7043">
        <ele>0.2</ele>
        <time>2014-11-23T09:11:13Z</time>
      </trkpt>
      <trkpt lat="50.4947" lon="1.70511">
        <ele>-0.6</ele>
        <time>2014-11-23T09:11:24Z</time>
      </trkpt>
      <trkpt lat="50.49479" lon="1.70577">
        <ele>-0.2</ele>
        <time>2014-11-23T09:11:33Z</time>
      </trkpt>
      <trkpt lat="50.49486" lon="1.70635">
        <ele>-0.2</ele>
        <time>2014-11-23T09:11:41Z</time>
      </trkpt>
      <trkpt lat="50.4949" lon="1.70694">
        <ele>-1</ele>
        <time>2014-11-23T09:11:49Z</time>
      </trkpt>
      <trkpt lat="50.49491" lon="1.70716">
        <ele>-1</ele>
        <time>2014-11-23T09:11:52Z</time>
      </trkpt>
      <trkpt lat="50.49489" lon="1.70759">
        <ele>-0.8</ele>
        <time>2014-11-23T09:11:58Z</time>
      </trkpt>
      <trkpt lat="50.4948" lon="1.70815">
        <ele>-0.6</ele>
        <time>2014-11-23T09:12:06Z</time>
      </trkpt>
      <trkpt lat="50.49463" lon="1.70867">
        <ele>-1</ele>
        <time>2014-11-23T09:12:14Z</time>
      </trkpt>
      <trkpt lat="50.49439" lon="1.70918">
        <ele>-1.2</ele>
        <time>2014-11-23T09:12:23Z</time>
      </trkpt>
      <trkpt lat="50.49412" lon="1.70967">
        <ele>-0.8</ele>
        <time>2014-11-23T09:12:32Z</time>
      </trkpt>
      <trkpt lat="50.49386" lon="1.71006">
        <ele>-1.2</ele>
        <time>2014-11-23T09:12:40Z</time>
      </trkpt>
      <trkpt lat="50.49353" lon="1.71042">
        <ele>-0.6</ele>
        <time>2014-11-23T09:12:49Z</time>
      </trkpt>
      <trkpt lat="50.49314" lon="1.71076">
        <ele>-0.6</ele>
        <time>2014-11-23T09:12:59Z</time>
      </trkpt>
      <trkpt lat="50.49277" lon="1.71102">
        <ele>-0.6</ele>
        <time>2014-11-23T09:13:08Z</time>
      </trkpt>
      <trkpt lat="50.49244" lon="1.71118">
        <ele>-1</ele>
        <time>2014-11-23T09:13:16Z</time>
      </trkpt>
      <trkpt lat="50.49205" lon="1.7113">
        <ele>-0.8</ele>
        <time>2014-11-23T09:13:25Z</time>
      </trkpt>
      <trkpt lat="50.49173" lon="1.71138">
        <ele>-0.8</ele>
        <time>2014-11-23T09:13:32Z</time>
      </trkpt>
      <trkpt lat="50.49129" lon="1.71145">
        <ele>-0.8</ele>
        <time>2014-11-23T09:13:42Z</time>
      </trkpt>
      <trkpt lat="50.49115" lon="1.7115">
        <ele>-0.4</ele>
        <time>2014-11-23T09:13:45Z</time>
      </trkpt>
      <trkpt lat="50.49111" lon="1.71153">
        <ele>5</ele>
        <time>2014-11-23T09:13:46Z</time>
      </trkpt>
      <trkpt lat="50.49103" lon="1.71159">
        <ele>-0.2</ele>
        <time>2014-11-23T09:13:48Z</time>
      </trkpt>
      <trkpt lat="50.49093" lon="1.71174">
        <ele>-0.2</ele>
        <time>2014-11-23T09:13:51Z</time>
      </trkpt>
      <trkpt lat="50.49083" lon="1.71191">
        <ele>-0.4</ele>
        <time>2014-11-23T09:13:54Z</time>
      </trkpt>
      <trkpt lat="50.49057" lon="1.71238">
        <ele>-0.6</ele>
        <time>2014-11-23T09:14:02Z</time>
      </trkpt>
      <trkpt lat="50.49033" lon="1.71275">
        <ele>-0.6</ele>
        <time>2014-11-23T09:14:09Z</time>
      </trkpt>
      <trkpt lat="50.49031" lon="1.71282">
        <ele>-0.4</ele>
        <time>2014-11-23T09:14:10Z</time>
      </trkpt>
      <trkpt lat="50.49026" lon="1.7131">
        <ele>-0.2</ele>
        <time>2014-11-23T09:14:14Z</time>
      </trkpt>
      <trkpt lat="50.49025" lon="1.71323">
        <ele>-0.4</ele>
        <time>2014-11-23T09:14:16Z</time>
      </trkpt>
      <trkpt lat="50.49022" lon="1.71375">
        <ele>0.2</ele>
        <time>2014-11-23T09:14:23Z</time>
      </trkpt>
      <trkpt lat="50.49018" lon="1.71428">
        <ele>5</ele>
        <time>2014-11-23T09:14:30Z</time>
      </trkpt>
      <trkpt lat="50.49006" lon="1.71501">
        <ele>-0.2</ele>
        <time>2014-11-23T09:14:40Z</time>
      </trkpt>
      <trkpt lat="50.4899" lon="1.71565">
        <ele>-0.2</ele>
        <time>2014-11-23T09:14:49Z</time>
      </trkpt>
      <trkpt lat="50.48967" lon="1.71625">
        <ele>-0.2</ele>
        <time>2014-11-23T09:14:58Z</time>
      </trkpt>
      <trkpt lat="50.48942" lon="1.71663">
        <ele>5</ele>
        <time>2014-11-23T09:15:05Z</time>
      </trkpt>
      <trkpt lat="50.48911" lon="1.71686">
        <ele>5</ele>
        <time>2014-11-23T09:15:12Z</time>
      </trkpt>
      <trkpt lat="50.48906" lon="1.71687">
        <ele>0.4</ele>
        <time>2014-11-23T09:15:13Z</time>
      </trkpt>
      <trkpt lat="50.48885" lon="1.71691">
        <ele>-0.2</ele>
        <time>2014-11-23T09:15:17Z</time>
      </trkpt>
      <trkpt lat="50.48853" lon="1.71697">
        <ele>-0.2</ele>
        <time>2014-11-23T09:15:23Z</time>
      </trkpt>
      <trkpt lat="50.48827" lon="1.7171">
        <ele>-0.2</ele>
        <time>2014-11-23T09:15:28Z</time>
      </trkpt>
      <trkpt lat="50.48792" lon="1.71719">
        <ele>-0.2</ele>
        <time>2014-11-23T09:15:35Z</time>
      </trkpt>
      <trkpt lat="50.48781" lon="1.71721">
        <ele>-0.6</ele>
        <time>2014-11-23T09:15:39Z</time>
      </trkpt>
      <trkpt lat="50.48778" lon="1.71735">
        <ele>-0.8</ele>
        <time>2014-11-23T09:15:43Z</time>
      </trkpt>
      <trkpt lat="50.48777" lon="1.71762">
        <ele>-0.4</ele>
        <time>2014-11-23T09:15:48Z</time>
      </trkpt>
      <trkpt lat="50.4878" lon="1.71823">
        <ele>-0.2</ele>
        <time>2014-11-23T09:15:57Z</time>
      </trkpt>
      <trkpt lat="50.48782" lon="1.71875">
        <ele>0.2</ele>
        <time>2014-11-23T09:16:04Z</time>
      </trkpt>
      <trkpt lat="50.48779" lon="1.71937">
        <ele>0.2</ele>
        <time>2014-11-23T09:16:12Z</time>
      </trkpt>
      <trkpt lat="50.48768" lon="1.72006">
        <ele>-0.2</ele>
        <time>2014-11-23T09:16:21Z</time>
      </trkpt>
      <trkpt lat="50.48764" lon="1.72033">
        <ele>-0.2</ele>
        <time>2014-11-23T09:16:25Z</time>
      </trkpt>
      <trkpt lat="50.48762" lon="1.72046">
        <ele>-0.4</ele>
        <time>2014-11-23T09:16:27Z</time>
      </trkpt>
      <trkpt lat="50.48754" lon="1.72097">
        <ele>-0.2</ele>
        <time>2014-11-23T09:16:34Z</time>
      </trkpt>
      <trkpt lat="50.48747" lon="1.72151">
        <ele>-0.2</ele>
        <time>2014-11-23T09:16:41Z</time>
      </trkpt>
      <trkpt lat="50.48746" lon="1.72158">
        <ele>-0.2</ele>
        <time>2014-11-23T09:16:42Z</time>
      </trkpt>
      <trkpt lat="50.48744" lon="1.72197">
        <ele>-0.2</ele>
        <time>2014-11-23T09:16:47Z</time>
      </trkpt>
      <trkpt lat="50.48743" lon="1.72254">
        <ele>-0.2</ele>
        <time>2014-11-23T09:16:54Z</time>
      </trkpt>
      <trkpt lat="50.4874" lon="1.72337">
        <ele>-0.2</ele>
        <time>2014-11-23T09:17:04Z</time>
      </trkpt>
      <trkpt lat="50.48733" lon="1.72394">
        <ele>-0.4</ele>
        <time>2014-11-23T09:17:11Z</time>
      </trkpt>
      <trkpt lat="50.48724" lon="1.72441">
        <ele>-0.8</ele>
        <time>2014-11-23T09:17:18Z</time>
      </trkpt>
      <trkpt lat="50.48717" lon="1.72483">
        <ele>-0.6</ele>
        <time>2014-11-23T09:17:24Z</time>
      </trkpt>
      <trkpt lat="50.48715" lon="1.72524">
        <ele>-0.6</ele>
        <time>2014-11-23T09:17:29Z</time>
      </trkpt>
      <trkpt lat="50.48712" lon="1.72539">
        <ele>-0.4</ele>
        <time>2014-11-23T09:17:31Z</time>
      </trkpt>
      <trkpt lat="50.48696" lon="1.72574">
        <ele>0.2</ele>
        <time>2014-11-23T09:17:36Z</time>
      </trkpt>
      <trkpt lat="50.48691" lon="1.72581">
        <ele>-0.2</ele>
        <time>2014-11-23T09:17:37Z</time>
      </trkpt>
      <trkpt lat="50.48683" lon="1.72593">
        <ele>-0.4</ele>
        <time>2014-11-23T09:17:39Z</time>
      </trkpt>
      <trkpt lat="50.48675" lon="1.72607">
        <ele>-0.6</ele>
        <time>2014-11-23T09:17:41Z</time>
      </trkpt>
      <trkpt lat="50.48659" lon="1.72645">
        <ele>-0.8</ele>
        <time>2014-11-23T09:17:46Z</time>
      </trkpt>
      <trkpt lat="50.48655" lon="1.72653">
        <ele>-0.8</ele>
        <time>2014-11-23T09:17:47Z</time>
      </trkpt>
      <trkpt lat="50.48625" lon="1.72724">
        <ele>-0.6</ele>
        <time>2014-11-23T09:17:56Z</time>
      </trkpt>
      <trkpt lat="50.486" lon="1.72763">
        <ele>-0.4</ele>
        <time>2014-11-23T09:18:02Z</time>
      </trkpt>
      <trkpt lat="50.48569" lon="1.72804">
        <ele>-0.6</ele>
        <time>2014-11-23T09:18:09Z</time>
      </trkpt>
      <trkpt lat="50.48552" lon="1.7284">
        <ele>-0.8</ele>
        <time>2014-11-23T09:18:14Z</time>
      </trkpt>
      <trkpt lat="50.48527" lon="1.72886">
        <ele>-0.2</ele>
        <time>2014-11-23T09:18:21Z</time>
      </trkpt>
      <trkpt lat="50.48516" lon="1.72905">
        <ele>-0.2</ele>
        <time>2014-11-23T09:18:24Z</time>
      </trkpt>
      <trkpt lat="50.48504" lon="1.72924">
        <ele>-0.4</ele>
        <time>2014-11-23T09:18:27Z</time>
      </trkpt>
      <trkpt lat="50.48501" lon="1.72931">
        <ele>-0.4</ele>
        <time>2014-11-23T09:18:28Z</time>
      </trkpt>
      <trkpt lat="50.48491" lon="1.72963">
        <ele>5</ele>
        <time>2014-11-23T09:18:32Z</time>
      </trkpt>
      <trkpt lat="50.48474" lon="1.73017">
        <ele>-0.2</ele>
        <time>2014-11-23T09:18:39Z</time>
      </trkpt>
      <trkpt lat="50.48474" lon="1.73024">
        <ele>-0.2</ele>
        <time>2014-11-23T09:18:40Z</time>
      </trkpt>
      <trkpt lat="50.48477" lon="1.7305">
        <ele>-0.4</ele>
        <time>2014-11-23T09:18:43Z</time>
      </trkpt>
      <trkpt lat="50.48478" lon="1.7306">
        <ele>-0.6</ele>
        <time>2014-11-23T09:18:44Z</time>
      </trkpt>
      <trkpt lat="50.48472" lon="1.73096">
        <ele>-0.8</ele>
        <time>2014-11-23T09:18:48Z</time>
      </trkpt>
      <trkpt lat="50.4846" lon="1.73156">
        <ele>-0.6</ele>
        <time>2014-11-23T09:18:55Z</time>
      </trkpt>
      <trkpt lat="50.48452" lon="1.73218">
        <ele>-0.6</ele>
        <time>2014-11-23T09:19:02Z</time>
      </trkpt>
      <trkpt lat="50.48439" lon="1.73298">
        <ele>-0.4</ele>
        <time>2014-11-23T09:19:11Z</time>
      </trkpt>
      <trkpt lat="50.48425" lon="1.73378">
        <ele>-0.4</ele>
        <time>2014-11-23T09:19:20Z</time>
      </trkpt>
      <trkpt lat="50.48414" lon="1.73428">
        <ele>-0.8</ele>
        <time>2014-11-23T09:19:26Z</time>
      </trkpt>
      <trkpt lat="50.48401" lon="1.73435">
        <ele>-0.6</ele>
        <time>2014-11-23T09:19:29Z</time>
      </trkpt>
      <trkpt lat="50.48386" lon="1.73431">
        <ele>-0.2</ele>
        <time>2014-11-23T09:19:32Z</time>
      </trkpt>
      <trkpt lat="50.48375" lon="1.73428">
        <ele>-0.6</ele>
        <time>2014-11-23T09:19:34Z</time>
      </trkpt>
      <trkpt lat="50.48338" lon="1.73414">
        <ele>-0.6</ele>
        <time>2014-11-23T09:19:41Z</time>
      </trkpt>
      <trkpt lat="50.48333" lon="1.73411">
        <ele>-0.4</ele>
        <time>2014-11-23T09:19:42Z</time>
      </trkpt>
      <trkpt lat="50.48313" lon="1.73397">
        <ele>-0.4</ele>
        <time>2014-11-23T09:19:46Z</time>
      </trkpt>
      <trkpt lat="50.48283" lon="1.73374">
        <ele>-1</ele>
        <time>2014-11-23T09:19:52Z</time>
      </trkpt>
      <trkpt lat="50.4825" lon="1.73336">
        <ele>-0.4</ele>
        <time>2014-11-23T09:19:59Z</time>
      </trkpt>
      <trkpt lat="50.48233" lon="1.73312">
        <ele>-1</ele>
        <time>2014-11-23T09:20:03Z</time>
      </trkpt>
      <trkpt lat="50.48222" lon="1.73303">
        <ele>-1.2</ele>
        <time>2014-11-23T09:20:05Z</time>
      </trkpt>
      <trkpt lat="50.48205" lon="1.73294">
        <ele>-0.6</ele>
        <time>2014-11-23T09:20:08Z</time>
      </trkpt>
      <trkpt lat="50.48188" lon="1.73286">
        <ele>-0.6</ele>
        <time>2014-11-23T09:20:11Z</time>
      </trkpt>
      <trkpt lat="50.48148" lon="1.73274">
        <ele>4.1</ele>
        <time>2014-11-23T09:20:18Z</time>
      </trkpt>
      <trkpt lat="50.48142" lon="1.73277">
        <ele>-0.6</ele>
        <time>2014-11-23T09:20:19Z</time>
      </trkpt>
      <trkpt lat="50.4812" lon="1.73283">
        <ele>-0.8</ele>
        <time>2014-11-23T09:20:23Z</time>
      </trkpt>
      <trkpt lat="50.48109" lon="1.73264">
        <ele>-0.2</ele>
        <time>2014-11-23T09:20:26Z</time>
      </trkpt>
      <trkpt lat="50.48086" lon="1.73216">
        <ele>-0.6</ele>
        <time>2014-11-23T09:20:33Z</time>
      </trkpt>
      <trkpt lat="50.4805" lon="1.73143">
        <ele>-1</ele>
        <time>2014-11-23T09:20:43Z</time>
      </trkpt>
      <trkpt lat="50.48021" lon="1.73087">
        <ele>-0.6</ele>
        <time>2014-11-23T09:20:51Z</time>
      </trkpt>
      <trkpt lat="50.48" lon="1.73073">
        <ele>-0.2</ele>
        <time>2014-11-23T09:20:55Z</time>
      </trkpt>
      <trkpt lat="50.47988" lon="1.73071">
        <ele>-0.6</ele>
        <time>2014-11-23T09:20:57Z</time>
      </trkpt>
      <trkpt lat="50.47966" lon="1.73068">
        <ele>-0.4</ele>
        <time>2014-11-23T09:21:01Z</time>
      </trkpt>
      <trkpt lat="50.47917" lon="1.73059">
        <ele>4</ele>
        <time>2014-11-23T09:21:10Z</time>
      </trkpt>
      <trkpt lat="50.47883" lon="1.73051">
        <ele>-1.2</ele>
        <time>2014-11-23T09:21:16Z</time>
      </trkpt>
      <trkpt lat="50.47848" lon="1.73048">
        <ele>0.4</ele>
        <time>2014-11-23T09:21:22Z</time>
      </trkpt>
      <trkpt lat="50.47837" lon="1.73047">
        <ele>-0.4</ele>
        <time>2014-11-23T09:21:24Z</time>
      </trkpt>
      <trkpt lat="50.47798" lon="1.73037">
        <ele>0.2</ele>
        <time>2014-11-23T09:21:31Z</time>
      </trkpt>
      <trkpt lat="50.47782" lon="1.73032">
        <ele>-1</ele>
        <time>2014-11-23T09:21:34Z</time>
      </trkpt>
      <trkpt lat="50.47765" lon="1.73026">
        <ele>0.4</ele>
        <time>2014-11-23T09:21:37Z</time>
      </trkpt>
      <trkpt lat="50.47749" lon="1.7302">
        <ele>-0.4</ele>
        <time>2014-11-23T09:21:40Z</time>
      </trkpt>
      <trkpt lat="50.47715" lon="1.73015">
        <ele>-0.4</ele>
        <time>2014-11-23T09:21:46Z</time>
      </trkpt>
      <trkpt lat="50.47676" lon="1.73006">
        <ele>-0.4</ele>
        <time>2014-11-23T09:21:53Z</time>
      </trkpt>
      <trkpt lat="50.47671" lon="1.73003">
        <ele>-0.2</ele>
        <time>2014-11-23T09:21:54Z</time>
      </trkpt>
      <trkpt lat="50.47651" lon="1.72988">
        <ele>-0.2</ele>
        <time>2014-11-23T09:21:58Z</time>
      </trkpt>
      <trkpt lat="50.47646" lon="1.72986">
        <ele>-0.2</ele>
        <time>2014-11-23T09:21:59Z</time>
      </trkpt>
      <trkpt lat="50.47631" lon="1.72988">
        <ele>0.4</ele>
        <time>2014-11-23T09:22:02Z</time>
      </trkpt>
      <trkpt lat="50.47622" lon="1.72992">
        <ele>0.8</ele>
        <time>2014-11-23T09:22:04Z</time>
      </trkpt>
      <trkpt lat="50.47608" lon="1.72998">
        <ele>-0.4</ele>
        <time>2014-11-23T09:22:08Z</time>
      </trkpt>
      <trkpt lat="50.47602" lon="1.73015">
        <ele>5</ele>
        <time>2014-11-23T09:22:12Z</time>
      </trkpt>
      <trkpt lat="50.47603" lon="1.73021">
        <ele>5</ele>
        <time>2014-11-23T09:22:13Z</time>
      </trkpt>
      <trkpt lat="50.47606" lon="1.73047">
        <ele>5</ele>
        <time>2014-11-23T09:22:17Z</time>
      </trkpt>
      <trkpt lat="50.47606" lon="1.7306">
        <ele>0.4</ele>
        <time>2014-11-23T09:22:19Z</time>
      </trkpt>
      <trkpt lat="50.47609" lon="1.73081">
        <ele>0.2</ele>
        <time>2014-11-23T09:22:22Z</time>
      </trkpt>
      <trkpt lat="50.4761" lon="1.73088">
        <ele>0.2</ele>
        <time>2014-11-23T09:22:23Z</time>
      </trkpt>
      <trkpt lat="50.47614" lon="1.7312">
        <ele>5</ele>
        <time>2014-11-23T09:22:27Z</time>
      </trkpt>
      <trkpt lat="50.47615" lon="1.73136">
        <ele>-0.2</ele>
        <time>2014-11-23T09:22:29Z</time>
      </trkpt>
      <trkpt lat="50.47611" lon="1.73194">
        <ele>0.4</ele>
        <time>2014-11-23T09:22:36Z</time>
      </trkpt>
      <trkpt lat="50.47599" lon="1.73251">
        <ele>5</ele>
        <time>2014-11-23T09:22:43Z</time>
      </trkpt>
      <trkpt lat="50.47591" lon="1.73285">
        <ele>4.9</ele>
        <time>2014-11-23T09:22:47Z</time>
      </trkpt>
      <trkpt lat="50.47584" lon="1.7331">
        <ele>5</ele>
        <time>2014-11-23T09:22:50Z</time>
      </trkpt>
      <trkpt lat="50.47566" lon="1.73374">
        <ele>-0.4</ele>
        <time>2014-11-23T09:22:58Z</time>
      </trkpt>
      <trkpt lat="50.47562" lon="1.73382">
        <ele>-0.6</ele>
        <time>2014-11-23T09:22:59Z</time>
      </trkpt>
      <trkpt lat="50.47548" lon="1.73411">
        <ele>-0.4</ele>
        <time>2014-11-23T09:23:03Z</time>
      </trkpt>
      <trkpt lat="50.47519" lon="1.73457">
        <ele>-0.2</ele>
        <time>2014-11-23T09:23:10Z</time>
      </trkpt>
      <trkpt lat="50.47486" lon="1.73508">
        <ele>-0.6</ele>
        <time>2014-11-23T09:23:18Z</time>
      </trkpt>
      <trkpt lat="50.47458" lon="1.73553">
        <ele>-0.4</ele>
        <time>2014-11-23T09:23:25Z</time>
      </trkpt>
      <trkpt lat="50.47434" lon="1.73591">
        <ele>-0.2</ele>
        <time>2014-11-23T09:23:31Z</time>
      </trkpt>
      <trkpt lat="50.47416" lon="1.73619">
        <ele>-0.2</ele>
        <time>2014-11-23T09:23:36Z</time>
      </trkpt>
      <trkpt lat="50.47414" lon="1.73626">
        <ele>-0.2</ele>
        <time>2014-11-23T09:23:37Z</time>
      </trkpt>
      <trkpt lat="50.47416" lon="1.73647">
        <ele>-0.6</ele>
        <time>2014-11-23T09:23:40Z</time>
      </trkpt>
      <trkpt lat="50.47429" lon="1.73657">
        <ele>-0.6</ele>
        <time>2014-11-23T09:23:43Z</time>
      </trkpt>
      <trkpt lat="50.47434" lon="1.7366">
        <ele>-0.6</ele>
        <time>2014-11-23T09:23:44Z</time>
      </trkpt>
      <trkpt lat="50.4746" lon="1.73677">
        <ele>-0.6</ele>
        <time>2014-11-23T09:23:49Z</time>
      </trkpt>
      <trkpt lat="50.47481" lon="1.73691">
        <ele>-1</ele>
        <time>2014-11-23T09:23:53Z</time>
      </trkpt>
      <trkpt lat="50.47486" lon="1.73694">
        <ele>-0.8</ele>
        <time>2014-11-23T09:23:54Z</time>
      </trkpt>
      <trkpt lat="50.47511" lon="1.73712">
        <ele>-1</ele>
        <time>2014-11-23T09:23:59Z</time>
      </trkpt>
      <trkpt lat="50.47536" lon="1.73733">
        <ele>-0.6</ele>
        <time>2014-11-23T09:24:04Z</time>
      </trkpt>
      <trkpt lat="50.4754" lon="1.73741">
        <ele>-0.6</ele>
        <time>2014-11-23T09:24:05Z</time>
      </trkpt>
      <trkpt lat="50.4754" lon="1.73768">
        <ele>-1</ele>
        <time>2014-11-23T09:24:08Z</time>
      </trkpt>
      <trkpt lat="50.47537" lon="1.73783">
        <ele>-1.2</ele>
        <time>2014-11-23T09:24:10Z</time>
      </trkpt>
      <trkpt lat="50.47536" lon="1.73791">
        <ele>-1.2</ele>
        <time>2014-11-23T09:24:11Z</time>
      </trkpt>
      <trkpt lat="50.47535" lon="1.73799">
        <ele>-1.2</ele>
        <time>2014-11-23T09:24:12Z</time>
      </trkpt>
      <trkpt lat="50.47536" lon="1.73806">
        <ele>-0.8</ele>
        <time>2014-11-23T09:24:13Z</time>
      </trkpt>
      <trkpt lat="50.47538" lon="1.73828">
        <ele>-1</ele>
        <time>2014-11-23T09:24:16Z</time>
      </trkpt>
      <trkpt lat="50.47543" lon="1.73864">
        <ele>5</ele>
        <time>2014-11-23T09:24:21Z</time>
      </trkpt>
      <trkpt lat="50.47545" lon="1.73871">
        <ele>5</ele>
        <time>2014-11-23T09:24:22Z</time>
      </trkpt>
      <trkpt lat="50.47549" lon="1.73898">
        <ele>4.9</ele>
        <time>2014-11-23T09:24:25Z</time>
      </trkpt>
      <trkpt lat="50.4755" lon="1.73907">
        <ele>0.2</ele>
        <time>2014-11-23T09:24:26Z</time>
      </trkpt>
      <trkpt lat="50.4755" lon="1.73916">
        <ele>4.8</ele>
        <time>2014-11-23T09:24:27Z</time>
      </trkpt>
      <trkpt lat="50.47552" lon="1.73954">
        <ele>-0.6</ele>
        <time>2014-11-23T09:24:31Z</time>
      </trkpt>
      <trkpt lat="50.47545" lon="1.73991">
        <ele>-0.4</ele>
        <time>2014-11-23T09:24:35Z</time>
      </trkpt>
      <trkpt lat="50.47541" lon="1.73998">
        <ele>-0.8</ele>
        <time>2014-11-23T09:24:36Z</time>
      </trkpt>
      <trkpt lat="50.47532" lon="1.74012">
        <ele>-0.8</ele>
        <time>2014-11-23T09:24:38Z</time>
      </trkpt>
      <trkpt lat="50.47529" lon="1.7402">
        <ele>-0.6</ele>
        <time>2014-11-23T09:24:39Z</time>
      </trkpt>
      <trkpt lat="50.47517" lon="1.74056">
        <ele>-0.8</ele>
        <time>2014-11-23T09:24:43Z</time>
      </trkpt>
      <trkpt lat="50.47514" lon="1.74065">
        <ele>-0.6</ele>
        <time>2014-11-23T09:24:44Z</time>
      </trkpt>
      <trkpt lat="50.47503" lon="1.74112">
        <ele>-1</ele>
        <time>2014-11-23T09:24:49Z</time>
      </trkpt>
      <trkpt lat="50.47485" lon="1.74162">
        <ele>5</ele>
        <time>2014-11-23T09:24:55Z</time>
      </trkpt>
      <trkpt lat="50.4748" lon="1.74179">
        <ele>-0.4</ele>
        <time>2014-11-23T09:24:57Z</time>
      </trkpt>
      <trkpt lat="50.47469" lon="1.742">
        <ele>-0.6</ele>
        <time>2014-11-23T09:25:00Z</time>
      </trkpt>
      <trkpt lat="50.47464" lon="1.74204">
        <ele>-0.8</ele>
        <time>2014-11-23T09:25:01Z</time>
      </trkpt>
      <trkpt lat="50.47445" lon="1.74209">
        <ele>-0.2</ele>
        <time>2014-11-23T09:25:05Z</time>
      </trkpt>
      <trkpt lat="50.4744" lon="1.74208">
        <ele>-0.2</ele>
        <time>2014-11-23T09:25:06Z</time>
      </trkpt>
      <trkpt lat="50.47424" lon="1.74209">
        <ele>-0.2</ele>
        <time>2014-11-23T09:25:09Z</time>
      </trkpt>
      <trkpt lat="50.4742" lon="1.74213">
        <ele>-0.6</ele>
        <time>2014-11-23T09:25:10Z</time>
      </trkpt>
      <trkpt lat="50.47409" lon="1.74232">
        <ele>-0.6</ele>
        <time>2014-11-23T09:25:13Z</time>
      </trkpt>
      <trkpt lat="50.47397" lon="1.74262">
        <ele>-0.6</ele>
        <time>2014-11-23T09:25:17Z</time>
      </trkpt>
      <trkpt lat="50.47394" lon="1.74269">
        <ele>-0.6</ele>
        <time>2014-11-23T09:25:18Z</time>
      </trkpt>
      <trkpt lat="50.47387" lon="1.74285">
        <ele>0.2</ele>
        <time>2014-11-23T09:25:20Z</time>
      </trkpt>
      <trkpt lat="50.47378" lon="1.74308">
        <ele>-0.8</ele>
        <time>2014-11-23T09:25:23Z</time>
      </trkpt>
      <trkpt lat="50.47374" lon="1.74315">
        <ele>-0.8</ele>
        <time>2014-11-23T09:25:24Z</time>
      </trkpt>
      <trkpt lat="50.4736" lon="1.74354">
        <ele>-0.2</ele>
        <time>2014-11-23T09:25:29Z</time>
      </trkpt>
      <trkpt lat="50.47355" lon="1.74371">
        <ele>-1.2</ele>
        <time>2014-11-23T09:25:31Z</time>
      </trkpt>
      <trkpt lat="50.47351" lon="1.74406">
        <ele>-0.8</ele>
        <time>2014-11-23T09:25:35Z</time>
      </trkpt>
      <trkpt lat="50.47346" lon="1.74459">
        <ele>-0.6</ele>
        <time>2014-11-23T09:25:41Z</time>
      </trkpt>
      <trkpt lat="50.47342" lon="1.74502">
        <ele>0.2</ele>
        <time>2014-11-23T09:25:46Z</time>
      </trkpt>
      <trkpt lat="50.4734" lon="1.7452">
        <ele>-0.2</ele>
        <time>2014-11-23T09:25:48Z</time>
      </trkpt>
      <trkpt lat="50.47336" lon="1.74563">
        <ele>-0.4</ele>
        <time>2014-11-23T09:25:53Z</time>
      </trkpt>
      <trkpt lat="50.47333" lon="1.74588">
        <ele>-0.8</ele>
        <time>2014-11-23T09:25:56Z</time>
      </trkpt>
      <trkpt lat="50.47328" lon="1.74623">
        <ele>-0.4</ele>
        <time>2014-11-23T09:26:00Z</time>
      </trkpt>
      <trkpt lat="50.47327" lon="1.74632">
        <ele>0.2</ele>
        <time>2014-11-23T09:26:01Z</time>
      </trkpt>
      <trkpt lat="50.47323" lon="1.74681">
        <ele>0.2</ele>
        <time>2014-11-23T09:26:07Z</time>
      </trkpt>
      <trkpt lat="50.4732" lon="1.747">
        <ele>0.4</ele>
        <time>2014-11-23T09:26:09Z</time>
      </trkpt>
      <trkpt lat="50.47318" lon="1.74718">
        <ele>5</ele>
        <time>2014-11-23T09:26:11Z</time>
      </trkpt>
      <trkpt lat="50.47313" lon="1.74772">
        <ele>-0.6</ele>
        <time>2014-11-23T09:26:17Z</time>
      </trkpt>
      <trkpt lat="50.47309" lon="1.74806">
        <ele>-0.2</ele>
        <time>2014-11-23T09:26:21Z</time>
      </trkpt>
      <trkpt lat="50.47307" lon="1.74814">
        <ele>-0.4</ele>
        <time>2014-11-23T09:26:22Z</time>
      </trkpt>
      <trkpt lat="50.47304" lon="1.74832">
        <ele>-0.8</ele>
        <time>2014-11-23T09:26:24Z</time>
      </trkpt>
      <trkpt lat="50.47301" lon="1.7484">
        <ele>-1</ele>
        <time>2014-11-23T09:26:25Z</time>
      </trkpt>
      <trkpt lat="50.47295" lon="1.74856">
        <ele>-0.6</ele>
        <time>2014-11-23T09:26:27Z</time>
      </trkpt>
      <trkpt lat="50.47272" lon="1.7489">
        <ele>-0.4</ele>
        <time>2014-11-23T09:26:32Z</time>
      </trkpt>
      <trkpt lat="50.47248" lon="1.7492">
        <ele>-0.6</ele>
        <time>2014-11-23T09:26:37Z</time>
      </trkpt>
      <trkpt lat="50.47221" lon="1.74955">
        <ele>-0.6</ele>
        <time>2014-11-23T09:26:43Z</time>
      </trkpt>
      <trkpt lat="50.47185" lon="1.75">
        <ele>-0.4</ele>
        <time>2014-11-23T09:26:51Z</time>
      </trkpt>
      <trkpt lat="50.47154" lon="1.75037">
        <ele>-0.8</ele>
        <time>2014-11-23T09:26:58Z</time>
      </trkpt>
      <trkpt lat="50.47126" lon="1.75071">
        <ele>-0.6</ele>
        <time>2014-11-23T09:27:04Z</time>
      </trkpt>
      <trkpt lat="50.47108" lon="1.75097">
        <ele>-0.8</ele>
        <time>2014-11-23T09:27:08Z</time>
      </trkpt>
      <trkpt lat="50.47103" lon="1.75112">
        <ele>-0.6</ele>
        <time>2014-11-23T09:27:10Z</time>
      </trkpt>
      <trkpt lat="50.47087" lon="1.75135">
        <ele>-0.2</ele>
        <time>2014-11-23T09:27:14Z</time>
      </trkpt>
      <trkpt lat="50.47063" lon="1.75138">
        <ele>-0.4</ele>
        <time>2014-11-23T09:27:18Z</time>
      </trkpt>
      <trkpt lat="50.47027" lon="1.75141">
        <ele>-0.2</ele>
        <time>2014-11-23T09:27:24Z</time>
      </trkpt>
      <trkpt lat="50.4701" lon="1.75148">
        <ele>5.8</ele>
        <time>2014-11-23T09:27:27Z</time>
      </trkpt>
      <trkpt lat="50.46993" lon="1.7515">
        <ele>0.2</ele>
        <time>2014-11-23T09:27:30Z</time>
      </trkpt>
      <trkpt lat="50.46976" lon="1.75153">
        <ele>1.2</ele>
        <time>2014-11-23T09:27:34Z</time>
      </trkpt>
      <trkpt lat="50.46974" lon="1.75157">
        <ele>1.4</ele>
        <time>2014-11-23T09:27:35Z</time>
      </trkpt>
      <trkpt lat="50.46982" lon="1.75165">
        <ele>1.8</ele>
        <time>2014-11-23T09:27:38Z</time>
      </trkpt>
      <trkpt lat="50.46986" lon="1.75168">
        <ele>1.8</ele>
        <time>2014-11-23T09:27:39Z</time>
      </trkpt>
      <trkpt lat="50.46993" lon="1.75175">
        <ele>2</ele>
        <time>2014-11-23T09:27:41Z</time>
      </trkpt>
      <trkpt lat="50.47" lon="1.75185">
        <ele>2</ele>
        <time>2014-11-23T09:27:43Z</time>
      </trkpt>
      <trkpt lat="50.47008" lon="1.75213">
        <ele>2</ele>
        <time>2014-11-23T09:27:47Z</time>
      </trkpt>
      <trkpt lat="50.47008" lon="1.7522">
        <ele>2.2</ele>
        <time>2014-11-23T09:27:48Z</time>
      </trkpt>
      <trkpt lat="50.47008" lon="1.75228">
        <ele>2.2</ele>
        <time>2014-11-23T09:27:49Z</time>
      </trkpt>
      <trkpt lat="50.47012" lon="1.75259">
        <ele>2.2</ele>
        <time>2014-11-23T09:27:53Z</time>
      </trkpt>
      <trkpt lat="50.47018" lon="1.75325">
        <ele>2</ele>
        <time>2014-11-23T09:28:01Z</time>
      </trkpt>
      <trkpt lat="50.47013" lon="1.7538">
        <ele>1.4</ele>
        <time>2014-11-23T09:28:07Z</time>
      </trkpt>
      <trkpt lat="50.47011" lon="1.75388">
        <ele>1.6</ele>
        <time>2014-11-23T09:28:08Z</time>
      </trkpt>
      <trkpt lat="50.46999" lon="1.75402">
        <ele>2</ele>
        <time>2014-11-23T09:28:11Z</time>
      </trkpt>
      <trkpt lat="50.46991" lon="1.75404">
        <ele>2.6</ele>
        <time>2014-11-23T09:28:13Z</time>
      </trkpt>
      <trkpt lat="50.46985" lon="1.75408">
        <ele>3.2</ele>
        <time>2014-11-23T09:28:15Z</time>
      </trkpt>
      <trkpt lat="50.46983" lon="1.7541">
        <ele>3.4</ele>
        <time>2014-11-23T09:28:16Z</time>
      </trkpt>
      <trkpt lat="50.46975" lon="1.75417">
        <ele>4.6</ele>
        <time>2014-11-23T09:28:19Z</time>
      </trkpt>
      <trkpt lat="50.46968" lon="1.75423">
        <ele>5.8</ele>
        <time>2014-11-23T09:28:22Z</time>
      </trkpt>
      <trkpt lat="50.46957" lon="1.75434">
        <ele>6.8</ele>
        <time>2014-11-23T09:28:27Z</time>
      </trkpt>
      <trkpt lat="50.46953" lon="1.7544">
        <ele>8.2</ele>
        <time>2014-11-23T09:28:29Z</time>
      </trkpt>
      <trkpt lat="50.46952" lon="1.75442">
        <ele>8.6</ele>
        <time>2014-11-23T09:28:30Z</time>
      </trkpt>
      <trkpt lat="50.46948" lon="1.75447">
        <ele>9.4</ele>
        <time>2014-11-23T09:28:32Z</time>
      </trkpt>
      <trkpt lat="50.4694" lon="1.7546">
        <ele>10.4</ele>
        <time>2014-11-23T09:28:36Z</time>
      </trkpt>
      <trkpt lat="50.46938" lon="1.75464">
        <ele>10.8</ele>
        <time>2014-11-23T09:28:37Z</time>
      </trkpt>
      <trkpt lat="50.46932" lon="1.75473">
        <ele>12</ele>
        <time>2014-11-23T09:28:40Z</time>
      </trkpt>
      <trkpt lat="50.46926" lon="1.7548">
        <ele>13.2</ele>
        <time>2014-11-23T09:28:43Z</time>
      </trkpt>
      <trkpt lat="50.46924" lon="1.75482">
        <ele>13.2</ele>
        <time>2014-11-23T09:28:44Z</time>
      </trkpt>
      <trkpt lat="50.46913" lon="1.75494">
        <ele>14.6</ele>
        <time>2014-11-23T09:28:49Z</time>
      </trkpt>
      <trkpt lat="50.46903" lon="1.75502">
        <ele>15</ele>
        <time>2014-11-23T09:28:53Z</time>
      </trkpt>
      <trkpt lat="50.46898" lon="1.75511">
        <ele>15.6</ele>
        <time>2014-11-23T09:28:56Z</time>
      </trkpt>
      <trkpt lat="50.46897" lon="1.75517">
        <ele>15.8</ele>
        <time>2014-11-23T09:28:58Z</time>
      </trkpt>
      <trkpt lat="50.46891" lon="1.75551">
        <ele>16.2</ele>
        <time>2014-11-23T09:29:06Z</time>
      </trkpt>
      <trkpt lat="50.46886" lon="1.75576">
        <ele>17</ele>
        <time>2014-11-23T09:29:12Z</time>
      </trkpt>
      <trkpt lat="50.46884" lon="1.75588">
        <ele>17.2</ele>
        <time>2014-11-23T09:29:15Z</time>
      </trkpt>
      <trkpt lat="50.46881" lon="1.75598">
        <ele>18</ele>
        <time>2014-11-23T09:29:18Z</time>
      </trkpt>
      <trkpt lat="50.46877" lon="1.7562">
        <ele>19</ele>
        <time>2014-11-23T09:29:24Z</time>
      </trkpt>
      <trkpt lat="50.46872" lon="1.75628">
        <ele>20.2</ele>
        <time>2014-11-23T09:29:27Z</time>
      </trkpt>
      <trkpt lat="50.46868" lon="1.75632">
        <ele>20.4</ele>
        <time>2014-11-23T09:29:29Z</time>
      </trkpt>
      <trkpt lat="50.46853" lon="1.75645">
        <ele>21.4</ele>
        <time>2014-11-23T09:29:36Z</time>
      </trkpt>
      <trkpt lat="50.46851" lon="1.75647">
        <ele>21.6</ele>
        <time>2014-11-23T09:29:37Z</time>
      </trkpt>
      <trkpt lat="50.46838" lon="1.75659">
        <ele>22.6</ele>
        <time>2014-11-23T09:29:43Z</time>
      </trkpt>
      <trkpt lat="50.46834" lon="1.75663">
        <ele>23.4</ele>
        <time>2014-11-23T09:29:45Z</time>
      </trkpt>
      <trkpt lat="50.4683" lon="1.75666">
        <ele>23.8</ele>
        <time>2014-11-23T09:29:47Z</time>
      </trkpt>
      <trkpt lat="50.46814" lon="1.75682">
        <ele>25</ele>
        <time>2014-11-23T09:29:55Z</time>
      </trkpt>
      <trkpt lat="50.46812" lon="1.75684">
        <ele>25.2</ele>
        <time>2014-11-23T09:29:56Z</time>
      </trkpt>
      <trkpt lat="50.46801" lon="1.75696">
        <ele>26.2</ele>
        <time>2014-11-23T09:30:02Z</time>
      </trkpt>
      <trkpt lat="50.46793" lon="1.75703">
        <ele>26.8</ele>
        <time>2014-11-23T09:30:06Z</time>
      </trkpt>
      <trkpt lat="50.4679" lon="1.75706">
        <ele>27.2</ele>
        <time>2014-11-23T09:30:08Z</time>
      </trkpt>
      <trkpt lat="50.46775" lon="1.75722">
        <ele>28.2</ele>
        <time>2014-11-23T09:30:16Z</time>
      </trkpt>
      <trkpt lat="50.46771" lon="1.75726">
        <ele>29.6</ele>
        <time>2014-11-23T09:30:19Z</time>
      </trkpt>
      <trkpt lat="50.46763" lon="1.75733">
        <ele>30.6</ele>
        <time>2014-11-23T09:30:24Z</time>
      </trkpt>
      <trkpt lat="50.46762" lon="1.75734">
        <ele>31.6</ele>
        <time>2014-11-23T09:30:25Z</time>
      </trkpt>
      <trkpt lat="50.46761" lon="1.75736">
        <ele>32</ele>
        <time>2014-11-23T09:30:26Z</time>
      </trkpt>
      <trkpt lat="50.46761" lon="1.75738">
        <ele>32.4</ele>
        <time>2014-11-23T09:30:27Z</time>
      </trkpt>
      <trkpt lat="50.46764" lon="1.75741">
        <ele>33</ele>
        <time>2014-11-23T09:30:30Z</time>
      </trkpt>
      <trkpt lat="50.46765" lon="1.75743">
        <ele>33.2</ele>
        <time>2014-11-23T09:30:31Z</time>
      </trkpt>
      <trkpt lat="50.46772" lon="1.75757">
        <ele>33.8</ele>
        <time>2014-11-23T09:30:36Z</time>
      </trkpt>
      <trkpt lat="50.46777" lon="1.7576">
        <ele>33.8</ele>
        <time>2014-11-23T09:30:38Z</time>
      </trkpt>
      <trkpt lat="50.46782" lon="1.75759">
        <ele>33.8</ele>
        <time>2014-11-23T09:30:40Z</time>
      </trkpt>
      <trkpt lat="50.46807" lon="1.75757">
        <ele>34</ele>
        <time>2014-11-23T09:30:48Z</time>
      </trkpt>
      <trkpt lat="50.4683" lon="1.75755">
        <ele>34.2</ele>
        <time>2014-11-23T09:30:54Z</time>
      </trkpt>
      <trkpt lat="50.46834" lon="1.75754">
        <ele>34</ele>
        <time>2014-11-23T09:30:55Z</time>
      </trkpt>
      <trkpt lat="50.46851" lon="1.75759">
        <ele>34.4</ele>
        <time>2014-11-23T09:31:01Z</time>
      </trkpt>
      <trkpt lat="50.46852" lon="1.75773">
        <ele>34</ele>
        <time>2014-11-23T09:31:04Z</time>
      </trkpt>
      <trkpt lat="50.46851" lon="1.75777">
        <ele>34</ele>
        <time>2014-11-23T09:31:05Z</time>
      </trkpt>
      <trkpt lat="50.46849" lon="1.75786">
        <ele>34</ele>
        <time>2014-11-23T09:31:09Z</time>
      </trkpt>
      <trkpt lat="50.46849" lon="1.75786">
        <ele>34</ele>
        <time>2014-11-23T09:31:10Z</time>
      </trkpt>
      <trkpt lat="50.46849" lon="1.75788">
        <ele>34</ele>
        <time>2014-11-23T09:31:21Z</time>
      </trkpt>
      <trkpt lat="50.46848" lon="1.7579">
        <ele>33.8</ele>
        <time>2014-11-23T09:31:22Z</time>
      </trkpt>
      <trkpt lat="50.46847" lon="1.75798">
        <ele>33.4</ele>
        <time>2014-11-23T09:31:24Z</time>
      </trkpt>
      <trkpt lat="50.46844" lon="1.75809">
        <ele>33.8</ele>
        <time>2014-11-23T09:31:27Z</time>
      </trkpt>
      <trkpt lat="50.46843" lon="1.75815">
        <ele>34.6</ele>
        <time>2014-11-23T09:31:29Z</time>
      </trkpt>
      <trkpt lat="50.4684" lon="1.75829">
        <ele>35.8</ele>
        <time>2014-11-23T09:31:33Z</time>
      </trkpt>
      <trkpt lat="50.46839" lon="1.75832">
        <ele>36.2</ele>
        <time>2014-11-23T09:31:34Z</time>
      </trkpt>
      <trkpt lat="50.46836" lon="1.75855">
        <ele>35.8</ele>
        <time>2014-11-23T09:31:39Z</time>
      </trkpt>
      <trkpt lat="50.46828" lon="1.75892">
        <ele>35.4</ele>
        <time>2014-11-23T09:31:47Z</time>
      </trkpt>
      <trkpt lat="50.46824" lon="1.75914">
        <ele>35.8</ele>
        <time>2014-11-23T09:31:52Z</time>
      </trkpt>
      <trkpt lat="50.46819" lon="1.75944">
        <ele>34.8</ele>
        <time>2014-11-23T09:31:59Z</time>
      </trkpt>
      <trkpt lat="50.46818" lon="1.75952">
        <ele>34.8</ele>
        <time>2014-11-23T09:32:01Z</time>
      </trkpt>
      <trkpt lat="50.46817" lon="1.75968">
        <ele>35.2</ele>
        <time>2014-11-23T09:32:06Z</time>
      </trkpt>
      <trkpt lat="50.46816" lon="1.75981">
        <ele>34.4</ele>
        <time>2014-11-23T09:32:10Z</time>
      </trkpt>
      <trkpt lat="50.46814" lon="1.75987">
        <ele>34.4</ele>
        <time>2014-11-23T09:32:14Z</time>
      </trkpt>
      <trkpt lat="50.46812" lon="1.75992">
        <ele>33.4</ele>
        <time>2014-11-23T09:32:16Z</time>
      </trkpt>
      <trkpt lat="50.46811" lon="1.76002">
        <ele>32</ele>
        <time>2014-11-23T09:32:18Z</time>
      </trkpt>
      <trkpt lat="50.46807" lon="1.76009">
        <ele>31.8</ele>
        <time>2014-11-23T09:32:19Z</time>
      </trkpt>
      <trkpt lat="50.46807" lon="1.76024">
        <ele>31.6</ele>
        <time>2014-11-23T09:32:22Z</time>
      </trkpt>
      <trkpt lat="50.46809" lon="1.76041">
        <ele>32.2</ele>
        <time>2014-11-23T09:32:27Z</time>
      </trkpt>
      <trkpt lat="50.46805" lon="1.76051">
        <ele>32</ele>
        <time>2014-11-23T09:32:31Z</time>
      </trkpt>
      <trkpt lat="50.46803" lon="1.76053">
        <ele>32</ele>
        <time>2014-11-23T09:32:32Z</time>
      </trkpt>
      <trkpt lat="50.46786" lon="1.76064">
        <ele>32.8</ele>
        <time>2014-11-23T09:32:37Z</time>
      </trkpt>
      <trkpt lat="50.46778" lon="1.76075">
        <ele>33.2</ele>
        <time>2014-11-23T09:32:40Z</time>
      </trkpt>
      <trkpt lat="50.46776" lon="1.76083">
        <ele>33.4</ele>
        <time>2014-11-23T09:32:41Z</time>
      </trkpt>
      <trkpt lat="50.46762" lon="1.76133">
        <ele>34.6</ele>
        <time>2014-11-23T09:32:49Z</time>
      </trkpt>
      <trkpt lat="50.4676" lon="1.76138">
        <ele>34.8</ele>
        <time>2014-11-23T09:32:50Z</time>
      </trkpt>
      <trkpt lat="50.46757" lon="1.76148">
        <ele>35.6</ele>
        <time>2014-11-23T09:32:52Z</time>
      </trkpt>
      <trkpt lat="50.46749" lon="1.76173">
        <ele>36.6</ele>
        <time>2014-11-23T09:32:57Z</time>
      </trkpt>
      <trkpt lat="50.46747" lon="1.76177">
        <ele>37</ele>
        <time>2014-11-23T09:32:58Z</time>
      </trkpt>
      <trkpt lat="50.46738" lon="1.76205">
        <ele>37.2</ele>
        <time>2014-11-23T09:33:04Z</time>
      </trkpt>
      <trkpt lat="50.46736" lon="1.76233">
        <ele>35.2</ele>
        <time>2014-11-23T09:33:07Z</time>
      </trkpt>
      <trkpt lat="50.46733" lon="1.76245">
        <ele>34</ele>
        <time>2014-11-23T09:33:08Z</time>
      </trkpt>
      <trkpt lat="50.46727" lon="1.76269">
        <ele>32.2</ele>
        <time>2014-11-23T09:33:10Z</time>
      </trkpt>
      <trkpt lat="50.46723" lon="1.76283">
        <ele>31.2</ele>
        <time>2014-11-23T09:33:11Z</time>
      </trkpt>
      <trkpt lat="50.4672" lon="1.76297">
        <ele>30</ele>
        <time>2014-11-23T09:33:12Z</time>
      </trkpt>
      <trkpt lat="50.46713" lon="1.76325">
        <ele>28.8</ele>
        <time>2014-11-23T09:33:14Z</time>
      </trkpt>
      <trkpt lat="50.4671" lon="1.76339">
        <ele>28.2</ele>
        <time>2014-11-23T09:33:15Z</time>
      </trkpt>
      <trkpt lat="50.46707" lon="1.76352">
        <ele>27.6</ele>
        <time>2014-11-23T09:33:16Z</time>
      </trkpt>
      <trkpt lat="50.46697" lon="1.76392">
        <ele>26.4</ele>
        <time>2014-11-23T09:33:19Z</time>
      </trkpt>
      <trkpt lat="50.46691" lon="1.76415">
        <ele>25.2</ele>
        <time>2014-11-23T09:33:21Z</time>
      </trkpt>
      <trkpt lat="50.46688" lon="1.76425">
        <ele>24.8</ele>
        <time>2014-11-23T09:33:22Z</time>
      </trkpt>
      <trkpt lat="50.46681" lon="1.76453">
        <ele>23.2</ele>
        <time>2014-11-23T09:33:25Z</time>
      </trkpt>
      <trkpt lat="50.46679" lon="1.76461">
        <ele>22.4</ele>
        <time>2014-11-23T09:33:26Z</time>
      </trkpt>
      <trkpt lat="50.46678" lon="1.76468">
        <ele>21.8</ele>
        <time>2014-11-23T09:33:27Z</time>
      </trkpt>
      <trkpt lat="50.46679" lon="1.76478">
        <ele>20.4</ele>
        <time>2014-11-23T09:33:29Z</time>
      </trkpt>
      <trkpt lat="50.46683" lon="1.76481">
        <ele>20.2</ele>
        <time>2014-11-23T09:33:30Z</time>
      </trkpt>
      <trkpt lat="50.4669" lon="1.76489">
        <ele>19.2</ele>
        <time>2014-11-23T09:33:32Z</time>
      </trkpt>
      <trkpt lat="50.467" lon="1.765">
        <ele>18.2</ele>
        <time>2014-11-23T09:33:34Z</time>
      </trkpt>
      <trkpt lat="50.4671" lon="1.76515">
        <ele>16.6</ele>
        <time>2014-11-23T09:33:36Z</time>
      </trkpt>
      <trkpt lat="50.46714" lon="1.76525">
        <ele>15.6</ele>
        <time>2014-11-23T09:33:37Z</time>
      </trkpt>
      <trkpt lat="50.46719" lon="1.76548">
        <ele>14.6</ele>
        <time>2014-11-23T09:33:39Z</time>
      </trkpt>
      <trkpt lat="50.46721" lon="1.76561">
        <ele>14.4</ele>
        <time>2014-11-23T09:33:40Z</time>
      </trkpt>
      <trkpt lat="50.46723" lon="1.76574">
        <ele>13.4</ele>
        <time>2014-11-23T09:33:41Z</time>
      </trkpt>
      <trkpt lat="50.46724" lon="1.76588">
        <ele>12.6</ele>
        <time>2014-11-23T09:33:42Z</time>
      </trkpt>
      <trkpt lat="50.46724" lon="1.76603">
        <ele>11.6</ele>
        <time>2014-11-23T09:33:43Z</time>
      </trkpt>
      <trkpt lat="50.46725" lon="1.76618">
        <ele>11</ele>
        <time>2014-11-23T09:33:44Z</time>
      </trkpt>
      <trkpt lat="50.46727" lon="1.76648">
        <ele>9.4</ele>
        <time>2014-11-23T09:33:46Z</time>
      </trkpt>
      <trkpt lat="50.4673" lon="1.76664">
        <ele>8.4</ele>
        <time>2014-11-23T09:33:47Z</time>
      </trkpt>
      <trkpt lat="50.46733" lon="1.76679">
        <ele>7.4</ele>
        <time>2014-11-23T09:33:48Z</time>
      </trkpt>
      <trkpt lat="50.46737" lon="1.76709">
        <ele>6</ele>
        <time>2014-11-23T09:33:50Z</time>
      </trkpt>
      <trkpt lat="50.46738" lon="1.76724">
        <ele>5.4</ele>
        <time>2014-11-23T09:33:51Z</time>
      </trkpt>
      <trkpt lat="50.46737" lon="1.76738">
        <ele>5</ele>
        <time>2014-11-23T09:33:52Z</time>
      </trkpt>
      <trkpt lat="50.46727" lon="1.76768">
        <ele>4.4</ele>
        <time>2014-11-23T09:33:55Z</time>
      </trkpt>
      <trkpt lat="50.46717" lon="1.76778">
        <ele>4.8</ele>
        <time>2014-11-23T09:33:57Z</time>
      </trkpt>
      <trkpt lat="50.46713" lon="1.76783">
        <ele>5</ele>
        <time>2014-11-23T09:33:58Z</time>
      </trkpt>
      <trkpt lat="50.46706" lon="1.7679">
        <ele>6</ele>
        <time>2014-11-23T09:34:00Z</time>
      </trkpt>
      <trkpt lat="50.46698" lon="1.76798">
        <ele>7</ele>
        <time>2014-11-23T09:34:03Z</time>
      </trkpt>
      <trkpt lat="50.46676" lon="1.76818">
        <ele>8</ele>
        <time>2014-11-23T09:34:12Z</time>
      </trkpt>
      <trkpt lat="50.46674" lon="1.76821">
        <ele>8.4</ele>
        <time>2014-11-23T09:34:13Z</time>
      </trkpt>
      <trkpt lat="50.46665" lon="1.76829">
        <ele>9.6</ele>
        <time>2014-11-23T09:34:18Z</time>
      </trkpt>
      <trkpt lat="50.46663" lon="1.7683">
        <ele>9.6</ele>
        <time>2014-11-23T09:34:19Z</time>
      </trkpt>
      <trkpt lat="50.46647" lon="1.76829">
        <ele>10.2</ele>
        <time>2014-11-23T09:34:27Z</time>
      </trkpt>
      <trkpt lat="50.46644" lon="1.76827">
        <ele>10.6</ele>
        <time>2014-11-23T09:34:29Z</time>
      </trkpt>
      <trkpt lat="50.46635" lon="1.76819">
        <ele>11.6</ele>
        <time>2014-11-23T09:34:34Z</time>
      </trkpt>
      <trkpt lat="50.46633" lon="1.76817">
        <ele>11.8</ele>
        <time>2014-11-23T09:34:35Z</time>
      </trkpt>
      <trkpt lat="50.46626" lon="1.76804">
        <ele>12.2</ele>
        <time>2014-11-23T09:34:41Z</time>
      </trkpt>
      <trkpt lat="50.46623" lon="1.76789">
        <ele>12.6</ele>
        <time>2014-11-23T09:34:46Z</time>
      </trkpt>
      <trkpt lat="50.46622" lon="1.76784">
        <ele>13</ele>
        <time>2014-11-23T09:34:48Z</time>
      </trkpt>
      <trkpt lat="50.46622" lon="1.76763">
        <ele>13.8</ele>
        <time>2014-11-23T09:34:55Z</time>
      </trkpt>
      <trkpt lat="50.46622" lon="1.76758">
        <ele>14</ele>
        <time>2014-11-23T09:34:57Z</time>
      </trkpt>
      <trkpt lat="50.46624" lon="1.76749">
        <ele>14.4</ele>
        <time>2014-11-23T09:35:01Z</time>
      </trkpt>
      <trkpt lat="50.46623" lon="1.76744">
        <ele>14.4</ele>
        <time>2014-11-23T09:35:03Z</time>
      </trkpt>
      <trkpt lat="50.4662" lon="1.76744">
        <ele>14.4</ele>
        <time>2014-11-23T09:35:05Z</time>
      </trkpt>
      <trkpt lat="50.46614" lon="1.76755">
        <ele>14.2</ele>
        <time>2014-11-23T09:35:08Z</time>
      </trkpt>
      <trkpt lat="50.46613" lon="1.76759">
        <ele>14.2</ele>
        <time>2014-11-23T09:35:09Z</time>
      </trkpt>
      <trkpt lat="50.46603" lon="1.76783">
        <ele>13.4</ele>
        <time>2014-11-23T09:35:15Z</time>
      </trkpt>
      <trkpt lat="50.46601" lon="1.76784">
        <ele>13.4</ele>
        <time>2014-11-23T09:35:17Z</time>
      </trkpt>
      <trkpt lat="50.46601" lon="1.76784">
        <ele>13.2</ele>
        <time>2014-11-23T09:35:19Z</time>
      </trkpt>
      <trkpt lat="50.46601" lon="1.76784">
        <ele>13</ele>
        <time>2014-11-23T09:35:22Z</time>
      </trkpt>
      <trkpt lat="50.46601" lon="1.76784">
        <ele>12.6</ele>
        <time>2014-11-23T09:35:34Z</time>
      </trkpt>
      <trkpt lat="50.46601" lon="1.76783">
        <ele>12.8</ele>
        <time>2014-11-23T09:35:47Z</time>
      </trkpt>
      <trkpt lat="50.46601" lon="1.76783">
        <ele>13</ele>
        <time>2014-11-23T09:35:59Z</time>
      </trkpt>
      <trkpt lat="50.46601" lon="1.76783">
        <ele>13</ele>
        <time>2014-11-23T09:36:22Z</time>
      </trkpt>
      <trkpt lat="50.46605" lon="1.76787">
        <ele>12.8</ele>
        <time>2014-11-23T09:36:28Z</time>
      </trkpt>
      <trkpt lat="50.46613" lon="1.7679">
        <ele>12.8</ele>
        <time>2014-11-23T09:36:33Z</time>
      </trkpt>
      <trkpt lat="50.46623" lon="1.76798">
        <ele>12</ele>
        <time>2014-11-23T09:36:40Z</time>
      </trkpt>
      <trkpt lat="50.46624" lon="1.76799">
        <ele>11.6</ele>
        <time>2014-11-23T09:36:41Z</time>
      </trkpt>
      <trkpt lat="50.46626" lon="1.76803">
        <ele>11.4</ele>
        <time>2014-11-23T09:36:46Z</time>
      </trkpt>
      <trkpt lat="50.46628" lon="1.76807">
        <ele>11.4</ele>
        <time>2014-11-23T09:36:55Z</time>
      </trkpt>
      <trkpt lat="50.46637" lon="1.76816">
        <ele>10.8</ele>
        <time>2014-11-23T09:36:59Z</time>
      </trkpt>
      <trkpt lat="50.4664" lon="1.76817">
        <ele>10.6</ele>
        <time>2014-11-23T09:37:00Z</time>
      </trkpt>
      <trkpt lat="50.46642" lon="1.76818">
        <ele>10.4</ele>
        <time>2014-11-23T09:37:01Z</time>
      </trkpt>
      <trkpt lat="50.4665" lon="1.76819">
        <ele>9.6</ele>
        <time>2014-11-23T09:37:04Z</time>
      </trkpt>
      <trkpt lat="50.46659" lon="1.76816">
        <ele>8.4</ele>
        <time>2014-11-23T09:37:07Z</time>
      </trkpt>
      <trkpt lat="50.46665" lon="1.76811">
        <ele>8.2</ele>
        <time>2014-11-23T09:37:09Z</time>
      </trkpt>
      <trkpt lat="50.46682" lon="1.76796">
        <ele>7.4</ele>
        <time>2014-11-23T09:37:13Z</time>
      </trkpt>
      <trkpt lat="50.46686" lon="1.76791">
        <ele>7</ele>
        <time>2014-11-23T09:37:14Z</time>
      </trkpt>
      <trkpt lat="50.46699" lon="1.7678">
        <ele>6</ele>
        <time>2014-11-23T09:37:17Z</time>
      </trkpt>
      <trkpt lat="50.4671" lon="1.7677">
        <ele>5.4</ele>
        <time>2014-11-23T09:37:20Z</time>
      </trkpt>
      <trkpt lat="50.46715" lon="1.76763">
        <ele>4.8</ele>
        <time>2014-11-23T09:37:22Z</time>
      </trkpt>
      <trkpt lat="50.46727" lon="1.76752">
        <ele>4</ele>
        <time>2014-11-23T09:37:26Z</time>
      </trkpt>
      <trkpt lat="50.46731" lon="1.76748">
        <ele>3.6</ele>
        <time>2014-11-23T09:37:28Z</time>
      </trkpt>
      <trkpt lat="50.46736" lon="1.76736">
        <ele>2.8</ele>
        <time>2014-11-23T09:37:32Z</time>
      </trkpt>
      <trkpt lat="50.46735" lon="1.76723">
        <ele>2.6</ele>
        <time>2014-11-23T09:37:36Z</time>
      </trkpt>
      <trkpt lat="50.46735" lon="1.76721">
        <ele>2.8</ele>
        <time>2014-11-23T09:37:37Z</time>
      </trkpt>
      <trkpt lat="50.46735" lon="1.7672">
        <ele>3.2</ele>
        <time>2014-11-23T09:37:41Z</time>
      </trkpt>
      <trkpt lat="50.46735" lon="1.76719">
        <ele>2.8</ele>
        <time>2014-11-23T09:37:52Z</time>
      </trkpt>
      <trkpt lat="50.46734" lon="1.76722">
        <ele>3</ele>
        <time>2014-11-23T09:38:00Z</time>
      </trkpt>
      <trkpt lat="50.46733" lon="1.76723">
        <ele>3</ele>
        <time>2014-11-23T09:38:08Z</time>
      </trkpt>
      <trkpt lat="50.46733" lon="1.76723">
        <ele>2.6</ele>
        <time>2014-11-23T09:38:16Z</time>
      </trkpt>
      <trkpt lat="50.46732" lon="1.76723">
        <ele>2.8</ele>
        <time>2014-11-23T09:38:23Z</time>
      </trkpt>
      <trkpt lat="50.46732" lon="1.76723">
        <ele>3</ele>
        <time>2014-11-23T09:38:33Z</time>
      </trkpt>
      <trkpt lat="50.46731" lon="1.76723">
        <ele>3</ele>
        <time>2014-11-23T09:38:44Z</time>
      </trkpt>
      <trkpt lat="50.46731" lon="1.76723">
        <ele>3.4</ele>
        <time>2014-11-23T09:38:48Z</time>
      </trkpt>
      <trkpt lat="50.46731" lon="1.76723">
        <ele>3.2</ele>
        <time>2014-11-23T09:38:59Z</time>
      </trkpt>
      <trkpt lat="50.46731" lon="1.76723">
        <ele>3.2</ele>
        <time>2014-11-23T09:39:12Z</time>
      </trkpt>
      <trkpt lat="50.46731" lon="1.76723">
        <ele>3.4</ele>
        <time>2014-11-23T09:39:23Z</time>
      </trkpt>
      <trkpt lat="50.46731" lon="1.76723">
        <ele>2.8</ele>
        <time>2014-11-23T09:39:35Z</time>
      </trkpt>
      <trkpt lat="50.4673" lon="1.76723">
        <ele>2.8</ele>
        <time>2014-11-23T09:39:44Z</time>
      </trkpt>
      <trkpt lat="50.4673" lon="1.76723">
        <ele>2.8</ele>
        <time>2014-11-23T09:39:54Z</time>
      </trkpt>
      <trkpt lat="50.4673" lon="1.76723">
        <ele>2.8</ele>
        <time>2014-11-23T09:40:04Z</time>
      </trkpt>
      <trkpt lat="50.4673" lon="1.76723">
        <ele>3.2</ele>
        <time>2014-11-23T09:40:18Z</time>
      </trkpt>
      <trkpt lat="50.4673" lon="1.76723">
        <ele>3.2</ele>
        <time>2014-11-23T09:40:30Z</time>
      </trkpt>
      <trkpt lat="50.46733" lon="1.76724">
        <ele>3</ele>
        <time>2014-11-23T09:40:33Z</time>
      </trkpt>
      <trkpt lat="50.46733" lon="1.76723">
        <ele>3</ele>
        <time>2014-11-23T09:40:35Z</time>
      </trkpt>
      <trkpt lat="50.46735" lon="1.76721">
        <ele>3.2</ele>
        <time>2014-11-23T09:40:44Z</time>
      </trkpt>
      <trkpt lat="50.46735" lon="1.76706">
        <ele>3.4</ele>
        <time>2014-11-23T09:40:49Z</time>
      </trkpt>
      <trkpt lat="50.46734" lon="1.76699">
        <ele>3.6</ele>
        <time>2014-11-23T09:40:51Z</time>
      </trkpt>
      <trkpt lat="50.46733" lon="1.76682">
        <ele>4.2</ele>
        <time>2014-11-23T09:40:56Z</time>
      </trkpt>
      <trkpt lat="50.46733" lon="1.76679">
        <ele>4.4</ele>
        <time>2014-11-23T09:40:57Z</time>
      </trkpt>
      <trkpt lat="50.46729" lon="1.76663">
        <ele>5</ele>
        <time>2014-11-23T09:41:02Z</time>
      </trkpt>
      <trkpt lat="50.46728" lon="1.76657">
        <ele>5.4</ele>
        <time>2014-11-23T09:41:04Z</time>
      </trkpt>
      <trkpt lat="50.46727" lon="1.76642">
        <ele>6.2</ele>
        <time>2014-11-23T09:41:08Z</time>
      </trkpt>
      <trkpt lat="50.46727" lon="1.76632">
        <ele>6.6</ele>
        <time>2014-11-23T09:41:11Z</time>
      </trkpt>
      <trkpt lat="50.46726" lon="1.76614">
        <ele>7.4</ele>
        <time>2014-11-23T09:41:16Z</time>
      </trkpt>
      <trkpt lat="50.46725" lon="1.7661">
        <ele>7.6</ele>
        <time>2014-11-23T09:41:17Z</time>
      </trkpt>
      <trkpt lat="50.46726" lon="1.76594">
        <ele>8.8</ele>
        <time>2014-11-23T09:41:22Z</time>
      </trkpt>
      <trkpt lat="50.46726" lon="1.76584">
        <ele>9.6</ele>
        <time>2014-11-23T09:41:25Z</time>
      </trkpt>
      <trkpt lat="50.46725" lon="1.76581">
        <ele>9.8</ele>
        <time>2014-11-23T09:41:26Z</time>
      </trkpt>
      <trkpt lat="50.46724" lon="1.76565">
        <ele>10.8</ele>
        <time>2014-11-23T09:41:31Z</time>
      </trkpt>
      <trkpt lat="50.46723" lon="1.76558">
        <ele>11.2</ele>
        <time>2014-11-23T09:41:33Z</time>
      </trkpt>
      <trkpt lat="50.46722" lon="1.76552">
        <ele>12</ele>
        <time>2014-11-23T09:41:35Z</time>
      </trkpt>
      <trkpt lat="50.4672" lon="1.76535">
        <ele>12.8</ele>
        <time>2014-11-23T09:41:40Z</time>
      </trkpt>
      <trkpt lat="50.46718" lon="1.76529">
        <ele>13.2</ele>
        <time>2014-11-23T09:41:42Z</time>
      </trkpt>
      <trkpt lat="50.46713" lon="1.76512">
        <ele>14.2</ele>
        <time>2014-11-23T09:41:48Z</time>
      </trkpt>
      <trkpt lat="50.46711" lon="1.76508">
        <ele>14.2</ele>
        <time>2014-11-23T09:41:50Z</time>
      </trkpt>
      <trkpt lat="50.46704" lon="1.765">
        <ele>15.6</ele>
        <time>2014-11-23T09:41:54Z</time>
      </trkpt>
      <trkpt lat="50.46699" lon="1.76495">
        <ele>16.6</ele>
        <time>2014-11-23T09:41:57Z</time>
      </trkpt>
      <trkpt lat="50.46694" lon="1.76494">
        <ele>17.6</ele>
        <time>2014-11-23T09:42:00Z</time>
      </trkpt>
      <trkpt lat="50.46687" lon="1.76488">
        <ele>18.6</ele>
        <time>2014-11-23T09:42:04Z</time>
      </trkpt>
      <trkpt lat="50.46685" lon="1.76486">
        <ele>18.8</ele>
        <time>2014-11-23T09:42:05Z</time>
      </trkpt>
      <trkpt lat="50.46681" lon="1.76477">
        <ele>19.6</ele>
        <time>2014-11-23T09:42:09Z</time>
      </trkpt>
      <trkpt lat="50.46681" lon="1.76475">
        <ele>20</ele>
        <time>2014-11-23T09:42:10Z</time>
      </trkpt>
      <trkpt lat="50.46682" lon="1.76472">
        <ele>20.2</ele>
        <time>2014-11-23T09:42:11Z</time>
      </trkpt>
      <trkpt lat="50.46685" lon="1.76456">
        <ele>21</ele>
        <time>2014-11-23T09:42:16Z</time>
      </trkpt>
      <trkpt lat="50.46688" lon="1.76447">
        <ele>22</ele>
        <time>2014-11-23T09:42:19Z</time>
      </trkpt>
      <trkpt lat="50.46694" lon="1.76432">
        <ele>22.8</ele>
        <time>2014-11-23T09:42:24Z</time>
      </trkpt>
      <trkpt lat="50.46695" lon="1.76429">
        <ele>23</ele>
        <time>2014-11-23T09:42:25Z</time>
      </trkpt>
      <trkpt lat="50.467" lon="1.7641">
        <ele>23.8</ele>
        <time>2014-11-23T09:42:31Z</time>
      </trkpt>
      <trkpt lat="50.46701" lon="1.76406">
        <ele>24.2</ele>
        <time>2014-11-23T09:42:32Z</time>
      </trkpt>
      <trkpt lat="50.46705" lon="1.7638">
        <ele>25.2</ele>
        <time>2014-11-23T09:42:39Z</time>
      </trkpt>
      <trkpt lat="50.4671" lon="1.7635">
        <ele>26.2</ele>
        <time>2014-11-23T09:42:47Z</time>
      </trkpt>
      <trkpt lat="50.46717" lon="1.76313">
        <ele>26.8</ele>
        <time>2014-11-23T09:42:56Z</time>
      </trkpt>
      <trkpt lat="50.46721" lon="1.76294">
        <ele>27.2</ele>
        <time>2014-11-23T09:43:01Z</time>
      </trkpt>
      <trkpt lat="50.46723" lon="1.76288">
        <ele>27.4</ele>
        <time>2014-11-23T09:43:03Z</time>
      </trkpt>
      <trkpt lat="50.46725" lon="1.76277">
        <ele>28.4</ele>
        <time>2014-11-23T09:43:06Z</time>
      </trkpt>
      <trkpt lat="50.46728" lon="1.76263">
        <ele>29</ele>
        <time>2014-11-23T09:43:10Z</time>
      </trkpt>
      <trkpt lat="50.4673" lon="1.76254">
        <ele>29.6</ele>
        <time>2014-11-23T09:43:13Z</time>
      </trkpt>
      <trkpt lat="50.46734" lon="1.76244">
        <ele>30.6</ele>
        <time>2014-11-23T09:43:17Z</time>
      </trkpt>
      <trkpt lat="50.46737" lon="1.76237">
        <ele>31.4</ele>
        <time>2014-11-23T09:43:20Z</time>
      </trkpt>
      <trkpt lat="50.46737" lon="1.76238">
        <ele>31.6</ele>
        <time>2014-11-23T09:43:22Z</time>
      </trkpt>
      <trkpt lat="50.46737" lon="1.76238">
        <ele>31.6</ele>
        <time>2014-11-23T09:43:23Z</time>
      </trkpt>
      <trkpt lat="50.46736" lon="1.76238">
        <ele>31.4</ele>
        <time>2014-11-23T09:43:24Z</time>
      </trkpt>
      <trkpt lat="50.46736" lon="1.76235">
        <ele>31.6</ele>
        <time>2014-11-23T09:43:34Z</time>
      </trkpt>
      <trkpt lat="50.46736" lon="1.76235">
        <ele>31.6</ele>
        <time>2014-11-23T09:43:42Z</time>
      </trkpt>
      <trkpt lat="50.46736" lon="1.76235">
        <ele>31.2</ele>
        <time>2014-11-23T09:43:55Z</time>
      </trkpt>
      <trkpt lat="50.46736" lon="1.76235">
        <ele>31.8</ele>
        <time>2014-11-23T09:44:31Z</time>
      </trkpt>
      <trkpt lat="50.46735" lon="1.76239">
        <ele>31.4</ele>
        <time>2014-11-23T09:44:57Z</time>
      </trkpt>
      <trkpt lat="50.46736" lon="1.7624">
        <ele>31.2</ele>
        <time>2014-11-23T09:44:58Z</time>
      </trkpt>
      <trkpt lat="50.46735" lon="1.76241">
        <ele>30.8</ele>
        <time>2014-11-23T09:45:05Z</time>
      </trkpt>
      <trkpt lat="50.46735" lon="1.76241">
        <ele>30.8</ele>
        <time>2014-11-23T09:45:20Z</time>
      </trkpt>
      <trkpt lat="50.46735" lon="1.76242">
        <ele>30.6</ele>
        <time>2014-11-23T09:45:29Z</time>
      </trkpt>
      <trkpt lat="50.46735" lon="1.76242">
        <ele>30.4</ele>
        <time>2014-11-23T09:45:37Z</time>
      </trkpt>
      <trkpt lat="50.46736" lon="1.76242">
        <ele>30.8</ele>
        <time>2014-11-23T09:45:44Z</time>
      </trkpt>
      <trkpt lat="50.46735" lon="1.76242">
        <ele>30.8</ele>
        <time>2014-11-23T09:45:57Z</time>
      </trkpt>
      <trkpt lat="50.46735" lon="1.76242">
        <ele>30.8</ele>
        <time>2014-11-23T09:46:07Z</time>
      </trkpt>
      <trkpt lat="50.46735" lon="1.76242">
        <ele>30.6</ele>
        <time>2014-11-23T09:46:19Z</time>
      </trkpt>
      <trkpt lat="50.46734" lon="1.76242">
        <ele>30.6</ele>
        <time>2014-11-23T09:46:30Z</time>
      </trkpt>
      <trkpt lat="50.46734" lon="1.76242">
        <ele>30.2</ele>
        <time>2014-11-23T09:46:38Z</time>
      </trkpt>
      <trkpt lat="50.46734" lon="1.76242">
        <ele>30.4</ele>
        <time>2014-11-23T09:46:50Z</time>
      </trkpt>
      <trkpt lat="50.46734" lon="1.76242">
        <ele>30</ele>
        <time>2014-11-23T09:47:09Z</time>
      </trkpt>
      <trkpt lat="50.46734" lon="1.76242">
        <ele>30.6</ele>
        <time>2014-11-23T09:47:25Z</time>
      </trkpt>
      <trkpt lat="50.46734" lon="1.76242">
        <ele>30.4</ele>
        <time>2014-11-23T09:47:38Z</time>
      </trkpt>
      <trkpt lat="50.46734" lon="1.76242">
        <ele>30</ele>
        <time>2014-11-23T09:47:52Z</time>
      </trkpt>
      <trkpt lat="50.46734" lon="1.76242">
        <ele>30</ele>
        <time>2014-11-23T09:48:11Z</time>
      </trkpt>
      <trkpt lat="50.46734" lon="1.76242">
        <ele>29.8</ele>
        <time>2014-11-23T09:48:28Z</time>
      </trkpt>
      <trkpt lat="50.46734" lon="1.76242">
        <ele>30</ele>
        <time>2014-11-23T09:48:45Z</time>
      </trkpt>
      <trkpt lat="50.4673" lon="1.76246">
        <ele>30</ele>
        <time>2014-11-23T09:48:54Z</time>
      </trkpt>
      <trkpt lat="50.46726" lon="1.7626">
        <ele>29</ele>
        <time>2014-11-23T09:48:58Z</time>
      </trkpt>
      <trkpt lat="50.46719" lon="1.76289">
        <ele>28.4</ele>
        <time>2014-11-23T09:49:02Z</time>
      </trkpt>
      <trkpt lat="50.46717" lon="1.76296">
        <ele>27.6</ele>
        <time>2014-11-23T09:49:03Z</time>
      </trkpt>
      <trkpt lat="50.46712" lon="1.76313">
        <ele>26</ele>
        <time>2014-11-23T09:49:05Z</time>
      </trkpt>
      <trkpt lat="50.46708" lon="1.76331">
        <ele>25.6</ele>
        <time>2014-11-23T09:49:07Z</time>
      </trkpt>
      <trkpt lat="50.46702" lon="1.76357">
        <ele>25</ele>
        <time>2014-11-23T09:49:10Z</time>
      </trkpt>
      <trkpt lat="50.46696" lon="1.76382">
        <ele>24.2</ele>
        <time>2014-11-23T09:49:13Z</time>
      </trkpt>
      <trkpt lat="50.46695" lon="1.7639">
        <ele>23.8</ele>
        <time>2014-11-23T09:49:14Z</time>
      </trkpt>
      <trkpt lat="50.46687" lon="1.76422">
        <ele>22.4</ele>
        <time>2014-11-23T09:49:18Z</time>
      </trkpt>
      <trkpt lat="50.46682" lon="1.76436">
        <ele>21.4</ele>
        <time>2014-11-23T09:49:20Z</time>
      </trkpt>
      <trkpt lat="50.46677" lon="1.76454">
        <ele>19.8</ele>
        <time>2014-11-23T09:49:23Z</time>
      </trkpt>
      <trkpt lat="50.46676" lon="1.76459">
        <ele>19.2</ele>
        <time>2014-11-23T09:49:24Z</time>
      </trkpt>
      <trkpt lat="50.46675" lon="1.76464">
        <ele>18.6</ele>
        <time>2014-11-23T09:49:25Z</time>
      </trkpt>
      <trkpt lat="50.46676" lon="1.76472">
        <ele>18</ele>
        <time>2014-11-23T09:49:27Z</time>
      </trkpt>
      <trkpt lat="50.46679" lon="1.76476">
        <ele>17.8</ele>
        <time>2014-11-23T09:49:28Z</time>
      </trkpt>
      <trkpt lat="50.46682" lon="1.7648">
        <ele>17.4</ele>
        <time>2014-11-23T09:49:29Z</time>
      </trkpt>
      <trkpt lat="50.46695" lon="1.76493">
        <ele>15.8</ele>
        <time>2014-11-23T09:49:32Z</time>
      </trkpt>
      <trkpt lat="50.46704" lon="1.76504">
        <ele>14.6</ele>
        <time>2014-11-23T09:49:34Z</time>
      </trkpt>
      <trkpt lat="50.46708" lon="1.76511">
        <ele>14</ele>
        <time>2014-11-23T09:49:35Z</time>
      </trkpt>
      <trkpt lat="50.46711" lon="1.76519">
        <ele>13.4</ele>
        <time>2014-11-23T09:49:36Z</time>
      </trkpt>
      <trkpt lat="50.46714" lon="1.76529">
        <ele>12.8</ele>
        <time>2014-11-23T09:49:37Z</time>
      </trkpt>
      <trkpt lat="50.46716" lon="1.7654">
        <ele>12.2</ele>
        <time>2014-11-23T09:49:38Z</time>
      </trkpt>
      <trkpt lat="50.4672" lon="1.76563">
        <ele>11.4</ele>
        <time>2014-11-23T09:49:40Z</time>
      </trkpt>
      <trkpt lat="50.46722" lon="1.76577">
        <ele>10.8</ele>
        <time>2014-11-23T09:49:41Z</time>
      </trkpt>
      <trkpt lat="50.46724" lon="1.76605">
        <ele>9.6</ele>
        <time>2014-11-23T09:49:43Z</time>
      </trkpt>
      <trkpt lat="50.46725" lon="1.76633">
        <ele>7.4</ele>
        <time>2014-11-23T09:49:45Z</time>
      </trkpt>
      <trkpt lat="50.46726" lon="1.76646">
        <ele>6.4</ele>
        <time>2014-11-23T09:49:46Z</time>
      </trkpt>
      <trkpt lat="50.46729" lon="1.76661">
        <ele>6</ele>
        <time>2014-11-23T09:49:47Z</time>
      </trkpt>
      <trkpt lat="50.46734" lon="1.76683">
        <ele>4.4</ele>
        <time>2014-11-23T09:49:49Z</time>
      </trkpt>
      <trkpt lat="50.46736" lon="1.76694">
        <ele>3.8</ele>
        <time>2014-11-23T09:49:50Z</time>
      </trkpt>
      <trkpt lat="50.46737" lon="1.76704">
        <ele>3.4</ele>
        <time>2014-11-23T09:49:51Z</time>
      </trkpt>
      <trkpt lat="50.46737" lon="1.76736">
        <ele>2.2</ele>
        <time>2014-11-23T09:49:54Z</time>
      </trkpt>
      <trkpt lat="50.46736" lon="1.76745">
        <ele>2</ele>
        <time>2014-11-23T09:49:55Z</time>
      </trkpt>
      <trkpt lat="50.46727" lon="1.76762">
        <ele>2.4</ele>
        <time>2014-11-23T09:49:58Z</time>
      </trkpt>
      <trkpt lat="50.46721" lon="1.76768">
        <ele>2.6</ele>
        <time>2014-11-23T09:50:00Z</time>
      </trkpt>
      <trkpt lat="50.46715" lon="1.76775">
        <ele>3.2</ele>
        <time>2014-11-23T09:50:02Z</time>
      </trkpt>
      <trkpt lat="50.46712" lon="1.76778">
        <ele>3.2</ele>
        <time>2014-11-23T09:50:03Z</time>
      </trkpt>
      <trkpt lat="50.46705" lon="1.76783">
        <ele>3.8</ele>
        <time>2014-11-23T09:50:06Z</time>
      </trkpt>
      <trkpt lat="50.46704" lon="1.7678">
        <ele>4</ele>
        <time>2014-11-23T09:50:07Z</time>
      </trkpt>
      <trkpt lat="50.46703" lon="1.76766">
        <ele>4.4</ele>
        <time>2014-11-23T09:50:11Z</time>
      </trkpt>
      <trkpt lat="50.46702" lon="1.76753">
        <ele>4.8</ele>
        <time>2014-11-23T09:50:14Z</time>
      </trkpt>
      <trkpt lat="50.467" lon="1.76741">
        <ele>5.6</ele>
        <time>2014-11-23T09:50:17Z</time>
      </trkpt>
      <trkpt lat="50.46699" lon="1.76738">
        <ele>6</ele>
        <time>2014-11-23T09:50:18Z</time>
      </trkpt>
      <trkpt lat="50.46697" lon="1.7673">
        <ele>7</ele>
        <time>2014-11-23T09:50:20Z</time>
      </trkpt>
      <trkpt lat="50.46692" lon="1.76715">
        <ele>8.4</ele>
        <time>2014-11-23T09:50:24Z</time>
      </trkpt>
      <trkpt lat="50.46691" lon="1.76712">
        <ele>8.8</ele>
        <time>2014-11-23T09:50:25Z</time>
      </trkpt>
      <trkpt lat="50.46688" lon="1.76706">
        <ele>9.6</ele>
        <time>2014-11-23T09:50:27Z</time>
      </trkpt>
      <trkpt lat="50.46685" lon="1.76692">
        <ele>10.8</ele>
        <time>2014-11-23T09:50:31Z</time>
      </trkpt>
      <trkpt lat="50.46684" lon="1.76689">
        <ele>11.2</ele>
        <time>2014-11-23T09:50:32Z</time>
      </trkpt>
      <trkpt lat="50.46681" lon="1.76679">
        <ele>12.4</ele>
        <time>2014-11-23T09:50:35Z</time>
      </trkpt>
      <trkpt lat="50.4668" lon="1.7667">
        <ele>13.4</ele>
        <time>2014-11-23T09:50:38Z</time>
      </trkpt>
      <trkpt lat="50.46678" lon="1.76663">
        <ele>14.4</ele>
        <time>2014-11-23T09:50:40Z</time>
      </trkpt>
      <trkpt lat="50.46678" lon="1.76659">
        <ele>14.8</ele>
        <time>2014-11-23T09:50:41Z</time>
      </trkpt>
      <trkpt lat="50.46679" lon="1.76649">
        <ele>16.2</ele>
        <time>2014-11-23T09:50:44Z</time>
      </trkpt>
      <trkpt lat="50.46677" lon="1.7664">
        <ele>17.4</ele>
        <time>2014-11-23T09:50:47Z</time>
      </trkpt>
      <trkpt lat="50.46677" lon="1.76634">
        <ele>18.2</ele>
        <time>2014-11-23T09:50:49Z</time>
      </trkpt>
      <trkpt lat="50.46675" lon="1.7662">
        <ele>19</ele>
        <time>2014-11-23T09:50:53Z</time>
      </trkpt>
      <trkpt lat="50.46675" lon="1.76616">
        <ele>19.2</ele>
        <time>2014-11-23T09:50:54Z</time>
      </trkpt>
      <trkpt lat="50.46674" lon="1.76592">
        <ele>20.2</ele>
        <time>2014-11-23T09:51:00Z</time>
      </trkpt>
      <trkpt lat="50.46673" lon="1.76583">
        <ele>20.4</ele>
        <time>2014-11-23T09:51:02Z</time>
      </trkpt>
      <trkpt lat="50.46671" lon="1.76562">
        <ele>21.2</ele>
        <time>2014-11-23T09:51:07Z</time>
      </trkpt>
      <trkpt lat="50.46671" lon="1.76558">
        <ele>21.4</ele>
        <time>2014-11-23T09:51:08Z</time>
      </trkpt>
      <trkpt lat="50.4667" lon="1.76537">
        <ele>22.4</ele>
        <time>2014-11-23T09:51:13Z</time>
      </trkpt>
      <trkpt lat="50.46669" lon="1.76527">
        <ele>22.6</ele>
        <time>2014-11-23T09:51:15Z</time>
      </trkpt>
      <trkpt lat="50.46664" lon="1.76499">
        <ele>23.6</ele>
        <time>2014-11-23T09:51:21Z</time>
      </trkpt>
      <trkpt lat="50.46662" lon="1.7649">
        <ele>23.8</ele>
        <time>2014-11-23T09:51:23Z</time>
      </trkpt>
      <trkpt lat="50.46657" lon="1.76486">
        <ele>23.8</ele>
        <time>2014-11-23T09:51:26Z</time>
      </trkpt>
      <trkpt lat="50.46656" lon="1.76489">
        <ele>24</ele>
        <time>2014-11-23T09:51:27Z</time>
      </trkpt>
      <trkpt lat="50.46659" lon="1.76501">
        <ele>24</ele>
        <time>2014-11-23T09:51:30Z</time>
      </trkpt>
      <trkpt lat="50.46661" lon="1.76531">
        <ele>23.2</ele>
        <time>2014-11-23T09:51:35Z</time>
      </trkpt>
      <trkpt lat="50.46663" lon="1.76561">
        <ele>22.4</ele>
        <time>2014-11-23T09:51:39Z</time>
      </trkpt>
      <trkpt lat="50.46664" lon="1.7657">
        <ele>22</ele>
        <time>2014-11-23T09:51:40Z</time>
      </trkpt>
      <trkpt lat="50.46666" lon="1.76588">
        <ele>21.4</ele>
        <time>2014-11-23T09:51:42Z</time>
      </trkpt>
      <trkpt lat="50.46666" lon="1.76618">
        <ele>20.2</ele>
        <time>2014-11-23T09:51:45Z</time>
      </trkpt>
      <trkpt lat="50.46664" lon="1.76641">
        <ele>19.2</ele>
        <time>2014-11-23T09:51:48Z</time>
      </trkpt>
      <trkpt lat="50.46663" lon="1.76648">
        <ele>18.6</ele>
        <time>2014-11-23T09:51:49Z</time>
      </trkpt>
      <trkpt lat="50.4666" lon="1.76656">
        <ele>18.4</ele>
        <time>2014-11-23T09:51:50Z</time>
      </trkpt>
      <trkpt lat="50.46657" lon="1.76663">
        <ele>18</ele>
        <time>2014-11-23T09:51:51Z</time>
      </trkpt>
      <trkpt lat="50.46651" lon="1.76678">
        <ele>17.4</ele>
        <time>2014-11-23T09:51:53Z</time>
      </trkpt>
      <trkpt lat="50.46647" lon="1.76685">
        <ele>17</ele>
        <time>2014-11-23T09:51:54Z</time>
      </trkpt>
      <trkpt lat="50.46634" lon="1.76709">
        <ele>15.2</ele>
        <time>2014-11-23T09:51:57Z</time>
      </trkpt>
      <trkpt lat="50.46626" lon="1.76725">
        <ele>14.6</ele>
        <time>2014-11-23T09:51:59Z</time>
      </trkpt>
      <trkpt lat="50.46613" lon="1.7675">
        <ele>14</ele>
        <time>2014-11-23T09:52:02Z</time>
      </trkpt>
      <trkpt lat="50.46605" lon="1.76767">
        <ele>13</ele>
        <time>2014-11-23T09:52:04Z</time>
      </trkpt>
      <trkpt lat="50.46601" lon="1.76776">
        <ele>12.6</ele>
        <time>2014-11-23T09:52:05Z</time>
      </trkpt>
      <trkpt lat="50.46594" lon="1.76791">
        <ele>11.4</ele>
        <time>2014-11-23T09:52:07Z</time>
      </trkpt>
      <trkpt lat="50.46588" lon="1.76802">
        <ele>11</ele>
        <time>2014-11-23T09:52:09Z</time>
      </trkpt>
      <trkpt lat="50.46579" lon="1.76809">
        <ele>10.6</ele>
        <time>2014-11-23T09:52:12Z</time>
      </trkpt>
      <trkpt lat="50.46576" lon="1.76806">
        <ele>10.4</ele>
        <time>2014-11-23T09:52:13Z</time>
      </trkpt>
      <trkpt lat="50.46574" lon="1.76802">
        <ele>10.2</ele>
        <time>2014-11-23T09:52:14Z</time>
      </trkpt>
      <trkpt lat="50.46563" lon="1.76788">
        <ele>10.6</ele>
        <time>2014-11-23T09:52:18Z</time>
      </trkpt>
      <trkpt lat="50.46554" lon="1.76795">
        <ele>11</ele>
        <time>2014-11-23T09:52:21Z</time>
      </trkpt>
      <trkpt lat="50.46552" lon="1.76798">
        <ele>11.4</ele>
        <time>2014-11-23T09:52:22Z</time>
      </trkpt>
      <trkpt lat="50.46547" lon="1.76805">
        <ele>12.4</ele>
        <time>2014-11-23T09:52:24Z</time>
      </trkpt>
      <trkpt lat="50.46544" lon="1.76811">
        <ele>13.4</ele>
        <time>2014-11-23T09:52:26Z</time>
      </trkpt>
      <trkpt lat="50.46539" lon="1.7682">
        <ele>13.8</ele>
        <time>2014-11-23T09:52:28Z</time>
      </trkpt>
      <trkpt lat="50.46533" lon="1.76829">
        <ele>13.8</ele>
        <time>2014-11-23T09:52:30Z</time>
      </trkpt>
      <trkpt lat="50.4653" lon="1.76832">
        <ele>14</ele>
        <time>2014-11-23T09:52:31Z</time>
      </trkpt>
      <trkpt lat="50.46524" lon="1.76837">
        <ele>14.6</ele>
        <time>2014-11-23T09:52:33Z</time>
      </trkpt>
      <trkpt lat="50.46516" lon="1.76843">
        <ele>15</ele>
        <time>2014-11-23T09:52:35Z</time>
      </trkpt>
      <trkpt lat="50.46498" lon="1.76843">
        <ele>15.2</ele>
        <time>2014-11-23T09:52:39Z</time>
      </trkpt>
      <trkpt lat="50.4649" lon="1.76839">
        <ele>15.2</ele>
        <time>2014-11-23T09:52:41Z</time>
      </trkpt>
      <trkpt lat="50.46478" lon="1.76834">
        <ele>15.8</ele>
        <time>2014-11-23T09:52:44Z</time>
      </trkpt>
      <trkpt lat="50.46471" lon="1.76831">
        <ele>16</ele>
        <time>2014-11-23T09:52:46Z</time>
      </trkpt>
      <trkpt lat="50.46466" lon="1.76831">
        <ele>15.6</ele>
        <time>2014-11-23T09:52:47Z</time>
      </trkpt>
      <trkpt lat="50.46447" lon="1.7683">
        <ele>15.2</ele>
        <time>2014-11-23T09:52:51Z</time>
      </trkpt>
      <trkpt lat="50.46438" lon="1.76833">
        <ele>14.8</ele>
        <time>2014-11-23T09:52:53Z</time>
      </trkpt>
      <trkpt lat="50.46424" lon="1.76839">
        <ele>15.4</ele>
        <time>2014-11-23T09:52:56Z</time>
      </trkpt>
      <trkpt lat="50.46397" lon="1.76843">
        <ele>15</ele>
        <time>2014-11-23T09:53:02Z</time>
      </trkpt>
      <trkpt lat="50.46382" lon="1.76829">
        <ele>15.8</ele>
        <time>2014-11-23T09:53:06Z</time>
      </trkpt>
      <trkpt lat="50.46379" lon="1.76824">
        <ele>15.8</ele>
        <time>2014-11-23T09:53:07Z</time>
      </trkpt>
      <trkpt lat="50.4637" lon="1.76812">
        <ele>16.2</ele>
        <time>2014-11-23T09:53:11Z</time>
      </trkpt>
      <trkpt lat="50.46369" lon="1.76812">
        <ele>16.4</ele>
        <time>2014-11-23T09:53:12Z</time>
      </trkpt>
      <trkpt lat="50.46367" lon="1.76812">
        <ele>16.2</ele>
        <time>2014-11-23T09:53:15Z</time>
      </trkpt>
      <trkpt lat="50.46362" lon="1.76814">
        <ele>17</ele>
        <time>2014-11-23T09:53:20Z</time>
      </trkpt>
      <trkpt lat="50.46362" lon="1.76814">
        <ele>17.4</ele>
        <time>2014-11-23T09:53:21Z</time>
      </trkpt>
      <trkpt lat="50.4636" lon="1.76814">
        <ele>18</ele>
        <time>2014-11-23T09:53:25Z</time>
      </trkpt>
      <trkpt lat="50.46359" lon="1.76813">
        <ele>18.2</ele>
        <time>2014-11-23T09:53:27Z</time>
      </trkpt>
      <trkpt lat="50.46354" lon="1.76816">
        <ele>18.4</ele>
        <time>2014-11-23T09:53:33Z</time>
      </trkpt>
      <trkpt lat="50.46352" lon="1.76818">
        <ele>18.4</ele>
        <time>2014-11-23T09:53:36Z</time>
      </trkpt>
      <trkpt lat="50.4635" lon="1.76818">
        <ele>18.8</ele>
        <time>2014-11-23T09:53:40Z</time>
      </trkpt>
      <trkpt lat="50.46349" lon="1.76818">
        <ele>19</ele>
        <time>2014-11-23T09:53:42Z</time>
      </trkpt>
      <trkpt lat="50.46348" lon="1.76818">
        <ele>19.2</ele>
        <time>2014-11-23T09:53:44Z</time>
      </trkpt>
      <trkpt lat="50.46344" lon="1.76812">
        <ele>20</ele>
        <time>2014-11-23T09:53:50Z</time>
      </trkpt>
      <trkpt lat="50.46341" lon="1.76807">
        <ele>20.2</ele>
        <time>2014-11-23T09:53:53Z</time>
      </trkpt>
      <trkpt lat="50.46338" lon="1.76802">
        <ele>20.6</ele>
        <time>2014-11-23T09:53:56Z</time>
      </trkpt>
      <trkpt lat="50.46327" lon="1.7679">
        <ele>21</ele>
        <time>2014-11-23T09:54:02Z</time>
      </trkpt>
      <trkpt lat="50.46319" lon="1.76781">
        <ele>21.2</ele>
        <time>2014-11-23T09:54:07Z</time>
      </trkpt>
      <trkpt lat="50.46309" lon="1.76775">
        <ele>21</ele>
        <time>2014-11-23T09:54:12Z</time>
      </trkpt>
      <trkpt lat="50.46306" lon="1.76771">
        <ele>20.4</ele>
        <time>2014-11-23T09:54:14Z</time>
      </trkpt>
      <trkpt lat="50.46303" lon="1.76765">
        <ele>20.8</ele>
        <time>2014-11-23T09:54:17Z</time>
      </trkpt>
      <trkpt lat="50.4629" lon="1.76758">
        <ele>19.8</ele>
        <time>2014-11-23T09:54:22Z</time>
      </trkpt>
      <trkpt lat="50.4628" lon="1.76754">
        <ele>18.8</ele>
        <time>2014-11-23T09:54:26Z</time>
      </trkpt>
      <trkpt lat="50.46274" lon="1.76751">
        <ele>18.6</ele>
        <time>2014-11-23T09:54:28Z</time>
      </trkpt>
      <trkpt lat="50.46254" lon="1.76745">
        <ele>18.4</ele>
        <time>2014-11-23T09:54:34Z</time>
      </trkpt>
      <trkpt lat="50.46233" lon="1.7674">
        <ele>17.2</ele>
        <time>2014-11-23T09:54:38Z</time>
      </trkpt>
      <trkpt lat="50.46227" lon="1.76738">
        <ele>16.8</ele>
        <time>2014-11-23T09:54:39Z</time>
      </trkpt>
      <trkpt lat="50.46213" lon="1.76735">
        <ele>15.8</ele>
        <time>2014-11-23T09:54:42Z</time>
      </trkpt>
      <trkpt lat="50.46199" lon="1.76732">
        <ele>15.6</ele>
        <time>2014-11-23T09:54:45Z</time>
      </trkpt>
      <trkpt lat="50.46191" lon="1.76729">
        <ele>15.4</ele>
        <time>2014-11-23T09:54:47Z</time>
      </trkpt>
      <trkpt lat="50.46184" lon="1.7672">
        <ele>15</ele>
        <time>2014-11-23T09:54:49Z</time>
      </trkpt>
      <trkpt lat="50.46182" lon="1.76715">
        <ele>15</ele>
        <time>2014-11-23T09:54:50Z</time>
      </trkpt>
      <trkpt lat="50.46179" lon="1.76707">
        <ele>15</ele>
        <time>2014-11-23T09:54:52Z</time>
      </trkpt>
      <trkpt lat="50.46179" lon="1.76702">
        <ele>15.4</ele>
        <time>2014-11-23T09:54:53Z</time>
      </trkpt>
      <trkpt lat="50.46176" lon="1.76676">
        <ele>16</ele>
        <time>2014-11-23T09:54:58Z</time>
      </trkpt>
      <trkpt lat="50.46176" lon="1.76665">
        <ele>16.8</ele>
        <time>2014-11-23T09:55:00Z</time>
      </trkpt>
      <trkpt lat="50.46175" lon="1.76633">
        <ele>18</ele>
        <time>2014-11-23T09:55:05Z</time>
      </trkpt>
      <trkpt lat="50.46174" lon="1.7661">
        <ele>19.2</ele>
        <time>2014-11-23T09:55:09Z</time>
      </trkpt>
      <trkpt lat="50.46174" lon="1.76604">
        <ele>19.2</ele>
        <time>2014-11-23T09:55:10Z</time>
      </trkpt>
      <trkpt lat="50.46173" lon="1.76579">
        <ele>19.6</ele>
        <time>2014-11-23T09:55:15Z</time>
      </trkpt>
      <trkpt lat="50.46173" lon="1.7657">
        <ele>20.4</ele>
        <time>2014-11-23T09:55:17Z</time>
      </trkpt>
      <trkpt lat="50.46175" lon="1.7656">
        <ele>20.6</ele>
        <time>2014-11-23T09:55:20Z</time>
      </trkpt>
      <trkpt lat="50.46176" lon="1.76549">
        <ele>21</ele>
        <time>2014-11-23T09:55:24Z</time>
      </trkpt>
      <trkpt lat="50.46176" lon="1.76547">
        <ele>21.4</ele>
        <time>2014-11-23T09:55:25Z</time>
      </trkpt>
      <trkpt lat="50.4618" lon="1.76524">
        <ele>21</ele>
        <time>2014-11-23T09:55:31Z</time>
      </trkpt>
      <trkpt lat="50.46179" lon="1.7651">
        <ele>20.4</ele>
        <time>2014-11-23T09:55:34Z</time>
      </trkpt>
      <trkpt lat="50.46177" lon="1.76506">
        <ele>20.6</ele>
        <time>2014-11-23T09:55:35Z</time>
      </trkpt>
      <trkpt lat="50.46177" lon="1.76504">
        <ele>20.4</ele>
        <time>2014-11-23T09:55:38Z</time>
      </trkpt>
      <trkpt lat="50.46177" lon="1.76502">
        <ele>20.4</ele>
        <time>2014-11-23T09:55:39Z</time>
      </trkpt>
      <trkpt lat="50.46175" lon="1.76499">
        <ele>21.8</ele>
        <time>2014-11-23T09:55:42Z</time>
      </trkpt>
      <trkpt lat="50.46174" lon="1.76498">
        <ele>22.4</ele>
        <time>2014-11-23T09:55:44Z</time>
      </trkpt>
      <trkpt lat="50.46174" lon="1.76498">
        <ele>22.8</ele>
        <time>2014-11-23T09:55:47Z</time>
      </trkpt>
      <trkpt lat="50.46173" lon="1.76496">
        <ele>23.2</ele>
        <time>2014-11-23T09:55:51Z</time>
      </trkpt>
      <trkpt lat="50.46172" lon="1.7649">
        <ele>24</ele>
        <time>2014-11-23T09:55:57Z</time>
      </trkpt>
      <trkpt lat="50.46172" lon="1.76487">
        <ele>24</ele>
        <time>2014-11-23T09:55:59Z</time>
      </trkpt>
      <trkpt lat="50.46171" lon="1.76483">
        <ele>24.4</ele>
        <time>2014-11-23T09:56:02Z</time>
      </trkpt>
      <trkpt lat="50.46169" lon="1.76473">
        <ele>24.6</ele>
        <time>2014-11-23T09:56:05Z</time>
      </trkpt>
      <trkpt lat="50.46168" lon="1.76469">
        <ele>24.8</ele>
        <time>2014-11-23T09:56:06Z</time>
      </trkpt>
      <trkpt lat="50.46164" lon="1.76442">
        <ele>24.6</ele>
        <time>2014-11-23T09:56:13Z</time>
      </trkpt>
      <trkpt lat="50.46164" lon="1.76425">
        <ele>24.2</ele>
        <time>2014-11-23T09:56:17Z</time>
      </trkpt>
      <trkpt lat="50.46164" lon="1.76419">
        <ele>23.8</ele>
        <time>2014-11-23T09:56:18Z</time>
      </trkpt>
      <trkpt lat="50.46158" lon="1.76382">
        <ele>24</ele>
        <time>2014-11-23T09:56:24Z</time>
      </trkpt>
      <trkpt lat="50.46156" lon="1.76374">
        <ele>24.8</ele>
        <time>2014-11-23T09:56:26Z</time>
      </trkpt>
      <trkpt lat="50.46153" lon="1.7636">
        <ele>25.4</ele>
        <time>2014-11-23T09:56:29Z</time>
      </trkpt>
      <trkpt lat="50.46153" lon="1.76352">
        <ele>25.8</ele>
        <time>2014-11-23T09:56:31Z</time>
      </trkpt>
      <trkpt lat="50.46155" lon="1.7634">
        <ele>26.4</ele>
        <time>2014-11-23T09:56:34Z</time>
      </trkpt>
      <trkpt lat="50.46157" lon="1.76329">
        <ele>27.2</ele>
        <time>2014-11-23T09:56:37Z</time>
      </trkpt>
      <trkpt lat="50.46158" lon="1.76319">
        <ele>28.2</ele>
        <time>2014-11-23T09:56:40Z</time>
      </trkpt>
      <trkpt lat="50.46158" lon="1.76316">
        <ele>28.6</ele>
        <time>2014-11-23T09:56:41Z</time>
      </trkpt>
      <trkpt lat="50.46158" lon="1.76311">
        <ele>29.2</ele>
        <time>2014-11-23T09:56:44Z</time>
      </trkpt>
      <trkpt lat="50.46158" lon="1.7631">
        <ele>30</ele>
        <time>2014-11-23T09:56:45Z</time>
      </trkpt>
      <trkpt lat="50.46158" lon="1.76306">
        <ele>30.8</ele>
        <time>2014-11-23T09:56:48Z</time>
      </trkpt>
      <trkpt lat="50.46158" lon="1.76303">
        <ele>31.2</ele>
        <time>2014-11-23T09:56:51Z</time>
      </trkpt>
      <trkpt lat="50.46158" lon="1.76302">
        <ele>31.4</ele>
        <time>2014-11-23T09:56:52Z</time>
      </trkpt>
      <trkpt lat="50.46157" lon="1.76298">
        <ele>32.2</ele>
        <time>2014-11-23T09:56:55Z</time>
      </trkpt>
      <trkpt lat="50.46153" lon="1.76295">
        <ele>32.4</ele>
        <time>2014-11-23T09:56:59Z</time>
      </trkpt>
      <trkpt lat="50.46151" lon="1.76294">
        <ele>32.2</ele>
        <time>2014-11-23T09:57:00Z</time>
      </trkpt>
      <trkpt lat="50.4614" lon="1.76285">
        <ele>31.4</ele>
        <time>2014-11-23T09:57:05Z</time>
      </trkpt>
      <trkpt lat="50.4614" lon="1.76286">
        <ele>30.8</ele>
        <time>2014-11-23T09:57:07Z</time>
      </trkpt>
      <trkpt lat="50.46139" lon="1.76292">
        <ele>30.6</ele>
        <time>2014-11-23T09:57:09Z</time>
      </trkpt>
      <trkpt lat="50.46134" lon="1.76291">
        <ele>30.2</ele>
        <time>2014-11-23T09:57:17Z</time>
      </trkpt>
      <trkpt lat="50.46128" lon="1.76286">
        <ele>29.6</ele>
        <time>2014-11-23T09:57:19Z</time>
      </trkpt>
      <trkpt lat="50.46118" lon="1.76281">
        <ele>29.4</ele>
        <time>2014-11-23T09:57:22Z</time>
      </trkpt>
      <trkpt lat="50.46109" lon="1.76278">
        <ele>28</ele>
        <time>2014-11-23T09:57:24Z</time>
      </trkpt>
      <trkpt lat="50.461" lon="1.76278">
        <ele>26.4</ele>
        <time>2014-11-23T09:57:26Z</time>
      </trkpt>
      <trkpt lat="50.46097" lon="1.76281">
        <ele>26</ele>
        <time>2014-11-23T09:57:27Z</time>
      </trkpt>
      <trkpt lat="50.4608" lon="1.7628">
        <ele>25.6</ele>
        <time>2014-11-23T09:57:31Z</time>
      </trkpt>
      <trkpt lat="50.46075" lon="1.76281">
        <ele>25.8</ele>
        <time>2014-11-23T09:57:33Z</time>
      </trkpt>
      <trkpt lat="50.4607" lon="1.76283">
        <ele>26.8</ele>
        <time>2014-11-23T09:57:35Z</time>
      </trkpt>
      <trkpt lat="50.46065" lon="1.76287">
        <ele>28</ele>
        <time>2014-11-23T09:57:38Z</time>
      </trkpt>
      <trkpt lat="50.46059" lon="1.76289">
        <ele>28.8</ele>
        <time>2014-11-23T09:57:40Z</time>
      </trkpt>
      <trkpt lat="50.46055" lon="1.7629">
        <ele>28.6</ele>
        <time>2014-11-23T09:57:41Z</time>
      </trkpt>
      <trkpt lat="50.46041" lon="1.76294">
        <ele>26.6</ele>
        <time>2014-11-23T09:57:44Z</time>
      </trkpt>
      <trkpt lat="50.46037" lon="1.76297">
        <ele>26</ele>
        <time>2014-11-23T09:57:45Z</time>
      </trkpt>
      <trkpt lat="50.46032" lon="1.76302">
        <ele>25.4</ele>
        <time>2014-11-23T09:57:46Z</time>
      </trkpt>
      <trkpt lat="50.46028" lon="1.76305">
        <ele>24.2</ele>
        <time>2014-11-23T09:57:47Z</time>
      </trkpt>
      <trkpt lat="50.4602" lon="1.7631">
        <ele>22</ele>
        <time>2014-11-23T09:57:49Z</time>
      </trkpt>
      <trkpt lat="50.46018" lon="1.76315">
        <ele>20.4</ele>
        <time>2014-11-23T09:57:50Z</time>
      </trkpt>
      <trkpt lat="50.46011" lon="1.76319">
        <ele>19</ele>
        <time>2014-11-23T09:57:52Z</time>
      </trkpt>
      <trkpt lat="50.46007" lon="1.76314">
        <ele>18.8</ele>
        <time>2014-11-23T09:57:53Z</time>
      </trkpt>
      <trkpt lat="50.46004" lon="1.763">
        <ele>18.4</ele>
        <time>2014-11-23T09:57:56Z</time>
      </trkpt>
      <trkpt lat="50.46006" lon="1.76277">
        <ele>18.6</ele>
        <time>2014-11-23T09:58:00Z</time>
      </trkpt>
      <trkpt lat="50.4601" lon="1.76264">
        <ele>18.6</ele>
        <time>2014-11-23T09:58:02Z</time>
      </trkpt>
      <trkpt lat="50.46016" lon="1.76239">
        <ele>18.2</ele>
        <time>2014-11-23T09:58:06Z</time>
      </trkpt>
      <trkpt lat="50.46021" lon="1.76215">
        <ele>17.6</ele>
        <time>2014-11-23T09:58:09Z</time>
      </trkpt>
      <trkpt lat="50.46022" lon="1.76209">
        <ele>18</ele>
        <time>2014-11-23T09:58:10Z</time>
      </trkpt>
      <trkpt lat="50.46022" lon="1.76204">
        <ele>18.4</ele>
        <time>2014-11-23T09:58:11Z</time>
      </trkpt>
      <trkpt lat="50.46023" lon="1.76199">
        <ele>18.6</ele>
        <time>2014-11-23T09:58:12Z</time>
      </trkpt>
      <trkpt lat="50.46025" lon="1.76187">
        <ele>19.8</ele>
        <time>2014-11-23T09:58:15Z</time>
      </trkpt>
      <trkpt lat="50.46027" lon="1.7618">
        <ele>20.6</ele>
        <time>2014-11-23T09:58:17Z</time>
      </trkpt>
      <trkpt lat="50.46027" lon="1.76175">
        <ele>20.8</ele>
        <time>2014-11-23T09:58:18Z</time>
      </trkpt>
      <trkpt lat="50.46028" lon="1.76163">
        <ele>22.2</ele>
        <time>2014-11-23T09:58:21Z</time>
      </trkpt>
      <trkpt lat="50.46029" lon="1.76156">
        <ele>23.4</ele>
        <time>2014-11-23T09:58:23Z</time>
      </trkpt>
      <trkpt lat="50.46029" lon="1.76148">
        <ele>24.6</ele>
        <time>2014-11-23T09:58:25Z</time>
      </trkpt>
      <trkpt lat="50.46028" lon="1.76141">
        <ele>25.4</ele>
        <time>2014-11-23T09:58:27Z</time>
      </trkpt>
      <trkpt lat="50.46027" lon="1.76135">
        <ele>26</ele>
        <time>2014-11-23T09:58:29Z</time>
      </trkpt>
      <trkpt lat="50.46022" lon="1.76129">
        <ele>27.2</ele>
        <time>2014-11-23T09:58:32Z</time>
      </trkpt>
      <trkpt lat="50.46006" lon="1.76119">
        <ele>27.6</ele>
        <time>2014-11-23T09:58:38Z</time>
      </trkpt>
      <trkpt lat="50.4599" lon="1.76114">
        <ele>27.8</ele>
        <time>2014-11-23T09:58:45Z</time>
      </trkpt>
      <trkpt lat="50.45987" lon="1.76113">
        <ele>28.2</ele>
        <time>2014-11-23T09:58:46Z</time>
      </trkpt>
      <trkpt lat="50.45971" lon="1.76105">
        <ele>29</ele>
        <time>2014-11-23T09:58:52Z</time>
      </trkpt>
      <trkpt lat="50.45969" lon="1.76104">
        <ele>29.4</ele>
        <time>2014-11-23T09:58:53Z</time>
      </trkpt>
      <trkpt lat="50.45955" lon="1.76098">
        <ele>29.8</ele>
        <time>2014-11-23T09:58:58Z</time>
      </trkpt>
      <trkpt lat="50.45951" lon="1.76095">
        <ele>30.6</ele>
        <time>2014-11-23T09:59:00Z</time>
      </trkpt>
      <trkpt lat="50.45941" lon="1.76091">
        <ele>31.2</ele>
        <time>2014-11-23T09:59:04Z</time>
      </trkpt>
      <trkpt lat="50.45925" lon="1.76087">
        <ele>31.4</ele>
        <time>2014-11-23T09:59:10Z</time>
      </trkpt>
      <trkpt lat="50.45923" lon="1.76087">
        <ele>31.8</ele>
        <time>2014-11-23T09:59:11Z</time>
      </trkpt>
      <trkpt lat="50.45913" lon="1.76085">
        <ele>33</ele>
        <time>2014-11-23T09:59:15Z</time>
      </trkpt>
      <trkpt lat="50.45907" lon="1.76081">
        <ele>33.8</ele>
        <time>2014-11-23T09:59:18Z</time>
      </trkpt>
      <trkpt lat="50.45905" lon="1.76079">
        <ele>34</ele>
        <time>2014-11-23T09:59:19Z</time>
      </trkpt>
      <trkpt lat="50.45895" lon="1.76065">
        <ele>35.4</ele>
        <time>2014-11-23T09:59:25Z</time>
      </trkpt>
      <trkpt lat="50.45879" lon="1.76043">
        <ele>35.8</ele>
        <time>2014-11-23T09:59:34Z</time>
      </trkpt>
      <trkpt lat="50.45867" lon="1.7603">
        <ele>35.2</ele>
        <time>2014-11-23T09:59:40Z</time>
      </trkpt>
      <trkpt lat="50.45855" lon="1.76013">
        <ele>35.4</ele>
        <time>2014-11-23T09:59:46Z</time>
      </trkpt>
      <trkpt lat="50.45841" lon="1.75992">
        <ele>35.4</ele>
        <time>2014-11-23T09:59:53Z</time>
      </trkpt>
      <trkpt lat="50.45823" lon="1.7598">
        <ele>34.8</ele>
        <time>2014-11-23T09:59:58Z</time>
      </trkpt>
      <trkpt lat="50.45794" lon="1.75959">
        <ele>34.8</ele>
        <time>2014-11-23T10:00:06Z</time>
      </trkpt>
      <trkpt lat="50.45764" lon="1.75939">
        <ele>35.6</ele>
        <time>2014-11-23T10:00:14Z</time>
      </trkpt>
      <trkpt lat="50.45746" lon="1.75929">
        <ele>35</ele>
        <time>2014-11-23T10:00:19Z</time>
      </trkpt>
      <trkpt lat="50.45742" lon="1.7593">
        <ele>34.8</ele>
        <time>2014-11-23T10:00:20Z</time>
      </trkpt>
      <trkpt lat="50.45723" lon="1.75936">
        <ele>35.8</ele>
        <time>2014-11-23T10:00:26Z</time>
      </trkpt>
      <trkpt lat="50.45719" lon="1.75934">
        <ele>35.8</ele>
        <time>2014-11-23T10:00:27Z</time>
      </trkpt>
      <trkpt lat="50.45711" lon="1.75929">
        <ele>34.2</ele>
        <time>2014-11-23T10:00:29Z</time>
      </trkpt>
      <trkpt lat="50.45708" lon="1.75926">
        <ele>33.8</ele>
        <time>2014-11-23T10:00:30Z</time>
      </trkpt>
      <trkpt lat="50.45705" lon="1.75924">
        <ele>33.2</ele>
        <time>2014-11-23T10:00:31Z</time>
      </trkpt>
      <trkpt lat="50.45697" lon="1.75919">
        <ele>31.6</ele>
        <time>2014-11-23T10:00:34Z</time>
      </trkpt>
      <trkpt lat="50.45695" lon="1.75918">
        <ele>31.2</ele>
        <time>2014-11-23T10:00:35Z</time>
      </trkpt>
      <trkpt lat="50.45694" lon="1.75918">
        <ele>30.6</ele>
        <time>2014-11-23T10:00:36Z</time>
      </trkpt>
      <trkpt lat="50.4569" lon="1.75913">
        <ele>29.6</ele>
        <time>2014-11-23T10:00:38Z</time>
      </trkpt>
      <trkpt lat="50.45691" lon="1.75905">
        <ele>29.2</ele>
        <time>2014-11-23T10:00:40Z</time>
      </trkpt>
      <trkpt lat="50.45695" lon="1.75897">
        <ele>29.8</ele>
        <time>2014-11-23T10:00:42Z</time>
      </trkpt>
      <trkpt lat="50.457" lon="1.75885">
        <ele>30.6</ele>
        <time>2014-11-23T10:00:45Z</time>
      </trkpt>
      <trkpt lat="50.45709" lon="1.75864">
        <ele>31.8</ele>
        <time>2014-11-23T10:00:50Z</time>
      </trkpt>
      <trkpt lat="50.45714" lon="1.75852">
        <ele>32.6</ele>
        <time>2014-11-23T10:00:53Z</time>
      </trkpt>
      <trkpt lat="50.45719" lon="1.7584">
        <ele>33</ele>
        <time>2014-11-23T10:00:56Z</time>
      </trkpt>
      <trkpt lat="50.45725" lon="1.75829">
        <ele>34</ele>
        <time>2014-11-23T10:00:59Z</time>
      </trkpt>
      <trkpt lat="50.4573" lon="1.75817">
        <ele>35</ele>
        <time>2014-11-23T10:01:02Z</time>
      </trkpt>
      <trkpt lat="50.45731" lon="1.75813">
        <ele>35.2</ele>
        <time>2014-11-23T10:01:03Z</time>
      </trkpt>
      <trkpt lat="50.45742" lon="1.7579">
        <ele>36.2</ele>
        <time>2014-11-23T10:01:09Z</time>
      </trkpt>
      <trkpt lat="50.45744" lon="1.75786">
        <ele>36.2</ele>
        <time>2014-11-23T10:01:10Z</time>
      </trkpt>
      <trkpt lat="50.4576" lon="1.75768">
        <ele>37.2</ele>
        <time>2014-11-23T10:01:16Z</time>
      </trkpt>
      <trkpt lat="50.4576" lon="1.75763">
        <ele>37.4</ele>
        <time>2014-11-23T10:01:17Z</time>
      </trkpt>
      <trkpt lat="50.45756" lon="1.75756">
        <ele>37.4</ele>
        <time>2014-11-23T10:01:19Z</time>
      </trkpt>
      <trkpt lat="50.45748" lon="1.75751">
        <ele>36.8</ele>
        <time>2014-11-23T10:01:22Z</time>
      </trkpt>
      <trkpt lat="50.45742" lon="1.7575">
        <ele>36.6</ele>
        <time>2014-11-23T10:01:25Z</time>
      </trkpt>
      <trkpt lat="50.45741" lon="1.75753">
        <ele>36.4</ele>
        <time>2014-11-23T10:01:26Z</time>
      </trkpt>
      <trkpt lat="50.45747" lon="1.75761">
        <ele>36.4</ele>
        <time>2014-11-23T10:01:29Z</time>
      </trkpt>
      <trkpt lat="50.45759" lon="1.75754">
        <ele>37</ele>
        <time>2014-11-23T10:01:33Z</time>
      </trkpt>
      <trkpt lat="50.45762" lon="1.75736">
        <ele>36.4</ele>
        <time>2014-11-23T10:01:36Z</time>
      </trkpt>
      <trkpt lat="50.45759" lon="1.75725">
        <ele>36</ele>
        <time>2014-11-23T10:01:38Z</time>
      </trkpt>
      <trkpt lat="50.45758" lon="1.75715">
        <ele>35.4</ele>
        <time>2014-11-23T10:01:40Z</time>
      </trkpt>
      <trkpt lat="50.45758" lon="1.7571">
        <ele>35.4</ele>
        <time>2014-11-23T10:01:41Z</time>
      </trkpt>
      <trkpt lat="50.45757" lon="1.75704">
        <ele>34.6</ele>
        <time>2014-11-23T10:01:42Z</time>
      </trkpt>
      <trkpt lat="50.45756" lon="1.75692">
        <ele>33.4</ele>
        <time>2014-11-23T10:01:44Z</time>
      </trkpt>
      <trkpt lat="50.45754" lon="1.75679">
        <ele>31.4</ele>
        <time>2014-11-23T10:01:46Z</time>
      </trkpt>
      <trkpt lat="50.45752" lon="1.75667">
        <ele>29.6</ele>
        <time>2014-11-23T10:01:48Z</time>
      </trkpt>
      <trkpt lat="50.4575" lon="1.75662">
        <ele>29.2</ele>
        <time>2014-11-23T10:01:49Z</time>
      </trkpt>
      <trkpt lat="50.45749" lon="1.75655">
        <ele>28.4</ele>
        <time>2014-11-23T10:01:50Z</time>
      </trkpt>
      <trkpt lat="50.45747" lon="1.75648">
        <ele>27.6</ele>
        <time>2014-11-23T10:01:51Z</time>
      </trkpt>
      <trkpt lat="50.45746" lon="1.75639">
        <ele>26.8</ele>
        <time>2014-11-23T10:01:52Z</time>
      </trkpt>
      <trkpt lat="50.45743" lon="1.75622">
        <ele>25.2</ele>
        <time>2014-11-23T10:01:54Z</time>
      </trkpt>
      <trkpt lat="50.45739" lon="1.75599">
        <ele>23</ele>
        <time>2014-11-23T10:01:56Z</time>
      </trkpt>
      <trkpt lat="50.45738" lon="1.75588">
        <ele>21.2</ele>
        <time>2014-11-23T10:01:57Z</time>
      </trkpt>
      <trkpt lat="50.45735" lon="1.75565">
        <ele>19</ele>
        <time>2014-11-23T10:01:59Z</time>
      </trkpt>
      <trkpt lat="50.45733" lon="1.75554">
        <ele>17.6</ele>
        <time>2014-11-23T10:02:00Z</time>
      </trkpt>
      <trkpt lat="50.4573" lon="1.75531">
        <ele>15.6</ele>
        <time>2014-11-23T10:02:02Z</time>
      </trkpt>
      <trkpt lat="50.45727" lon="1.75512">
        <ele>13.2</ele>
        <time>2014-11-23T10:02:04Z</time>
      </trkpt>
      <trkpt lat="50.45726" lon="1.75501">
        <ele>12.2</ele>
        <time>2014-11-23T10:02:05Z</time>
      </trkpt>
      <trkpt lat="50.45724" lon="1.7548">
        <ele>10.8</ele>
        <time>2014-11-23T10:02:07Z</time>
      </trkpt>
      <trkpt lat="50.45723" lon="1.75447">
        <ele>10</ele>
        <time>2014-11-23T10:02:10Z</time>
      </trkpt>
      <trkpt lat="50.45724" lon="1.75436">
        <ele>9.2</ele>
        <time>2014-11-23T10:02:11Z</time>
      </trkpt>
      <trkpt lat="50.45725" lon="1.75426">
        <ele>8.4</ele>
        <time>2014-11-23T10:02:12Z</time>
      </trkpt>
      <trkpt lat="50.45726" lon="1.75416">
        <ele>8</ele>
        <time>2014-11-23T10:02:13Z</time>
      </trkpt>
      <trkpt lat="50.45731" lon="1.75381">
        <ele>7.4</ele>
        <time>2014-11-23T10:02:17Z</time>
      </trkpt>
      <trkpt lat="50.45738" lon="1.75333">
        <ele>9.4</ele>
        <time>2014-11-23T10:02:23Z</time>
      </trkpt>
      <trkpt lat="50.45739" lon="1.75325">
        <ele>9.6</ele>
        <time>2014-11-23T10:02:24Z</time>
      </trkpt>
      <trkpt lat="50.45746" lon="1.75291">
        <ele>10.2</ele>
        <time>2014-11-23T10:02:30Z</time>
      </trkpt>
      <trkpt lat="50.45747" lon="1.75286">
        <ele>10.4</ele>
        <time>2014-11-23T10:02:31Z</time>
      </trkpt>
      <trkpt lat="50.45751" lon="1.75272">
        <ele>11.4</ele>
        <time>2014-11-23T10:02:34Z</time>
      </trkpt>
      <trkpt lat="50.45754" lon="1.75258">
        <ele>11.8</ele>
        <time>2014-11-23T10:02:37Z</time>
      </trkpt>
      <trkpt lat="50.45758" lon="1.75246">
        <ele>12.8</ele>
        <time>2014-11-23T10:02:40Z</time>
      </trkpt>
      <trkpt lat="50.45763" lon="1.75229">
        <ele>13.4</ele>
        <time>2014-11-23T10:02:44Z</time>
      </trkpt>
      <trkpt lat="50.45766" lon="1.75221">
        <ele>14.2</ele>
        <time>2014-11-23T10:02:46Z</time>
      </trkpt>
      <trkpt lat="50.45773" lon="1.752">
        <ele>15</ele>
        <time>2014-11-23T10:02:52Z</time>
      </trkpt>
      <trkpt lat="50.45774" lon="1.75197">
        <ele>15.6</ele>
        <time>2014-11-23T10:02:53Z</time>
      </trkpt>
      <trkpt lat="50.45779" lon="1.75185">
        <ele>16.8</ele>
        <time>2014-11-23T10:02:57Z</time>
      </trkpt>
      <trkpt lat="50.45782" lon="1.75173">
        <ele>17.6</ele>
        <time>2014-11-23T10:03:01Z</time>
      </trkpt>
      <trkpt lat="50.45783" lon="1.7517">
        <ele>17.8</ele>
        <time>2014-11-23T10:03:02Z</time>
      </trkpt>
      <trkpt lat="50.45789" lon="1.75152">
        <ele>18.6</ele>
        <time>2014-11-23T10:03:08Z</time>
      </trkpt>
      <trkpt lat="50.45791" lon="1.75149">
        <ele>18.8</ele>
        <time>2014-11-23T10:03:09Z</time>
      </trkpt>
      <trkpt lat="50.45795" lon="1.75137">
        <ele>19.8</ele>
        <time>2014-11-23T10:03:13Z</time>
      </trkpt>
      <trkpt lat="50.45797" lon="1.75132">
        <ele>20.6</ele>
        <time>2014-11-23T10:03:15Z</time>
      </trkpt>
      <trkpt lat="50.45798" lon="1.75129">
        <ele>21</ele>
        <time>2014-11-23T10:03:16Z</time>
      </trkpt>
      <trkpt lat="50.45804" lon="1.75114">
        <ele>21.6</ele>
        <time>2014-11-23T10:03:22Z</time>
      </trkpt>
      <trkpt lat="50.45805" lon="1.75107">
        <ele>22.2</ele>
        <time>2014-11-23T10:03:24Z</time>
      </trkpt>
      <trkpt lat="50.45809" lon="1.75095">
        <ele>23.2</ele>
        <time>2014-11-23T10:03:28Z</time>
      </trkpt>
      <trkpt lat="50.45811" lon="1.75086">
        <ele>23.8</ele>
        <time>2014-11-23T10:03:31Z</time>
      </trkpt>
      <trkpt lat="50.45813" lon="1.7508">
        <ele>24.6</ele>
        <time>2014-11-23T10:03:33Z</time>
      </trkpt>
      <trkpt lat="50.45818" lon="1.75061">
        <ele>25.8</ele>
        <time>2014-11-23T10:03:40Z</time>
      </trkpt>
      <trkpt lat="50.45823" lon="1.75045">
        <ele>26.8</ele>
        <time>2014-11-23T10:03:46Z</time>
      </trkpt>
      <trkpt lat="50.45825" lon="1.75036">
        <ele>26.6</ele>
        <time>2014-11-23T10:03:49Z</time>
      </trkpt>
      <trkpt lat="50.4583" lon="1.75022">
        <ele>27.8</ele>
        <time>2014-11-23T10:03:54Z</time>
      </trkpt>
      <trkpt lat="50.45832" lon="1.75017">
        <ele>28.6</ele>
        <time>2014-11-23T10:03:56Z</time>
      </trkpt>
      <trkpt lat="50.45834" lon="1.75009">
        <ele>28.8</ele>
        <time>2014-11-23T10:03:59Z</time>
      </trkpt>
      <trkpt lat="50.45838" lon="1.75">
        <ele>29.2</ele>
        <time>2014-11-23T10:04:03Z</time>
      </trkpt>
      <trkpt lat="50.45837" lon="1.74999">
        <ele>29.4</ele>
        <time>2014-11-23T10:04:05Z</time>
      </trkpt>
      <trkpt lat="50.45838" lon="1.74999">
        <ele>29</ele>
        <time>2014-11-23T10:04:08Z</time>
      </trkpt>
      <trkpt lat="50.45837" lon="1.74999">
        <ele>30.2</ele>
        <time>2014-11-23T10:04:22Z</time>
      </trkpt>
      <trkpt lat="50.45838" lon="1.74998">
        <ele>30</ele>
        <time>2014-11-23T10:04:25Z</time>
      </trkpt>
      <trkpt lat="50.45842" lon="1.74985">
        <ele>30.2</ele>
        <time>2014-11-23T10:04:30Z</time>
      </trkpt>
      <trkpt lat="50.45843" lon="1.74983">
        <ele>30.2</ele>
        <time>2014-11-23T10:04:31Z</time>
      </trkpt>
      <trkpt lat="50.45847" lon="1.74967">
        <ele>31.4</ele>
        <time>2014-11-23T10:04:36Z</time>
      </trkpt>
      <trkpt lat="50.45851" lon="1.74948">
        <ele>32.4</ele>
        <time>2014-11-23T10:04:42Z</time>
      </trkpt>
      <trkpt lat="50.45856" lon="1.74928">
        <ele>33.4</ele>
        <time>2014-11-23T10:04:48Z</time>
      </trkpt>
      <trkpt lat="50.45859" lon="1.74907">
        <ele>33.6</ele>
        <time>2014-11-23T10:04:54Z</time>
      </trkpt>
      <trkpt lat="50.4586" lon="1.74904">
        <ele>33.8</ele>
        <time>2014-11-23T10:04:55Z</time>
      </trkpt>
      <trkpt lat="50.45866" lon="1.74882">
        <ele>34.4</ele>
        <time>2014-11-23T10:05:02Z</time>
      </trkpt>
      <trkpt lat="50.45867" lon="1.74876">
        <ele>34.4</ele>
        <time>2014-11-23T10:05:04Z</time>
      </trkpt>
      <trkpt lat="50.45869" lon="1.74869">
        <ele>34.6</ele>
        <time>2014-11-23T10:05:06Z</time>
      </trkpt>
      <trkpt lat="50.45873" lon="1.74849">
        <ele>35.2</ele>
        <time>2014-11-23T10:05:12Z</time>
      </trkpt>
      <trkpt lat="50.45876" lon="1.7484">
        <ele>35.8</ele>
        <time>2014-11-23T10:05:15Z</time>
      </trkpt>
      <trkpt lat="50.4588" lon="1.74819">
        <ele>35.8</ele>
        <time>2014-11-23T10:05:21Z</time>
      </trkpt>
      <trkpt lat="50.45888" lon="1.74781">
        <ele>36.6</ele>
        <time>2014-11-23T10:05:32Z</time>
      </trkpt>
      <trkpt lat="50.4589" lon="1.74774">
        <ele>36.8</ele>
        <time>2014-11-23T10:05:34Z</time>
      </trkpt>
      <trkpt lat="50.45896" lon="1.74743">
        <ele>37.6</ele>
        <time>2014-11-23T10:05:43Z</time>
      </trkpt>
      <trkpt lat="50.45902" lon="1.74715">
        <ele>37.8</ele>
        <time>2014-11-23T10:05:51Z</time>
      </trkpt>
      <trkpt lat="50.45903" lon="1.74708">
        <ele>38</ele>
        <time>2014-11-23T10:05:53Z</time>
      </trkpt>
      <trkpt lat="50.45908" lon="1.74681">
        <ele>38.6</ele>
        <time>2014-11-23T10:06:00Z</time>
      </trkpt>
      <trkpt lat="50.4591" lon="1.74649">
        <ele>38.2</ele>
        <time>2014-11-23T10:06:07Z</time>
      </trkpt>
      <trkpt lat="50.45916" lon="1.74617">
        <ele>38.4</ele>
        <time>2014-11-23T10:06:14Z</time>
      </trkpt>
      <trkpt lat="50.45922" lon="1.74589">
        <ele>38.2</ele>
        <time>2014-11-23T10:06:21Z</time>
      </trkpt>
      <trkpt lat="50.45929" lon="1.74555">
        <ele>38.4</ele>
        <time>2014-11-23T10:06:28Z</time>
      </trkpt>
      <trkpt lat="50.45936" lon="1.74508">
        <ele>38.4</ele>
        <time>2014-11-23T10:06:36Z</time>
      </trkpt>
      <trkpt lat="50.45936" lon="1.74455">
        <ele>38</ele>
        <time>2014-11-23T10:06:44Z</time>
      </trkpt>
      <trkpt lat="50.45934" lon="1.74402">
        <ele>38.4</ele>
        <time>2014-11-23T10:06:52Z</time>
      </trkpt>
      <trkpt lat="50.45931" lon="1.74341">
        <ele>39.2</ele>
        <time>2014-11-23T10:07:01Z</time>
      </trkpt>
      <trkpt lat="50.45933" lon="1.74285">
        <ele>39.6</ele>
        <time>2014-11-23T10:07:10Z</time>
      </trkpt>
      <trkpt lat="50.45935" lon="1.74244">
        <ele>39.6</ele>
        <time>2014-11-23T10:07:17Z</time>
      </trkpt>
      <trkpt lat="50.45936" lon="1.74217">
        <ele>40.4</ele>
        <time>2014-11-23T10:07:22Z</time>
      </trkpt>
      <trkpt lat="50.45939" lon="1.742">
        <ele>40.8</ele>
        <time>2014-11-23T10:07:25Z</time>
      </trkpt>
      <trkpt lat="50.45945" lon="1.74157">
        <ele>40.2</ele>
        <time>2014-11-23T10:07:33Z</time>
      </trkpt>
      <trkpt lat="50.45952" lon="1.74138">
        <ele>41.6</ele>
        <time>2014-11-23T10:07:38Z</time>
      </trkpt>
      <trkpt lat="50.45954" lon="1.74136">
        <ele>42</ele>
        <time>2014-11-23T10:07:39Z</time>
      </trkpt>
      <trkpt lat="50.45964" lon="1.74131">
        <ele>42.8</ele>
        <time>2014-11-23T10:07:43Z</time>
      </trkpt>
      <trkpt lat="50.45967" lon="1.74129">
        <ele>42.6</ele>
        <time>2014-11-23T10:07:44Z</time>
      </trkpt>
      <trkpt lat="50.45982" lon="1.74111">
        <ele>43</ele>
        <time>2014-11-23T10:07:50Z</time>
      </trkpt>
      <trkpt lat="50.45997" lon="1.74078">
        <ele>43.8</ele>
        <time>2014-11-23T10:07:58Z</time>
      </trkpt>
      <trkpt lat="50.45999" lon="1.74073">
        <ele>44</ele>
        <time>2014-11-23T10:07:59Z</time>
      </trkpt>
      <trkpt lat="50.46016" lon="1.74026">
        <ele>44.8</ele>
        <time>2014-11-23T10:08:08Z</time>
      </trkpt>
      <trkpt lat="50.46022" lon="1.7401">
        <ele>45</ele>
        <time>2014-11-23T10:08:11Z</time>
      </trkpt>
      <trkpt lat="50.46024" lon="1.74004">
        <ele>45.2</ele>
        <time>2014-11-23T10:08:12Z</time>
      </trkpt>
      <trkpt lat="50.46028" lon="1.73992">
        <ele>44.8</ele>
        <time>2014-11-23T10:08:14Z</time>
      </trkpt>
      <trkpt lat="50.46046" lon="1.73937">
        <ele>44.8</ele>
        <time>2014-11-23T10:08:23Z</time>
      </trkpt>
      <trkpt lat="50.46058" lon="1.73881">
        <ele>44.4</ele>
        <time>2014-11-23T10:08:31Z</time>
      </trkpt>
      <trkpt lat="50.4606" lon="1.73873">
        <ele>43.8</ele>
        <time>2014-11-23T10:08:32Z</time>
      </trkpt>
      <trkpt lat="50.46073" lon="1.73823">
        <ele>43.2</ele>
        <time>2014-11-23T10:08:38Z</time>
      </trkpt>
      <trkpt lat="50.46078" lon="1.73807">
        <ele>42.6</ele>
        <time>2014-11-23T10:08:40Z</time>
      </trkpt>
      <trkpt lat="50.46091" lon="1.73771">
        <ele>41.2</ele>
        <time>2014-11-23T10:08:44Z</time>
      </trkpt>
      <trkpt lat="50.46098" lon="1.73753">
        <ele>41</ele>
        <time>2014-11-23T10:08:46Z</time>
      </trkpt>
      <trkpt lat="50.46101" lon="1.73744">
        <ele>40</ele>
        <time>2014-11-23T10:08:47Z</time>
      </trkpt>
      <trkpt lat="50.46122" lon="1.73702">
        <ele>39</ele>
        <time>2014-11-23T10:08:52Z</time>
      </trkpt>
      <trkpt lat="50.46125" lon="1.73694">
        <ele>38.6</ele>
        <time>2014-11-23T10:08:53Z</time>
      </trkpt>
      <trkpt lat="50.46139" lon="1.73657">
        <ele>39.2</ele>
        <time>2014-11-23T10:08:58Z</time>
      </trkpt>
      <trkpt lat="50.46147" lon="1.73625">
        <ele>40.2</ele>
        <time>2014-11-23T10:09:02Z</time>
      </trkpt>
      <trkpt lat="50.46151" lon="1.73611">
        <ele>39.8</ele>
        <time>2014-11-23T10:09:04Z</time>
      </trkpt>
      <trkpt lat="50.46158" lon="1.73592">
        <ele>41.4</ele>
        <time>2014-11-23T10:09:07Z</time>
      </trkpt>
      <trkpt lat="50.4617" lon="1.73562">
        <ele>41.8</ele>
        <time>2014-11-23T10:09:12Z</time>
      </trkpt>
      <trkpt lat="50.46181" lon="1.73541">
        <ele>42.8</ele>
        <time>2014-11-23T10:09:16Z</time>
      </trkpt>
      <trkpt lat="50.46192" lon="1.73518">
        <ele>42</ele>
        <time>2014-11-23T10:09:20Z</time>
      </trkpt>
      <trkpt lat="50.46217" lon="1.73457">
        <ele>43</ele>
        <time>2014-11-23T10:09:30Z</time>
      </trkpt>
      <trkpt lat="50.46236" lon="1.73392">
        <ele>41.8</ele>
        <time>2014-11-23T10:09:39Z</time>
      </trkpt>
      <trkpt lat="50.46239" lon="1.73384">
        <ele>41.6</ele>
        <time>2014-11-23T10:09:40Z</time>
      </trkpt>
      <trkpt lat="50.46256" lon="1.73341">
        <ele>41.2</ele>
        <time>2014-11-23T10:09:45Z</time>
      </trkpt>
      <trkpt lat="50.46274" lon="1.73301">
        <ele>39.8</ele>
        <time>2014-11-23T10:09:50Z</time>
      </trkpt>
      <trkpt lat="50.46282" lon="1.73285">
        <ele>39.4</ele>
        <time>2014-11-23T10:09:52Z</time>
      </trkpt>
      <trkpt lat="50.46317" lon="1.73217">
        <ele>39.4</ele>
        <time>2014-11-23T10:10:00Z</time>
      </trkpt>
      <trkpt lat="50.46332" lon="1.73192">
        <ele>38.4</ele>
        <time>2014-11-23T10:10:03Z</time>
      </trkpt>
      <trkpt lat="50.46341" lon="1.73175">
        <ele>37.2</ele>
        <time>2014-11-23T10:10:05Z</time>
      </trkpt>
      <trkpt lat="50.4635" lon="1.73159">
        <ele>37</ele>
        <time>2014-11-23T10:10:07Z</time>
      </trkpt>
      <trkpt lat="50.46369" lon="1.73113">
        <ele>37.2</ele>
        <time>2014-11-23T10:10:13Z</time>
      </trkpt>
      <trkpt lat="50.46379" lon="1.73088">
        <ele>37.8</ele>
        <time>2014-11-23T10:10:17Z</time>
      </trkpt>
      <trkpt lat="50.46384" lon="1.73077">
        <ele>38</ele>
        <time>2014-11-23T10:10:19Z</time>
      </trkpt>
      <trkpt lat="50.4639" lon="1.73068">
        <ele>38.4</ele>
        <time>2014-11-23T10:10:21Z</time>
      </trkpt>
      <trkpt lat="50.46401" lon="1.73044">
        <ele>38.8</ele>
        <time>2014-11-23T10:10:26Z</time>
      </trkpt>
      <trkpt lat="50.46416" lon="1.7301">
        <ele>39.2</ele>
        <time>2014-11-23T10:10:33Z</time>
      </trkpt>
      <trkpt lat="50.46419" lon="1.73004">
        <ele>39.2</ele>
        <time>2014-11-23T10:10:34Z</time>
      </trkpt>
      <trkpt lat="50.46427" lon="1.72978">
        <ele>39.2</ele>
        <time>2014-11-23T10:10:38Z</time>
      </trkpt>
      <trkpt lat="50.46441" lon="1.7293">
        <ele>38</ele>
        <time>2014-11-23T10:10:44Z</time>
      </trkpt>
      <trkpt lat="50.46458" lon="1.72874">
        <ele>37.4</ele>
        <time>2014-11-23T10:10:50Z</time>
      </trkpt>
      <trkpt lat="50.46459" lon="1.72865">
        <ele>37.2</ele>
        <time>2014-11-23T10:10:51Z</time>
      </trkpt>
      <trkpt lat="50.46465" lon="1.72821">
        <ele>35.8</ele>
        <time>2014-11-23T10:10:55Z</time>
      </trkpt>
      <trkpt lat="50.46467" lon="1.72809">
        <ele>35.6</ele>
        <time>2014-11-23T10:10:56Z</time>
      </trkpt>
      <trkpt lat="50.46469" lon="1.72784">
        <ele>34.6</ele>
        <time>2014-11-23T10:10:58Z</time>
      </trkpt>
      <trkpt lat="50.46473" lon="1.72757">
        <ele>33.4</ele>
        <time>2014-11-23T10:11:00Z</time>
      </trkpt>
      <trkpt lat="50.46476" lon="1.72743">
        <ele>32.8</ele>
        <time>2014-11-23T10:11:01Z</time>
      </trkpt>
      <trkpt lat="50.46479" lon="1.72729">
        <ele>32.2</ele>
        <time>2014-11-23T10:11:02Z</time>
      </trkpt>
      <trkpt lat="50.46487" lon="1.72704">
        <ele>30.4</ele>
        <time>2014-11-23T10:11:04Z</time>
      </trkpt>
      <trkpt lat="50.4649" lon="1.72694">
        <ele>30</ele>
        <time>2014-11-23T10:11:05Z</time>
      </trkpt>
      <trkpt lat="50.46494" lon="1.72684">
        <ele>29.2</ele>
        <time>2014-11-23T10:11:06Z</time>
      </trkpt>
      <trkpt lat="50.46501" lon="1.72661">
        <ele>27.8</ele>
        <time>2014-11-23T10:11:09Z</time>
      </trkpt>
      <trkpt lat="50.46498" lon="1.72643">
        <ele>27.6</ele>
        <time>2014-11-23T10:11:12Z</time>
      </trkpt>
      <trkpt lat="50.46483" lon="1.72629">
        <ele>28.6</ele>
        <time>2014-11-23T10:11:16Z</time>
      </trkpt>
      <trkpt lat="50.46479" lon="1.72627">
        <ele>28.8</ele>
        <time>2014-11-23T10:11:17Z</time>
      </trkpt>
      <trkpt lat="50.46457" lon="1.72613">
        <ele>29.8</ele>
        <time>2014-11-23T10:11:23Z</time>
      </trkpt>
      <trkpt lat="50.46454" lon="1.7261">
        <ele>30</ele>
        <time>2014-11-23T10:11:24Z</time>
      </trkpt>
      <trkpt lat="50.46433" lon="1.72593">
        <ele>31</ele>
        <time>2014-11-23T10:11:30Z</time>
      </trkpt>
      <trkpt lat="50.4643" lon="1.72589">
        <ele>31.2</ele>
        <time>2014-11-23T10:11:31Z</time>
      </trkpt>
      <trkpt lat="50.46413" lon="1.72569">
        <ele>32</ele>
        <time>2014-11-23T10:11:37Z</time>
      </trkpt>
      <trkpt lat="50.46405" lon="1.72558">
        <ele>32.6</ele>
        <time>2014-11-23T10:11:40Z</time>
      </trkpt>
      <trkpt lat="50.46399" lon="1.72551">
        <ele>33.2</ele>
        <time>2014-11-23T10:11:42Z</time>
      </trkpt>
      <trkpt lat="50.4638" lon="1.72525">
        <ele>34</ele>
        <time>2014-11-23T10:11:49Z</time>
      </trkpt>
      <trkpt lat="50.46372" lon="1.72513">
        <ele>34.2</ele>
        <time>2014-11-23T10:11:52Z</time>
      </trkpt>
      <trkpt lat="50.46361" lon="1.72497">
        <ele>35.2</ele>
        <time>2014-11-23T10:11:56Z</time>
      </trkpt>
      <trkpt lat="50.46358" lon="1.72493">
        <ele>35.2</ele>
        <time>2014-11-23T10:11:57Z</time>
      </trkpt>
      <trkpt lat="50.46336" lon="1.72461">
        <ele>36.2</ele>
        <time>2014-11-23T10:12:05Z</time>
      </trkpt>
      <trkpt lat="50.46333" lon="1.72457">
        <ele>36.6</ele>
        <time>2014-11-23T10:12:06Z</time>
      </trkpt>
      <trkpt lat="50.46306" lon="1.72422">
        <ele>36.8</ele>
        <time>2014-11-23T10:12:15Z</time>
      </trkpt>
      <trkpt lat="50.46283" lon="1.72395">
        <ele>37.6</ele>
        <time>2014-11-23T10:12:22Z</time>
      </trkpt>
      <trkpt lat="50.46279" lon="1.72391">
        <ele>37.8</ele>
        <time>2014-11-23T10:12:23Z</time>
      </trkpt>
      <trkpt lat="50.46245" lon="1.7236">
        <ele>38</ele>
        <time>2014-11-23T10:12:32Z</time>
      </trkpt>
      <trkpt lat="50.46237" lon="1.72354">
        <ele>37.8</ele>
        <time>2014-11-23T10:12:34Z</time>
      </trkpt>
      <trkpt lat="50.46238" lon="1.72341">
        <ele>38.2</ele>
        <time>2014-11-23T10:12:36Z</time>
      </trkpt>
      <trkpt lat="50.46245" lon="1.72325">
        <ele>38</ele>
        <time>2014-11-23T10:12:39Z</time>
      </trkpt>
      <trkpt lat="50.4626" lon="1.72279">
        <ele>38.8</ele>
        <time>2014-11-23T10:12:47Z</time>
      </trkpt>
      <trkpt lat="50.46261" lon="1.72273">
        <ele>38.8</ele>
        <time>2014-11-23T10:12:48Z</time>
      </trkpt>
      <trkpt lat="50.46276" lon="1.72236">
        <ele>38.6</ele>
        <time>2014-11-23T10:12:55Z</time>
      </trkpt>
      <trkpt lat="50.46293" lon="1.72196">
        <ele>39.4</ele>
        <time>2014-11-23T10:13:03Z</time>
      </trkpt>
      <trkpt lat="50.46306" lon="1.72174">
        <ele>40</ele>
        <time>2014-11-23T10:13:08Z</time>
      </trkpt>
      <trkpt lat="50.46317" lon="1.72154">
        <ele>39.6</ele>
        <time>2014-11-23T10:13:13Z</time>
      </trkpt>
      <trkpt lat="50.4633" lon="1.7213">
        <ele>40.2</ele>
        <time>2014-11-23T10:13:19Z</time>
      </trkpt>
      <trkpt lat="50.46329" lon="1.72122">
        <ele>41.4</ele>
        <time>2014-11-23T10:13:21Z</time>
      </trkpt>
      <trkpt lat="50.46327" lon="1.72112">
        <ele>41.6</ele>
        <time>2014-11-23T10:13:23Z</time>
      </trkpt>
      <trkpt lat="50.4632" lon="1.72082">
        <ele>42</ele>
        <time>2014-11-23T10:13:30Z</time>
      </trkpt>
      <trkpt lat="50.46317" lon="1.7206">
        <ele>42.4</ele>
        <time>2014-11-23T10:13:35Z</time>
      </trkpt>
      <trkpt lat="50.46316" lon="1.72057">
        <ele>42.8</ele>
        <time>2014-11-23T10:13:36Z</time>
      </trkpt>
      <trkpt lat="50.46311" lon="1.72041">
        <ele>43.6</ele>
        <time>2014-11-23T10:13:40Z</time>
      </trkpt>
      <trkpt lat="50.46308" lon="1.7203">
        <ele>43.8</ele>
        <time>2014-11-23T10:13:43Z</time>
      </trkpt>
      <trkpt lat="50.46297" lon="1.72008">
        <ele>44.4</ele>
        <time>2014-11-23T10:13:49Z</time>
      </trkpt>
      <trkpt lat="50.46285" lon="1.71991">
        <ele>44.6</ele>
        <time>2014-11-23T10:13:55Z</time>
      </trkpt>
      <trkpt lat="50.46279" lon="1.71982">
        <ele>45.6</ele>
        <time>2014-11-23T10:13:58Z</time>
      </trkpt>
      <trkpt lat="50.46276" lon="1.71977">
        <ele>46</ele>
        <time>2014-11-23T10:14:00Z</time>
      </trkpt>
      <trkpt lat="50.46268" lon="1.71964">
        <ele>46.4</ele>
        <time>2014-11-23T10:14:05Z</time>
      </trkpt>
      <trkpt lat="50.46265" lon="1.71961">
        <ele>46.8</ele>
        <time>2014-11-23T10:14:06Z</time>
      </trkpt>
      <trkpt lat="50.46258" lon="1.71951">
        <ele>47.6</ele>
        <time>2014-11-23T10:14:10Z</time>
      </trkpt>
      <trkpt lat="50.46254" lon="1.71944">
        <ele>48</ele>
        <time>2014-11-23T10:14:12Z</time>
      </trkpt>
      <trkpt lat="50.4624" lon="1.71921">
        <ele>48.2</ele>
        <time>2014-11-23T10:14:18Z</time>
      </trkpt>
      <trkpt lat="50.46217" lon="1.7189">
        <ele>48</ele>
        <time>2014-11-23T10:14:26Z</time>
      </trkpt>
      <trkpt lat="50.4621" lon="1.71873">
        <ele>48.6</ele>
        <time>2014-11-23T10:14:30Z</time>
      </trkpt>
      <trkpt lat="50.4621" lon="1.71868">
        <ele>48.2</ele>
        <time>2014-11-23T10:14:31Z</time>
      </trkpt>
      <trkpt lat="50.46214" lon="1.71856">
        <ele>48.4</ele>
        <time>2014-11-23T10:14:34Z</time>
      </trkpt>
      <trkpt lat="50.46216" lon="1.71849">
        <ele>48.8</ele>
        <time>2014-11-23T10:14:36Z</time>
      </trkpt>
      <trkpt lat="50.46218" lon="1.71845">
        <ele>49</ele>
        <time>2014-11-23T10:14:37Z</time>
      </trkpt>
      <trkpt lat="50.46222" lon="1.71833">
        <ele>50.2</ele>
        <time>2014-11-23T10:14:40Z</time>
      </trkpt>
      <trkpt lat="50.46224" lon="1.71825">
        <ele>49.6</ele>
        <time>2014-11-23T10:14:42Z</time>
      </trkpt>
      <trkpt lat="50.46235" lon="1.71791">
        <ele>51</ele>
        <time>2014-11-23T10:14:50Z</time>
      </trkpt>
      <trkpt lat="50.46236" lon="1.71786">
        <ele>51.2</ele>
        <time>2014-11-23T10:14:51Z</time>
      </trkpt>
      <trkpt lat="50.46239" lon="1.71769">
        <ele>52.4</ele>
        <time>2014-11-23T10:14:55Z</time>
      </trkpt>
      <trkpt lat="50.46242" lon="1.71755">
        <ele>52.6</ele>
        <time>2014-11-23T10:14:58Z</time>
      </trkpt>
      <trkpt lat="50.46246" lon="1.71729">
        <ele>53.4</ele>
        <time>2014-11-23T10:15:04Z</time>
      </trkpt>
      <trkpt lat="50.46247" lon="1.71721">
        <ele>53.4</ele>
        <time>2014-11-23T10:15:06Z</time>
      </trkpt>
      <trkpt lat="50.46251" lon="1.71696">
        <ele>54.4</ele>
        <time>2014-11-23T10:15:12Z</time>
      </trkpt>
      <trkpt lat="50.46248" lon="1.71675">
        <ele>54.8</ele>
        <time>2014-11-23T10:15:17Z</time>
      </trkpt>
      <trkpt lat="50.46242" lon="1.71661">
        <ele>54.8</ele>
        <time>2014-11-23T10:15:21Z</time>
      </trkpt>
      <trkpt lat="50.46236" lon="1.71645">
        <ele>55</ele>
        <time>2014-11-23T10:15:26Z</time>
      </trkpt>
      <trkpt lat="50.46227" lon="1.71619">
        <ele>54.6</ele>
        <time>2014-11-23T10:15:32Z</time>
      </trkpt>
      <trkpt lat="50.46222" lon="1.71596">
        <ele>54.4</ele>
        <time>2014-11-23T10:15:37Z</time>
      </trkpt>
      <trkpt lat="50.46212" lon="1.71563">
        <ele>53.8</ele>
        <time>2014-11-23T10:15:44Z</time>
      </trkpt>
      <trkpt lat="50.46201" lon="1.71532">
        <ele>53.6</ele>
        <time>2014-11-23T10:15:52Z</time>
      </trkpt>
      <trkpt lat="50.4619" lon="1.71499">
        <ele>53.6</ele>
        <time>2014-11-23T10:16:00Z</time>
      </trkpt>
      <trkpt lat="50.46181" lon="1.71474">
        <ele>53.4</ele>
        <time>2014-11-23T10:16:06Z</time>
      </trkpt>
      <trkpt lat="50.46178" lon="1.71473">
        <ele>53.4</ele>
        <time>2014-11-23T10:16:07Z</time>
      </trkpt>
      <trkpt lat="50.46171" lon="1.71475">
        <ele>53.8</ele>
        <time>2014-11-23T10:16:10Z</time>
      </trkpt>
      <trkpt lat="50.46169" lon="1.71477">
        <ele>54</ele>
        <time>2014-11-23T10:16:11Z</time>
      </trkpt>
      <trkpt lat="50.46155" lon="1.71485">
        <ele>54.4</ele>
        <time>2014-11-23T10:16:18Z</time>
      </trkpt>
      <trkpt lat="50.4615" lon="1.7147">
        <ele>55</ele>
        <time>2014-11-23T10:16:22Z</time>
      </trkpt>
      <trkpt lat="50.46139" lon="1.71437">
        <ele>55.8</ele>
        <time>2014-11-23T10:16:29Z</time>
      </trkpt>
      <trkpt lat="50.46137" lon="1.71433">
        <ele>55.8</ele>
        <time>2014-11-23T10:16:30Z</time>
      </trkpt>
      <trkpt lat="50.46125" lon="1.71399">
        <ele>55</ele>
        <time>2014-11-23T10:16:37Z</time>
      </trkpt>
      <trkpt lat="50.46108" lon="1.71353">
        <ele>55.6</ele>
        <time>2014-11-23T10:16:45Z</time>
      </trkpt>
      <trkpt lat="50.46094" lon="1.71305">
        <ele>56.2</ele>
        <time>2014-11-23T10:16:53Z</time>
      </trkpt>
      <trkpt lat="50.46089" lon="1.71271">
        <ele>56.6</ele>
        <time>2014-11-23T10:16:58Z</time>
      </trkpt>
      <trkpt lat="50.46088" lon="1.71259">
        <ele>56.8</ele>
        <time>2014-11-23T10:17:00Z</time>
      </trkpt>
      <trkpt lat="50.46085" lon="1.71223">
        <ele>56.8</ele>
        <time>2014-11-23T10:17:06Z</time>
      </trkpt>
      <trkpt lat="50.46085" lon="1.71217">
        <ele>56.8</ele>
        <time>2014-11-23T10:17:07Z</time>
      </trkpt>
      <trkpt lat="50.46087" lon="1.71202">
        <ele>56.6</ele>
        <time>2014-11-23T10:17:09Z</time>
      </trkpt>
      <trkpt lat="50.46091" lon="1.7119">
        <ele>56.6</ele>
        <time>2014-11-23T10:17:11Z</time>
      </trkpt>
      <trkpt lat="50.461" lon="1.71171">
        <ele>56.4</ele>
        <time>2014-11-23T10:17:14Z</time>
      </trkpt>
      <trkpt lat="50.46109" lon="1.71152">
        <ele>56</ele>
        <time>2014-11-23T10:17:17Z</time>
      </trkpt>
      <trkpt lat="50.46127" lon="1.71109">
        <ele>55.6</ele>
        <time>2014-11-23T10:17:23Z</time>
      </trkpt>
      <trkpt lat="50.46132" lon="1.71094">
        <ele>55.2</ele>
        <time>2014-11-23T10:17:25Z</time>
      </trkpt>
      <trkpt lat="50.46149" lon="1.7105">
        <ele>54.4</ele>
        <time>2014-11-23T10:17:31Z</time>
      </trkpt>
      <trkpt lat="50.46169" lon="1.71011">
        <ele>54.2</ele>
        <time>2014-11-23T10:17:37Z</time>
      </trkpt>
      <trkpt lat="50.46201" lon="1.70957">
        <ele>53.6</ele>
        <time>2014-11-23T10:17:45Z</time>
      </trkpt>
      <trkpt lat="50.46205" lon="1.70949">
        <ele>53.4</ele>
        <time>2014-11-23T10:17:46Z</time>
      </trkpt>
      <trkpt lat="50.46218" lon="1.70917">
        <ele>52.2</ele>
        <time>2014-11-23T10:17:50Z</time>
      </trkpt>
      <trkpt lat="50.46221" lon="1.70908">
        <ele>52</ele>
        <time>2014-11-23T10:17:51Z</time>
      </trkpt>
      <trkpt lat="50.46236" lon="1.70844">
        <ele>51.4</ele>
        <time>2014-11-23T10:17:58Z</time>
      </trkpt>
      <trkpt lat="50.4624" lon="1.70824">
        <ele>51</ele>
        <time>2014-11-23T10:18:00Z</time>
      </trkpt>
      <trkpt lat="50.4625" lon="1.70795">
        <ele>50.4</ele>
        <time>2014-11-23T10:18:03Z</time>
      </trkpt>
      <trkpt lat="50.46254" lon="1.70787">
        <ele>50.4</ele>
        <time>2014-11-23T10:18:04Z</time>
      </trkpt>
      <trkpt lat="50.46274" lon="1.70763">
        <ele>51.2</ele>
        <time>2014-11-23T10:18:08Z</time>
      </trkpt>
      <trkpt lat="50.46277" lon="1.70757">
        <ele>51.2</ele>
        <time>2014-11-23T10:18:09Z</time>
      </trkpt>
      <trkpt lat="50.46277" lon="1.70741">
        <ele>51.6</ele>
        <time>2014-11-23T10:18:11Z</time>
      </trkpt>
      <trkpt lat="50.46268" lon="1.7071">
        <ele>51.2</ele>
        <time>2014-11-23T10:18:15Z</time>
      </trkpt>
      <trkpt lat="50.46261" lon="1.70697">
        <ele>51</ele>
        <time>2014-11-23T10:18:17Z</time>
      </trkpt>
      <trkpt lat="50.46256" lon="1.7069">
        <ele>50.8</ele>
        <time>2014-11-23T10:18:18Z</time>
      </trkpt>
      <trkpt lat="50.46248" lon="1.70678">
        <ele>50.2</ele>
        <time>2014-11-23T10:18:20Z</time>
      </trkpt>
      <trkpt lat="50.46241" lon="1.70665">
        <ele>50</ele>
        <time>2014-11-23T10:18:22Z</time>
      </trkpt>
      <trkpt lat="50.46232" lon="1.70648">
        <ele>49.8</ele>
        <time>2014-11-23T10:18:25Z</time>
      </trkpt>
      <trkpt lat="50.46224" lon="1.70631">
        <ele>48.8</ele>
        <time>2014-11-23T10:18:28Z</time>
      </trkpt>
      <trkpt lat="50.4622" lon="1.70623">
        <ele>48.6</ele>
        <time>2014-11-23T10:18:30Z</time>
      </trkpt>
      <trkpt lat="50.4622" lon="1.70618">
        <ele>48.8</ele>
        <time>2014-11-23T10:18:32Z</time>
      </trkpt>
      <trkpt lat="50.46223" lon="1.70615">
        <ele>48.8</ele>
        <time>2014-11-23T10:18:33Z</time>
      </trkpt>
      <trkpt lat="50.46235" lon="1.706">
        <ele>49</ele>
        <time>2014-11-23T10:18:37Z</time>
      </trkpt>
      <trkpt lat="50.46259" lon="1.7057">
        <ele>49.8</ele>
        <time>2014-11-23T10:18:44Z</time>
      </trkpt>
      <trkpt lat="50.46269" lon="1.70557">
        <ele>50</ele>
        <time>2014-11-23T10:18:47Z</time>
      </trkpt>
      <trkpt lat="50.46282" lon="1.7054">
        <ele>50.6</ele>
        <time>2014-11-23T10:18:51Z</time>
      </trkpt>
      <trkpt lat="50.463" lon="1.70519">
        <ele>51</ele>
        <time>2014-11-23T10:18:56Z</time>
      </trkpt>
      <trkpt lat="50.46307" lon="1.7051">
        <ele>51.4</ele>
        <time>2014-11-23T10:18:58Z</time>
      </trkpt>
      <trkpt lat="50.46333" lon="1.7048">
        <ele>52</ele>
        <time>2014-11-23T10:19:05Z</time>
      </trkpt>
      <trkpt lat="50.46337" lon="1.70476">
        <ele>52.2</ele>
        <time>2014-11-23T10:19:06Z</time>
      </trkpt>
      <trkpt lat="50.46367" lon="1.70442">
        <ele>52.2</ele>
        <time>2014-11-23T10:19:13Z</time>
      </trkpt>
      <trkpt lat="50.46402" lon="1.70412">
        <ele>52</ele>
        <time>2014-11-23T10:19:20Z</time>
      </trkpt>
      <trkpt lat="50.46432" lon="1.70398">
        <ele>51.2</ele>
        <time>2014-11-23T10:19:25Z</time>
      </trkpt>
      <trkpt lat="50.46438" lon="1.70396">
        <ele>51</ele>
        <time>2014-11-23T10:19:26Z</time>
      </trkpt>
      <trkpt lat="50.46445" lon="1.70393">
        <ele>51</ele>
        <time>2014-11-23T10:19:27Z</time>
      </trkpt>
      <trkpt lat="50.46494" lon="1.70385">
        <ele>49.8</ele>
        <time>2014-11-23T10:19:34Z</time>
      </trkpt>
      <trkpt lat="50.46518" lon="1.70387">
        <ele>48.6</ele>
        <time>2014-11-23T10:19:37Z</time>
      </trkpt>
      <trkpt lat="50.46542" lon="1.7039">
        <ele>48</ele>
        <time>2014-11-23T10:19:40Z</time>
      </trkpt>
      <trkpt lat="50.46551" lon="1.70391">
        <ele>47.6</ele>
        <time>2014-11-23T10:19:41Z</time>
      </trkpt>
      <trkpt lat="50.46607" lon="1.70396">
        <ele>46.4</ele>
        <time>2014-11-23T10:19:48Z</time>
      </trkpt>
      <trkpt lat="50.46616" lon="1.70397">
        <ele>46.4</ele>
        <time>2014-11-23T10:19:49Z</time>
      </trkpt>
      <trkpt lat="50.46677" lon="1.70395">
        <ele>46.4</ele>
        <time>2014-11-23T10:19:57Z</time>
      </trkpt>
      <trkpt lat="50.46684" lon="1.70395">
        <ele>46.4</ele>
        <time>2014-11-23T10:19:58Z</time>
      </trkpt>
      <trkpt lat="50.46741" lon="1.70393">
        <ele>46.2</ele>
        <time>2014-11-23T10:20:06Z</time>
      </trkpt>
      <trkpt lat="50.46748" lon="1.70392">
        <ele>46.2</ele>
        <time>2014-11-23T10:20:07Z</time>
      </trkpt>
      <trkpt lat="50.46802" lon="1.7039">
        <ele>46.4</ele>
        <time>2014-11-23T10:20:15Z</time>
      </trkpt>
      <trkpt lat="50.46809" lon="1.70389">
        <ele>46.4</ele>
        <time>2014-11-23T10:20:16Z</time>
      </trkpt>
      <trkpt lat="50.46868" lon="1.70381">
        <ele>47.2</ele>
        <time>2014-11-23T10:20:25Z</time>
      </trkpt>
      <trkpt lat="50.46881" lon="1.70379">
        <ele>47.4</ele>
        <time>2014-11-23T10:20:27Z</time>
      </trkpt>
      <trkpt lat="50.46912" lon="1.7037">
        <ele>47.2</ele>
        <time>2014-11-23T10:20:32Z</time>
      </trkpt>
      <trkpt lat="50.46971" lon="1.70355">
        <ele>48</ele>
        <time>2014-11-23T10:20:41Z</time>
      </trkpt>
      <trkpt lat="50.46977" lon="1.70354">
        <ele>48.4</ele>
        <time>2014-11-23T10:20:42Z</time>
      </trkpt>
      <trkpt lat="50.47024" lon="1.7034">
        <ele>48.6</ele>
        <time>2014-11-23T10:20:49Z</time>
      </trkpt>
      <trkpt lat="50.47038" lon="1.70336">
        <ele>48.6</ele>
        <time>2014-11-23T10:20:51Z</time>
      </trkpt>
      <trkpt lat="50.47093" lon="1.70317">
        <ele>48.4</ele>
        <time>2014-11-23T10:20:59Z</time>
      </trkpt>
      <trkpt lat="50.471" lon="1.70315">
        <ele>48.4</ele>
        <time>2014-11-23T10:21:00Z</time>
      </trkpt>
      <trkpt lat="50.47156" lon="1.70292">
        <ele>47.8</ele>
        <time>2014-11-23T10:21:08Z</time>
      </trkpt>
      <trkpt lat="50.47183" lon="1.7028">
        <ele>47.6</ele>
        <time>2014-11-23T10:21:12Z</time>
      </trkpt>
      <trkpt lat="50.47218" lon="1.70263">
        <ele>48.2</ele>
        <time>2014-11-23T10:21:17Z</time>
      </trkpt>
      <trkpt lat="50.47274" lon="1.70233">
        <ele>47.8</ele>
        <time>2014-11-23T10:21:25Z</time>
      </trkpt>
      <trkpt lat="50.47281" lon="1.70229">
        <ele>47.6</ele>
        <time>2014-11-23T10:21:26Z</time>
      </trkpt>
      <trkpt lat="50.47339" lon="1.70201">
        <ele>47.4</ele>
        <time>2014-11-23T10:21:34Z</time>
      </trkpt>
      <trkpt lat="50.47353" lon="1.70195">
        <ele>47.4</ele>
        <time>2014-11-23T10:21:36Z</time>
      </trkpt>
      <trkpt lat="50.47381" lon="1.70184">
        <ele>46.4</ele>
        <time>2014-11-23T10:21:40Z</time>
      </trkpt>
      <trkpt lat="50.47409" lon="1.70172">
        <ele>45</ele>
        <time>2014-11-23T10:21:44Z</time>
      </trkpt>
      <trkpt lat="50.47415" lon="1.70167">
        <ele>44.6</ele>
        <time>2014-11-23T10:21:45Z</time>
      </trkpt>
      <trkpt lat="50.47421" lon="1.70161">
        <ele>44.4</ele>
        <time>2014-11-23T10:21:46Z</time>
      </trkpt>
      <trkpt lat="50.47427" lon="1.70142">
        <ele>43.8</ele>
        <time>2014-11-23T10:21:48Z</time>
      </trkpt>
      <trkpt lat="50.47423" lon="1.70118">
        <ele>43.8</ele>
        <time>2014-11-23T10:21:50Z</time>
      </trkpt>
      <trkpt lat="50.47415" lon="1.70091">
        <ele>44.4</ele>
        <time>2014-11-23T10:21:53Z</time>
      </trkpt>
      <trkpt lat="50.47412" lon="1.70083">
        <ele>44.6</ele>
        <time>2014-11-23T10:21:54Z</time>
      </trkpt>
      <trkpt lat="50.47406" lon="1.70067">
        <ele>45</ele>
        <time>2014-11-23T10:21:56Z</time>
      </trkpt>
      <trkpt lat="50.47395" lon="1.70029">
        <ele>44</ele>
        <time>2014-11-23T10:22:01Z</time>
      </trkpt>
      <trkpt lat="50.47393" lon="1.70022">
        <ele>43.8</ele>
        <time>2014-11-23T10:22:02Z</time>
      </trkpt>
      <trkpt lat="50.47391" lon="1.70006">
        <ele>43.6</ele>
        <time>2014-11-23T10:22:04Z</time>
      </trkpt>
      <trkpt lat="50.47389" lon="1.6998">
        <ele>43.2</ele>
        <time>2014-11-23T10:22:07Z</time>
      </trkpt>
      <trkpt lat="50.47391" lon="1.69956">
        <ele>42.6</ele>
        <time>2014-11-23T10:22:10Z</time>
      </trkpt>
      <trkpt lat="50.47393" lon="1.69944">
        <ele>42</ele>
        <time>2014-11-23T10:22:12Z</time>
      </trkpt>
      <trkpt lat="50.47393" lon="1.69936">
        <ele>41.8</ele>
        <time>2014-11-23T10:22:14Z</time>
      </trkpt>
      <trkpt lat="50.47394" lon="1.69931">
        <ele>41.6</ele>
        <time>2014-11-23T10:22:16Z</time>
      </trkpt>
      <trkpt lat="50.47394" lon="1.6993">
        <ele>41.8</ele>
        <time>2014-11-23T10:22:18Z</time>
      </trkpt>
      <trkpt lat="50.47394" lon="1.69931">
        <ele>42</ele>
        <time>2014-11-23T10:22:21Z</time>
      </trkpt>
      <trkpt lat="50.47394" lon="1.69929">
        <ele>41.8</ele>
        <time>2014-11-23T10:22:30Z</time>
      </trkpt>
      <trkpt lat="50.47393" lon="1.69929">
        <ele>41.6</ele>
        <time>2014-11-23T10:22:38Z</time>
      </trkpt>
      <trkpt lat="50.47395" lon="1.69931">
        <ele>42.2</ele>
        <time>2014-11-23T10:22:47Z</time>
      </trkpt>
      <trkpt lat="50.47396" lon="1.69932">
        <ele>42.2</ele>
        <time>2014-11-23T10:22:49Z</time>
      </trkpt>
      <trkpt lat="50.47397" lon="1.69934">
        <ele>42.6</ele>
        <time>2014-11-23T10:22:50Z</time>
      </trkpt>
      <trkpt lat="50.47397" lon="1.69937">
        <ele>41.8</ele>
        <time>2014-11-23T10:22:53Z</time>
      </trkpt>
      <trkpt lat="50.47397" lon="1.69937">
        <ele>41.4</ele>
        <time>2014-11-23T10:22:55Z</time>
      </trkpt>
      <trkpt lat="50.47396" lon="1.69937">
        <ele>41</ele>
        <time>2014-11-23T10:23:05Z</time>
      </trkpt>
      <trkpt lat="50.47396" lon="1.69937">
        <ele>41.2</ele>
        <time>2014-11-23T10:23:23Z</time>
      </trkpt>
      <trkpt lat="50.47396" lon="1.69937">
        <ele>41.4</ele>
        <time>2014-11-23T10:23:37Z</time>
      </trkpt>
      <trkpt lat="50.47396" lon="1.69937">
        <ele>41.4</ele>
        <time>2014-11-23T10:23:52Z</time>
      </trkpt>
      <trkpt lat="50.47396" lon="1.69937">
        <ele>41.6</ele>
        <time>2014-11-23T10:24:15Z</time>
      </trkpt>
      <trkpt lat="50.47396" lon="1.69938">
        <ele>41.6</ele>
        <time>2014-11-23T10:24:39Z</time>
      </trkpt>
      <trkpt lat="50.47396" lon="1.69938">
        <ele>41.8</ele>
        <time>2014-11-23T10:24:54Z</time>
      </trkpt>
      <trkpt lat="50.47396" lon="1.69939">
        <ele>41.8</ele>
        <time>2014-11-23T10:25:12Z</time>
      </trkpt>
      <trkpt lat="50.47396" lon="1.69938">
        <ele>41.6</ele>
        <time>2014-11-23T10:25:34Z</time>
      </trkpt>
      <trkpt lat="50.47396" lon="1.69938">
        <ele>41.4</ele>
        <time>2014-11-23T10:26:05Z</time>
      </trkpt>
      <trkpt lat="50.47396" lon="1.69938">
        <ele>41.6</ele>
        <time>2014-11-23T10:26:34Z</time>
      </trkpt>
      <trkpt lat="50.47396" lon="1.69938">
        <ele>41.6</ele>
        <time>2014-11-23T10:26:53Z</time>
      </trkpt>
      <trkpt lat="50.47396" lon="1.69939">
        <ele>41.2</ele>
        <time>2014-11-23T10:27:25Z</time>
      </trkpt>
      <trkpt lat="50.47395" lon="1.69939">
        <ele>41.8</ele>
        <time>2014-11-23T10:27:43Z</time>
      </trkpt>
      <trkpt lat="50.47393" lon="1.69936">
        <ele>42.6</ele>
        <time>2014-11-23T10:27:48Z</time>
      </trkpt>
      <trkpt lat="50.47392" lon="1.69935">
        <ele>42.6</ele>
        <time>2014-11-23T10:27:49Z</time>
      </trkpt>
      <trkpt lat="50.4739" lon="1.69933">
        <ele>42.2</ele>
        <time>2014-11-23T10:27:57Z</time>
      </trkpt>
      <trkpt lat="50.47389" lon="1.69929">
        <ele>42.2</ele>
        <time>2014-11-23T10:28:09Z</time>
      </trkpt>
      <trkpt lat="50.47389" lon="1.6993">
        <ele>42.4</ele>
        <time>2014-11-23T10:28:19Z</time>
      </trkpt>
      <trkpt lat="50.47389" lon="1.6993">
        <ele>42.2</ele>
        <time>2014-11-23T10:28:32Z</time>
      </trkpt>
      <trkpt lat="50.47388" lon="1.69929">
        <ele>42.6</ele>
        <time>2014-11-23T10:28:43Z</time>
      </trkpt>
      <trkpt lat="50.47388" lon="1.69929">
        <ele>42.4</ele>
        <time>2014-11-23T10:28:54Z</time>
      </trkpt>
      <trkpt lat="50.47383" lon="1.69925">
        <ele>42.6</ele>
        <time>2014-11-23T10:29:01Z</time>
      </trkpt>
      <trkpt lat="50.47368" lon="1.69919">
        <ele>43</ele>
        <time>2014-11-23T10:29:08Z</time>
      </trkpt>
      <trkpt lat="50.47356" lon="1.69917">
        <ele>43.6</ele>
        <time>2014-11-23T10:29:13Z</time>
      </trkpt>
      <trkpt lat="50.47349" lon="1.69916">
        <ele>43.8</ele>
        <time>2014-11-23T10:29:15Z</time>
      </trkpt>
      <trkpt lat="50.47321" lon="1.69911">
        <ele>43.6</ele>
        <time>2014-11-23T10:29:24Z</time>
      </trkpt>
      <trkpt lat="50.47292" lon="1.69906">
        <ele>43.8</ele>
        <time>2014-11-23T10:29:32Z</time>
      </trkpt>
      <trkpt lat="50.47272" lon="1.69905">
        <ele>44.8</ele>
        <time>2014-11-23T10:29:37Z</time>
      </trkpt>
      <trkpt lat="50.47268" lon="1.69907">
        <ele>45</ele>
        <time>2014-11-23T10:29:38Z</time>
      </trkpt>
      <trkpt lat="50.4726" lon="1.6991">
        <ele>45.4</ele>
        <time>2014-11-23T10:29:40Z</time>
      </trkpt>
      <trkpt lat="50.47227" lon="1.69922">
        <ele>45.4</ele>
        <time>2014-11-23T10:29:48Z</time>
      </trkpt>
      <trkpt lat="50.47202" lon="1.69935">
        <ele>45.8</ele>
        <time>2014-11-23T10:29:54Z</time>
      </trkpt>
      <trkpt lat="50.47161" lon="1.69958">
        <ele>46</ele>
        <time>2014-11-23T10:30:04Z</time>
      </trkpt>
      <trkpt lat="50.47136" lon="1.69971">
        <ele>46.8</ele>
        <time>2014-11-23T10:30:10Z</time>
      </trkpt>
      <trkpt lat="50.47124" lon="1.69977">
        <ele>46.8</ele>
        <time>2014-11-23T10:30:13Z</time>
      </trkpt>
      <trkpt lat="50.4712" lon="1.6998">
        <ele>46.8</ele>
        <time>2014-11-23T10:30:14Z</time>
      </trkpt>
      <trkpt lat="50.47095" lon="1.69995">
        <ele>47</ele>
        <time>2014-11-23T10:30:20Z</time>
      </trkpt>
      <trkpt lat="50.4709" lon="1.69996">
        <ele>47.2</ele>
        <time>2014-11-23T10:30:21Z</time>
      </trkpt>
      <trkpt lat="50.4707" lon="1.70007">
        <ele>47.4</ele>
        <time>2014-11-23T10:30:26Z</time>
      </trkpt>
      <trkpt lat="50.47049" lon="1.70018">
        <ele>47.4</ele>
        <time>2014-11-23T10:30:31Z</time>
      </trkpt>
      <trkpt lat="50.47041" lon="1.70024">
        <ele>47.6</ele>
        <time>2014-11-23T10:30:33Z</time>
      </trkpt>
      <trkpt lat="50.47033" lon="1.70028">
        <ele>47.6</ele>
        <time>2014-11-23T10:30:35Z</time>
      </trkpt>
      <trkpt lat="50.47024" lon="1.70033">
        <ele>47.8</ele>
        <time>2014-11-23T10:30:37Z</time>
      </trkpt>
      <trkpt lat="50.47011" lon="1.70041">
        <ele>47.8</ele>
        <time>2014-11-23T10:30:40Z</time>
      </trkpt>
      <trkpt lat="50.4698" lon="1.70058">
        <ele>47.4</ele>
        <time>2014-11-23T10:30:47Z</time>
      </trkpt>
      <trkpt lat="50.46935" lon="1.70084">
        <ele>47.2</ele>
        <time>2014-11-23T10:30:57Z</time>
      </trkpt>
      <trkpt lat="50.46908" lon="1.7011">
        <ele>46.8</ele>
        <time>2014-11-23T10:31:03Z</time>
      </trkpt>
      <trkpt lat="50.46903" lon="1.70114">
        <ele>46.6</ele>
        <time>2014-11-23T10:31:04Z</time>
      </trkpt>
      <trkpt lat="50.4687" lon="1.70149">
        <ele>45.6</ele>
        <time>2014-11-23T10:31:10Z</time>
      </trkpt>
      <trkpt lat="50.46864" lon="1.70155">
        <ele>45.2</ele>
        <time>2014-11-23T10:31:11Z</time>
      </trkpt>
      <trkpt lat="50.46847" lon="1.70174">
        <ele>45</ele>
        <time>2014-11-23T10:31:14Z</time>
      </trkpt>
      <trkpt lat="50.46833" lon="1.70196">
        <ele>44.8</ele>
        <time>2014-11-23T10:31:17Z</time>
      </trkpt>
      <trkpt lat="50.46803" lon="1.70241">
        <ele>44.6</ele>
        <time>2014-11-23T10:31:24Z</time>
      </trkpt>
      <trkpt lat="50.46798" lon="1.70248">
        <ele>44.2</ele>
        <time>2014-11-23T10:31:25Z</time>
      </trkpt>
      <trkpt lat="50.46771" lon="1.70286">
        <ele>44.6</ele>
        <time>2014-11-23T10:31:31Z</time>
      </trkpt>
      <trkpt lat="50.46761" lon="1.70296">
        <ele>44.2</ele>
        <time>2014-11-23T10:31:33Z</time>
      </trkpt>
      <trkpt lat="50.4675" lon="1.70301">
        <ele>45</ele>
        <time>2014-11-23T10:31:35Z</time>
      </trkpt>
      <trkpt lat="50.46727" lon="1.70302">
        <ele>44.8</ele>
        <time>2014-11-23T10:31:39Z</time>
      </trkpt>
      <trkpt lat="50.46702" lon="1.70304">
        <ele>45</ele>
        <time>2014-11-23T10:31:44Z</time>
      </trkpt>
      <trkpt lat="50.46697" lon="1.70303">
        <ele>45.4</ele>
        <time>2014-11-23T10:31:45Z</time>
      </trkpt>
      <trkpt lat="50.46672" lon="1.70302">
        <ele>45.2</ele>
        <time>2014-11-23T10:31:50Z</time>
      </trkpt>
      <trkpt lat="50.46668" lon="1.70303">
        <ele>45.4</ele>
        <time>2014-11-23T10:31:51Z</time>
      </trkpt>
      <trkpt lat="50.46648" lon="1.70295">
        <ele>45</ele>
        <time>2014-11-23T10:31:55Z</time>
      </trkpt>
      <trkpt lat="50.46612" lon="1.70276">
        <ele>45.6</ele>
        <time>2014-11-23T10:32:03Z</time>
      </trkpt>
      <trkpt lat="50.4659" lon="1.70264">
        <ele>46.4</ele>
        <time>2014-11-23T10:32:08Z</time>
      </trkpt>
      <trkpt lat="50.46586" lon="1.70262">
        <ele>46.6</ele>
        <time>2014-11-23T10:32:09Z</time>
      </trkpt>
      <trkpt lat="50.46548" lon="1.7024">
        <ele>46.8</ele>
        <time>2014-11-23T10:32:18Z</time>
      </trkpt>
      <trkpt lat="50.46528" lon="1.7023">
        <ele>47.6</ele>
        <time>2014-11-23T10:32:22Z</time>
      </trkpt>
      <trkpt lat="50.46523" lon="1.70229">
        <ele>47.6</ele>
        <time>2014-11-23T10:32:23Z</time>
      </trkpt>
      <trkpt lat="50.46518" lon="1.70227">
        <ele>47.6</ele>
        <time>2014-11-23T10:32:24Z</time>
      </trkpt>
      <trkpt lat="50.46488" lon="1.70215">
        <ele>48.6</ele>
        <time>2014-11-23T10:32:30Z</time>
      </trkpt>
      <trkpt lat="50.46465" lon="1.70205">
        <ele>48</ele>
        <time>2014-11-23T10:32:35Z</time>
      </trkpt>
      <trkpt lat="50.46458" lon="1.70201">
        <ele>47.6</ele>
        <time>2014-11-23T10:32:37Z</time>
      </trkpt>
      <trkpt lat="50.46429" lon="1.70187">
        <ele>48.2</ele>
        <time>2014-11-23T10:32:44Z</time>
      </trkpt>
      <trkpt lat="50.46402" lon="1.70171">
        <ele>49.6</ele>
        <time>2014-11-23T10:32:51Z</time>
      </trkpt>
      <trkpt lat="50.46378" lon="1.70158">
        <ele>49.6</ele>
        <time>2014-11-23T10:32:57Z</time>
      </trkpt>
      <trkpt lat="50.46369" lon="1.70154">
        <ele>50</ele>
        <time>2014-11-23T10:32:59Z</time>
      </trkpt>
      <trkpt lat="50.46351" lon="1.70142">
        <ele>50.2</ele>
        <time>2014-11-23T10:33:03Z</time>
      </trkpt>
      <trkpt lat="50.46342" lon="1.70135">
        <ele>50.2</ele>
        <time>2014-11-23T10:33:05Z</time>
      </trkpt>
      <trkpt lat="50.46334" lon="1.70126">
        <ele>50</ele>
        <time>2014-11-23T10:33:07Z</time>
      </trkpt>
      <trkpt lat="50.4632" lon="1.70114">
        <ele>49.8</ele>
        <time>2014-11-23T10:33:10Z</time>
      </trkpt>
      <trkpt lat="50.46311" lon="1.70104">
        <ele>49.4</ele>
        <time>2014-11-23T10:33:12Z</time>
      </trkpt>
      <trkpt lat="50.46283" lon="1.70073">
        <ele>49.4</ele>
        <time>2014-11-23T10:33:18Z</time>
      </trkpt>
      <trkpt lat="50.46255" lon="1.70043">
        <ele>49</ele>
        <time>2014-11-23T10:33:24Z</time>
      </trkpt>
      <trkpt lat="50.46231" lon="1.70017">
        <ele>48.8</ele>
        <time>2014-11-23T10:33:29Z</time>
      </trkpt>
      <trkpt lat="50.46204" lon="1.69987">
        <ele>48.4</ele>
        <time>2014-11-23T10:33:35Z</time>
      </trkpt>
      <trkpt lat="50.46185" lon="1.69967">
        <ele>48.2</ele>
        <time>2014-11-23T10:33:39Z</time>
      </trkpt>
      <trkpt lat="50.4615" lon="1.69931">
        <ele>47.6</ele>
        <time>2014-11-23T10:33:46Z</time>
      </trkpt>
      <trkpt lat="50.46144" lon="1.69925">
        <ele>47.2</ele>
        <time>2014-11-23T10:33:47Z</time>
      </trkpt>
      <trkpt lat="50.46128" lon="1.69909">
        <ele>45.8</ele>
        <time>2014-11-23T10:33:50Z</time>
      </trkpt>
      <trkpt lat="50.4612" lon="1.69903">
        <ele>46.2</ele>
        <time>2014-11-23T10:33:51Z</time>
      </trkpt>
      <trkpt lat="50.46092" lon="1.69883">
        <ele>44.8</ele>
        <time>2014-11-23T10:33:55Z</time>
      </trkpt>
      <trkpt lat="50.46084" lon="1.69878">
        <ele>44.4</ele>
        <time>2014-11-23T10:33:56Z</time>
      </trkpt>
      <trkpt lat="50.46077" lon="1.69877">
        <ele>44</ele>
        <time>2014-11-23T10:33:57Z</time>
      </trkpt>
      <trkpt lat="50.46069" lon="1.69874">
        <ele>43.2</ele>
        <time>2014-11-23T10:33:58Z</time>
      </trkpt>
      <trkpt lat="50.46053" lon="1.69868">
        <ele>42.4</ele>
        <time>2014-11-23T10:34:00Z</time>
      </trkpt>
      <trkpt lat="50.46044" lon="1.69865">
        <ele>41.8</ele>
        <time>2014-11-23T10:34:01Z</time>
      </trkpt>
      <trkpt lat="50.46035" lon="1.69862">
        <ele>40.8</ele>
        <time>2014-11-23T10:34:02Z</time>
      </trkpt>
      <trkpt lat="50.46019" lon="1.69854">
        <ele>39.6</ele>
        <time>2014-11-23T10:34:04Z</time>
      </trkpt>
      <trkpt lat="50.4601" lon="1.69848">
        <ele>39.2</ele>
        <time>2014-11-23T10:34:05Z</time>
      </trkpt>
      <trkpt lat="50.45986" lon="1.69828">
        <ele>38</ele>
        <time>2014-11-23T10:34:08Z</time>
      </trkpt>
      <trkpt lat="50.45972" lon="1.69814">
        <ele>37.6</ele>
        <time>2014-11-23T10:34:10Z</time>
      </trkpt>
      <trkpt lat="50.45944" lon="1.69784">
        <ele>36.8</ele>
        <time>2014-11-23T10:34:14Z</time>
      </trkpt>
      <trkpt lat="50.45931" lon="1.6977">
        <ele>36.2</ele>
        <time>2014-11-23T10:34:16Z</time>
      </trkpt>
      <trkpt lat="50.45896" lon="1.69742">
        <ele>36</ele>
        <time>2014-11-23T10:34:21Z</time>
      </trkpt>
      <trkpt lat="50.45882" lon="1.69736">
        <ele>35.6</ele>
        <time>2014-11-23T10:34:23Z</time>
      </trkpt>
      <trkpt lat="50.45868" lon="1.6973">
        <ele>34.6</ele>
        <time>2014-11-23T10:34:25Z</time>
      </trkpt>
      <trkpt lat="50.45861" lon="1.69728">
        <ele>34.2</ele>
        <time>2014-11-23T10:34:26Z</time>
      </trkpt>
      <trkpt lat="50.45853" lon="1.69727">
        <ele>34</ele>
        <time>2014-11-23T10:34:27Z</time>
      </trkpt>
      <trkpt lat="50.45839" lon="1.69724">
        <ele>33.2</ele>
        <time>2014-11-23T10:34:29Z</time>
      </trkpt>
      <trkpt lat="50.45832" lon="1.69722">
        <ele>33.2</ele>
        <time>2014-11-23T10:34:30Z</time>
      </trkpt>
      <trkpt lat="50.45786" lon="1.69714">
        <ele>32</ele>
        <time>2014-11-23T10:34:36Z</time>
      </trkpt>
      <trkpt lat="50.45779" lon="1.69712">
        <ele>32.4</ele>
        <time>2014-11-23T10:34:37Z</time>
      </trkpt>
      <trkpt lat="50.45732" lon="1.69704">
        <ele>31.2</ele>
        <time>2014-11-23T10:34:44Z</time>
      </trkpt>
      <trkpt lat="50.45728" lon="1.69701">
        <ele>31.8</ele>
        <time>2014-11-23T10:34:45Z</time>
      </trkpt>
      <trkpt lat="50.45725" lon="1.69689">
        <ele>32.2</ele>
        <time>2014-11-23T10:34:47Z</time>
      </trkpt>
      <trkpt lat="50.45726" lon="1.69673">
        <ele>32.2</ele>
        <time>2014-11-23T10:34:49Z</time>
      </trkpt>
      <trkpt lat="50.45726" lon="1.69656">
        <ele>31.8</ele>
        <time>2014-11-23T10:34:51Z</time>
      </trkpt>
      <trkpt lat="50.45728" lon="1.69581">
        <ele>31.8</ele>
        <time>2014-11-23T10:34:59Z</time>
      </trkpt>
      <trkpt lat="50.45728" lon="1.69521">
        <ele>31.8</ele>
        <time>2014-11-23T10:35:05Z</time>
      </trkpt>
      <trkpt lat="50.45725" lon="1.69473">
        <ele>31.8</ele>
        <time>2014-11-23T10:35:10Z</time>
      </trkpt>
      <trkpt lat="50.45717" lon="1.69407">
        <ele>32</ele>
        <time>2014-11-23T10:35:17Z</time>
      </trkpt>
      <trkpt lat="50.45705" lon="1.69358">
        <ele>31.8</ele>
        <time>2014-11-23T10:35:23Z</time>
      </trkpt>
      <trkpt lat="50.45704" lon="1.69349">
        <ele>31.8</ele>
        <time>2014-11-23T10:35:24Z</time>
      </trkpt>
      <trkpt lat="50.45699" lon="1.69312">
        <ele>31.6</ele>
        <time>2014-11-23T10:35:28Z</time>
      </trkpt>
      <trkpt lat="50.45686" lon="1.69246">
        <ele>31.6</ele>
        <time>2014-11-23T10:35:35Z</time>
      </trkpt>
      <trkpt lat="50.45674" lon="1.6919">
        <ele>31.8</ele>
        <time>2014-11-23T10:35:41Z</time>
      </trkpt>
      <trkpt lat="50.4567" lon="1.69183">
        <ele>32</ele>
        <time>2014-11-23T10:35:42Z</time>
      </trkpt>
      <trkpt lat="50.45652" lon="1.69168">
        <ele>32.2</ele>
        <time>2014-11-23T10:35:45Z</time>
      </trkpt>
      <trkpt lat="50.45645" lon="1.69164">
        <ele>31.6</ele>
        <time>2014-11-23T10:35:46Z</time>
      </trkpt>
      <trkpt lat="50.45611" lon="1.69138">
        <ele>30.8</ele>
        <time>2014-11-23T10:35:51Z</time>
      </trkpt>
      <trkpt lat="50.45605" lon="1.69134">
        <ele>30.8</ele>
        <time>2014-11-23T10:35:52Z</time>
      </trkpt>
      <trkpt lat="50.45555" lon="1.69094">
        <ele>30.6</ele>
        <time>2014-11-23T10:36:00Z</time>
      </trkpt>
      <trkpt lat="50.45548" lon="1.69088">
        <ele>30.4</ele>
        <time>2014-11-23T10:36:01Z</time>
      </trkpt>
      <trkpt lat="50.45499" lon="1.69052">
        <ele>30.2</ele>
        <time>2014-11-23T10:36:09Z</time>
      </trkpt>
      <trkpt lat="50.45493" lon="1.69048">
        <ele>30.2</ele>
        <time>2014-11-23T10:36:10Z</time>
      </trkpt>
      <trkpt lat="50.45439" lon="1.69007">
        <ele>30</ele>
        <time>2014-11-23T10:36:19Z</time>
      </trkpt>
      <trkpt lat="50.45428" lon="1.68999">
        <ele>29.6</ele>
        <time>2014-11-23T10:36:21Z</time>
      </trkpt>
      <trkpt lat="50.45383" lon="1.68966">
        <ele>30</ele>
        <time>2014-11-23T10:36:29Z</time>
      </trkpt>
      <trkpt lat="50.45356" lon="1.68946">
        <ele>30.8</ele>
        <time>2014-11-23T10:36:34Z</time>
      </trkpt>
      <trkpt lat="50.45335" lon="1.6893">
        <ele>32</ele>
        <time>2014-11-23T10:36:38Z</time>
      </trkpt>
      <trkpt lat="50.45319" lon="1.68919">
        <ele>32.2</ele>
        <time>2014-11-23T10:36:41Z</time>
      </trkpt>
      <trkpt lat="50.4527" lon="1.68883">
        <ele>32</ele>
        <time>2014-11-23T10:36:50Z</time>
      </trkpt>
      <trkpt lat="50.45265" lon="1.68879">
        <ele>31.8</ele>
        <time>2014-11-23T10:36:51Z</time>
      </trkpt>
      <trkpt lat="50.45224" lon="1.68847">
        <ele>30.8</ele>
        <time>2014-11-23T10:36:58Z</time>
      </trkpt>
      <trkpt lat="50.4521" lon="1.68838">
        <ele>30.6</ele>
        <time>2014-11-23T10:37:00Z</time>
      </trkpt>
      <trkpt lat="50.45197" lon="1.68828">
        <ele>29.8</ele>
        <time>2014-11-23T10:37:02Z</time>
      </trkpt>
      <trkpt lat="50.45178" lon="1.68809">
        <ele>28</ele>
        <time>2014-11-23T10:37:05Z</time>
      </trkpt>
      <trkpt lat="50.45175" lon="1.68798">
        <ele>27.2</ele>
        <time>2014-11-23T10:37:06Z</time>
      </trkpt>
      <trkpt lat="50.45175" lon="1.68785">
        <ele>26.8</ele>
        <time>2014-11-23T10:37:07Z</time>
      </trkpt>
      <trkpt lat="50.45177" lon="1.68774">
        <ele>26.4</ele>
        <time>2014-11-23T10:37:08Z</time>
      </trkpt>
      <trkpt lat="50.45181" lon="1.68752">
        <ele>26</ele>
        <time>2014-11-23T10:37:10Z</time>
      </trkpt>
      <trkpt lat="50.45187" lon="1.68718">
        <ele>26.6</ele>
        <time>2014-11-23T10:37:13Z</time>
      </trkpt>
      <trkpt lat="50.45199" lon="1.68633">
        <ele>27.2</ele>
        <time>2014-11-23T10:37:21Z</time>
      </trkpt>
      <trkpt lat="50.4521" lon="1.68554">
        <ele>27.4</ele>
        <time>2014-11-23T10:37:29Z</time>
      </trkpt>
      <trkpt lat="50.45216" lon="1.68508">
        <ele>28</ele>
        <time>2014-11-23T10:37:34Z</time>
      </trkpt>
      <trkpt lat="50.45219" lon="1.6848">
        <ele>28.8</ele>
        <time>2014-11-23T10:37:37Z</time>
      </trkpt>
      <trkpt lat="50.45219" lon="1.68462">
        <ele>27.4</ele>
        <time>2014-11-23T10:37:39Z</time>
      </trkpt>
      <trkpt lat="50.45221" lon="1.6839">
        <ele>27.8</ele>
        <time>2014-11-23T10:37:47Z</time>
      </trkpt>
      <trkpt lat="50.45224" lon="1.68338">
        <ele>29</ele>
        <time>2014-11-23T10:37:53Z</time>
      </trkpt>
      <trkpt lat="50.45225" lon="1.68321">
        <ele>29.2</ele>
        <time>2014-11-23T10:37:55Z</time>
      </trkpt>
      <trkpt lat="50.45232" lon="1.6826">
        <ele>28.6</ele>
        <time>2014-11-23T10:38:02Z</time>
      </trkpt>
      <trkpt lat="50.45234" lon="1.68252">
        <ele>28.6</ele>
        <time>2014-11-23T10:38:03Z</time>
      </trkpt>
      <trkpt lat="50.45245" lon="1.68194">
        <ele>29.4</ele>
        <time>2014-11-23T10:38:10Z</time>
      </trkpt>
      <trkpt lat="50.45261" lon="1.68129">
        <ele>29.4</ele>
        <time>2014-11-23T10:38:18Z</time>
      </trkpt>
      <trkpt lat="50.45273" lon="1.68079">
        <ele>30</ele>
        <time>2014-11-23T10:38:24Z</time>
      </trkpt>
      <trkpt lat="50.45274" lon="1.6807">
        <ele>30.2</ele>
        <time>2014-11-23T10:38:25Z</time>
      </trkpt>
      <trkpt lat="50.4528" lon="1.68038">
        <ele>29.2</ele>
        <time>2014-11-23T10:38:29Z</time>
      </trkpt>
      <trkpt lat="50.45285" lon="1.68012">
        <ele>29.4</ele>
        <time>2014-11-23T10:38:32Z</time>
      </trkpt>
      <trkpt lat="50.45298" lon="1.67946">
        <ele>29.2</ele>
        <time>2014-11-23T10:38:39Z</time>
      </trkpt>
      <trkpt lat="50.45314" lon="1.67863">
        <ele>28.4</ele>
        <time>2014-11-23T10:38:47Z</time>
      </trkpt>
      <trkpt lat="50.45315" lon="1.67852">
        <ele>28.4</ele>
        <time>2014-11-23T10:38:48Z</time>
      </trkpt>
      <trkpt lat="50.45329" lon="1.67766">
        <ele>27.6</ele>
        <time>2014-11-23T10:38:56Z</time>
      </trkpt>
      <trkpt lat="50.45331" lon="1.67756">
        <ele>27.4</ele>
        <time>2014-11-23T10:38:57Z</time>
      </trkpt>
      <trkpt lat="50.45337" lon="1.67725">
        <ele>27.2</ele>
        <time>2014-11-23T10:39:00Z</time>
      </trkpt>
      <trkpt lat="50.45354" lon="1.67654">
        <ele>26.4</ele>
        <time>2014-11-23T10:39:07Z</time>
      </trkpt>
      <trkpt lat="50.45357" lon="1.67643">
        <ele>26</ele>
        <time>2014-11-23T10:39:08Z</time>
      </trkpt>
      <trkpt lat="50.45373" lon="1.67576">
        <ele>24.8</ele>
        <time>2014-11-23T10:39:14Z</time>
      </trkpt>
      <trkpt lat="50.45381" lon="1.67543">
        <ele>24.2</ele>
        <time>2014-11-23T10:39:17Z</time>
      </trkpt>
      <trkpt lat="50.45386" lon="1.6752">
        <ele>23.8</ele>
        <time>2014-11-23T10:39:19Z</time>
      </trkpt>
      <trkpt lat="50.45404" lon="1.67433">
        <ele>23.6</ele>
        <time>2014-11-23T10:39:27Z</time>
      </trkpt>
      <trkpt lat="50.45415" lon="1.6738">
        <ele>22.2</ele>
        <time>2014-11-23T10:39:32Z</time>
      </trkpt>
      <trkpt lat="50.45423" lon="1.67339">
        <ele>22.2</ele>
        <time>2014-11-23T10:39:36Z</time>
      </trkpt>
      <trkpt lat="50.4544" lon="1.67269">
        <ele>21.2</ele>
        <time>2014-11-23T10:39:43Z</time>
      </trkpt>
      <trkpt lat="50.45442" lon="1.67259">
        <ele>20.8</ele>
        <time>2014-11-23T10:39:44Z</time>
      </trkpt>
      <trkpt lat="50.45457" lon="1.672">
        <ele>20</ele>
        <time>2014-11-23T10:39:50Z</time>
      </trkpt>
      <trkpt lat="50.45464" lon="1.67182">
        <ele>19.6</ele>
        <time>2014-11-23T10:39:52Z</time>
      </trkpt>
      <trkpt lat="50.45481" lon="1.6714">
        <ele>19.8</ele>
        <time>2014-11-23T10:39:57Z</time>
      </trkpt>
      <trkpt lat="50.45499" lon="1.6711">
        <ele>19</ele>
        <time>2014-11-23T10:40:01Z</time>
      </trkpt>
      <trkpt lat="50.45504" lon="1.67103">
        <ele>18.6</ele>
        <time>2014-11-23T10:40:02Z</time>
      </trkpt>
      <trkpt lat="50.45516" lon="1.67093">
        <ele>18.6</ele>
        <time>2014-11-23T10:40:04Z</time>
      </trkpt>
      <trkpt lat="50.45528" lon="1.67085">
        <ele>18.6</ele>
        <time>2014-11-23T10:40:06Z</time>
      </trkpt>
      <trkpt lat="50.45534" lon="1.67083">
        <ele>18.4</ele>
        <time>2014-11-23T10:40:07Z</time>
      </trkpt>
      <trkpt lat="50.45546" lon="1.6708">
        <ele>18.2</ele>
        <time>2014-11-23T10:40:09Z</time>
      </trkpt>
      <trkpt lat="50.45551" lon="1.67081">
        <ele>18.2</ele>
        <time>2014-11-23T10:40:10Z</time>
      </trkpt>
      <trkpt lat="50.45576" lon="1.67084">
        <ele>18.2</ele>
        <time>2014-11-23T10:40:15Z</time>
      </trkpt>
      <trkpt lat="50.4558" lon="1.67086">
        <ele>18.2</ele>
        <time>2014-11-23T10:40:16Z</time>
      </trkpt>
      <trkpt lat="50.45589" lon="1.67089">
        <ele>18.4</ele>
        <time>2014-11-23T10:40:18Z</time>
      </trkpt>
      <trkpt lat="50.45597" lon="1.67095">
        <ele>18.6</ele>
        <time>2014-11-23T10:40:20Z</time>
      </trkpt>
      <trkpt lat="50.45613" lon="1.67108">
        <ele>19.6</ele>
        <time>2014-11-23T10:40:25Z</time>
      </trkpt>
      <trkpt lat="50.4562" lon="1.67113">
        <ele>20.2</ele>
        <time>2014-11-23T10:40:27Z</time>
      </trkpt>
      <trkpt lat="50.45627" lon="1.67116">
        <ele>21</ele>
        <time>2014-11-23T10:40:29Z</time>
      </trkpt>
      <trkpt lat="50.4564" lon="1.67122">
        <ele>22</ele>
        <time>2014-11-23T10:40:33Z</time>
      </trkpt>
      <trkpt lat="50.45655" lon="1.67126">
        <ele>23</ele>
        <time>2014-11-23T10:40:38Z</time>
      </trkpt>
      <trkpt lat="50.45661" lon="1.67129">
        <ele>23.4</ele>
        <time>2014-11-23T10:40:40Z</time>
      </trkpt>
      <trkpt lat="50.45673" lon="1.67135">
        <ele>24.2</ele>
        <time>2014-11-23T10:40:44Z</time>
      </trkpt>
      <trkpt lat="50.45683" lon="1.6714">
        <ele>24.4</ele>
        <time>2014-11-23T10:40:47Z</time>
      </trkpt>
      <trkpt lat="50.45699" lon="1.67148">
        <ele>25.4</ele>
        <time>2014-11-23T10:40:52Z</time>
      </trkpt>
      <trkpt lat="50.45714" lon="1.67151">
        <ele>26.6</ele>
        <time>2014-11-23T10:40:57Z</time>
      </trkpt>
      <trkpt lat="50.45731" lon="1.67151">
        <ele>27.8</ele>
        <time>2014-11-23T10:41:03Z</time>
      </trkpt>
      <trkpt lat="50.45739" lon="1.67153">
        <ele>28.2</ele>
        <time>2014-11-23T10:41:06Z</time>
      </trkpt>
      <trkpt lat="50.45743" lon="1.67155">
        <ele>28.8</ele>
        <time>2014-11-23T10:41:08Z</time>
      </trkpt>
      <trkpt lat="50.45751" lon="1.67159">
        <ele>29.4</ele>
        <time>2014-11-23T10:41:12Z</time>
      </trkpt>
      <trkpt lat="50.45756" lon="1.67161">
        <ele>29.8</ele>
        <time>2014-11-23T10:41:14Z</time>
      </trkpt>
      <trkpt lat="50.45763" lon="1.67164">
        <ele>31</ele>
        <time>2014-11-23T10:41:18Z</time>
      </trkpt>
      <trkpt lat="50.45769" lon="1.67167">
        <ele>31.8</ele>
        <time>2014-11-23T10:41:21Z</time>
      </trkpt>
      <trkpt lat="50.45773" lon="1.6717">
        <ele>32.2</ele>
        <time>2014-11-23T10:41:23Z</time>
      </trkpt>
      <trkpt lat="50.45779" lon="1.67172">
        <ele>33.2</ele>
        <time>2014-11-23T10:41:26Z</time>
      </trkpt>
      <trkpt lat="50.45786" lon="1.6718">
        <ele>34</ele>
        <time>2014-11-23T10:41:30Z</time>
      </trkpt>
      <trkpt lat="50.45787" lon="1.67182">
        <ele>34.4</ele>
        <time>2014-11-23T10:41:31Z</time>
      </trkpt>
      <trkpt lat="50.4579" lon="1.67193">
        <ele>35.6</ele>
        <time>2014-11-23T10:41:35Z</time>
      </trkpt>
      <trkpt lat="50.4579" lon="1.67199">
        <ele>36</ele>
        <time>2014-11-23T10:41:37Z</time>
      </trkpt>
      <trkpt lat="50.45791" lon="1.67208">
        <ele>36.6</ele>
        <time>2014-11-23T10:41:40Z</time>
      </trkpt>
      <trkpt lat="50.45793" lon="1.67217">
        <ele>38</ele>
        <time>2014-11-23T10:41:44Z</time>
      </trkpt>
      <trkpt lat="50.45794" lon="1.67222">
        <ele>38</ele>
        <time>2014-11-23T10:41:46Z</time>
      </trkpt>
      <trkpt lat="50.45798" lon="1.67231">
        <ele>39.6</ele>
        <time>2014-11-23T10:41:50Z</time>
      </trkpt>
      <trkpt lat="50.45802" lon="1.67239">
        <ele>40.6</ele>
        <time>2014-11-23T10:41:54Z</time>
      </trkpt>
      <trkpt lat="50.45803" lon="1.67241">
        <ele>41</ele>
        <time>2014-11-23T10:41:55Z</time>
      </trkpt>
      <trkpt lat="50.45807" lon="1.67249">
        <ele>42</ele>
        <time>2014-11-23T10:41:59Z</time>
      </trkpt>
      <trkpt lat="50.45811" lon="1.67258">
        <ele>43.2</ele>
        <time>2014-11-23T10:42:03Z</time>
      </trkpt>
      <trkpt lat="50.45815" lon="1.67266">
        <ele>44.2</ele>
        <time>2014-11-23T10:42:07Z</time>
      </trkpt>
      <trkpt lat="50.45817" lon="1.67271">
        <ele>44.4</ele>
        <time>2014-11-23T10:42:09Z</time>
      </trkpt>
      <trkpt lat="50.45821" lon="1.67278">
        <ele>45.4</ele>
        <time>2014-11-23T10:42:13Z</time>
      </trkpt>
      <trkpt lat="50.45823" lon="1.67281">
        <ele>46.4</ele>
        <time>2014-11-23T10:42:15Z</time>
      </trkpt>
      <trkpt lat="50.45828" lon="1.6729">
        <ele>47.2</ele>
        <time>2014-11-23T10:42:20Z</time>
      </trkpt>
      <trkpt lat="50.4583" lon="1.67292">
        <ele>47.4</ele>
        <time>2014-11-23T10:42:21Z</time>
      </trkpt>
      <trkpt lat="50.45836" lon="1.67296">
        <ele>48.6</ele>
        <time>2014-11-23T10:42:25Z</time>
      </trkpt>
      <trkpt lat="50.45838" lon="1.67299">
        <ele>49.2</ele>
        <time>2014-11-23T10:42:27Z</time>
      </trkpt>
      <trkpt lat="50.45842" lon="1.67304">
        <ele>49.8</ele>
        <time>2014-11-23T10:42:30Z</time>
      </trkpt>
      <trkpt lat="50.45849" lon="1.67312">
        <ele>51</ele>
        <time>2014-11-23T10:42:35Z</time>
      </trkpt>
      <trkpt lat="50.4585" lon="1.67315">
        <ele>51.2</ele>
        <time>2014-11-23T10:42:36Z</time>
      </trkpt>
      <trkpt lat="50.45855" lon="1.67333">
        <ele>52</ele>
        <time>2014-11-23T10:42:43Z</time>
      </trkpt>
      <trkpt lat="50.45855" lon="1.67346">
        <ele>53</ele>
        <time>2014-11-23T10:42:47Z</time>
      </trkpt>
      <trkpt lat="50.45856" lon="1.67361">
        <ele>53.6</ele>
        <time>2014-11-23T10:42:51Z</time>
      </trkpt>
      <trkpt lat="50.45856" lon="1.67373">
        <ele>54.2</ele>
        <time>2014-11-23T10:42:54Z</time>
      </trkpt>
      <trkpt lat="50.45856" lon="1.67391">
        <ele>55</ele>
        <time>2014-11-23T10:42:59Z</time>
      </trkpt>
      <trkpt lat="50.45855" lon="1.67404">
        <ele>55.6</ele>
        <time>2014-11-23T10:43:02Z</time>
      </trkpt>
      <trkpt lat="50.45854" lon="1.67416">
        <ele>56</ele>
        <time>2014-11-23T10:43:05Z</time>
      </trkpt>
      <trkpt lat="50.45852" lon="1.67441">
        <ele>56.4</ele>
        <time>2014-11-23T10:43:11Z</time>
      </trkpt>
      <trkpt lat="50.4585" lon="1.67464">
        <ele>56.6</ele>
        <time>2014-11-23T10:43:16Z</time>
      </trkpt>
      <trkpt lat="50.45848" lon="1.67483">
        <ele>56.6</ele>
        <time>2014-11-23T10:43:20Z</time>
      </trkpt>
      <trkpt lat="50.4585" lon="1.67514">
        <ele>57</ele>
        <time>2014-11-23T10:43:27Z</time>
      </trkpt>
      <trkpt lat="50.4586" lon="1.67532">
        <ele>56.8</ele>
        <time>2014-11-23T10:43:33Z</time>
      </trkpt>
      <trkpt lat="50.45872" lon="1.67541">
        <ele>56.6</ele>
        <time>2014-11-23T10:43:37Z</time>
      </trkpt>
      <trkpt lat="50.45883" lon="1.67556">
        <ele>56.6</ele>
        <time>2014-11-23T10:43:42Z</time>
      </trkpt>
      <trkpt lat="50.45898" lon="1.67584">
        <ele>56</ele>
        <time>2014-11-23T10:43:48Z</time>
      </trkpt>
      <trkpt lat="50.4592" lon="1.67621">
        <ele>56</ele>
        <time>2014-11-23T10:43:55Z</time>
      </trkpt>
      <trkpt lat="50.4594" lon="1.67659">
        <ele>56</ele>
        <time>2014-11-23T10:44:02Z</time>
      </trkpt>
      <trkpt lat="50.45945" lon="1.6767">
        <ele>56.2</ele>
        <time>2014-11-23T10:44:04Z</time>
      </trkpt>
      <trkpt lat="50.45957" lon="1.67696">
        <ele>56</ele>
        <time>2014-11-23T10:44:08Z</time>
      </trkpt>
      <trkpt lat="50.45965" lon="1.67714">
        <ele>55.4</ele>
        <time>2014-11-23T10:44:11Z</time>
      </trkpt>
      <trkpt lat="50.4597" lon="1.67721">
        <ele>55.2</ele>
        <time>2014-11-23T10:44:12Z</time>
      </trkpt>
      <trkpt lat="50.45978" lon="1.6773">
        <ele>54.8</ele>
        <time>2014-11-23T10:44:14Z</time>
      </trkpt>
      <trkpt lat="50.46019" lon="1.67761">
        <ele>54.4</ele>
        <time>2014-11-23T10:44:22Z</time>
      </trkpt>
      <trkpt lat="50.46023" lon="1.67764">
        <ele>54.2</ele>
        <time>2014-11-23T10:44:23Z</time>
      </trkpt>
      <trkpt lat="50.46028" lon="1.67769">
        <ele>54.2</ele>
        <time>2014-11-23T10:44:24Z</time>
      </trkpt>
      <trkpt lat="50.46046" lon="1.67785">
        <ele>53.4</ele>
        <time>2014-11-23T10:44:28Z</time>
      </trkpt>
      <trkpt lat="50.46051" lon="1.67789">
        <ele>53.2</ele>
        <time>2014-11-23T10:44:29Z</time>
      </trkpt>
      <trkpt lat="50.4606" lon="1.67795">
        <ele>53.2</ele>
        <time>2014-11-23T10:44:31Z</time>
      </trkpt>
      <trkpt lat="50.46067" lon="1.67807">
        <ele>53</ele>
        <time>2014-11-23T10:44:34Z</time>
      </trkpt>
      <trkpt lat="50.46083" lon="1.67832">
        <ele>52.4</ele>
        <time>2014-11-23T10:44:41Z</time>
      </trkpt>
      <trkpt lat="50.46086" lon="1.67838">
        <ele>52.2</ele>
        <time>2014-11-23T10:44:42Z</time>
      </trkpt>
      <trkpt lat="50.46089" lon="1.67845">
        <ele>52</ele>
        <time>2014-11-23T10:44:43Z</time>
      </trkpt>
      <trkpt lat="50.46098" lon="1.67864">
        <ele>51.6</ele>
        <time>2014-11-23T10:44:46Z</time>
      </trkpt>
      <trkpt lat="50.46101" lon="1.67869">
        <ele>51.6</ele>
        <time>2014-11-23T10:44:48Z</time>
      </trkpt>
      <trkpt lat="50.46103" lon="1.67869">
        <ele>51.2</ele>
        <time>2014-11-23T10:44:49Z</time>
      </trkpt>
      <trkpt lat="50.46105" lon="1.67868">
        <ele>51</ele>
        <time>2014-11-23T10:44:50Z</time>
      </trkpt>
      <trkpt lat="50.46113" lon="1.67865">
        <ele>50.4</ele>
        <time>2014-11-23T10:44:55Z</time>
      </trkpt>
      <trkpt lat="50.46128" lon="1.67857">
        <ele>50.6</ele>
        <time>2014-11-23T10:45:03Z</time>
      </trkpt>
      <trkpt lat="50.46142" lon="1.67849">
        <ele>50.8</ele>
        <time>2014-11-23T10:45:11Z</time>
      </trkpt>
      <trkpt lat="50.46144" lon="1.67849">
        <ele>50.4</ele>
        <time>2014-11-23T10:45:12Z</time>
      </trkpt>
      <trkpt lat="50.46146" lon="1.67849">
        <ele>50.6</ele>
        <time>2014-11-23T10:45:16Z</time>
      </trkpt>
      <trkpt lat="50.46151" lon="1.67845">
        <ele>50.6</ele>
        <time>2014-11-23T10:45:22Z</time>
      </trkpt>
      <trkpt lat="50.46161" lon="1.67836">
        <ele>50.6</ele>
        <time>2014-11-23T10:45:31Z</time>
      </trkpt>
      <trkpt lat="50.46172" lon="1.67832">
        <ele>50.4</ele>
        <time>2014-11-23T10:45:40Z</time>
      </trkpt>
      <trkpt lat="50.46174" lon="1.67833">
        <ele>50</ele>
        <time>2014-11-23T10:45:42Z</time>
      </trkpt>
      <trkpt lat="50.46175" lon="1.67836">
        <ele>50</ele>
        <time>2014-11-23T10:45:46Z</time>
      </trkpt>
      <trkpt lat="50.46176" lon="1.67837">
        <ele>52.8</ele>
        <time>2014-11-23T10:45:48Z</time>
      </trkpt>
      <trkpt lat="50.46177" lon="1.67837">
        <ele>51.4</ele>
        <time>2014-11-23T10:45:50Z</time>
      </trkpt>
      <trkpt lat="50.46182" lon="1.67836">
        <ele>50.4</ele>
        <time>2014-11-23T10:45:53Z</time>
      </trkpt>
      <trkpt lat="50.46186" lon="1.67833">
        <ele>50.2</ele>
        <time>2014-11-23T10:45:55Z</time>
      </trkpt>
      <trkpt lat="50.46195" lon="1.67827">
        <ele>49.4</ele>
        <time>2014-11-23T10:45:59Z</time>
      </trkpt>
      <trkpt lat="50.46207" lon="1.67819">
        <ele>48.6</ele>
        <time>2014-11-23T10:46:03Z</time>
      </trkpt>
      <trkpt lat="50.46211" lon="1.67818">
        <ele>48.2</ele>
        <time>2014-11-23T10:46:04Z</time>
      </trkpt>
      <trkpt lat="50.46218" lon="1.67813">
        <ele>47.8</ele>
        <time>2014-11-23T10:46:06Z</time>
      </trkpt>
      <trkpt lat="50.46229" lon="1.67806">
        <ele>47.6</ele>
        <time>2014-11-23T10:46:09Z</time>
      </trkpt>
      <trkpt lat="50.46234" lon="1.67804">
        <ele>47.6</ele>
        <time>2014-11-23T10:46:10Z</time>
      </trkpt>
      <trkpt lat="50.46251" lon="1.67795">
        <ele>47</ele>
        <time>2014-11-23T10:46:14Z</time>
      </trkpt>
      <trkpt lat="50.4626" lon="1.6779">
        <ele>46.4</ele>
        <time>2014-11-23T10:46:16Z</time>
      </trkpt>
      <trkpt lat="50.46268" lon="1.67783">
        <ele>46.4</ele>
        <time>2014-11-23T10:46:18Z</time>
      </trkpt>
      <trkpt lat="50.46276" lon="1.67775">
        <ele>46.8</ele>
        <time>2014-11-23T10:46:20Z</time>
      </trkpt>
      <trkpt lat="50.4628" lon="1.6777">
        <ele>46.8</ele>
        <time>2014-11-23T10:46:21Z</time>
      </trkpt>
      <trkpt lat="50.46308" lon="1.67739">
        <ele>47</ele>
        <time>2014-11-23T10:46:27Z</time>
      </trkpt>
      <trkpt lat="50.46341" lon="1.67703">
        <ele>46.4</ele>
        <time>2014-11-23T10:46:34Z</time>
      </trkpt>
      <trkpt lat="50.46364" lon="1.67678">
        <ele>45</ele>
        <time>2014-11-23T10:46:39Z</time>
      </trkpt>
      <trkpt lat="50.46369" lon="1.67671">
        <ele>44.6</ele>
        <time>2014-11-23T10:46:40Z</time>
      </trkpt>
      <trkpt lat="50.46377" lon="1.67658">
        <ele>44.6</ele>
        <time>2014-11-23T10:46:42Z</time>
      </trkpt>
      <trkpt lat="50.46393" lon="1.6763">
        <ele>45.2</ele>
        <time>2014-11-23T10:46:46Z</time>
      </trkpt>
      <trkpt lat="50.46401" lon="1.67615">
        <ele>45</ele>
        <time>2014-11-23T10:46:48Z</time>
      </trkpt>
      <trkpt lat="50.46423" lon="1.67573">
        <ele>45</ele>
        <time>2014-11-23T10:46:54Z</time>
      </trkpt>
      <trkpt lat="50.46447" lon="1.67525">
        <ele>44.8</ele>
        <time>2014-11-23T10:47:01Z</time>
      </trkpt>
      <trkpt lat="50.46472" lon="1.67473">
        <ele>44.6</ele>
        <time>2014-11-23T10:47:08Z</time>
      </trkpt>
      <trkpt lat="50.46502" lon="1.67415">
        <ele>44.4</ele>
        <time>2014-11-23T10:47:16Z</time>
      </trkpt>
      <trkpt lat="50.46507" lon="1.67408">
        <ele>43.8</ele>
        <time>2014-11-23T10:47:17Z</time>
      </trkpt>
      <trkpt lat="50.46515" lon="1.67395">
        <ele>43.6</ele>
        <time>2014-11-23T10:47:19Z</time>
      </trkpt>
      <trkpt lat="50.46532" lon="1.67368">
        <ele>43.4</ele>
        <time>2014-11-23T10:47:23Z</time>
      </trkpt>
      <trkpt lat="50.46537" lon="1.6736">
        <ele>42.6</ele>
        <time>2014-11-23T10:47:24Z</time>
      </trkpt>
      <trkpt lat="50.46557" lon="1.67322">
        <ele>41.6</ele>
        <time>2014-11-23T10:47:29Z</time>
      </trkpt>
      <trkpt lat="50.46561" lon="1.67315">
        <ele>41.8</ele>
        <time>2014-11-23T10:47:30Z</time>
      </trkpt>
      <trkpt lat="50.46577" lon="1.67287">
        <ele>41.2</ele>
        <time>2014-11-23T10:47:34Z</time>
      </trkpt>
      <trkpt lat="50.46587" lon="1.67276">
        <ele>41.4</ele>
        <time>2014-11-23T10:47:36Z</time>
      </trkpt>
      <trkpt lat="50.46592" lon="1.6727">
        <ele>41</ele>
        <time>2014-11-23T10:47:37Z</time>
      </trkpt>
      <trkpt lat="50.46612" lon="1.67247">
        <ele>40.2</ele>
        <time>2014-11-23T10:47:41Z</time>
      </trkpt>
      <trkpt lat="50.46617" lon="1.6724">
        <ele>39.8</ele>
        <time>2014-11-23T10:47:42Z</time>
      </trkpt>
      <trkpt lat="50.46622" lon="1.67234">
        <ele>39.6</ele>
        <time>2014-11-23T10:47:43Z</time>
      </trkpt>
      <trkpt lat="50.46627" lon="1.67229">
        <ele>38.6</ele>
        <time>2014-11-23T10:47:44Z</time>
      </trkpt>
      <trkpt lat="50.46638" lon="1.67218">
        <ele>38.2</ele>
        <time>2014-11-23T10:47:46Z</time>
      </trkpt>
      <trkpt lat="50.46643" lon="1.67213">
        <ele>38.8</ele>
        <time>2014-11-23T10:47:47Z</time>
      </trkpt>
      <trkpt lat="50.4667" lon="1.67183">
        <ele>37.4</ele>
        <time>2014-11-23T10:47:52Z</time>
      </trkpt>
      <trkpt lat="50.46708" lon="1.67135">
        <ele>36.4</ele>
        <time>2014-11-23T10:47:59Z</time>
      </trkpt>
      <trkpt lat="50.46751" lon="1.67077">
        <ele>36.2</ele>
        <time>2014-11-23T10:48:07Z</time>
      </trkpt>
      <trkpt lat="50.46756" lon="1.6707">
        <ele>36</ele>
        <time>2014-11-23T10:48:08Z</time>
      </trkpt>
      <trkpt lat="50.46779" lon="1.67035">
        <ele>35.8</ele>
        <time>2014-11-23T10:48:13Z</time>
      </trkpt>
      <trkpt lat="50.46786" lon="1.67018">
        <ele>35</ele>
        <time>2014-11-23T10:48:15Z</time>
      </trkpt>
      <trkpt lat="50.46789" lon="1.67008">
        <ele>34.6</ele>
        <time>2014-11-23T10:48:16Z</time>
      </trkpt>
      <trkpt lat="50.46793" lon="1.66987">
        <ele>33.8</ele>
        <time>2014-11-23T10:48:18Z</time>
      </trkpt>
      <trkpt lat="50.46794" lon="1.66975">
        <ele>33.6</ele>
        <time>2014-11-23T10:48:19Z</time>
      </trkpt>
      <trkpt lat="50.46796" lon="1.66939">
        <ele>32.8</ele>
        <time>2014-11-23T10:48:22Z</time>
      </trkpt>
      <trkpt lat="50.46798" lon="1.66902">
        <ele>31.4</ele>
        <time>2014-11-23T10:48:25Z</time>
      </trkpt>
      <trkpt lat="50.46799" lon="1.66889">
        <ele>30.8</ele>
        <time>2014-11-23T10:48:26Z</time>
      </trkpt>
      <trkpt lat="50.468" lon="1.66862">
        <ele>30.2</ele>
        <time>2014-11-23T10:48:28Z</time>
      </trkpt>
      <trkpt lat="50.46801" lon="1.66821">
        <ele>28.6</ele>
        <time>2014-11-23T10:48:31Z</time>
      </trkpt>
      <trkpt lat="50.46802" lon="1.66795">
        <ele>28.6</ele>
        <time>2014-11-23T10:48:33Z</time>
      </trkpt>
      <trkpt lat="50.46802" lon="1.66708">
        <ele>28.6</ele>
        <time>2014-11-23T10:48:40Z</time>
      </trkpt>
      <trkpt lat="50.46798" lon="1.66633">
        <ele>28.8</ele>
        <time>2014-11-23T10:48:47Z</time>
      </trkpt>
      <trkpt lat="50.46798" lon="1.66623">
        <ele>29</ele>
        <time>2014-11-23T10:48:48Z</time>
      </trkpt>
      <trkpt lat="50.46794" lon="1.66597">
        <ele>29.4</ele>
        <time>2014-11-23T10:48:51Z</time>
      </trkpt>
      <trkpt lat="50.46787" lon="1.66569">
        <ele>30</ele>
        <time>2014-11-23T10:48:55Z</time>
      </trkpt>
      <trkpt lat="50.46784" lon="1.66556">
        <ele>30.8</ele>
        <time>2014-11-23T10:48:57Z</time>
      </trkpt>
      <trkpt lat="50.46784" lon="1.6655">
        <ele>31</ele>
        <time>2014-11-23T10:48:58Z</time>
      </trkpt>
      <trkpt lat="50.46786" lon="1.66538">
        <ele>31.6</ele>
        <time>2014-11-23T10:49:00Z</time>
      </trkpt>
      <trkpt lat="50.46788" lon="1.66533">
        <ele>32</ele>
        <time>2014-11-23T10:49:01Z</time>
      </trkpt>
      <trkpt lat="50.4679" lon="1.66527">
        <ele>32.4</ele>
        <time>2014-11-23T10:49:02Z</time>
      </trkpt>
      <trkpt lat="50.46806" lon="1.66494">
        <ele>33</ele>
        <time>2014-11-23T10:49:08Z</time>
      </trkpt>
      <trkpt lat="50.46812" lon="1.6649">
        <ele>33.2</ele>
        <time>2014-11-23T10:49:10Z</time>
      </trkpt>
      <trkpt lat="50.46816" lon="1.66491">
        <ele>33</ele>
        <time>2014-11-23T10:49:11Z</time>
      </trkpt>
      <trkpt lat="50.46827" lon="1.66501">
        <ele>32.8</ele>
        <time>2014-11-23T10:49:14Z</time>
      </trkpt>
      <trkpt lat="50.46836" lon="1.665">
        <ele>32.8</ele>
        <time>2014-11-23T10:49:16Z</time>
      </trkpt>
      <trkpt lat="50.46846" lon="1.66495">
        <ele>32.6</ele>
        <time>2014-11-23T10:49:18Z</time>
      </trkpt>
      <trkpt lat="50.4686" lon="1.66481">
        <ele>32.8</ele>
        <time>2014-11-23T10:49:21Z</time>
      </trkpt>
      <trkpt lat="50.46866" lon="1.66478">
        <ele>32.6</ele>
        <time>2014-11-23T10:49:22Z</time>
      </trkpt>
      <trkpt lat="50.46886" lon="1.66468">
        <ele>32</ele>
        <time>2014-11-23T10:49:26Z</time>
      </trkpt>
      <trkpt lat="50.46897" lon="1.66461">
        <ele>32</ele>
        <time>2014-11-23T10:49:28Z</time>
      </trkpt>
      <trkpt lat="50.46905" lon="1.66449">
        <ele>31.8</ele>
        <time>2014-11-23T10:49:30Z</time>
      </trkpt>
      <trkpt lat="50.46908" lon="1.6644">
        <ele>31.6</ele>
        <time>2014-11-23T10:49:31Z</time>
      </trkpt>
      <trkpt lat="50.46912" lon="1.66404">
        <ele>31.4</ele>
        <time>2014-11-23T10:49:35Z</time>
      </trkpt>
      <trkpt lat="50.46912" lon="1.66395">
        <ele>31</ele>
        <time>2014-11-23T10:49:36Z</time>
      </trkpt>
      <trkpt lat="50.46913" lon="1.66364">
        <ele>31.2</ele>
        <time>2014-11-23T10:49:40Z</time>
      </trkpt>
      <trkpt lat="50.46918" lon="1.66352">
        <ele>31.2</ele>
        <time>2014-11-23T10:49:42Z</time>
      </trkpt>
      <trkpt lat="50.46936" lon="1.66334">
        <ele>31.2</ele>
        <time>2014-11-23T10:49:46Z</time>
      </trkpt>
      <trkpt lat="50.4694" lon="1.66329">
        <ele>31.6</ele>
        <time>2014-11-23T10:49:47Z</time>
      </trkpt>
      <trkpt lat="50.46949" lon="1.66317">
        <ele>31.2</ele>
        <time>2014-11-23T10:49:49Z</time>
      </trkpt>
      <trkpt lat="50.46961" lon="1.663">
        <ele>30.8</ele>
        <time>2014-11-23T10:49:52Z</time>
      </trkpt>
      <trkpt lat="50.4697" lon="1.66284">
        <ele>31.4</ele>
        <time>2014-11-23T10:49:55Z</time>
      </trkpt>
      <trkpt lat="50.46972" lon="1.6627">
        <ele>31.6</ele>
        <time>2014-11-23T10:49:57Z</time>
      </trkpt>
      <trkpt lat="50.46971" lon="1.66262">
        <ele>31.6</ele>
        <time>2014-11-23T10:49:58Z</time>
      </trkpt>
      <trkpt lat="50.46968" lon="1.66246">
        <ele>32</ele>
        <time>2014-11-23T10:50:00Z</time>
      </trkpt>
      <trkpt lat="50.46967" lon="1.66238">
        <ele>32.2</ele>
        <time>2014-11-23T10:50:01Z</time>
      </trkpt>
      <trkpt lat="50.4696" lon="1.66193">
        <ele>33.4</ele>
        <time>2014-11-23T10:50:07Z</time>
      </trkpt>
      <trkpt lat="50.46959" lon="1.66185">
        <ele>33.8</ele>
        <time>2014-11-23T10:50:08Z</time>
      </trkpt>
      <trkpt lat="50.46953" lon="1.66147">
        <ele>34.6</ele>
        <time>2014-11-23T10:50:13Z</time>
      </trkpt>
      <trkpt lat="50.46947" lon="1.66109">
        <ele>34.8</ele>
        <time>2014-11-23T10:50:18Z</time>
      </trkpt>
      <trkpt lat="50.46934" lon="1.66034">
        <ele>35.2</ele>
        <time>2014-11-23T10:50:28Z</time>
      </trkpt>
      <trkpt lat="50.46932" lon="1.66018">
        <ele>35.6</ele>
        <time>2014-11-23T10:50:30Z</time>
      </trkpt>
      <trkpt lat="50.46927" lon="1.65981">
        <ele>36.8</ele>
        <time>2014-11-23T10:50:35Z</time>
      </trkpt>
      <trkpt lat="50.46922" lon="1.65949">
        <ele>37</ele>
        <time>2014-11-23T10:50:39Z</time>
      </trkpt>
      <trkpt lat="50.46909" lon="1.65873">
        <ele>37.8</ele>
        <time>2014-11-23T10:50:49Z</time>
      </trkpt>
      <trkpt lat="50.46899" lon="1.65801">
        <ele>37.8</ele>
        <time>2014-11-23T10:50:58Z</time>
      </trkpt>
      <trkpt lat="50.46894" lon="1.65735">
        <ele>38.4</ele>
        <time>2014-11-23T10:51:06Z</time>
      </trkpt>
      <trkpt lat="50.46893" lon="1.65719">
        <ele>38.8</ele>
        <time>2014-11-23T10:51:08Z</time>
      </trkpt>
      <trkpt lat="50.4689" lon="1.65671">
        <ele>39.8</ele>
        <time>2014-11-23T10:51:14Z</time>
      </trkpt>
      <trkpt lat="50.46891" lon="1.65664">
        <ele>40</ele>
        <time>2014-11-23T10:51:15Z</time>
      </trkpt>
      <trkpt lat="50.46898" lon="1.65614">
        <ele>39.6</ele>
        <time>2014-11-23T10:51:21Z</time>
      </trkpt>
      <trkpt lat="50.46906" lon="1.65565">
        <ele>39</ele>
        <time>2014-11-23T10:51:26Z</time>
      </trkpt>
      <trkpt lat="50.46907" lon="1.65554">
        <ele>38.6</ele>
        <time>2014-11-23T10:51:27Z</time>
      </trkpt>
      <trkpt lat="50.46908" lon="1.65542">
        <ele>38.6</ele>
        <time>2014-11-23T10:51:28Z</time>
      </trkpt>
      <trkpt lat="50.46909" lon="1.65504">
        <ele>37.6</ele>
        <time>2014-11-23T10:51:31Z</time>
      </trkpt>
      <trkpt lat="50.4691" lon="1.65491">
        <ele>37</ele>
        <time>2014-11-23T10:51:32Z</time>
      </trkpt>
      <trkpt lat="50.4691" lon="1.65478">
        <ele>36</ele>
        <time>2014-11-23T10:51:33Z</time>
      </trkpt>
      <trkpt lat="50.46911" lon="1.65464">
        <ele>35</ele>
        <time>2014-11-23T10:51:34Z</time>
      </trkpt>
      <trkpt lat="50.46911" lon="1.6545">
        <ele>34</ele>
        <time>2014-11-23T10:51:35Z</time>
      </trkpt>
      <trkpt lat="50.46914" lon="1.65379">
        <ele>32.4</ele>
        <time>2014-11-23T10:51:40Z</time>
      </trkpt>
      <trkpt lat="50.46915" lon="1.65364">
        <ele>31.2</ele>
        <time>2014-11-23T10:51:41Z</time>
      </trkpt>
      <trkpt lat="50.46914" lon="1.65333">
        <ele>30</ele>
        <time>2014-11-23T10:51:43Z</time>
      </trkpt>
      <trkpt lat="50.46913" lon="1.65302">
        <ele>28.4</ele>
        <time>2014-11-23T10:51:45Z</time>
      </trkpt>
      <trkpt lat="50.46913" lon="1.65287">
        <ele>28</ele>
        <time>2014-11-23T10:51:46Z</time>
      </trkpt>
      <trkpt lat="50.46912" lon="1.65255">
        <ele>26.8</ele>
        <time>2014-11-23T10:51:48Z</time>
      </trkpt>
      <trkpt lat="50.46911" lon="1.65223">
        <ele>25.2</ele>
        <time>2014-11-23T10:51:50Z</time>
      </trkpt>
      <trkpt lat="50.4691" lon="1.65208">
        <ele>23.4</ele>
        <time>2014-11-23T10:51:51Z</time>
      </trkpt>
      <trkpt lat="50.46907" lon="1.65191">
        <ele>22.4</ele>
        <time>2014-11-23T10:51:52Z</time>
      </trkpt>
      <trkpt lat="50.46897" lon="1.65145">
        <ele>21.2</ele>
        <time>2014-11-23T10:51:55Z</time>
      </trkpt>
      <trkpt lat="50.4689" lon="1.65114">
        <ele>20</ele>
        <time>2014-11-23T10:51:57Z</time>
      </trkpt>
      <trkpt lat="50.46888" lon="1.65099">
        <ele>19.4</ele>
        <time>2014-11-23T10:51:58Z</time>
      </trkpt>
      <trkpt lat="50.46886" lon="1.65083">
        <ele>17.4</ele>
        <time>2014-11-23T10:51:59Z</time>
      </trkpt>
      <trkpt lat="50.46888" lon="1.65068">
        <ele>16.6</ele>
        <time>2014-11-23T10:52:00Z</time>
      </trkpt>
      <trkpt lat="50.4689" lon="1.65054">
        <ele>16.4</ele>
        <time>2014-11-23T10:52:01Z</time>
      </trkpt>
      <trkpt lat="50.46892" lon="1.6504">
        <ele>15.8</ele>
        <time>2014-11-23T10:52:02Z</time>
      </trkpt>
      <trkpt lat="50.46898" lon="1.65012">
        <ele>14.8</ele>
        <time>2014-11-23T10:52:04Z</time>
      </trkpt>
      <trkpt lat="50.46903" lon="1.64982">
        <ele>13.8</ele>
        <time>2014-11-23T10:52:06Z</time>
      </trkpt>
      <trkpt lat="50.46908" lon="1.64951">
        <ele>12.2</ele>
        <time>2014-11-23T10:52:08Z</time>
      </trkpt>
      <trkpt lat="50.46914" lon="1.6492">
        <ele>11</ele>
        <time>2014-11-23T10:52:10Z</time>
      </trkpt>
      <trkpt lat="50.46919" lon="1.64888">
        <ele>9.4</ele>
        <time>2014-11-23T10:52:12Z</time>
      </trkpt>
      <trkpt lat="50.46927" lon="1.64843">
        <ele>7.6</ele>
        <time>2014-11-23T10:52:15Z</time>
      </trkpt>
      <trkpt lat="50.46936" lon="1.64773">
        <ele>7.2</ele>
        <time>2014-11-23T10:52:20Z</time>
      </trkpt>
      <trkpt lat="50.46942" lon="1.6472">
        <ele>6.4</ele>
        <time>2014-11-23T10:52:25Z</time>
      </trkpt>
      <trkpt lat="50.46945" lon="1.64661">
        <ele>6.2</ele>
        <time>2014-11-23T10:52:32Z</time>
      </trkpt>
      <trkpt lat="50.46947" lon="1.64638">
        <ele>5.2</ele>
        <time>2014-11-23T10:52:34Z</time>
      </trkpt>
      <trkpt lat="50.4695" lon="1.64589">
        <ele>4.2</ele>
        <time>2014-11-23T10:52:38Z</time>
      </trkpt>
      <trkpt lat="50.4695" lon="1.64576">
        <ele>3.2</ele>
        <time>2014-11-23T10:52:39Z</time>
      </trkpt>
      <trkpt lat="50.46951" lon="1.64564">
        <ele>2.8</ele>
        <time>2014-11-23T10:52:40Z</time>
      </trkpt>
      <trkpt lat="50.46952" lon="1.64539">
        <ele>4.2</ele>
        <time>2014-11-23T10:52:42Z</time>
      </trkpt>
      <trkpt lat="50.46953" lon="1.64502">
        <ele>3.8</ele>
        <time>2014-11-23T10:52:45Z</time>
      </trkpt>
      <trkpt lat="50.46954" lon="1.64441">
        <ele>3.2</ele>
        <time>2014-11-23T10:52:50Z</time>
      </trkpt>
      <trkpt lat="50.46956" lon="1.64395">
        <ele>3.6</ele>
        <time>2014-11-23T10:52:54Z</time>
      </trkpt>
      <trkpt lat="50.46964" lon="1.64329">
        <ele>3.2</ele>
        <time>2014-11-23T10:53:00Z</time>
      </trkpt>
      <trkpt lat="50.4698" lon="1.64244">
        <ele>2.4</ele>
        <time>2014-11-23T10:53:08Z</time>
      </trkpt>
      <trkpt lat="50.46981" lon="1.64222">
        <ele>2.6</ele>
        <time>2014-11-23T10:53:10Z</time>
      </trkpt>
      <trkpt lat="50.4698" lon="1.64178">
        <ele>2.6</ele>
        <time>2014-11-23T10:53:14Z</time>
      </trkpt>
      <trkpt lat="50.46978" lon="1.64132">
        <ele>2</ele>
        <time>2014-11-23T10:53:18Z</time>
      </trkpt>
      <trkpt lat="50.46973" lon="1.64045">
        <ele>1.4</ele>
        <time>2014-11-23T10:53:26Z</time>
      </trkpt>
      <trkpt lat="50.46969" lon="1.64028">
        <ele>1.4</ele>
        <time>2014-11-23T10:53:28Z</time>
      </trkpt>
      <trkpt lat="50.46961" lon="1.64014">
        <ele>1.8</ele>
        <time>2014-11-23T10:53:30Z</time>
      </trkpt>
      <trkpt lat="50.46946" lon="1.63985">
        <ele>2</ele>
        <time>2014-11-23T10:53:34Z</time>
      </trkpt>
      <trkpt lat="50.46941" lon="1.63968">
        <ele>2.2</ele>
        <time>2014-11-23T10:53:36Z</time>
      </trkpt>
      <trkpt lat="50.46933" lon="1.63931">
        <ele>1.8</ele>
        <time>2014-11-23T10:53:40Z</time>
      </trkpt>
      <trkpt lat="50.46932" lon="1.63921">
        <ele>1.8</ele>
        <time>2014-11-23T10:53:41Z</time>
      </trkpt>
      <trkpt lat="50.46923" lon="1.63856">
        <ele>1.6</ele>
        <time>2014-11-23T10:53:48Z</time>
      </trkpt>
      <trkpt lat="50.4692" lon="1.63837">
        <ele>1.2</ele>
        <time>2014-11-23T10:53:50Z</time>
      </trkpt>
      <trkpt lat="50.46919" lon="1.63828">
        <ele>2.2</ele>
        <time>2014-11-23T10:53:51Z</time>
      </trkpt>
      <trkpt lat="50.46918" lon="1.63799">
        <ele>1.8</ele>
        <time>2014-11-23T10:53:54Z</time>
      </trkpt>
      <trkpt lat="50.46926" lon="1.63752">
        <ele>1.2</ele>
        <time>2014-11-23T10:53:59Z</time>
      </trkpt>
      <trkpt lat="50.46928" lon="1.63743">
        <ele>1.2</ele>
        <time>2014-11-23T10:54:00Z</time>
      </trkpt>
      <trkpt lat="50.46943" lon="1.63681">
        <ele>-0.2</ele>
        <time>2014-11-23T10:54:07Z</time>
      </trkpt>
      <trkpt lat="50.46947" lon="1.63654">
        <ele>1.2</ele>
        <time>2014-11-23T10:54:10Z</time>
      </trkpt>
      <trkpt lat="50.46948" lon="1.63635">
        <ele>1.2</ele>
        <time>2014-11-23T10:54:12Z</time>
      </trkpt>
      <trkpt lat="50.46949" lon="1.63626">
        <ele>1</ele>
        <time>2014-11-23T10:54:13Z</time>
      </trkpt>
      <trkpt lat="50.46948" lon="1.63562">
        <ele>1</ele>
        <time>2014-11-23T10:54:20Z</time>
      </trkpt>
      <trkpt lat="50.46945" lon="1.63492">
        <ele>0.6</ele>
        <time>2014-11-23T10:54:28Z</time>
      </trkpt>
      <trkpt lat="50.46936" lon="1.63434">
        <ele>1.2</ele>
        <time>2014-11-23T10:54:35Z</time>
      </trkpt>
      <trkpt lat="50.46933" lon="1.63397">
        <ele>0.6</ele>
        <time>2014-11-23T10:54:41Z</time>
      </trkpt>
      <trkpt lat="50.46931" lon="1.63362">
        <ele>0.8</ele>
        <time>2014-11-23T10:54:48Z</time>
      </trkpt>
      <trkpt lat="50.46928" lon="1.63338">
        <ele>0.6</ele>
        <time>2014-11-23T10:54:54Z</time>
      </trkpt>
      <trkpt lat="50.46926" lon="1.6332">
        <ele>0.6</ele>
        <time>2014-11-23T10:54:59Z</time>
      </trkpt>
      <trkpt lat="50.46923" lon="1.63296">
        <ele>0.6</ele>
        <time>2014-11-23T10:55:06Z</time>
      </trkpt>
      <trkpt lat="50.46921" lon="1.63272">
        <ele>0.6</ele>
        <time>2014-11-23T10:55:14Z</time>
      </trkpt>
      <trkpt lat="50.46922" lon="1.63269">
        <ele>1</ele>
        <time>2014-11-23T10:55:16Z</time>
      </trkpt>
      <trkpt lat="50.46921" lon="1.63268">
        <ele>0.8</ele>
        <time>2014-11-23T10:55:19Z</time>
      </trkpt>
      <trkpt lat="50.46919" lon="1.6326">
        <ele>0.8</ele>
        <time>2014-11-23T10:55:27Z</time>
      </trkpt>
      <trkpt lat="50.46919" lon="1.63254">
        <ele>0.6</ele>
        <time>2014-11-23T10:55:39Z</time>
      </trkpt>
      <trkpt lat="50.4692" lon="1.63249">
        <ele>0.4</ele>
        <time>2014-11-23T10:55:45Z</time>
      </trkpt>
      <trkpt lat="50.46925" lon="1.63237">
        <ele>1</ele>
        <time>2014-11-23T10:55:49Z</time>
      </trkpt>
      <trkpt lat="50.4693" lon="1.6322">
        <ele>0.4</ele>
        <time>2014-11-23T10:55:54Z</time>
      </trkpt>
      <trkpt lat="50.4693" lon="1.63217">
        <ele>0.6</ele>
        <time>2014-11-23T10:55:55Z</time>
      </trkpt>
      <trkpt lat="50.46937" lon="1.63192">
        <ele>0.8</ele>
        <time>2014-11-23T10:56:01Z</time>
      </trkpt>
      <trkpt lat="50.46944" lon="1.63158">
        <ele>4</ele>
        <time>2014-11-23T10:56:08Z</time>
      </trkpt>
      <trkpt lat="50.46951" lon="1.63109">
        <ele>0.6</ele>
        <time>2014-11-23T10:56:17Z</time>
      </trkpt>
      <trkpt lat="50.46958" lon="1.63074">
        <ele>0.6</ele>
        <time>2014-11-23T10:56:23Z</time>
      </trkpt>
      <trkpt lat="50.4696" lon="1.63068">
        <ele>0.4</ele>
        <time>2014-11-23T10:56:24Z</time>
      </trkpt>
      <trkpt lat="50.46975" lon="1.6303">
        <ele>1.2</ele>
        <time>2014-11-23T10:56:31Z</time>
      </trkpt>
      <trkpt lat="50.46978" lon="1.63024">
        <ele>1.6</ele>
        <time>2014-11-23T10:56:32Z</time>
      </trkpt>
      <trkpt lat="50.46999" lon="1.62991">
        <ele>1.2</ele>
        <time>2014-11-23T10:56:38Z</time>
      </trkpt>
      <trkpt lat="50.4703" lon="1.62947">
        <ele>0.6</ele>
        <time>2014-11-23T10:56:46Z</time>
      </trkpt>
      <trkpt lat="50.47045" lon="1.62921">
        <ele>0.6</ele>
        <time>2014-11-23T10:56:50Z</time>
      </trkpt>
      <trkpt lat="50.4705" lon="1.62906">
        <ele>0.8</ele>
        <time>2014-11-23T10:56:52Z</time>
      </trkpt>
      <trkpt lat="50.47057" lon="1.62881">
        <ele>1.6</ele>
        <time>2014-11-23T10:56:55Z</time>
      </trkpt>
      <trkpt lat="50.47061" lon="1.62855">
        <ele>1.6</ele>
        <time>2014-11-23T10:56:58Z</time>
      </trkpt>
      <trkpt lat="50.47073" lon="1.6278">
        <ele>2.2</ele>
        <time>2014-11-23T10:57:06Z</time>
      </trkpt>
      <trkpt lat="50.47086" lon="1.62706">
        <ele>2</ele>
        <time>2014-11-23T10:57:14Z</time>
      </trkpt>
      <trkpt lat="50.47106" lon="1.62624">
        <ele>1.6</ele>
        <time>2014-11-23T10:57:23Z</time>
      </trkpt>
      <trkpt lat="50.47111" lon="1.62605">
        <ele>1.4</ele>
        <time>2014-11-23T10:57:25Z</time>
      </trkpt>
      <trkpt lat="50.47134" lon="1.62525">
        <ele>1.4</ele>
        <time>2014-11-23T10:57:34Z</time>
      </trkpt>
      <trkpt lat="50.47151" lon="1.62487">
        <ele>1.4</ele>
        <time>2014-11-23T10:57:39Z</time>
      </trkpt>
      <trkpt lat="50.47155" lon="1.6248">
        <ele>1.4</ele>
        <time>2014-11-23T10:57:40Z</time>
      </trkpt>
      <trkpt lat="50.47184" lon="1.62426">
        <ele>1.4</ele>
        <time>2014-11-23T10:57:47Z</time>
      </trkpt>
      <trkpt lat="50.4721" lon="1.62383">
        <ele>1.2</ele>
        <time>2014-11-23T10:57:53Z</time>
      </trkpt>
      <trkpt lat="50.47238" lon="1.62362">
        <ele>1.2</ele>
        <time>2014-11-23T10:57:58Z</time>
      </trkpt>
      <trkpt lat="50.47244" lon="1.6236">
        <ele>1.4</ele>
        <time>2014-11-23T10:57:59Z</time>
      </trkpt>
      <trkpt lat="50.47272" lon="1.62347">
        <ele>1.8</ele>
        <time>2014-11-23T10:58:04Z</time>
      </trkpt>
      <trkpt lat="50.47296" lon="1.6232">
        <ele>2</ele>
        <time>2014-11-23T10:58:09Z</time>
      </trkpt>
      <trkpt lat="50.47336" lon="1.62264">
        <ele>1.4</ele>
        <time>2014-11-23T10:58:18Z</time>
      </trkpt>
      <trkpt lat="50.47365" lon="1.62205">
        <ele>1.6</ele>
        <time>2014-11-23T10:58:26Z</time>
      </trkpt>
      <trkpt lat="50.47379" lon="1.62175">
        <ele>1.8</ele>
        <time>2014-11-23T10:58:30Z</time>
      </trkpt>
      <trkpt lat="50.47383" lon="1.62158">
        <ele>2</ele>
        <time>2014-11-23T10:58:32Z</time>
      </trkpt>
      <trkpt lat="50.47384" lon="1.62139">
        <ele>1.8</ele>
        <time>2014-11-23T10:58:34Z</time>
      </trkpt>
      <trkpt lat="50.47384" lon="1.62111">
        <ele>1.8</ele>
        <time>2014-11-23T10:58:37Z</time>
      </trkpt>
      <trkpt lat="50.47379" lon="1.62053">
        <ele>2.8</ele>
        <time>2014-11-23T10:58:43Z</time>
      </trkpt>
      <trkpt lat="50.4737" lon="1.6197">
        <ele>2.6</ele>
        <time>2014-11-23T10:58:52Z</time>
      </trkpt>
      <trkpt lat="50.47364" lon="1.61916">
        <ele>2.4</ele>
        <time>2014-11-23T10:58:58Z</time>
      </trkpt>
      <trkpt lat="50.4736" lon="1.61856">
        <ele>2.6</ele>
        <time>2014-11-23T10:59:05Z</time>
      </trkpt>
      <trkpt lat="50.47359" lon="1.61823">
        <ele>3</ele>
        <time>2014-11-23T10:59:09Z</time>
      </trkpt>
      <trkpt lat="50.47359" lon="1.61808">
        <ele>3</ele>
        <time>2014-11-23T10:59:11Z</time>
      </trkpt>
      <trkpt lat="50.47361" lon="1.61776">
        <ele>3.6</ele>
        <time>2014-11-23T10:59:16Z</time>
      </trkpt>
      <trkpt lat="50.47361" lon="1.61757">
        <ele>3.6</ele>
        <time>2014-11-23T10:59:21Z</time>
      </trkpt>
      <trkpt lat="50.47361" lon="1.61721">
        <ele>3.6</ele>
        <time>2014-11-23T10:59:26Z</time>
      </trkpt>
      <trkpt lat="50.47361" lon="1.61667">
        <ele>4.2</ele>
        <time>2014-11-23T10:59:33Z</time>
      </trkpt>
      <trkpt lat="50.47361" lon="1.61659">
        <ele>4.2</ele>
        <time>2014-11-23T10:59:34Z</time>
      </trkpt>
      <trkpt lat="50.47354" lon="1.61644">
        <ele>4.2</ele>
        <time>2014-11-23T10:59:37Z</time>
      </trkpt>
      <trkpt lat="50.47349" lon="1.6164">
        <ele>4.6</ele>
        <time>2014-11-23T10:59:38Z</time>
      </trkpt>
      <trkpt lat="50.47327" lon="1.6162">
        <ele>4.6</ele>
        <time>2014-11-23T10:59:43Z</time>
      </trkpt>
      <trkpt lat="50.47297" lon="1.61586">
        <ele>5.2</ele>
        <time>2014-11-23T10:59:50Z</time>
      </trkpt>
      <trkpt lat="50.47293" lon="1.61581">
        <ele>5.2</ele>
        <time>2014-11-23T10:59:51Z</time>
      </trkpt>
      <trkpt lat="50.47269" lon="1.61538">
        <ele>5.2</ele>
        <time>2014-11-23T10:59:58Z</time>
      </trkpt>
      <trkpt lat="50.47241" lon="1.61478">
        <ele>6</ele>
        <time>2014-11-23T11:00:07Z</time>
      </trkpt>
      <trkpt lat="50.47235" lon="1.61464">
        <ele>6.4</ele>
        <time>2014-11-23T11:00:09Z</time>
      </trkpt>
      <trkpt lat="50.47212" lon="1.61413">
        <ele>7.4</ele>
        <time>2014-11-23T11:00:17Z</time>
      </trkpt>
      <trkpt lat="50.4721" lon="1.61408">
        <ele>7.8</ele>
        <time>2014-11-23T11:00:18Z</time>
      </trkpt>
      <trkpt lat="50.47208" lon="1.61396">
        <ele>8</ele>
        <time>2014-11-23T11:00:20Z</time>
      </trkpt>
      <trkpt lat="50.47209" lon="1.6139">
        <ele>7.6</ele>
        <time>2014-11-23T11:00:21Z</time>
      </trkpt>
      <trkpt lat="50.47222" lon="1.61379">
        <ele>7.4</ele>
        <time>2014-11-23T11:00:24Z</time>
      </trkpt>
      <trkpt lat="50.47227" lon="1.61376">
        <ele>7.4</ele>
        <time>2014-11-23T11:00:25Z</time>
      </trkpt>
      <trkpt lat="50.47268" lon="1.61356">
        <ele>7.2</ele>
        <time>2014-11-23T11:00:33Z</time>
      </trkpt>
      <trkpt lat="50.47286" lon="1.61347">
        <ele>6.8</ele>
        <time>2014-11-23T11:00:37Z</time>
      </trkpt>
      <trkpt lat="50.47289" lon="1.61342">
        <ele>6.8</ele>
        <time>2014-11-23T11:00:38Z</time>
      </trkpt>
      <trkpt lat="50.47291" lon="1.61321">
        <ele>6.4</ele>
        <time>2014-11-23T11:00:41Z</time>
      </trkpt>
      <trkpt lat="50.47293" lon="1.61296">
        <ele>6.6</ele>
        <time>2014-11-23T11:00:44Z</time>
      </trkpt>
      <trkpt lat="50.47297" lon="1.6128">
        <ele>6.6</ele>
        <time>2014-11-23T11:00:46Z</time>
      </trkpt>
      <trkpt lat="50.47308" lon="1.61251">
        <ele>6.2</ele>
        <time>2014-11-23T11:00:50Z</time>
      </trkpt>
      <trkpt lat="50.47311" lon="1.61245">
        <ele>6.2</ele>
        <time>2014-11-23T11:00:51Z</time>
      </trkpt>
      <trkpt lat="50.47334" lon="1.61221">
        <ele>6.8</ele>
        <time>2014-11-23T11:00:56Z</time>
      </trkpt>
      <trkpt lat="50.47351" lon="1.61201">
        <ele>7.4</ele>
        <time>2014-11-23T11:01:00Z</time>
      </trkpt>
      <trkpt lat="50.47359" lon="1.61188">
        <ele>7</ele>
        <time>2014-11-23T11:01:02Z</time>
      </trkpt>
      <trkpt lat="50.47371" lon="1.61157">
        <ele>6.6</ele>
        <time>2014-11-23T11:01:06Z</time>
      </trkpt>
      <trkpt lat="50.47372" lon="1.61149">
        <ele>6.8</ele>
        <time>2014-11-23T11:01:07Z</time>
      </trkpt>
      <trkpt lat="50.47379" lon="1.61092">
        <ele>6.8</ele>
        <time>2014-11-23T11:01:14Z</time>
      </trkpt>
      <trkpt lat="50.47381" lon="1.61085">
        <ele>7</ele>
        <time>2014-11-23T11:01:15Z</time>
      </trkpt>
      <trkpt lat="50.4739" lon="1.61058">
        <ele>6.8</ele>
        <time>2014-11-23T11:01:19Z</time>
      </trkpt>
      <trkpt lat="50.474" lon="1.61049">
        <ele>7.4</ele>
        <time>2014-11-23T11:01:22Z</time>
      </trkpt>
      <trkpt lat="50.47406" lon="1.61045">
        <ele>8</ele>
        <time>2014-11-23T11:01:24Z</time>
      </trkpt>
      <trkpt lat="50.47411" lon="1.61042">
        <ele>8.6</ele>
        <time>2014-11-23T11:01:26Z</time>
      </trkpt>
      <trkpt lat="50.47414" lon="1.61042">
        <ele>8.6</ele>
        <time>2014-11-23T11:01:27Z</time>
      </trkpt>
      <trkpt lat="50.47421" lon="1.61053">
        <ele>8.2</ele>
        <time>2014-11-23T11:01:31Z</time>
      </trkpt>
      <trkpt lat="50.47428" lon="1.61057">
        <ele>8</ele>
        <time>2014-11-23T11:01:34Z</time>
      </trkpt>
      <trkpt lat="50.47434" lon="1.61061">
        <ele>8</ele>
        <time>2014-11-23T11:01:36Z</time>
      </trkpt>
      <trkpt lat="50.47451" lon="1.61066">
        <ele>7.2</ele>
        <time>2014-11-23T11:01:41Z</time>
      </trkpt>
      <trkpt lat="50.47462" lon="1.6107">
        <ele>8.4</ele>
        <time>2014-11-23T11:01:45Z</time>
      </trkpt>
      <trkpt lat="50.47471" lon="1.61076">
        <ele>8.8</ele>
        <time>2014-11-23T11:01:49Z</time>
      </trkpt>
      <trkpt lat="50.47486" lon="1.61093">
        <ele>8.2</ele>
        <time>2014-11-23T11:01:54Z</time>
      </trkpt>
      <trkpt lat="50.475" lon="1.61112">
        <ele>8.4</ele>
        <time>2014-11-23T11:02:00Z</time>
      </trkpt>
      <trkpt lat="50.47503" lon="1.61115">
        <ele>8.4</ele>
        <time>2014-11-23T11:02:01Z</time>
      </trkpt>
      <trkpt lat="50.47514" lon="1.61128">
        <ele>8</ele>
        <time>2014-11-23T11:02:05Z</time>
      </trkpt>
      <trkpt lat="50.47521" lon="1.61136">
        <ele>8</ele>
        <time>2014-11-23T11:02:07Z</time>
      </trkpt>
      <trkpt lat="50.47529" lon="1.61143">
        <ele>7.2</ele>
        <time>2014-11-23T11:02:09Z</time>
      </trkpt>
      <trkpt lat="50.47533" lon="1.61147">
        <ele>7</ele>
        <time>2014-11-23T11:02:10Z</time>
      </trkpt>
      <trkpt lat="50.47551" lon="1.61169">
        <ele>7.6</ele>
        <time>2014-11-23T11:02:15Z</time>
      </trkpt>
      <trkpt lat="50.47556" lon="1.61179">
        <ele>6.2</ele>
        <time>2014-11-23T11:02:17Z</time>
      </trkpt>
      <trkpt lat="50.47559" lon="1.61184">
        <ele>6</ele>
        <time>2014-11-23T11:02:18Z</time>
      </trkpt>
      <trkpt lat="50.47563" lon="1.61188">
        <ele>6.2</ele>
        <time>2014-11-23T11:02:19Z</time>
      </trkpt>
      <trkpt lat="50.47569" lon="1.61196">
        <ele>6.2</ele>
        <time>2014-11-23T11:02:21Z</time>
      </trkpt>
      <trkpt lat="50.47584" lon="1.61211">
        <ele>6.2</ele>
        <time>2014-11-23T11:02:25Z</time>
      </trkpt>
      <trkpt lat="50.47592" lon="1.61215">
        <ele>5.8</ele>
        <time>2014-11-23T11:02:28Z</time>
      </trkpt>
      <trkpt lat="50.47594" lon="1.61215">
        <ele>5.8</ele>
        <time>2014-11-23T11:02:29Z</time>
      </trkpt>
      <trkpt lat="50.47607" lon="1.61209">
        <ele>6</ele>
        <time>2014-11-23T11:02:34Z</time>
      </trkpt>
      <trkpt lat="50.47625" lon="1.61197">
        <ele>5.6</ele>
        <time>2014-11-23T11:02:39Z</time>
      </trkpt>
      <trkpt lat="50.47629" lon="1.61193">
        <ele>5.8</ele>
        <time>2014-11-23T11:02:40Z</time>
      </trkpt>
      <trkpt lat="50.47642" lon="1.61185">
        <ele>5.8</ele>
        <time>2014-11-23T11:02:43Z</time>
      </trkpt>
      <trkpt lat="50.47663" lon="1.61177">
        <ele>6.8</ele>
        <time>2014-11-23T11:02:48Z</time>
      </trkpt>
      <trkpt lat="50.47667" lon="1.61175">
        <ele>6.8</ele>
        <time>2014-11-23T11:02:49Z</time>
      </trkpt>
      <trkpt lat="50.47681" lon="1.61171">
        <ele>6.8</ele>
        <time>2014-11-23T11:02:52Z</time>
      </trkpt>
      <trkpt lat="50.47686" lon="1.61171">
        <ele>6.6</ele>
        <time>2014-11-23T11:02:53Z</time>
      </trkpt>
      <trkpt lat="50.47717" lon="1.61165">
        <ele>7</ele>
        <time>2014-11-23T11:02:59Z</time>
      </trkpt>
      <trkpt lat="50.47722" lon="1.61164">
        <ele>7</ele>
        <time>2014-11-23T11:03:00Z</time>
      </trkpt>
      <trkpt lat="50.47736" lon="1.61159">
        <ele>6.8</ele>
        <time>2014-11-23T11:03:03Z</time>
      </trkpt>
      <trkpt lat="50.47745" lon="1.61154">
        <ele>6.6</ele>
        <time>2014-11-23T11:03:05Z</time>
      </trkpt>
      <trkpt lat="50.47777" lon="1.61133">
        <ele>5.4</ele>
        <time>2014-11-23T11:03:11Z</time>
      </trkpt>
      <trkpt lat="50.47805" lon="1.61115">
        <ele>5.6</ele>
        <time>2014-11-23T11:03:17Z</time>
      </trkpt>
      <trkpt lat="50.47816" lon="1.61105">
        <ele>6</ele>
        <time>2014-11-23T11:03:21Z</time>
      </trkpt>
      <trkpt lat="50.47824" lon="1.61098">
        <ele>5.4</ele>
        <time>2014-11-23T11:03:23Z</time>
      </trkpt>
      <trkpt lat="50.47829" lon="1.61094">
        <ele>4.8</ele>
        <time>2014-11-23T11:03:24Z</time>
      </trkpt>
      <trkpt lat="50.47833" lon="1.6109">
        <ele>4.8</ele>
        <time>2014-11-23T11:03:25Z</time>
      </trkpt>
      <trkpt lat="50.47849" lon="1.61072">
        <ele>5.8</ele>
        <time>2014-11-23T11:03:29Z</time>
      </trkpt>
      <trkpt lat="50.47854" lon="1.61068">
        <ele>5.6</ele>
        <time>2014-11-23T11:03:30Z</time>
      </trkpt>
      <trkpt lat="50.47877" lon="1.61035">
        <ele>5.8</ele>
        <time>2014-11-23T11:03:36Z</time>
      </trkpt>
      <trkpt lat="50.47897" lon="1.60989">
        <ele>5.4</ele>
        <time>2014-11-23T11:03:42Z</time>
      </trkpt>
      <trkpt lat="50.47901" lon="1.60982">
        <ele>5.4</ele>
        <time>2014-11-23T11:03:43Z</time>
      </trkpt>
      <trkpt lat="50.47913" lon="1.60951">
        <ele>5.2</ele>
        <time>2014-11-23T11:03:47Z</time>
      </trkpt>
      <trkpt lat="50.47942" lon="1.6089">
        <ele>5.6</ele>
        <time>2014-11-23T11:03:55Z</time>
      </trkpt>
      <trkpt lat="50.47946" lon="1.60884">
        <ele>5.4</ele>
        <time>2014-11-23T11:03:56Z</time>
      </trkpt>
      <trkpt lat="50.47969" lon="1.60865">
        <ele>5.4</ele>
        <time>2014-11-23T11:04:00Z</time>
      </trkpt>
      <trkpt lat="50.47975" lon="1.60862">
        <ele>5.2</ele>
        <time>2014-11-23T11:04:01Z</time>
      </trkpt>
      <trkpt lat="50.48" lon="1.60855">
        <ele>4.2</ele>
        <time>2014-11-23T11:04:05Z</time>
      </trkpt>
      <trkpt lat="50.48007" lon="1.60854">
        <ele>3.8</ele>
        <time>2014-11-23T11:04:06Z</time>
      </trkpt>
      <trkpt lat="50.48046" lon="1.60847">
        <ele>4.2</ele>
        <time>2014-11-23T11:04:12Z</time>
      </trkpt>
      <trkpt lat="50.4807" lon="1.6084">
        <ele>3.4</ele>
        <time>2014-11-23T11:04:16Z</time>
      </trkpt>
      <trkpt lat="50.48076" lon="1.60837">
        <ele>3.4</ele>
        <time>2014-11-23T11:04:17Z</time>
      </trkpt>
      <trkpt lat="50.48092" lon="1.60824">
        <ele>3.6</ele>
        <time>2014-11-23T11:04:20Z</time>
      </trkpt>
      <trkpt lat="50.48097" lon="1.60819">
        <ele>3.6</ele>
        <time>2014-11-23T11:04:21Z</time>
      </trkpt>
      <trkpt lat="50.48125" lon="1.6079">
        <ele>3.6</ele>
        <time>2014-11-23T11:04:27Z</time>
      </trkpt>
      <trkpt lat="50.48161" lon="1.60767">
        <ele>3.8</ele>
        <time>2014-11-23T11:04:34Z</time>
      </trkpt>
      <trkpt lat="50.48166" lon="1.60766">
        <ele>3.8</ele>
        <time>2014-11-23T11:04:35Z</time>
      </trkpt>
      <trkpt lat="50.48182" lon="1.60766">
        <ele>4.4</ele>
        <time>2014-11-23T11:04:38Z</time>
      </trkpt>
      <trkpt lat="50.48193" lon="1.60768">
        <ele>5</ele>
        <time>2014-11-23T11:04:40Z</time>
      </trkpt>
      <trkpt lat="50.48219" lon="1.60778">
        <ele>5</ele>
        <time>2014-11-23T11:04:45Z</time>
      </trkpt>
      <trkpt lat="50.48261" lon="1.60794">
        <ele>5.4</ele>
        <time>2014-11-23T11:04:53Z</time>
      </trkpt>
      <trkpt lat="50.48301" lon="1.60815">
        <ele>6.2</ele>
        <time>2014-11-23T11:05:01Z</time>
      </trkpt>
      <trkpt lat="50.48324" lon="1.60823">
        <ele>6.6</ele>
        <time>2014-11-23T11:05:06Z</time>
      </trkpt>
      <trkpt lat="50.48328" lon="1.60825">
        <ele>6.6</ele>
        <time>2014-11-23T11:05:07Z</time>
      </trkpt>
      <trkpt lat="50.48344" lon="1.60841">
        <ele>7</ele>
        <time>2014-11-23T11:05:11Z</time>
      </trkpt>
      <trkpt lat="50.48354" lon="1.60847">
        <ele>6.4</ele>
        <time>2014-11-23T11:05:13Z</time>
      </trkpt>
      <trkpt lat="50.48372" lon="1.60854">
        <ele>6.2</ele>
        <time>2014-11-23T11:05:16Z</time>
      </trkpt>
      <trkpt lat="50.48432" lon="1.60877">
        <ele>5.6</ele>
        <time>2014-11-23T11:05:25Z</time>
      </trkpt>
      <trkpt lat="50.48485" lon="1.60898">
        <ele>4.6</ele>
        <time>2014-11-23T11:05:33Z</time>
      </trkpt>
      <trkpt lat="50.48506" lon="1.60906">
        <ele>4.6</ele>
        <time>2014-11-23T11:05:36Z</time>
      </trkpt>
      <trkpt lat="50.4852" lon="1.60911">
        <ele>4.2</ele>
        <time>2014-11-23T11:05:38Z</time>
      </trkpt>
      <trkpt lat="50.48565" lon="1.60928">
        <ele>3.8</ele>
        <time>2014-11-23T11:05:45Z</time>
      </trkpt>
      <trkpt lat="50.48571" lon="1.60932">
        <ele>4</ele>
        <time>2014-11-23T11:05:46Z</time>
      </trkpt>
      <trkpt lat="50.48588" lon="1.60947">
        <ele>4.4</ele>
        <time>2014-11-23T11:05:49Z</time>
      </trkpt>
      <trkpt lat="50.48605" lon="1.60945">
        <ele>4.6</ele>
        <time>2014-11-23T11:05:52Z</time>
      </trkpt>
      <trkpt lat="50.48616" lon="1.60936">
        <ele>4.8</ele>
        <time>2014-11-23T11:05:54Z</time>
      </trkpt>
      <trkpt lat="50.48621" lon="1.60933">
        <ele>4.8</ele>
        <time>2014-11-23T11:05:55Z</time>
      </trkpt>
      <trkpt lat="50.48627" lon="1.60933">
        <ele>4.8</ele>
        <time>2014-11-23T11:05:56Z</time>
      </trkpt>
      <trkpt lat="50.48649" lon="1.60945">
        <ele>5.4</ele>
        <time>2014-11-23T11:06:00Z</time>
      </trkpt>
      <trkpt lat="50.48684" lon="1.6096">
        <ele>5.6</ele>
        <time>2014-11-23T11:06:06Z</time>
      </trkpt>
      <trkpt lat="50.48737" lon="1.60974">
        <ele>6.4</ele>
        <time>2014-11-23T11:06:15Z</time>
      </trkpt>
      <trkpt lat="50.48789" lon="1.6099">
        <ele>6.6</ele>
        <time>2014-11-23T11:06:24Z</time>
      </trkpt>
      <trkpt lat="50.48842" lon="1.61011">
        <ele>6.6</ele>
        <time>2014-11-23T11:06:33Z</time>
      </trkpt>
      <trkpt lat="50.48897" lon="1.61039">
        <ele>7</ele>
        <time>2014-11-23T11:06:43Z</time>
      </trkpt>
      <trkpt lat="50.4892" lon="1.61066">
        <ele>7.2</ele>
        <time>2014-11-23T11:06:48Z</time>
      </trkpt>
      <trkpt lat="50.48932" lon="1.61097">
        <ele>7.4</ele>
        <time>2014-11-23T11:06:52Z</time>
      </trkpt>
      <trkpt lat="50.48935" lon="1.61106">
        <ele>7.4</ele>
        <time>2014-11-23T11:06:53Z</time>
      </trkpt>
      <trkpt lat="50.48951" lon="1.61149">
        <ele>6.8</ele>
        <time>2014-11-23T11:06:58Z</time>
      </trkpt>
      <trkpt lat="50.48959" lon="1.61164">
        <ele>6.8</ele>
        <time>2014-11-23T11:07:00Z</time>
      </trkpt>
      <trkpt lat="50.48987" lon="1.61214">
        <ele>6.4</ele>
        <time>2014-11-23T11:07:07Z</time>
      </trkpt>
      <trkpt lat="50.48995" lon="1.61223">
        <ele>6</ele>
        <time>2014-11-23T11:07:10Z</time>
      </trkpt>
      <trkpt lat="50.49011" lon="1.61215">
        <ele>6.8</ele>
        <time>2014-11-23T11:07:15Z</time>
      </trkpt>
      <trkpt lat="50.49037" lon="1.61201">
        <ele>7.8</ele>
        <time>2014-11-23T11:07:21Z</time>
      </trkpt>
      <trkpt lat="50.49049" lon="1.61195">
        <ele>7.4</ele>
        <time>2014-11-23T11:07:24Z</time>
      </trkpt>
      <trkpt lat="50.49055" lon="1.61196">
        <ele>7</ele>
        <time>2014-11-23T11:07:26Z</time>
      </trkpt>
      <trkpt lat="50.49064" lon="1.6119">
        <ele>7</ele>
        <time>2014-11-23T11:07:30Z</time>
      </trkpt>
      <trkpt lat="50.49066" lon="1.61186">
        <ele>7.2</ele>
        <time>2014-11-23T11:07:31Z</time>
      </trkpt>
      <trkpt lat="50.49074" lon="1.61172">
        <ele>8.4</ele>
        <time>2014-11-23T11:07:35Z</time>
      </trkpt>
      <trkpt lat="50.49076" lon="1.61172">
        <ele>8.6</ele>
        <time>2014-11-23T11:07:36Z</time>
      </trkpt>
      <trkpt lat="50.49082" lon="1.61177">
        <ele>9</ele>
        <time>2014-11-23T11:07:38Z</time>
      </trkpt>
      <trkpt lat="50.491" lon="1.6119">
        <ele>10</ele>
        <time>2014-11-23T11:07:43Z</time>
      </trkpt>
      <trkpt lat="50.49112" lon="1.61199">
        <ele>10.6</ele>
        <time>2014-11-23T11:07:47Z</time>
      </trkpt>
      <trkpt lat="50.49118" lon="1.61204">
        <ele>11</ele>
        <time>2014-11-23T11:07:49Z</time>
      </trkpt>
      <trkpt lat="50.49132" lon="1.61215">
        <ele>11.8</ele>
        <time>2014-11-23T11:07:54Z</time>
      </trkpt>
      <trkpt lat="50.49135" lon="1.61217">
        <ele>12.2</ele>
        <time>2014-11-23T11:07:55Z</time>
      </trkpt>
      <trkpt lat="50.49158" lon="1.61237">
        <ele>12.8</ele>
        <time>2014-11-23T11:08:02Z</time>
      </trkpt>
      <trkpt lat="50.49183" lon="1.61265">
        <ele>12.6</ele>
        <time>2014-11-23T11:08:09Z</time>
      </trkpt>
      <trkpt lat="50.49205" lon="1.61294">
        <ele>11.8</ele>
        <time>2014-11-23T11:08:15Z</time>
      </trkpt>
      <trkpt lat="50.49225" lon="1.6132">
        <ele>11</ele>
        <time>2014-11-23T11:08:20Z</time>
      </trkpt>
      <trkpt lat="50.49234" lon="1.61331">
        <ele>10.6</ele>
        <time>2014-11-23T11:08:22Z</time>
      </trkpt>
      <trkpt lat="50.49255" lon="1.61361">
        <ele>10</ele>
        <time>2014-11-23T11:08:27Z</time>
      </trkpt>
      <trkpt lat="50.4926" lon="1.61367">
        <ele>9.6</ele>
        <time>2014-11-23T11:08:28Z</time>
      </trkpt>
      <trkpt lat="50.49283" lon="1.61385">
        <ele>8.8</ele>
        <time>2014-11-23T11:08:32Z</time>
      </trkpt>
      <trkpt lat="50.49288" lon="1.61389">
        <ele>8.4</ele>
        <time>2014-11-23T11:08:33Z</time>
      </trkpt>
      <trkpt lat="50.49321" lon="1.61413">
        <ele>9</ele>
        <time>2014-11-23T11:08:39Z</time>
      </trkpt>
      <trkpt lat="50.49334" lon="1.61423">
        <ele>9.4</ele>
        <time>2014-11-23T11:08:42Z</time>
      </trkpt>
      <trkpt lat="50.49341" lon="1.61434">
        <ele>9.4</ele>
        <time>2014-11-23T11:08:44Z</time>
      </trkpt>
      <trkpt lat="50.49349" lon="1.61447">
        <ele>10</ele>
        <time>2014-11-23T11:08:46Z</time>
      </trkpt>
      <trkpt lat="50.49357" lon="1.61461">
        <ele>10.8</ele>
        <time>2014-11-23T11:08:48Z</time>
      </trkpt>
      <trkpt lat="50.4936" lon="1.6147">
        <ele>11</ele>
        <time>2014-11-23T11:08:49Z</time>
      </trkpt>
      <trkpt lat="50.49372" lon="1.61515">
        <ele>12.4</ele>
        <time>2014-11-23T11:08:55Z</time>
      </trkpt>
      <trkpt lat="50.49376" lon="1.61535">
        <ele>13</ele>
        <time>2014-11-23T11:08:58Z</time>
      </trkpt>
      <trkpt lat="50.4938" lon="1.61554">
        <ele>13.4</ele>
        <time>2014-11-23T11:09:01Z</time>
      </trkpt>
      <trkpt lat="50.49391" lon="1.61597">
        <ele>14.2</ele>
        <time>2014-11-23T11:09:07Z</time>
      </trkpt>
      <trkpt lat="50.49394" lon="1.61612">
        <ele>14.6</ele>
        <time>2014-11-23T11:09:09Z</time>
      </trkpt>
      <trkpt lat="50.49406" lon="1.61661">
        <ele>13.2</ele>
        <time>2014-11-23T11:09:15Z</time>
      </trkpt>
      <trkpt lat="50.49415" lon="1.61681">
        <ele>11.6</ele>
        <time>2014-11-23T11:09:18Z</time>
      </trkpt>
      <trkpt lat="50.49418" lon="1.61687">
        <ele>11.4</ele>
        <time>2014-11-23T11:09:19Z</time>
      </trkpt>
      <trkpt lat="50.49423" lon="1.61694">
        <ele>12.6</ele>
        <time>2014-11-23T11:09:21Z</time>
      </trkpt>
      <trkpt lat="50.49427" lon="1.61699">
        <ele>12.6</ele>
        <time>2014-11-23T11:09:23Z</time>
      </trkpt>
      <trkpt lat="50.49433" lon="1.61718">
        <ele>11.8</ele>
        <time>2014-11-23T11:09:27Z</time>
      </trkpt>
      <trkpt lat="50.49439" lon="1.61727">
        <ele>12.2</ele>
        <time>2014-11-23T11:09:30Z</time>
      </trkpt>
      <trkpt lat="50.4944" lon="1.61728">
        <ele>12.2</ele>
        <time>2014-11-23T11:09:31Z</time>
      </trkpt>
      <trkpt lat="50.49444" lon="1.61729">
        <ele>12.6</ele>
        <time>2014-11-23T11:09:36Z</time>
      </trkpt>
      <trkpt lat="50.49445" lon="1.61727">
        <ele>12.4</ele>
        <time>2014-11-23T11:09:37Z</time>
      </trkpt>
      <trkpt lat="50.49447" lon="1.61725">
        <ele>12.4</ele>
        <time>2014-11-23T11:09:39Z</time>
      </trkpt>
      <trkpt lat="50.49451" lon="1.61722">
        <ele>13.4</ele>
        <time>2014-11-23T11:09:43Z</time>
      </trkpt>
      <trkpt lat="50.49453" lon="1.61721">
        <ele>13.6</ele>
        <time>2014-11-23T11:09:44Z</time>
      </trkpt>
      <trkpt lat="50.49454" lon="1.6172">
        <ele>13.8</ele>
        <time>2014-11-23T11:09:45Z</time>
      </trkpt>
      <trkpt lat="50.49457" lon="1.61717">
        <ele>14.6</ele>
        <time>2014-11-23T11:09:48Z</time>
      </trkpt>
      <trkpt lat="50.49458" lon="1.61716">
        <ele>15</ele>
        <time>2014-11-23T11:09:49Z</time>
      </trkpt>
      <trkpt lat="50.4946" lon="1.61716">
        <ele>15.2</ele>
        <time>2014-11-23T11:09:54Z</time>
      </trkpt>
      <trkpt lat="50.49461" lon="1.61717">
        <ele>15</ele>
        <time>2014-11-23T11:09:55Z</time>
      </trkpt>
      <trkpt lat="50.49472" lon="1.61719">
        <ele>14.4</ele>
        <time>2014-11-23T11:09:59Z</time>
      </trkpt>
      <trkpt lat="50.49477" lon="1.61719">
        <ele>14.2</ele>
        <time>2014-11-23T11:10:00Z</time>
      </trkpt>
      <trkpt lat="50.4948" lon="1.61717">
        <ele>13.8</ele>
        <time>2014-11-23T11:10:01Z</time>
      </trkpt>
      <trkpt lat="50.49487" lon="1.61715">
        <ele>13.2</ele>
        <time>2014-11-23T11:10:03Z</time>
      </trkpt>
      <trkpt lat="50.49491" lon="1.61715">
        <ele>12.6</ele>
        <time>2014-11-23T11:10:04Z</time>
      </trkpt>
      <trkpt lat="50.49497" lon="1.61712">
        <ele>11</ele>
        <time>2014-11-23T11:10:06Z</time>
      </trkpt>
      <trkpt lat="50.49501" lon="1.61709">
        <ele>10.4</ele>
        <time>2014-11-23T11:10:07Z</time>
      </trkpt>
      <trkpt lat="50.49505" lon="1.61707">
        <ele>10</ele>
        <time>2014-11-23T11:10:08Z</time>
      </trkpt>
      <trkpt lat="50.49509" lon="1.61707">
        <ele>9</ele>
        <time>2014-11-23T11:10:09Z</time>
      </trkpt>
      <trkpt lat="50.49516" lon="1.61705">
        <ele>8.2</ele>
        <time>2014-11-23T11:10:11Z</time>
      </trkpt>
      <trkpt lat="50.49524" lon="1.617">
        <ele>10.4</ele>
        <time>2014-11-23T11:10:15Z</time>
      </trkpt>
      <trkpt lat="50.49528" lon="1.61696">
        <ele>11.4</ele>
        <time>2014-11-23T11:10:17Z</time>
      </trkpt>
      <trkpt lat="50.49534" lon="1.61695">
        <ele>12.4</ele>
        <time>2014-11-23T11:10:20Z</time>
      </trkpt>
      <trkpt lat="50.49535" lon="1.61694">
        <ele>12.6</ele>
        <time>2014-11-23T11:10:21Z</time>
      </trkpt>
      <trkpt lat="50.49545" lon="1.61684">
        <ele>13.4</ele>
        <time>2014-11-23T11:10:25Z</time>
      </trkpt>
      <trkpt lat="50.49547" lon="1.61683">
        <ele>13.6</ele>
        <time>2014-11-23T11:10:26Z</time>
      </trkpt>
      <trkpt lat="50.49556" lon="1.61678">
        <ele>14.2</ele>
        <time>2014-11-23T11:10:30Z</time>
      </trkpt>
      <trkpt lat="50.49561" lon="1.61676">
        <ele>14.8</ele>
        <time>2014-11-23T11:10:32Z</time>
      </trkpt>
      <trkpt lat="50.49567" lon="1.61674">
        <ele>15.8</ele>
        <time>2014-11-23T11:10:35Z</time>
      </trkpt>
      <trkpt lat="50.49569" lon="1.61675">
        <ele>16.2</ele>
        <time>2014-11-23T11:10:36Z</time>
      </trkpt>
      <trkpt lat="50.49576" lon="1.61678">
        <ele>17.4</ele>
        <time>2014-11-23T11:10:40Z</time>
      </trkpt>
      <trkpt lat="50.49577" lon="1.6168">
        <ele>17.6</ele>
        <time>2014-11-23T11:10:41Z</time>
      </trkpt>
      <trkpt lat="50.49581" lon="1.61694">
        <ele>18</ele>
        <time>2014-11-23T11:10:46Z</time>
      </trkpt>
      <trkpt lat="50.49586" lon="1.61711">
        <ele>18.4</ele>
        <time>2014-11-23T11:10:51Z</time>
      </trkpt>
      <trkpt lat="50.49592" lon="1.61721">
        <ele>19.6</ele>
        <time>2014-11-23T11:10:55Z</time>
      </trkpt>
      <trkpt lat="50.49593" lon="1.61725">
        <ele>20.6</ele>
        <time>2014-11-23T11:10:57Z</time>
      </trkpt>
      <trkpt lat="50.49593" lon="1.61728">
        <ele>20.8</ele>
        <time>2014-11-23T11:10:58Z</time>
      </trkpt>
      <trkpt lat="50.49591" lon="1.61741">
        <ele>20.8</ele>
        <time>2014-11-23T11:11:03Z</time>
      </trkpt>
      <trkpt lat="50.49589" lon="1.61756">
        <ele>20</ele>
        <time>2014-11-23T11:11:06Z</time>
      </trkpt>
      <trkpt lat="50.49588" lon="1.61763">
        <ele>19.2</ele>
        <time>2014-11-23T11:11:07Z</time>
      </trkpt>
      <trkpt lat="50.49587" lon="1.6177">
        <ele>18.6</ele>
        <time>2014-11-23T11:11:08Z</time>
      </trkpt>
      <trkpt lat="50.49587" lon="1.61779">
        <ele>17.8</ele>
        <time>2014-11-23T11:11:09Z</time>
      </trkpt>
      <trkpt lat="50.49585" lon="1.61796">
        <ele>16.4</ele>
        <time>2014-11-23T11:11:11Z</time>
      </trkpt>
      <trkpt lat="50.49586" lon="1.61804">
        <ele>16</ele>
        <time>2014-11-23T11:11:12Z</time>
      </trkpt>
      <trkpt lat="50.49586" lon="1.6182">
        <ele>15</ele>
        <time>2014-11-23T11:11:14Z</time>
      </trkpt>
      <trkpt lat="50.49587" lon="1.61827">
        <ele>14.8</ele>
        <time>2014-11-23T11:11:15Z</time>
      </trkpt>
      <trkpt lat="50.49589" lon="1.61836">
        <ele>14.2</ele>
        <time>2014-11-23T11:11:16Z</time>
      </trkpt>
      <trkpt lat="50.4959" lon="1.61845">
        <ele>13.6</ele>
        <time>2014-11-23T11:11:17Z</time>
      </trkpt>
      <trkpt lat="50.49591" lon="1.61863">
        <ele>12.6</ele>
        <time>2014-11-23T11:11:19Z</time>
      </trkpt>
      <trkpt lat="50.49592" lon="1.61869">
        <ele>12.2</ele>
        <time>2014-11-23T11:11:20Z</time>
      </trkpt>
      <trkpt lat="50.49594" lon="1.61883">
        <ele>11</ele>
        <time>2014-11-23T11:11:22Z</time>
      </trkpt>
      <trkpt lat="50.49595" lon="1.61892">
        <ele>10.6</ele>
        <time>2014-11-23T11:11:23Z</time>
      </trkpt>
      <trkpt lat="50.49596" lon="1.6191">
        <ele>9.8</ele>
        <time>2014-11-23T11:11:25Z</time>
      </trkpt>
      <trkpt lat="50.49604" lon="1.61924">
        <ele>9.4</ele>
        <time>2014-11-23T11:11:28Z</time>
      </trkpt>
      <trkpt lat="50.49612" lon="1.61921">
        <ele>10.2</ele>
        <time>2014-11-23T11:11:31Z</time>
      </trkpt>
      <trkpt lat="50.49616" lon="1.61922">
        <ele>10.8</ele>
        <time>2014-11-23T11:11:33Z</time>
      </trkpt>
      <trkpt lat="50.49618" lon="1.61924">
        <ele>10.8</ele>
        <time>2014-11-23T11:11:34Z</time>
      </trkpt>
      <trkpt lat="50.49627" lon="1.61926">
        <ele>11.4</ele>
        <time>2014-11-23T11:11:38Z</time>
      </trkpt>
      <trkpt lat="50.49632" lon="1.61931">
        <ele>11.6</ele>
        <time>2014-11-23T11:11:42Z</time>
      </trkpt>
      <trkpt lat="50.49633" lon="1.61933">
        <ele>11.6</ele>
        <time>2014-11-23T11:11:44Z</time>
      </trkpt>
      <trkpt lat="50.49633" lon="1.61935">
        <ele>11.8</ele>
        <time>2014-11-23T11:11:45Z</time>
      </trkpt>
      <trkpt lat="50.4964" lon="1.61942">
        <ele>11.2</ele>
        <time>2014-11-23T11:11:51Z</time>
      </trkpt>
      <trkpt lat="50.49645" lon="1.61944">
        <ele>10.8</ele>
        <time>2014-11-23T11:11:54Z</time>
      </trkpt>
      <trkpt lat="50.4965" lon="1.61944">
        <ele>10.8</ele>
        <time>2014-11-23T11:11:56Z</time>
      </trkpt>
      <trkpt lat="50.49654" lon="1.6194">
        <ele>11.2</ele>
        <time>2014-11-23T11:12:01Z</time>
      </trkpt>
      <trkpt lat="50.49658" lon="1.61937">
        <ele>11.8</ele>
        <time>2014-11-23T11:12:06Z</time>
      </trkpt>
      <trkpt lat="50.49659" lon="1.61934">
        <ele>12.2</ele>
        <time>2014-11-23T11:12:08Z</time>
      </trkpt>
      <trkpt lat="50.49662" lon="1.61932">
        <ele>12.4</ele>
        <time>2014-11-23T11:12:10Z</time>
      </trkpt>
      <trkpt lat="50.49666" lon="1.61928">
        <ele>13</ele>
        <time>2014-11-23T11:12:13Z</time>
      </trkpt>
      <trkpt lat="50.49667" lon="1.61926">
        <ele>13.2</ele>
        <time>2014-11-23T11:12:14Z</time>
      </trkpt>
      <trkpt lat="50.4967" lon="1.61921">
        <ele>14.2</ele>
        <time>2014-11-23T11:12:17Z</time>
      </trkpt>
      <trkpt lat="50.49673" lon="1.61915">
        <ele>15</ele>
        <time>2014-11-23T11:12:21Z</time>
      </trkpt>
      <trkpt lat="50.49674" lon="1.61911">
        <ele>15.4</ele>
        <time>2014-11-23T11:12:23Z</time>
      </trkpt>
      <trkpt lat="50.49676" lon="1.61905">
        <ele>16.6</ele>
        <time>2014-11-23T11:12:26Z</time>
      </trkpt>
      <trkpt lat="50.49676" lon="1.61903">
        <ele>17</ele>
        <time>2014-11-23T11:12:27Z</time>
      </trkpt>
      <trkpt lat="50.49678" lon="1.61899">
        <ele>17.8</ele>
        <time>2014-11-23T11:12:29Z</time>
      </trkpt>
      <trkpt lat="50.49682" lon="1.61895">
        <ele>18.6</ele>
        <time>2014-11-23T11:12:32Z</time>
      </trkpt>
      <trkpt lat="50.49692" lon="1.61887">
        <ele>17.8</ele>
        <time>2014-11-23T11:12:36Z</time>
      </trkpt>
      <trkpt lat="50.49704" lon="1.61883">
        <ele>17.2</ele>
        <time>2014-11-23T11:12:40Z</time>
      </trkpt>
      <trkpt lat="50.49708" lon="1.61883">
        <ele>16.8</ele>
        <time>2014-11-23T11:12:41Z</time>
      </trkpt>
      <trkpt lat="50.49714" lon="1.6188">
        <ele>16.8</ele>
        <time>2014-11-23T11:12:43Z</time>
      </trkpt>
      <trkpt lat="50.49716" lon="1.61876">
        <ele>16.6</ele>
        <time>2014-11-23T11:12:44Z</time>
      </trkpt>
      <trkpt lat="50.49718" lon="1.61858">
        <ele>16</ele>
        <time>2014-11-23T11:12:48Z</time>
      </trkpt>
      <trkpt lat="50.49719" lon="1.61853">
        <ele>15.8</ele>
        <time>2014-11-23T11:12:49Z</time>
      </trkpt>
      <trkpt lat="50.49719" lon="1.61832">
        <ele>16.4</ele>
        <time>2014-11-23T11:12:53Z</time>
      </trkpt>
      <trkpt lat="50.49719" lon="1.61806">
        <ele>16.8</ele>
        <time>2014-11-23T11:12:59Z</time>
      </trkpt>
      <trkpt lat="50.4972" lon="1.61801">
        <ele>16.8</ele>
        <time>2014-11-23T11:13:03Z</time>
      </trkpt>
      <trkpt lat="50.49721" lon="1.618">
        <ele>16.6</ele>
        <time>2014-11-23T11:13:15Z</time>
      </trkpt>
      <trkpt lat="50.49721" lon="1.618">
        <ele>16.8</ele>
        <time>2014-11-23T11:13:30Z</time>
      </trkpt>
      <trkpt lat="50.49721" lon="1.618">
        <ele>17</ele>
        <time>2014-11-23T11:13:41Z</time>
      </trkpt>
      <trkpt lat="50.4972" lon="1.61796">
        <ele>17.2</ele>
        <time>2014-11-23T11:13:55Z</time>
      </trkpt>
      <trkpt lat="50.4972" lon="1.61791">
        <ele>17</ele>
        <time>2014-11-23T11:13:57Z</time>
      </trkpt>
      <trkpt lat="50.49721" lon="1.61776">
        <ele>17.6</ele>
        <time>2014-11-23T11:14:00Z</time>
      </trkpt>
      <trkpt lat="50.49722" lon="1.61766">
        <ele>16.8</ele>
        <time>2014-11-23T11:14:02Z</time>
      </trkpt>
      <trkpt lat="50.49722" lon="1.61761">
        <ele>16.4</ele>
        <time>2014-11-23T11:14:03Z</time>
      </trkpt>
      <trkpt lat="50.49721" lon="1.61743">
        <ele>16</ele>
        <time>2014-11-23T11:14:06Z</time>
      </trkpt>
      <trkpt lat="50.49721" lon="1.61736">
        <ele>15.8</ele>
        <time>2014-11-23T11:14:07Z</time>
      </trkpt>
      <trkpt lat="50.49729" lon="1.61715">
        <ele>15.2</ele>
        <time>2014-11-23T11:14:10Z</time>
      </trkpt>
      <trkpt lat="50.49738" lon="1.61702">
        <ele>14.6</ele>
        <time>2014-11-23T11:14:12Z</time>
      </trkpt>
      <trkpt lat="50.49743" lon="1.61694">
        <ele>13.8</ele>
        <time>2014-11-23T11:14:13Z</time>
      </trkpt>
      <trkpt lat="50.49748" lon="1.61687">
        <ele>13.2</ele>
        <time>2014-11-23T11:14:14Z</time>
      </trkpt>
      <trkpt lat="50.49753" lon="1.6168">
        <ele>12.2</ele>
        <time>2014-11-23T11:14:15Z</time>
      </trkpt>
      <trkpt lat="50.49762" lon="1.61669">
        <ele>11.8</ele>
        <time>2014-11-23T11:14:17Z</time>
      </trkpt>
      <trkpt lat="50.49766" lon="1.61666">
        <ele>11.6</ele>
        <time>2014-11-23T11:14:18Z</time>
      </trkpt>
      <trkpt lat="50.49774" lon="1.61664">
        <ele>11</ele>
        <time>2014-11-23T11:14:20Z</time>
      </trkpt>
      <trkpt lat="50.4978" lon="1.61666">
        <ele>10.4</ele>
        <time>2014-11-23T11:14:21Z</time>
      </trkpt>
      <trkpt lat="50.49787" lon="1.61668">
        <ele>10.6</ele>
        <time>2014-11-23T11:14:22Z</time>
      </trkpt>
      <trkpt lat="50.49807" lon="1.61674">
        <ele>11</ele>
        <time>2014-11-23T11:14:25Z</time>
      </trkpt>
      <trkpt lat="50.49811" lon="1.61676">
        <ele>11.2</ele>
        <time>2014-11-23T11:14:26Z</time>
      </trkpt>
      <trkpt lat="50.49819" lon="1.61679">
        <ele>11.8</ele>
        <time>2014-11-23T11:14:28Z</time>
      </trkpt>
      <trkpt lat="50.49823" lon="1.61678">
        <ele>12.2</ele>
        <time>2014-11-23T11:14:29Z</time>
      </trkpt>
      <trkpt lat="50.49829" lon="1.61671">
        <ele>13</ele>
        <time>2014-11-23T11:14:32Z</time>
      </trkpt>
      <trkpt lat="50.4983" lon="1.61667">
        <ele>13.6</ele>
        <time>2014-11-23T11:14:33Z</time>
      </trkpt>
      <trkpt lat="50.49828" lon="1.61656">
        <ele>13.8</ele>
        <time>2014-11-23T11:14:36Z</time>
      </trkpt>
      <trkpt lat="50.49828" lon="1.61653">
        <ele>14.6</ele>
        <time>2014-11-23T11:14:37Z</time>
      </trkpt>
      <trkpt lat="50.49829" lon="1.61646">
        <ele>15.6</ele>
        <time>2014-11-23T11:14:39Z</time>
      </trkpt>
      <trkpt lat="50.49829" lon="1.61643">
        <ele>15.8</ele>
        <time>2014-11-23T11:14:40Z</time>
      </trkpt>
      <trkpt lat="50.49828" lon="1.61632">
        <ele>15.2</ele>
        <time>2014-11-23T11:14:42Z</time>
      </trkpt>
      <trkpt lat="50.49826" lon="1.61626">
        <ele>14.2</ele>
        <time>2014-11-23T11:14:43Z</time>
      </trkpt>
      <trkpt lat="50.49823" lon="1.61614">
        <ele>12.6</ele>
        <time>2014-11-23T11:14:45Z</time>
      </trkpt>
      <trkpt lat="50.4982" lon="1.616">
        <ele>13.6</ele>
        <time>2014-11-23T11:14:48Z</time>
      </trkpt>
      <trkpt lat="50.4982" lon="1.61598">
        <ele>14.2</ele>
        <time>2014-11-23T11:14:49Z</time>
      </trkpt>
      <trkpt lat="50.49823" lon="1.61589">
        <ele>15.6</ele>
        <time>2014-11-23T11:14:52Z</time>
      </trkpt>
      <trkpt lat="50.49824" lon="1.61586">
        <ele>16.2</ele>
        <time>2014-11-23T11:14:53Z</time>
      </trkpt>
      <trkpt lat="50.49823" lon="1.61572">
        <ele>14.8</ele>
        <time>2014-11-23T11:14:56Z</time>
      </trkpt>
      <trkpt lat="50.49822" lon="1.61566">
        <ele>13.4</ele>
        <time>2014-11-23T11:14:57Z</time>
      </trkpt>
      <trkpt lat="50.49818" lon="1.61551">
        <ele>12.6</ele>
        <time>2014-11-23T11:14:59Z</time>
      </trkpt>
      <trkpt lat="50.49818" lon="1.61542">
        <ele>12.4</ele>
        <time>2014-11-23T11:15:00Z</time>
      </trkpt>
      <trkpt lat="50.4982" lon="1.61522">
        <ele>12.6</ele>
        <time>2014-11-23T11:15:03Z</time>
      </trkpt>
      <trkpt lat="50.49821" lon="1.61516">
        <ele>13</ele>
        <time>2014-11-23T11:15:04Z</time>
      </trkpt>
      <trkpt lat="50.49826" lon="1.61477">
        <ele>12.8</ele>
        <time>2014-11-23T11:15:10Z</time>
      </trkpt>
      <trkpt lat="50.49827" lon="1.61446">
        <ele>12.2</ele>
        <time>2014-11-23T11:15:14Z</time>
      </trkpt>
      <trkpt lat="50.49827" lon="1.61438">
        <ele>11.8</ele>
        <time>2014-11-23T11:15:15Z</time>
      </trkpt>
      <trkpt lat="50.49827" lon="1.61424">
        <ele>11.8</ele>
        <time>2014-11-23T11:15:17Z</time>
      </trkpt>
      <trkpt lat="50.4983" lon="1.61412">
        <ele>12</ele>
        <time>2014-11-23T11:15:19Z</time>
      </trkpt>
      <trkpt lat="50.49838" lon="1.6141">
        <ele>12.8</ele>
        <time>2014-11-23T11:15:22Z</time>
      </trkpt>
      <trkpt lat="50.4984" lon="1.61411">
        <ele>13</ele>
        <time>2014-11-23T11:15:23Z</time>
      </trkpt>
      <trkpt lat="50.49842" lon="1.61413">
        <ele>13</ele>
        <time>2014-11-23T11:15:24Z</time>
      </trkpt>
      <trkpt lat="50.49846" lon="1.61419">
        <ele>13.2</ele>
        <time>2014-11-23T11:15:26Z</time>
      </trkpt>
      <trkpt lat="50.49848" lon="1.61422">
        <ele>13.4</ele>
        <time>2014-11-23T11:15:27Z</time>
      </trkpt>
      <trkpt lat="50.49859" lon="1.61431">
        <ele>14.4</ele>
        <time>2014-11-23T11:15:31Z</time>
      </trkpt>
      <trkpt lat="50.49868" lon="1.61441">
        <ele>15.6</ele>
        <time>2014-11-23T11:15:35Z</time>
      </trkpt>
      <trkpt lat="50.49869" lon="1.61444">
        <ele>15.6</ele>
        <time>2014-11-23T11:15:36Z</time>
      </trkpt>
      <trkpt lat="50.49871" lon="1.61459">
        <ele>15.4</ele>
        <time>2014-11-23T11:15:40Z</time>
      </trkpt>
      <trkpt lat="50.49876" lon="1.61471">
        <ele>15.4</ele>
        <time>2014-11-23T11:15:43Z</time>
      </trkpt>
      <trkpt lat="50.49883" lon="1.61489">
        <ele>14.8</ele>
        <time>2014-11-23T11:15:47Z</time>
      </trkpt>
      <trkpt lat="50.49888" lon="1.61505">
        <ele>14.2</ele>
        <time>2014-11-23T11:15:50Z</time>
      </trkpt>
      <trkpt lat="50.49892" lon="1.61516">
        <ele>14</ele>
        <time>2014-11-23T11:15:52Z</time>
      </trkpt>
      <trkpt lat="50.499" lon="1.61526">
        <ele>14.6</ele>
        <time>2014-11-23T11:15:55Z</time>
      </trkpt>
      <trkpt lat="50.49909" lon="1.61543">
        <ele>13.4</ele>
        <time>2014-11-23T11:15:59Z</time>
      </trkpt>
      <trkpt lat="50.49912" lon="1.61547">
        <ele>12.6</ele>
        <time>2014-11-23T11:16:00Z</time>
      </trkpt>
      <trkpt lat="50.49918" lon="1.6155">
        <ele>11.4</ele>
        <time>2014-11-23T11:16:02Z</time>
      </trkpt>
      <trkpt lat="50.49932" lon="1.61564">
        <ele>10.6</ele>
        <time>2014-11-23T11:16:07Z</time>
      </trkpt>
      <trkpt lat="50.49944" lon="1.61576">
        <ele>10.8</ele>
        <time>2014-11-23T11:16:11Z</time>
      </trkpt>
      <trkpt lat="50.49957" lon="1.61574">
        <ele>11</ele>
        <time>2014-11-23T11:16:14Z</time>
      </trkpt>
      <trkpt lat="50.49967" lon="1.61576">
        <ele>10</ele>
        <time>2014-11-23T11:16:16Z</time>
      </trkpt>
      <trkpt lat="50.49972" lon="1.61575">
        <ele>9.2</ele>
        <time>2014-11-23T11:16:17Z</time>
      </trkpt>
      <trkpt lat="50.49978" lon="1.61572">
        <ele>8.6</ele>
        <time>2014-11-23T11:16:18Z</time>
      </trkpt>
      <trkpt lat="50.49988" lon="1.61564">
        <ele>9.4</ele>
        <time>2014-11-23T11:16:20Z</time>
      </trkpt>
      <trkpt lat="50.50009" lon="1.61554">
        <ele>8.4</ele>
        <time>2014-11-23T11:16:24Z</time>
      </trkpt>
      <trkpt lat="50.50025" lon="1.61562">
        <ele>9</ele>
        <time>2014-11-23T11:16:27Z</time>
      </trkpt>
      <trkpt lat="50.50043" lon="1.61581">
        <ele>8.4</ele>
        <time>2014-11-23T11:16:31Z</time>
      </trkpt>
      <trkpt lat="50.50056" lon="1.61592">
        <ele>7.8</ele>
        <time>2014-11-23T11:16:34Z</time>
      </trkpt>
      <trkpt lat="50.50074" lon="1.61588">
        <ele>9</ele>
        <time>2014-11-23T11:16:38Z</time>
      </trkpt>
      <trkpt lat="50.50079" lon="1.61587">
        <ele>9.2</ele>
        <time>2014-11-23T11:16:39Z</time>
      </trkpt>
      <trkpt lat="50.50089" lon="1.61578">
        <ele>9</ele>
        <time>2014-11-23T11:16:42Z</time>
      </trkpt>
      <trkpt lat="50.5009" lon="1.61568">
        <ele>9.6</ele>
        <time>2014-11-23T11:16:44Z</time>
      </trkpt>
      <trkpt lat="50.5009" lon="1.61563">
        <ele>9.8</ele>
        <time>2014-11-23T11:16:45Z</time>
      </trkpt>
      <trkpt lat="50.50091" lon="1.61558">
        <ele>10</ele>
        <time>2014-11-23T11:16:46Z</time>
      </trkpt>
      <trkpt lat="50.50095" lon="1.61544">
        <ele>10.8</ele>
        <time>2014-11-23T11:16:49Z</time>
      </trkpt>
      <trkpt lat="50.50096" lon="1.61541">
        <ele>11.4</ele>
        <time>2014-11-23T11:16:50Z</time>
      </trkpt>
      <trkpt lat="50.50098" lon="1.61538">
        <ele>12</ele>
        <time>2014-11-23T11:16:51Z</time>
      </trkpt>
      <trkpt lat="50.50099" lon="1.61533">
        <ele>12.2</ele>
        <time>2014-11-23T11:16:52Z</time>
      </trkpt>
      <trkpt lat="50.50102" lon="1.61521">
        <ele>11.6</ele>
        <time>2014-11-23T11:16:54Z</time>
      </trkpt>
      <trkpt lat="50.50105" lon="1.61514">
        <ele>11</ele>
        <time>2014-11-23T11:16:55Z</time>
      </trkpt>
      <trkpt lat="50.50109" lon="1.61508">
        <ele>10.6</ele>
        <time>2014-11-23T11:16:56Z</time>
      </trkpt>
      <trkpt lat="50.50111" lon="1.615">
        <ele>10</ele>
        <time>2014-11-23T11:16:57Z</time>
      </trkpt>
      <trkpt lat="50.50113" lon="1.61491">
        <ele>9.6</ele>
        <time>2014-11-23T11:16:58Z</time>
      </trkpt>
      <trkpt lat="50.50117" lon="1.61476">
        <ele>10.2</ele>
        <time>2014-11-23T11:17:00Z</time>
      </trkpt>
      <trkpt lat="50.50122" lon="1.61464">
        <ele>10.8</ele>
        <time>2014-11-23T11:17:02Z</time>
      </trkpt>
      <trkpt lat="50.50131" lon="1.61448">
        <ele>10.4</ele>
        <time>2014-11-23T11:17:05Z</time>
      </trkpt>
      <trkpt lat="50.50133" lon="1.61442">
        <ele>9.8</ele>
        <time>2014-11-23T11:17:06Z</time>
      </trkpt>
      <trkpt lat="50.50136" lon="1.61436">
        <ele>9.8</ele>
        <time>2014-11-23T11:17:07Z</time>
      </trkpt>
      <trkpt lat="50.50144" lon="1.61412">
        <ele>9.4</ele>
        <time>2014-11-23T11:17:11Z</time>
      </trkpt>
      <trkpt lat="50.50148" lon="1.61408">
        <ele>9.6</ele>
        <time>2014-11-23T11:17:12Z</time>
      </trkpt>
      <trkpt lat="50.50158" lon="1.61398">
        <ele>9.6</ele>
        <time>2014-11-23T11:17:15Z</time>
      </trkpt>
      <trkpt lat="50.50162" lon="1.61395">
        <ele>9.8</ele>
        <time>2014-11-23T11:17:16Z</time>
      </trkpt>
      <trkpt lat="50.50165" lon="1.61391">
        <ele>9.8</ele>
        <time>2014-11-23T11:17:17Z</time>
      </trkpt>
      <trkpt lat="50.5018" lon="1.61377">
        <ele>9.4</ele>
        <time>2014-11-23T11:17:21Z</time>
      </trkpt>
      <trkpt lat="50.50186" lon="1.61366">
        <ele>9.2</ele>
        <time>2014-11-23T11:17:23Z</time>
      </trkpt>
      <trkpt lat="50.5019" lon="1.61362">
        <ele>9.2</ele>
        <time>2014-11-23T11:17:24Z</time>
      </trkpt>
      <trkpt lat="50.50194" lon="1.61358">
        <ele>9</ele>
        <time>2014-11-23T11:17:25Z</time>
      </trkpt>
      <trkpt lat="50.50198" lon="1.61353">
        <ele>8.6</ele>
        <time>2014-11-23T11:17:26Z</time>
      </trkpt>
      <trkpt lat="50.50208" lon="1.6133">
        <ele>8.6</ele>
        <time>2014-11-23T11:17:30Z</time>
      </trkpt>
      <trkpt lat="50.50218" lon="1.61306">
        <ele>8.4</ele>
        <time>2014-11-23T11:17:34Z</time>
      </trkpt>
      <trkpt lat="50.5022" lon="1.613">
        <ele>8.2</ele>
        <time>2014-11-23T11:17:35Z</time>
      </trkpt>
      <trkpt lat="50.50222" lon="1.61293">
        <ele>8</ele>
        <time>2014-11-23T11:17:36Z</time>
      </trkpt>
      <trkpt lat="50.50226" lon="1.61279">
        <ele>7.6</ele>
        <time>2014-11-23T11:17:38Z</time>
      </trkpt>
      <trkpt lat="50.50238" lon="1.61256">
        <ele>7</ele>
        <time>2014-11-23T11:17:42Z</time>
      </trkpt>
      <trkpt lat="50.5024" lon="1.61241">
        <ele>7</ele>
        <time>2014-11-23T11:17:45Z</time>
      </trkpt>
      <trkpt lat="50.50238" lon="1.61217">
        <ele>7</ele>
        <time>2014-11-23T11:17:49Z</time>
      </trkpt>
      <trkpt lat="50.50234" lon="1.61193">
        <ele>6.8</ele>
        <time>2014-11-23T11:17:52Z</time>
      </trkpt>
      <trkpt lat="50.50233" lon="1.61186">
        <ele>7.2</ele>
        <time>2014-11-23T11:17:53Z</time>
      </trkpt>
      <trkpt lat="50.50233" lon="1.61171">
        <ele>7.6</ele>
        <time>2014-11-23T11:17:55Z</time>
      </trkpt>
      <trkpt lat="50.50238" lon="1.6116">
        <ele>7.6</ele>
        <time>2014-11-23T11:17:57Z</time>
      </trkpt>
      <trkpt lat="50.50251" lon="1.61153">
        <ele>7.2</ele>
        <time>2014-11-23T11:18:00Z</time>
      </trkpt>
      <trkpt lat="50.50256" lon="1.6115">
        <ele>6.8</ele>
        <time>2014-11-23T11:18:01Z</time>
      </trkpt>
      <trkpt lat="50.50258" lon="1.61146">
        <ele>6.4</ele>
        <time>2014-11-23T11:18:02Z</time>
      </trkpt>
      <trkpt lat="50.5026" lon="1.61133">
        <ele>6.4</ele>
        <time>2014-11-23T11:18:04Z</time>
      </trkpt>
      <trkpt lat="50.50259" lon="1.61122">
        <ele>6.2</ele>
        <time>2014-11-23T11:18:06Z</time>
      </trkpt>
      <trkpt lat="50.50256" lon="1.61105">
        <ele>6.6</ele>
        <time>2014-11-23T11:18:10Z</time>
      </trkpt>
      <trkpt lat="50.50257" lon="1.61101">
        <ele>6.8</ele>
        <time>2014-11-23T11:18:17Z</time>
      </trkpt>
      <trkpt lat="50.50257" lon="1.611">
        <ele>7.6</ele>
        <time>2014-11-23T11:18:32Z</time>
      </trkpt>
      <trkpt lat="50.50257" lon="1.611">
        <ele>7.4</ele>
        <time>2014-11-23T11:18:45Z</time>
      </trkpt>
      <trkpt lat="50.50257" lon="1.611">
        <ele>7.4</ele>
        <time>2014-11-23T11:18:50Z</time>
      </trkpt>
      <trkpt lat="50.50256" lon="1.61092">
        <ele>7.4</ele>
        <time>2014-11-23T11:18:53Z</time>
      </trkpt>
      <trkpt lat="50.50255" lon="1.61089">
        <ele>7.6</ele>
        <time>2014-11-23T11:18:54Z</time>
      </trkpt>
      <trkpt lat="50.50253" lon="1.6107">
        <ele>7.8</ele>
        <time>2014-11-23T11:18:58Z</time>
      </trkpt>
      <trkpt lat="50.50253" lon="1.61041">
        <ele>7.2</ele>
        <time>2014-11-23T11:19:03Z</time>
      </trkpt>
      <trkpt lat="50.50252" lon="1.61033">
        <ele>7.2</ele>
        <time>2014-11-23T11:19:04Z</time>
      </trkpt>
      <trkpt lat="50.50253" lon="1.61014">
        <ele>7.4</ele>
        <time>2014-11-23T11:19:07Z</time>
      </trkpt>
      <trkpt lat="50.50253" lon="1.61008">
        <ele>7.6</ele>
        <time>2014-11-23T11:19:08Z</time>
      </trkpt>
      <trkpt lat="50.50262" lon="1.60986">
        <ele>7.2</ele>
        <time>2014-11-23T11:19:12Z</time>
      </trkpt>
      <trkpt lat="50.50278" lon="1.60973">
        <ele>7.6</ele>
        <time>2014-11-23T11:19:16Z</time>
      </trkpt>
      <trkpt lat="50.50281" lon="1.60972">
        <ele>7.6</ele>
        <time>2014-11-23T11:19:17Z</time>
      </trkpt>
      <trkpt lat="50.50285" lon="1.6097">
        <ele>7.8</ele>
        <time>2014-11-23T11:19:18Z</time>
      </trkpt>
      <trkpt lat="50.50296" lon="1.60971">
        <ele>7</ele>
        <time>2014-11-23T11:19:21Z</time>
      </trkpt>
      <trkpt lat="50.503" lon="1.60971">
        <ele>7</ele>
        <time>2014-11-23T11:19:22Z</time>
      </trkpt>
      <trkpt lat="50.50308" lon="1.60971">
        <ele>7</ele>
        <time>2014-11-23T11:19:24Z</time>
      </trkpt>
      <trkpt lat="50.50316" lon="1.60972">
        <ele>7</ele>
        <time>2014-11-23T11:19:26Z</time>
      </trkpt>
      <trkpt lat="50.50334" lon="1.60974">
        <ele>6.8</ele>
        <time>2014-11-23T11:19:31Z</time>
      </trkpt>
      <trkpt lat="50.50342" lon="1.60973">
        <ele>7.2</ele>
        <time>2014-11-23T11:19:33Z</time>
      </trkpt>
      <trkpt lat="50.50346" lon="1.60974">
        <ele>6.6</ele>
        <time>2014-11-23T11:19:34Z</time>
      </trkpt>
      <trkpt lat="50.50352" lon="1.60977">
        <ele>6.6</ele>
        <time>2014-11-23T11:19:36Z</time>
      </trkpt>
      <trkpt lat="50.50357" lon="1.60982">
        <ele>6.6</ele>
        <time>2014-11-23T11:19:38Z</time>
      </trkpt>
      <trkpt lat="50.5036" lon="1.60983">
        <ele>6.8</ele>
        <time>2014-11-23T11:19:39Z</time>
      </trkpt>
      <trkpt lat="50.50363" lon="1.60982">
        <ele>7</ele>
        <time>2014-11-23T11:19:40Z</time>
      </trkpt>
      <trkpt lat="50.50371" lon="1.60975">
        <ele>8</ele>
        <time>2014-11-23T11:19:44Z</time>
      </trkpt>
      <trkpt lat="50.50373" lon="1.60972">
        <ele>8.4</ele>
        <time>2014-11-23T11:19:45Z</time>
      </trkpt>
      <trkpt lat="50.50376" lon="1.60963">
        <ele>9.6</ele>
        <time>2014-11-23T11:19:48Z</time>
      </trkpt>
      <trkpt lat="50.50379" lon="1.60958">
        <ele>10.2</ele>
        <time>2014-11-23T11:19:50Z</time>
      </trkpt>
      <trkpt lat="50.50382" lon="1.60954">
        <ele>10.8</ele>
        <time>2014-11-23T11:19:52Z</time>
      </trkpt>
      <trkpt lat="50.50385" lon="1.60951">
        <ele>12</ele>
        <time>2014-11-23T11:19:54Z</time>
      </trkpt>
      <trkpt lat="50.50386" lon="1.60949">
        <ele>12.4</ele>
        <time>2014-11-23T11:19:55Z</time>
      </trkpt>
      <trkpt lat="50.50389" lon="1.60946">
        <ele>13</ele>
        <time>2014-11-23T11:19:57Z</time>
      </trkpt>
      <trkpt lat="50.50392" lon="1.6094">
        <ele>13.6</ele>
        <time>2014-11-23T11:20:00Z</time>
      </trkpt>
      <trkpt lat="50.50396" lon="1.60935">
        <ele>14.2</ele>
        <time>2014-11-23T11:20:02Z</time>
      </trkpt>
      <trkpt lat="50.50404" lon="1.60928">
        <ele>15.4</ele>
        <time>2014-11-23T11:20:06Z</time>
      </trkpt>
      <trkpt lat="50.5041" lon="1.6092">
        <ele>16.4</ele>
        <time>2014-11-23T11:20:10Z</time>
      </trkpt>
      <trkpt lat="50.50416" lon="1.60916">
        <ele>17</ele>
        <time>2014-11-23T11:20:13Z</time>
      </trkpt>
      <trkpt lat="50.50419" lon="1.60912">
        <ele>17.4</ele>
        <time>2014-11-23T11:20:15Z</time>
      </trkpt>
      <trkpt lat="50.50429" lon="1.60905">
        <ele>17.8</ele>
        <time>2014-11-23T11:20:20Z</time>
      </trkpt>
      <trkpt lat="50.50434" lon="1.60902">
        <ele>18.6</ele>
        <time>2014-11-23T11:20:23Z</time>
      </trkpt>
      <trkpt lat="50.50437" lon="1.60899">
        <ele>18.8</ele>
        <time>2014-11-23T11:20:25Z</time>
      </trkpt>
      <trkpt lat="50.50438" lon="1.60897">
        <ele>18.8</ele>
        <time>2014-11-23T11:20:26Z</time>
      </trkpt>
      <trkpt lat="50.50444" lon="1.60891">
        <ele>19</ele>
        <time>2014-11-23T11:20:30Z</time>
      </trkpt>
      <trkpt lat="50.50452" lon="1.60883">
        <ele>18.6</ele>
        <time>2014-11-23T11:20:34Z</time>
      </trkpt>
      <trkpt lat="50.50462" lon="1.60871">
        <ele>18.4</ele>
        <time>2014-11-23T11:20:39Z</time>
      </trkpt>
      <trkpt lat="50.50465" lon="1.60869">
        <ele>18.4</ele>
        <time>2014-11-23T11:20:40Z</time>
      </trkpt>
      <trkpt lat="50.50477" lon="1.60861">
        <ele>18.6</ele>
        <time>2014-11-23T11:20:45Z</time>
      </trkpt>
      <trkpt lat="50.50481" lon="1.60859">
        <ele>18.4</ele>
        <time>2014-11-23T11:20:46Z</time>
      </trkpt>
      <trkpt lat="50.5049" lon="1.60856">
        <ele>18</ele>
        <time>2014-11-23T11:20:49Z</time>
      </trkpt>
      <trkpt lat="50.50502" lon="1.60859">
        <ele>18</ele>
        <time>2014-11-23T11:20:53Z</time>
      </trkpt>
      <trkpt lat="50.50506" lon="1.60861">
        <ele>17.2</ele>
        <time>2014-11-23T11:20:54Z</time>
      </trkpt>
      <trkpt lat="50.50511" lon="1.6086">
        <ele>16.6</ele>
        <time>2014-11-23T11:20:55Z</time>
      </trkpt>
      <trkpt lat="50.50515" lon="1.60857">
        <ele>16.6</ele>
        <time>2014-11-23T11:20:56Z</time>
      </trkpt>
      <trkpt lat="50.50526" lon="1.60839">
        <ele>16.2</ele>
        <time>2014-11-23T11:21:00Z</time>
      </trkpt>
      <trkpt lat="50.50529" lon="1.60837">
        <ele>15.8</ele>
        <time>2014-11-23T11:21:01Z</time>
      </trkpt>
      <trkpt lat="50.50538" lon="1.60829">
        <ele>15.6</ele>
        <time>2014-11-23T11:21:04Z</time>
      </trkpt>
      <trkpt lat="50.50551" lon="1.60815">
        <ele>14.8</ele>
        <time>2014-11-23T11:21:08Z</time>
      </trkpt>
      <trkpt lat="50.50558" lon="1.60808">
        <ele>13.6</ele>
        <time>2014-11-23T11:21:11Z</time>
      </trkpt>
      <trkpt lat="50.50559" lon="1.60802">
        <ele>13.6</ele>
        <time>2014-11-23T11:21:12Z</time>
      </trkpt>
      <trkpt lat="50.50558" lon="1.60784">
        <ele>12.4</ele>
        <time>2014-11-23T11:21:15Z</time>
      </trkpt>
      <trkpt lat="50.50557" lon="1.60778">
        <ele>11.8</ele>
        <time>2014-11-23T11:21:16Z</time>
      </trkpt>
      <trkpt lat="50.50556" lon="1.60763">
        <ele>11.8</ele>
        <time>2014-11-23T11:21:18Z</time>
      </trkpt>
      <trkpt lat="50.50558" lon="1.60748">
        <ele>11.4</ele>
        <time>2014-11-23T11:21:20Z</time>
      </trkpt>
      <trkpt lat="50.50558" lon="1.6074">
        <ele>10.2</ele>
        <time>2014-11-23T11:21:21Z</time>
      </trkpt>
      <trkpt lat="50.50559" lon="1.60717">
        <ele>10.2</ele>
        <time>2014-11-23T11:21:24Z</time>
      </trkpt>
      <trkpt lat="50.50559" lon="1.60709">
        <ele>9.8</ele>
        <time>2014-11-23T11:21:25Z</time>
      </trkpt>
      <trkpt lat="50.50558" lon="1.60693">
        <ele>9</ele>
        <time>2014-11-23T11:21:27Z</time>
      </trkpt>
      <trkpt lat="50.50555" lon="1.60669">
        <ele>8.8</ele>
        <time>2014-11-23T11:21:30Z</time>
      </trkpt>
      <trkpt lat="50.50554" lon="1.60661">
        <ele>8</ele>
        <time>2014-11-23T11:21:31Z</time>
      </trkpt>
      <trkpt lat="50.50554" lon="1.60654">
        <ele>7.8</ele>
        <time>2014-11-23T11:21:32Z</time>
      </trkpt>
      <trkpt lat="50.50553" lon="1.60635">
        <ele>7.2</ele>
        <time>2014-11-23T11:21:35Z</time>
      </trkpt>
      <trkpt lat="50.50551" lon="1.60619">
        <ele>7.6</ele>
        <time>2014-11-23T11:21:37Z</time>
      </trkpt>
      <trkpt lat="50.50549" lon="1.60603">
        <ele>7.8</ele>
        <time>2014-11-23T11:21:39Z</time>
      </trkpt>
      <trkpt lat="50.50551" lon="1.60581">
        <ele>8</ele>
        <time>2014-11-23T11:21:42Z</time>
      </trkpt>
      <trkpt lat="50.50548" lon="1.60558">
        <ele>7</ele>
        <time>2014-11-23T11:21:46Z</time>
      </trkpt>
      <trkpt lat="50.5055" lon="1.60547">
        <ele>7.2</ele>
        <time>2014-11-23T11:21:48Z</time>
      </trkpt>
      <trkpt lat="50.50549" lon="1.60532">
        <ele>7.4</ele>
        <time>2014-11-23T11:21:51Z</time>
      </trkpt>
      <trkpt lat="50.5055" lon="1.60506">
        <ele>8</ele>
        <time>2014-11-23T11:21:56Z</time>
      </trkpt>
      <trkpt lat="50.50551" lon="1.60481">
        <ele>8</ele>
        <time>2014-11-23T11:22:01Z</time>
      </trkpt>
      <trkpt lat="50.50549" lon="1.60441">
        <ele>8</ele>
        <time>2014-11-23T11:22:08Z</time>
      </trkpt>
      <trkpt lat="50.50542" lon="1.60417">
        <ele>7.8</ele>
        <time>2014-11-23T11:22:13Z</time>
      </trkpt>
      <trkpt lat="50.50536" lon="1.60384">
        <ele>8.4</ele>
        <time>2014-11-23T11:22:19Z</time>
      </trkpt>
      <trkpt lat="50.50523" lon="1.6034">
        <ele>8.4</ele>
        <time>2014-11-23T11:22:26Z</time>
      </trkpt>
      <trkpt lat="50.5051" lon="1.60303">
        <ele>8.2</ele>
        <time>2014-11-23T11:22:33Z</time>
      </trkpt>
      <trkpt lat="50.50498" lon="1.60271">
        <ele>8</ele>
        <time>2014-11-23T11:22:40Z</time>
      </trkpt>
      <trkpt lat="50.50489" lon="1.60243">
        <ele>7.8</ele>
        <time>2014-11-23T11:22:46Z</time>
      </trkpt>
      <trkpt lat="50.50487" lon="1.60224">
        <ele>7.6</ele>
        <time>2014-11-23T11:22:51Z</time>
      </trkpt>
      <trkpt lat="50.50486" lon="1.602">
        <ele>8.2</ele>
        <time>2014-11-23T11:22:57Z</time>
      </trkpt>
      <trkpt lat="50.50485" lon="1.60178">
        <ele>8.2</ele>
        <time>2014-11-23T11:23:02Z</time>
      </trkpt>
      <trkpt lat="50.50483" lon="1.60158">
        <ele>8.2</ele>
        <time>2014-11-23T11:23:07Z</time>
      </trkpt>
      <trkpt lat="50.50482" lon="1.60139">
        <ele>7.8</ele>
        <time>2014-11-23T11:23:13Z</time>
      </trkpt>
      <trkpt lat="50.50482" lon="1.60117">
        <ele>8.2</ele>
        <time>2014-11-23T11:23:19Z</time>
      </trkpt>
      <trkpt lat="50.5048" lon="1.60097">
        <ele>8.2</ele>
        <time>2014-11-23T11:23:25Z</time>
      </trkpt>
      <trkpt lat="50.50478" lon="1.60077">
        <ele>7.8</ele>
        <time>2014-11-23T11:23:32Z</time>
      </trkpt>
      <trkpt lat="50.50478" lon="1.60074">
        <ele>7.8</ele>
        <time>2014-11-23T11:23:33Z</time>
      </trkpt>
      <trkpt lat="50.50478" lon="1.6006">
        <ele>7.8</ele>
        <time>2014-11-23T11:23:38Z</time>
      </trkpt>
      <trkpt lat="50.50479" lon="1.60037">
        <ele>8</ele>
        <time>2014-11-23T11:23:46Z</time>
      </trkpt>
      <trkpt lat="50.5048" lon="1.60019">
        <ele>8.4</ele>
        <time>2014-11-23T11:23:52Z</time>
      </trkpt>
      <trkpt lat="50.50478" lon="1.59998">
        <ele>8.4</ele>
        <time>2014-11-23T11:23:58Z</time>
      </trkpt>
      <trkpt lat="50.50476" lon="1.59977">
        <ele>8.6</ele>
        <time>2014-11-23T11:24:04Z</time>
      </trkpt>
      <trkpt lat="50.50475" lon="1.59945">
        <ele>8.4</ele>
        <time>2014-11-23T11:24:11Z</time>
      </trkpt>
      <trkpt lat="50.50474" lon="1.59906">
        <ele>8.8</ele>
        <time>2014-11-23T11:24:18Z</time>
      </trkpt>
      <trkpt lat="50.50472" lon="1.5988">
        <ele>8.6</ele>
        <time>2014-11-23T11:24:23Z</time>
      </trkpt>
      <trkpt lat="50.5047" lon="1.59854">
        <ele>8.8</ele>
        <time>2014-11-23T11:24:28Z</time>
      </trkpt>
      <trkpt lat="50.50469" lon="1.59826">
        <ele>8.8</ele>
        <time>2014-11-23T11:24:33Z</time>
      </trkpt>
      <trkpt lat="50.50469" lon="1.59813">
        <ele>8.8</ele>
        <time>2014-11-23T11:24:35Z</time>
      </trkpt>
      <trkpt lat="50.50468" lon="1.59792">
        <ele>9.2</ele>
        <time>2014-11-23T11:24:39Z</time>
      </trkpt>
      <trkpt lat="50.50466" lon="1.59765">
        <ele>10</ele>
        <time>2014-11-23T11:24:45Z</time>
      </trkpt>
      <trkpt lat="50.50465" lon="1.5976">
        <ele>10.4</ele>
        <time>2014-11-23T11:24:46Z</time>
      </trkpt>
      <trkpt lat="50.50465" lon="1.59747">
        <ele>11.2</ele>
        <time>2014-11-23T11:24:49Z</time>
      </trkpt>
      <trkpt lat="50.50466" lon="1.59735">
        <ele>12.4</ele>
        <time>2014-11-23T11:24:52Z</time>
      </trkpt>
      <trkpt lat="50.50466" lon="1.59731">
        <ele>13</ele>
        <time>2014-11-23T11:24:53Z</time>
      </trkpt>
      <trkpt lat="50.50466" lon="1.59728">
        <ele>13.8</ele>
        <time>2014-11-23T11:24:54Z</time>
      </trkpt>
      <trkpt lat="50.50466" lon="1.59713">
        <ele>15.2</ele>
        <time>2014-11-23T11:24:58Z</time>
      </trkpt>
      <trkpt lat="50.50466" lon="1.59709">
        <ele>15.2</ele>
        <time>2014-11-23T11:24:59Z</time>
      </trkpt>
      <trkpt lat="50.50469" lon="1.59689">
        <ele>15.8</ele>
        <time>2014-11-23T11:25:04Z</time>
      </trkpt>
      <trkpt lat="50.50469" lon="1.59685">
        <ele>16.4</ele>
        <time>2014-11-23T11:25:05Z</time>
      </trkpt>
      <trkpt lat="50.50469" lon="1.59678">
        <ele>17.8</ele>
        <time>2014-11-23T11:25:07Z</time>
      </trkpt>
      <trkpt lat="50.5047" lon="1.59662">
        <ele>18</ele>
        <time>2014-11-23T11:25:10Z</time>
      </trkpt>
      <trkpt lat="50.50469" lon="1.59657">
        <ele>17.8</ele>
        <time>2014-11-23T11:25:11Z</time>
      </trkpt>
      <trkpt lat="50.50467" lon="1.59639">
        <ele>17.2</ele>
        <time>2014-11-23T11:25:14Z</time>
      </trkpt>
      <trkpt lat="50.50475" lon="1.59613">
        <ele>15.8</ele>
        <time>2014-11-23T11:25:17Z</time>
      </trkpt>
      <trkpt lat="50.50481" lon="1.59595">
        <ele>15.8</ele>
        <time>2014-11-23T11:25:19Z</time>
      </trkpt>
      <trkpt lat="50.50488" lon="1.59588">
        <ele>16</ele>
        <time>2014-11-23T11:25:21Z</time>
      </trkpt>
      <trkpt lat="50.50496" lon="1.59584">
        <ele>16.4</ele>
        <time>2014-11-23T11:25:23Z</time>
      </trkpt>
      <trkpt lat="50.50501" lon="1.59583">
        <ele>16.4</ele>
        <time>2014-11-23T11:25:24Z</time>
      </trkpt>
      <trkpt lat="50.50505" lon="1.59584">
        <ele>16</ele>
        <time>2014-11-23T11:25:25Z</time>
      </trkpt>
      <trkpt lat="50.50516" lon="1.59596">
        <ele>15.4</ele>
        <time>2014-11-23T11:25:28Z</time>
      </trkpt>
      <trkpt lat="50.50527" lon="1.596">
        <ele>15.6</ele>
        <time>2014-11-23T11:25:31Z</time>
      </trkpt>
      <trkpt lat="50.5054" lon="1.59593">
        <ele>16.6</ele>
        <time>2014-11-23T11:25:35Z</time>
      </trkpt>
      <trkpt lat="50.50546" lon="1.59591">
        <ele>17</ele>
        <time>2014-11-23T11:25:37Z</time>
      </trkpt>
      <trkpt lat="50.50553" lon="1.59596">
        <ele>16.2</ele>
        <time>2014-11-23T11:25:39Z</time>
      </trkpt>
      <trkpt lat="50.50556" lon="1.59603">
        <ele>15.2</ele>
        <time>2014-11-23T11:25:40Z</time>
      </trkpt>
      <trkpt lat="50.50566" lon="1.59616">
        <ele>13.6</ele>
        <time>2014-11-23T11:25:42Z</time>
      </trkpt>
      <trkpt lat="50.50579" lon="1.59624">
        <ele>12.2</ele>
        <time>2014-11-23T11:25:44Z</time>
      </trkpt>
      <trkpt lat="50.50586" lon="1.59626">
        <ele>12</ele>
        <time>2014-11-23T11:25:45Z</time>
      </trkpt>
      <trkpt lat="50.50599" lon="1.59626">
        <ele>11.6</ele>
        <time>2014-11-23T11:25:47Z</time>
      </trkpt>
      <trkpt lat="50.50606" lon="1.59626">
        <ele>11.6</ele>
        <time>2014-11-23T11:25:48Z</time>
      </trkpt>
      <trkpt lat="50.50629" lon="1.59636">
        <ele>11.6</ele>
        <time>2014-11-23T11:25:53Z</time>
      </trkpt>
      <trkpt lat="50.50634" lon="1.59638">
        <ele>11.2</ele>
        <time>2014-11-23T11:25:54Z</time>
      </trkpt>
      <trkpt lat="50.50641" lon="1.59639">
        <ele>11.2</ele>
        <time>2014-11-23T11:25:55Z</time>
      </trkpt>
      <trkpt lat="50.50652" lon="1.5964">
        <ele>10.2</ele>
        <time>2014-11-23T11:25:57Z</time>
      </trkpt>
      <trkpt lat="50.50657" lon="1.59643">
        <ele>10.2</ele>
        <time>2014-11-23T11:25:58Z</time>
      </trkpt>
      <trkpt lat="50.50662" lon="1.59646">
        <ele>10</ele>
        <time>2014-11-23T11:25:59Z</time>
      </trkpt>
      <trkpt lat="50.50665" lon="1.59648">
        <ele>10</ele>
        <time>2014-11-23T11:26:00Z</time>
      </trkpt>
      <trkpt lat="50.50677" lon="1.59656">
        <ele>10.8</ele>
        <time>2014-11-23T11:26:04Z</time>
      </trkpt>
      <trkpt lat="50.50679" lon="1.59659">
        <ele>11.2</ele>
        <time>2014-11-23T11:26:05Z</time>
      </trkpt>
      <trkpt lat="50.5069" lon="1.59669">
        <ele>12.4</ele>
        <time>2014-11-23T11:26:09Z</time>
      </trkpt>
      <trkpt lat="50.50699" lon="1.5967">
        <ele>13.6</ele>
        <time>2014-11-23T11:26:12Z</time>
      </trkpt>
      <trkpt lat="50.50706" lon="1.59666">
        <ele>14</ele>
        <time>2014-11-23T11:26:14Z</time>
      </trkpt>
      <trkpt lat="50.50717" lon="1.59655">
        <ele>14.2</ele>
        <time>2014-11-23T11:26:17Z</time>
      </trkpt>
      <trkpt lat="50.50724" lon="1.59649">
        <ele>14.4</ele>
        <time>2014-11-23T11:26:19Z</time>
      </trkpt>
      <trkpt lat="50.50727" lon="1.59647">
        <ele>15</ele>
        <time>2014-11-23T11:26:20Z</time>
      </trkpt>
      <trkpt lat="50.50734" lon="1.59644">
        <ele>16.2</ele>
        <time>2014-11-23T11:26:23Z</time>
      </trkpt>
      <trkpt lat="50.50737" lon="1.59643">
        <ele>16.4</ele>
        <time>2014-11-23T11:26:24Z</time>
      </trkpt>
      <trkpt lat="50.50749" lon="1.59637">
        <ele>15.2</ele>
        <time>2014-11-23T11:26:28Z</time>
      </trkpt>
      <trkpt lat="50.50751" lon="1.59639">
        <ele>14.6</ele>
        <time>2014-11-23T11:26:29Z</time>
      </trkpt>
      <trkpt lat="50.50752" lon="1.59643">
        <ele>14</ele>
        <time>2014-11-23T11:26:30Z</time>
      </trkpt>
      <trkpt lat="50.50753" lon="1.59656">
        <ele>13.4</ele>
        <time>2014-11-23T11:26:32Z</time>
      </trkpt>
      <trkpt lat="50.50754" lon="1.59673">
        <ele>12.2</ele>
        <time>2014-11-23T11:26:34Z</time>
      </trkpt>
      <trkpt lat="50.50755" lon="1.59681">
        <ele>12</ele>
        <time>2014-11-23T11:26:35Z</time>
      </trkpt>
      <trkpt lat="50.50757" lon="1.59688">
        <ele>12.2</ele>
        <time>2014-11-23T11:26:36Z</time>
      </trkpt>
      <trkpt lat="50.50762" lon="1.59707">
        <ele>11.8</ele>
        <time>2014-11-23T11:26:39Z</time>
      </trkpt>
      <trkpt lat="50.50766" lon="1.59723">
        <ele>11</ele>
        <time>2014-11-23T11:26:41Z</time>
      </trkpt>
      <trkpt lat="50.50769" lon="1.5973">
        <ele>10.8</ele>
        <time>2014-11-23T11:26:42Z</time>
      </trkpt>
      <trkpt lat="50.50773" lon="1.59734">
        <ele>10.6</ele>
        <time>2014-11-23T11:26:43Z</time>
      </trkpt>
      <trkpt lat="50.50787" lon="1.59753">
        <ele>10</ele>
        <time>2014-11-23T11:26:47Z</time>
      </trkpt>
      <trkpt lat="50.50797" lon="1.59763">
        <ele>11</ele>
        <time>2014-11-23T11:26:51Z</time>
      </trkpt>
      <trkpt lat="50.50807" lon="1.59783">
        <ele>11.8</ele>
        <time>2014-11-23T11:26:57Z</time>
      </trkpt>
      <trkpt lat="50.50809" lon="1.59786">
        <ele>12</ele>
        <time>2014-11-23T11:26:58Z</time>
      </trkpt>
      <trkpt lat="50.50816" lon="1.5979">
        <ele>13.6</ele>
        <time>2014-11-23T11:27:01Z</time>
      </trkpt>
      <trkpt lat="50.50824" lon="1.59795">
        <ele>14.6</ele>
        <time>2014-11-23T11:27:05Z</time>
      </trkpt>
      <trkpt lat="50.50827" lon="1.59798">
        <ele>14.6</ele>
        <time>2014-11-23T11:27:06Z</time>
      </trkpt>
      <trkpt lat="50.50829" lon="1.598">
        <ele>14.8</ele>
        <time>2014-11-23T11:27:07Z</time>
      </trkpt>
      <trkpt lat="50.50837" lon="1.5981">
        <ele>15.2</ele>
        <time>2014-11-23T11:27:10Z</time>
      </trkpt>
      <trkpt lat="50.50842" lon="1.59821">
        <ele>15</ele>
        <time>2014-11-23T11:27:12Z</time>
      </trkpt>
      <trkpt lat="50.50854" lon="1.59828">
        <ele>15.4</ele>
        <time>2014-11-23T11:27:15Z</time>
      </trkpt>
      <trkpt lat="50.50857" lon="1.59829">
        <ele>16</ele>
        <time>2014-11-23T11:27:16Z</time>
      </trkpt>
      <trkpt lat="50.50866" lon="1.59833">
        <ele>16</ele>
        <time>2014-11-23T11:27:19Z</time>
      </trkpt>
      <trkpt lat="50.50878" lon="1.59834">
        <ele>14.8</ele>
        <time>2014-11-23T11:27:22Z</time>
      </trkpt>
      <trkpt lat="50.50885" lon="1.59833">
        <ele>14</ele>
        <time>2014-11-23T11:27:24Z</time>
      </trkpt>
      <trkpt lat="50.50889" lon="1.59832">
        <ele>13.6</ele>
        <time>2014-11-23T11:27:25Z</time>
      </trkpt>
      <trkpt lat="50.50897" lon="1.59834">
        <ele>12.2</ele>
        <time>2014-11-23T11:27:28Z</time>
      </trkpt>
      <trkpt lat="50.50904" lon="1.59838">
        <ele>11</ele>
        <time>2014-11-23T11:27:31Z</time>
      </trkpt>
      <trkpt lat="50.50907" lon="1.59839">
        <ele>10.8</ele>
        <time>2014-11-23T11:27:32Z</time>
      </trkpt>
      <trkpt lat="50.5091" lon="1.59838">
        <ele>10.4</ele>
        <time>2014-11-23T11:27:33Z</time>
      </trkpt>
      <trkpt lat="50.50917" lon="1.59834">
        <ele>10</ele>
        <time>2014-11-23T11:27:36Z</time>
      </trkpt>
      <trkpt lat="50.50918" lon="1.59833">
        <ele>10</ele>
        <time>2014-11-23T11:27:37Z</time>
      </trkpt>
      <trkpt lat="50.50921" lon="1.59831">
        <ele>10.2</ele>
        <time>2014-11-23T11:27:39Z</time>
      </trkpt>
      <trkpt lat="50.50922" lon="1.5983">
        <ele>10.2</ele>
        <time>2014-11-23T11:27:40Z</time>
      </trkpt>
      <trkpt lat="50.50926" lon="1.59832">
        <ele>10</ele>
        <time>2014-11-23T11:27:42Z</time>
      </trkpt>
      <trkpt lat="50.50934" lon="1.59836">
        <ele>10.4</ele>
        <time>2014-11-23T11:27:46Z</time>
      </trkpt>
      <trkpt lat="50.50937" lon="1.59836">
        <ele>10</ele>
        <time>2014-11-23T11:27:48Z</time>
      </trkpt>
      <trkpt lat="50.5094" lon="1.59838">
        <ele>9.6</ele>
        <time>2014-11-23T11:27:50Z</time>
      </trkpt>
      <trkpt lat="50.50946" lon="1.5984">
        <ele>9.2</ele>
        <time>2014-11-23T11:27:53Z</time>
      </trkpt>
      <trkpt lat="50.5095" lon="1.59842">
        <ele>9</ele>
        <time>2014-11-23T11:27:54Z</time>
      </trkpt>
      <trkpt lat="50.50963" lon="1.59848">
        <ele>8.8</ele>
        <time>2014-11-23T11:27:58Z</time>
      </trkpt>
      <trkpt lat="50.50983" lon="1.59859">
        <ele>9.4</ele>
        <time>2014-11-23T11:28:04Z</time>
      </trkpt>
      <trkpt lat="50.50998" lon="1.59875">
        <ele>9.8</ele>
        <time>2014-11-23T11:28:09Z</time>
      </trkpt>
      <trkpt lat="50.51001" lon="1.59878">
        <ele>10.4</ele>
        <time>2014-11-23T11:28:10Z</time>
      </trkpt>
      <trkpt lat="50.51013" lon="1.5989">
        <ele>11.4</ele>
        <time>2014-11-23T11:28:14Z</time>
      </trkpt>
      <trkpt lat="50.51018" lon="1.59896">
        <ele>12</ele>
        <time>2014-11-23T11:28:16Z</time>
      </trkpt>
      <trkpt lat="50.51027" lon="1.59905">
        <ele>13</ele>
        <time>2014-11-23T11:28:19Z</time>
      </trkpt>
      <trkpt lat="50.51038" lon="1.5992">
        <ele>14.2</ele>
        <time>2014-11-23T11:28:23Z</time>
      </trkpt>
      <trkpt lat="50.51055" lon="1.59928">
        <ele>15.4</ele>
        <time>2014-11-23T11:28:28Z</time>
      </trkpt>
      <trkpt lat="50.51069" lon="1.59939">
        <ele>16.2</ele>
        <time>2014-11-23T11:28:33Z</time>
      </trkpt>
      <trkpt lat="50.51074" lon="1.59941">
        <ele>16.6</ele>
        <time>2014-11-23T11:28:35Z</time>
      </trkpt>
      <trkpt lat="50.51083" lon="1.59943">
        <ele>16.4</ele>
        <time>2014-11-23T11:28:38Z</time>
      </trkpt>
      <trkpt lat="50.5109" lon="1.59946">
        <ele>16</ele>
        <time>2014-11-23T11:28:40Z</time>
      </trkpt>
      <trkpt lat="50.51094" lon="1.59949">
        <ele>15.4</ele>
        <time>2014-11-23T11:28:41Z</time>
      </trkpt>
      <trkpt lat="50.51099" lon="1.59953">
        <ele>14</ele>
        <time>2014-11-23T11:28:42Z</time>
      </trkpt>
      <trkpt lat="50.51111" lon="1.59961">
        <ele>12.6</ele>
        <time>2014-11-23T11:28:44Z</time>
      </trkpt>
      <trkpt lat="50.51123" lon="1.59972">
        <ele>12.2</ele>
        <time>2014-11-23T11:28:46Z</time>
      </trkpt>
      <trkpt lat="50.51133" lon="1.59987">
        <ele>11.6</ele>
        <time>2014-11-23T11:28:48Z</time>
      </trkpt>
      <trkpt lat="50.51137" lon="1.59996">
        <ele>11.4</ele>
        <time>2014-11-23T11:28:49Z</time>
      </trkpt>
      <trkpt lat="50.51142" lon="1.60013">
        <ele>11</ele>
        <time>2014-11-23T11:28:51Z</time>
      </trkpt>
      <trkpt lat="50.51144" lon="1.60022">
        <ele>11.6</ele>
        <time>2014-11-23T11:28:52Z</time>
      </trkpt>
      <trkpt lat="50.51146" lon="1.60038">
        <ele>11.8</ele>
        <time>2014-11-23T11:28:54Z</time>
      </trkpt>
      <trkpt lat="50.51148" lon="1.60061">
        <ele>11.8</ele>
        <time>2014-11-23T11:28:57Z</time>
      </trkpt>
      <trkpt lat="50.51153" lon="1.60075">
        <ele>10.6</ele>
        <time>2014-11-23T11:28:59Z</time>
      </trkpt>
      <trkpt lat="50.51156" lon="1.60078">
        <ele>10.2</ele>
        <time>2014-11-23T11:29:00Z</time>
      </trkpt>
      <trkpt lat="50.51165" lon="1.6008">
        <ele>10.4</ele>
        <time>2014-11-23T11:29:02Z</time>
      </trkpt>
      <trkpt lat="50.51185" lon="1.6008">
        <ele>11.4</ele>
        <time>2014-11-23T11:29:06Z</time>
      </trkpt>
      <trkpt lat="50.51189" lon="1.60078">
        <ele>11.4</ele>
        <time>2014-11-23T11:29:07Z</time>
      </trkpt>
      <trkpt lat="50.51194" lon="1.60076">
        <ele>11.4</ele>
        <time>2014-11-23T11:29:08Z</time>
      </trkpt>
      <trkpt lat="50.5122" lon="1.60064">
        <ele>12</ele>
        <time>2014-11-23T11:29:14Z</time>
      </trkpt>
      <trkpt lat="50.51233" lon="1.60058">
        <ele>13</ele>
        <time>2014-11-23T11:29:18Z</time>
      </trkpt>
      <trkpt lat="50.51239" lon="1.60055">
        <ele>13.6</ele>
        <time>2014-11-23T11:29:20Z</time>
      </trkpt>
      <trkpt lat="50.51245" lon="1.6005">
        <ele>14.2</ele>
        <time>2014-11-23T11:29:22Z</time>
      </trkpt>
      <trkpt lat="50.5126" lon="1.60042">
        <ele>15.2</ele>
        <time>2014-11-23T11:29:27Z</time>
      </trkpt>
      <trkpt lat="50.5127" lon="1.60036">
        <ele>16.4</ele>
        <time>2014-11-23T11:29:31Z</time>
      </trkpt>
      <trkpt lat="50.51273" lon="1.60033">
        <ele>16.6</ele>
        <time>2014-11-23T11:29:32Z</time>
      </trkpt>
      <trkpt lat="50.51278" lon="1.60028">
        <ele>17.4</ele>
        <time>2014-11-23T11:29:34Z</time>
      </trkpt>
      <trkpt lat="50.51292" lon="1.60021">
        <ele>18</ele>
        <time>2014-11-23T11:29:38Z</time>
      </trkpt>
      <trkpt lat="50.51299" lon="1.6002">
        <ele>18.4</ele>
        <time>2014-11-23T11:29:40Z</time>
      </trkpt>
      <trkpt lat="50.51308" lon="1.60011">
        <ele>18.4</ele>
        <time>2014-11-23T11:29:43Z</time>
      </trkpt>
      <trkpt lat="50.51319" lon="1.59993">
        <ele>16.8</ele>
        <time>2014-11-23T11:29:46Z</time>
      </trkpt>
      <trkpt lat="50.51323" lon="1.59986">
        <ele>16.4</ele>
        <time>2014-11-23T11:29:47Z</time>
      </trkpt>
      <trkpt lat="50.51332" lon="1.59963">
        <ele>15.8</ele>
        <time>2014-11-23T11:29:50Z</time>
      </trkpt>
      <trkpt lat="50.51335" lon="1.59956">
        <ele>15.4</ele>
        <time>2014-11-23T11:29:51Z</time>
      </trkpt>
      <trkpt lat="50.51348" lon="1.59941">
        <ele>15.6</ele>
        <time>2014-11-23T11:29:54Z</time>
      </trkpt>
      <trkpt lat="50.51353" lon="1.59937">
        <ele>14.8</ele>
        <time>2014-11-23T11:29:55Z</time>
      </trkpt>
      <trkpt lat="50.51358" lon="1.59933">
        <ele>14.2</ele>
        <time>2014-11-23T11:29:56Z</time>
      </trkpt>
      <trkpt lat="50.51362" lon="1.59928">
        <ele>14</ele>
        <time>2014-11-23T11:29:57Z</time>
      </trkpt>
      <trkpt lat="50.51368" lon="1.59922">
        <ele>13.2</ele>
        <time>2014-11-23T11:29:58Z</time>
      </trkpt>
      <trkpt lat="50.5138" lon="1.59912">
        <ele>12.2</ele>
        <time>2014-11-23T11:30:00Z</time>
      </trkpt>
      <trkpt lat="50.51385" lon="1.59906">
        <ele>11.8</ele>
        <time>2014-11-23T11:30:01Z</time>
      </trkpt>
      <trkpt lat="50.5139" lon="1.599">
        <ele>11.8</ele>
        <time>2014-11-23T11:30:02Z</time>
      </trkpt>
      <trkpt lat="50.51399" lon="1.59888">
        <ele>10.8</ele>
        <time>2014-11-23T11:30:04Z</time>
      </trkpt>
      <trkpt lat="50.51415" lon="1.5987">
        <ele>9.6</ele>
        <time>2014-11-23T11:30:07Z</time>
      </trkpt>
      <trkpt lat="50.5142" lon="1.59865">
        <ele>9</ele>
        <time>2014-11-23T11:30:08Z</time>
      </trkpt>
      <trkpt lat="50.51426" lon="1.59861">
        <ele>8.4</ele>
        <time>2014-11-23T11:30:09Z</time>
      </trkpt>
      <trkpt lat="50.51441" lon="1.59853">
        <ele>9.4</ele>
        <time>2014-11-23T11:30:12Z</time>
      </trkpt>
      <trkpt lat="50.51456" lon="1.59855">
        <ele>8.8</ele>
        <time>2014-11-23T11:30:16Z</time>
      </trkpt>
      <trkpt lat="50.51467" lon="1.59865">
        <ele>8.8</ele>
        <time>2014-11-23T11:30:20Z</time>
      </trkpt>
      <trkpt lat="50.51472" lon="1.5987">
        <ele>8.4</ele>
        <time>2014-11-23T11:30:22Z</time>
      </trkpt>
      <trkpt lat="50.51486" lon="1.59887">
        <ele>8.6</ele>
        <time>2014-11-23T11:30:28Z</time>
      </trkpt>
      <trkpt lat="50.51501" lon="1.59902">
        <ele>8.6</ele>
        <time>2014-11-23T11:30:35Z</time>
      </trkpt>
      <trkpt lat="50.51517" lon="1.59925">
        <ele>8.4</ele>
        <time>2014-11-23T11:30:43Z</time>
      </trkpt>
      <trkpt lat="50.51532" lon="1.59939">
        <ele>8.6</ele>
        <time>2014-11-23T11:30:49Z</time>
      </trkpt>
      <trkpt lat="50.51544" lon="1.59953">
        <ele>8</ele>
        <time>2014-11-23T11:30:55Z</time>
      </trkpt>
      <trkpt lat="50.51554" lon="1.59968">
        <ele>7.4</ele>
        <time>2014-11-23T11:31:00Z</time>
      </trkpt>
      <trkpt lat="50.51567" lon="1.59986">
        <ele>8</ele>
        <time>2014-11-23T11:31:07Z</time>
      </trkpt>
      <trkpt lat="50.51576" lon="1.59996">
        <ele>7.8</ele>
        <time>2014-11-23T11:31:12Z</time>
      </trkpt>
      <trkpt lat="50.5159" lon="1.60009">
        <ele>7.8</ele>
        <time>2014-11-23T11:31:20Z</time>
      </trkpt>
      <trkpt lat="50.51602" lon="1.60022">
        <ele>7.6</ele>
        <time>2014-11-23T11:31:28Z</time>
      </trkpt>
      <trkpt lat="50.51617" lon="1.60036">
        <ele>7.8</ele>
        <time>2014-11-23T11:31:34Z</time>
      </trkpt>
      <trkpt lat="50.51632" lon="1.6005">
        <ele>7.4</ele>
        <time>2014-11-23T11:31:40Z</time>
      </trkpt>
      <trkpt lat="50.51634" lon="1.60052">
        <ele>7.4</ele>
        <time>2014-11-23T11:31:41Z</time>
      </trkpt>
      <trkpt lat="50.51646" lon="1.60062">
        <ele>7.2</ele>
        <time>2014-11-23T11:31:46Z</time>
      </trkpt>
      <trkpt lat="50.51662" lon="1.60073">
        <ele>7</ele>
        <time>2014-11-23T11:31:52Z</time>
      </trkpt>
      <trkpt lat="50.51676" lon="1.60086">
        <ele>6.8</ele>
        <time>2014-11-23T11:31:58Z</time>
      </trkpt>
      <trkpt lat="50.51694" lon="1.60097">
        <ele>7.2</ele>
        <time>2014-11-23T11:32:04Z</time>
      </trkpt>
      <trkpt lat="50.51709" lon="1.60109">
        <ele>7.4</ele>
        <time>2014-11-23T11:32:11Z</time>
      </trkpt>
      <trkpt lat="50.51719" lon="1.60115">
        <ele>7.2</ele>
        <time>2014-11-23T11:32:18Z</time>
      </trkpt>
      <trkpt lat="50.51723" lon="1.60116">
        <ele>7.4</ele>
        <time>2014-11-23T11:32:21Z</time>
      </trkpt>
      <trkpt lat="50.5173" lon="1.60123">
        <ele>7.4</ele>
        <time>2014-11-23T11:32:25Z</time>
      </trkpt>
      <trkpt lat="50.51738" lon="1.6013">
        <ele>7.6</ele>
        <time>2014-11-23T11:32:31Z</time>
      </trkpt>
      <trkpt lat="50.51748" lon="1.60139">
        <ele>7.4</ele>
        <time>2014-11-23T11:32:37Z</time>
      </trkpt>
      <trkpt lat="50.5176" lon="1.60145">
        <ele>7.2</ele>
        <time>2014-11-23T11:32:43Z</time>
      </trkpt>
      <trkpt lat="50.51768" lon="1.60152">
        <ele>7.2</ele>
        <time>2014-11-23T11:32:48Z</time>
      </trkpt>
      <trkpt lat="50.51782" lon="1.60164">
        <ele>7</ele>
        <time>2014-11-23T11:32:54Z</time>
      </trkpt>
      <trkpt lat="50.51796" lon="1.60175">
        <ele>7.2</ele>
        <time>2014-11-23T11:33:01Z</time>
      </trkpt>
      <trkpt lat="50.5181" lon="1.60185">
        <ele>7</ele>
        <time>2014-11-23T11:33:09Z</time>
      </trkpt>
      <trkpt lat="50.5182" lon="1.60192">
        <ele>7</ele>
        <time>2014-11-23T11:33:15Z</time>
      </trkpt>
      <trkpt lat="50.51834" lon="1.60204">
        <ele>7.2</ele>
        <time>2014-11-23T11:33:23Z</time>
      </trkpt>
      <trkpt lat="50.51845" lon="1.6021">
        <ele>7.2</ele>
        <time>2014-11-23T11:33:29Z</time>
      </trkpt>
      <trkpt lat="50.51854" lon="1.60217">
        <ele>6.8</ele>
        <time>2014-11-23T11:33:35Z</time>
      </trkpt>
      <trkpt lat="50.51864" lon="1.60225">
        <ele>6.8</ele>
        <time>2014-11-23T11:33:42Z</time>
      </trkpt>
      <trkpt lat="50.51874" lon="1.60231">
        <ele>6.8</ele>
        <time>2014-11-23T11:33:48Z</time>
      </trkpt>
      <trkpt lat="50.51884" lon="1.6024">
        <ele>7</ele>
        <time>2014-11-23T11:33:55Z</time>
      </trkpt>
      <trkpt lat="50.51894" lon="1.60247">
        <ele>6.8</ele>
        <time>2014-11-23T11:34:01Z</time>
      </trkpt>
      <trkpt lat="50.51904" lon="1.60252">
        <ele>6.6</ele>
        <time>2014-11-23T11:34:06Z</time>
      </trkpt>
      <trkpt lat="50.51911" lon="1.60257">
        <ele>6.4</ele>
        <time>2014-11-23T11:34:10Z</time>
      </trkpt>
      <trkpt lat="50.51916" lon="1.60262">
        <ele>6.8</ele>
        <time>2014-11-23T11:34:13Z</time>
      </trkpt>
      <trkpt lat="50.5193" lon="1.60272">
        <ele>6.6</ele>
        <time>2014-11-23T11:34:21Z</time>
      </trkpt>
      <trkpt lat="50.51935" lon="1.60276">
        <ele>6.4</ele>
        <time>2014-11-23T11:34:25Z</time>
      </trkpt>
      <trkpt lat="50.51937" lon="1.60278">
        <ele>6.6</ele>
        <time>2014-11-23T11:34:27Z</time>
      </trkpt>
      <trkpt lat="50.51946" lon="1.60283">
        <ele>6.6</ele>
        <time>2014-11-23T11:34:33Z</time>
      </trkpt>
      <trkpt lat="50.51957" lon="1.6029">
        <ele>6.4</ele>
        <time>2014-11-23T11:34:40Z</time>
      </trkpt>
      <trkpt lat="50.51964" lon="1.60296">
        <ele>6.4</ele>
        <time>2014-11-23T11:34:45Z</time>
      </trkpt>
      <trkpt lat="50.51966" lon="1.60298">
        <ele>6.4</ele>
        <time>2014-11-23T11:34:46Z</time>
      </trkpt>
      <trkpt lat="50.51979" lon="1.60307">
        <ele>6.8</ele>
        <time>2014-11-23T11:34:53Z</time>
      </trkpt>
      <trkpt lat="50.51992" lon="1.60312">
        <ele>7</ele>
        <time>2014-11-23T11:35:00Z</time>
      </trkpt>
      <trkpt lat="50.52002" lon="1.60309">
        <ele>6.8</ele>
        <time>2014-11-23T11:35:05Z</time>
      </trkpt>
      <trkpt lat="50.52014" lon="1.60316">
        <ele>7</ele>
        <time>2014-11-23T11:35:09Z</time>
      </trkpt>
      <trkpt lat="50.52018" lon="1.60316">
        <ele>6.8</ele>
        <time>2014-11-23T11:35:10Z</time>
      </trkpt>
      <trkpt lat="50.52034" lon="1.60314">
        <ele>7</ele>
        <time>2014-11-23T11:35:15Z</time>
      </trkpt>
      <trkpt lat="50.52057" lon="1.60311">
        <ele>7.2</ele>
        <time>2014-11-23T11:35:21Z</time>
      </trkpt>
      <trkpt lat="50.52069" lon="1.60309">
        <ele>7.2</ele>
        <time>2014-11-23T11:35:24Z</time>
      </trkpt>
      <trkpt lat="50.52078" lon="1.60307">
        <ele>7</ele>
        <time>2014-11-23T11:35:26Z</time>
      </trkpt>
      <trkpt lat="50.52115" lon="1.60303">
        <ele>7</ele>
        <time>2014-11-23T11:35:34Z</time>
      </trkpt>
      <trkpt lat="50.52147" lon="1.603">
        <ele>7.2</ele>
        <time>2014-11-23T11:35:41Z</time>
      </trkpt>
      <trkpt lat="50.52181" lon="1.60296">
        <ele>7</ele>
        <time>2014-11-23T11:35:48Z</time>
      </trkpt>
      <trkpt lat="50.52214" lon="1.60287">
        <ele>7.6</ele>
        <time>2014-11-23T11:35:55Z</time>
      </trkpt>
      <trkpt lat="50.52218" lon="1.60284">
        <ele>7.6</ele>
        <time>2014-11-23T11:35:56Z</time>
      </trkpt>
      <trkpt lat="50.52234" lon="1.60272">
        <ele>7.2</ele>
        <time>2014-11-23T11:36:00Z</time>
      </trkpt>
      <trkpt lat="50.52238" lon="1.60268">
        <ele>7</ele>
        <time>2014-11-23T11:36:01Z</time>
      </trkpt>
      <trkpt lat="50.52268" lon="1.60234">
        <ele>6.8</ele>
        <time>2014-11-23T11:36:09Z</time>
      </trkpt>
      <trkpt lat="50.52278" lon="1.6022">
        <ele>6.6</ele>
        <time>2014-11-23T11:36:12Z</time>
      </trkpt>
      <trkpt lat="50.52288" lon="1.60209">
        <ele>6.8</ele>
        <time>2014-11-23T11:36:15Z</time>
      </trkpt>
      <trkpt lat="50.52309" lon="1.60185">
        <ele>6.2</ele>
        <time>2014-11-23T11:36:21Z</time>
      </trkpt>
      <trkpt lat="50.52319" lon="1.60178">
        <ele>7</ele>
        <time>2014-11-23T11:36:24Z</time>
      </trkpt>
      <trkpt lat="50.52322" lon="1.6018">
        <ele>7</ele>
        <time>2014-11-23T11:36:25Z</time>
      </trkpt>
      <trkpt lat="50.52331" lon="1.60192">
        <ele>7.2</ele>
        <time>2014-11-23T11:36:28Z</time>
      </trkpt>
      <trkpt lat="50.52333" lon="1.60197">
        <ele>7</ele>
        <time>2014-11-23T11:36:29Z</time>
      </trkpt>
      <trkpt lat="50.52352" lon="1.60231">
        <ele>6.8</ele>
        <time>2014-11-23T11:36:36Z</time>
      </trkpt>
      <trkpt lat="50.52363" lon="1.60253">
        <ele>7.2</ele>
        <time>2014-11-23T11:36:41Z</time>
      </trkpt>
      <trkpt lat="50.52378" lon="1.60282">
        <ele>6.8</ele>
        <time>2014-11-23T11:36:47Z</time>
      </trkpt>
      <trkpt lat="50.52396" lon="1.60316">
        <ele>6.6</ele>
        <time>2014-11-23T11:36:55Z</time>
      </trkpt>
      <trkpt lat="50.52412" lon="1.60329">
        <ele>6.6</ele>
        <time>2014-11-23T11:37:00Z</time>
      </trkpt>
      <trkpt lat="50.52424" lon="1.60349">
        <ele>6.4</ele>
        <time>2014-11-23T11:37:05Z</time>
      </trkpt>
      <trkpt lat="50.52433" lon="1.60372">
        <ele>6.4</ele>
        <time>2014-11-23T11:37:10Z</time>
      </trkpt>
      <trkpt lat="50.52436" lon="1.60374">
        <ele>6.4</ele>
        <time>2014-11-23T11:37:11Z</time>
      </trkpt>
      <trkpt lat="50.52454" lon="1.60388">
        <ele>6.2</ele>
        <time>2014-11-23T11:37:18Z</time>
      </trkpt>
      <trkpt lat="50.52459" lon="1.60396">
        <ele>6.6</ele>
        <time>2014-11-23T11:37:21Z</time>
      </trkpt>
      <trkpt lat="50.52458" lon="1.60398">
        <ele>6.6</ele>
        <time>2014-11-23T11:37:22Z</time>
      </trkpt>
      <trkpt lat="50.52458" lon="1.60399">
        <ele>6.2</ele>
        <time>2014-11-23T11:37:26Z</time>
      </trkpt>
      <trkpt lat="50.52457" lon="1.604">
        <ele>6.4</ele>
        <time>2014-11-23T11:37:28Z</time>
      </trkpt>
      <trkpt lat="50.52457" lon="1.60395">
        <ele>6.2</ele>
        <time>2014-11-23T11:37:31Z</time>
      </trkpt>
      <trkpt lat="50.52464" lon="1.60394">
        <ele>6.2</ele>
        <time>2014-11-23T11:37:34Z</time>
      </trkpt>
      <trkpt lat="50.52469" lon="1.60391">
        <ele>6.2</ele>
        <time>2014-11-23T11:37:36Z</time>
      </trkpt>
      <trkpt lat="50.52473" lon="1.60384">
        <ele>6.2</ele>
        <time>2014-11-23T11:37:38Z</time>
      </trkpt>
      <trkpt lat="50.52474" lon="1.60381">
        <ele>6.2</ele>
        <time>2014-11-23T11:37:39Z</time>
      </trkpt>
      <trkpt lat="50.5248" lon="1.60372">
        <ele>6</ele>
        <time>2014-11-23T11:37:44Z</time>
      </trkpt>
      <trkpt lat="50.52483" lon="1.60373">
        <ele>6</ele>
        <time>2014-11-23T11:37:51Z</time>
      </trkpt>
      <trkpt lat="50.52483" lon="1.60373">
        <ele>6.2</ele>
        <time>2014-11-23T11:38:03Z</time>
      </trkpt>
      <trkpt lat="50.52482" lon="1.60373">
        <ele>6.6</ele>
        <time>2014-11-23T11:38:40Z</time>
      </trkpt>
      <trkpt lat="50.52482" lon="1.60374">
        <ele>6.4</ele>
        <time>2014-11-23T11:38:46Z</time>
      </trkpt>
      <trkpt lat="50.52482" lon="1.60374">
        <ele>6.4</ele>
        <time>2014-11-23T11:39:01Z</time>
      </trkpt>
      <trkpt lat="50.52482" lon="1.60374">
        <ele>6</ele>
        <time>2014-11-23T11:39:17Z</time>
      </trkpt>
      <trkpt lat="50.52482" lon="1.60374">
        <ele>4.4</ele>
        <time>2014-11-23T11:39:25Z</time>
      </trkpt>
      <trkpt lat="50.52482" lon="1.60374">
        <ele>5.2</ele>
        <time>2014-11-23T11:39:36Z</time>
      </trkpt>
      <trkpt lat="50.52482" lon="1.60374">
        <ele>5.6</ele>
        <time>2014-11-23T11:39:44Z</time>
      </trkpt>
      <trkpt lat="50.52482" lon="1.60374">
        <ele>6.6</ele>
        <time>2014-11-23T11:39:49Z</time>
      </trkpt>
      <trkpt lat="50.5248" lon="1.60374">
        <ele>6.8</ele>
        <time>2014-11-23T11:39:52Z</time>
      </trkpt>
      <trkpt lat="50.52475" lon="1.60375">
        <ele>7.6</ele>
        <time>2014-11-23T11:39:59Z</time>
      </trkpt>
      <trkpt lat="50.52475" lon="1.60375">
        <ele>7.8</ele>
        <time>2014-11-23T11:40:00Z</time>
      </trkpt>
      <trkpt lat="50.52475" lon="1.60375">
        <ele>8.6</ele>
        <time>2014-11-23T11:40:12Z</time>
      </trkpt>
      <trkpt lat="50.52475" lon="1.60375">
        <ele>8.8</ele>
        <time>2014-11-23T11:40:13Z</time>
      </trkpt>
      <trkpt lat="50.52474" lon="1.6038">
        <ele>9.8</ele>
        <time>2014-11-23T11:40:17Z</time>
      </trkpt>
      <trkpt lat="50.52474" lon="1.60382">
        <ele>10.2</ele>
        <time>2014-11-23T11:40:18Z</time>
      </trkpt>
      <trkpt lat="50.52469" lon="1.60393">
        <ele>10.2</ele>
        <time>2014-11-23T11:40:25Z</time>
      </trkpt>
      <trkpt lat="50.52467" lon="1.60393">
        <ele>10.2</ele>
        <time>2014-11-23T11:40:27Z</time>
      </trkpt>
      <trkpt lat="50.52464" lon="1.60393">
        <ele>10</ele>
        <time>2014-11-23T11:40:30Z</time>
      </trkpt>
    </trkseg>
  </trk>
</gpx>